GFSSW_prec_precacc12_012.txt.gz
Total_Precipitation_Accumulation
0.00 0.00 0.00 0.00 0.01 0.01 0.00 0.00 0.01 0.01 0.03 0.04 0.03 0.04 0.01 0.00 0.01 0.02 0.02 0.00 0.00 0.00 0.00 0.00 0.00 0.00 0.00 0.00 0.00 0.00 0.00 0.00 0.00 0.00 0.00 0.00 0.00 0.00 0.00 0.00 0.00 0.00 0.00 0.00 0.00
0.00 0.00 0.00 0.00 0.01 0.01 0.02 0.01 0.01 0.01 0.01 0.02 0.03 0.05 0.04 0.02 0.01 0.01 0.00 0.00 0.00 0.00 0.00 0.00 0.00 0.00 0.00 0.00 0.00 0.00 0.00 0.00 0.00 0.00 0.00 0.00 0.00 0.00 0.00 0.00 0.00 0.00 0.00 0.00 0.00
0.00 0.01 0.02 0.03 0.02 0.01 0.02 0.03 0.03 0.04 0.03 0.02 0.02 0.04 0.07 0.05 0.02 0.00 0.00 0.00 0.00 0.00 0.01 0.00 0.00 0.00 0.00 0.00 0.00 0.00 0.00 0.00 0.00 0.00 0.00 0.00 0.00 0.00 0.00 0.00 0.00 0.00 0.00 0.00 0.00
0.02 0.02 0.05 0.06 0.04 0.06 0.09 0.07 0.04 0.03 0.03 0.05 0.06 0.07 0.11 0.11 0.01 0.00 0.00 0.00 0.00 0.01 0.04 0.01 0.00 0.00 0.00 0.00 0.00 0.00 0.00 0.00 0.00 0.00 0.00 0.00 0.00 0.00 0.00 0.00 0.00 0.00 0.00 0.00 0.00
0.03 0.02 0.01 0.02 0.03 0.01 0.01 0.05 0.06 0.06 0.06 0.09 0.12 0.13 0.18 0.10 0.02 0.00 0.00 0.00 0.00 0.04 0.04 0.02 0.00 0.00 0.00 0.00 0.00 0.00 0.00 0.00 0.00 0.00 0.00 0.00 0.00 0.00 0.00 0.00 0.00 0.00 0.00 0.00 0.00
0.01 0.01 0.00 0.00 0.00 0.00 0.00 0.02 0.05 0.07 0.11 0.08 0.12 0.28 0.16 0.03 0.00 0.00 0.01 0.00 0.00 0.02 0.07 0.02 0.00 0.00 0.00 0.00 0.00 0.00 0.00 0.00 0.00 0.00 0.00 0.00 0.00 0.00 0.00 0.00 0.00 0.00 0.00 0.00 0.00
0.04 0.02 0.00 0.00 0.00 0.00 0.00 0.00 0.01 0.07 0.19 0.19 0.16 0.26 0.11 0.01 0.00 0.00 0.03 0.01 0.00 0.02 0.07 0.01 0.00 0.00 0.00 0.00 0.00 0.00 0.00 0.00 0.00 0.00 0.00 0.00 0.00 0.00 0.00 0.00 0.00 0.00 0.00 0.00 0.00
0.06 0.03 0.01 0.02 0.02 0.02 0.04 0.03 0.02 0.05 0.10 0.21 0.37 0.43 0.06 0.01 0.01 0.00 0.03 0.07 0.01 0.04 0.21 0.18 0.05 0.00 0.00 0.00 0.00 0.00 0.00 0.00 0.00 0.00 0.00 0.00 0.00 0.00 0.00 0.00 0.00 0.00 0.00 0.00 0.00
0.05 0.04 0.10 0.18 0.04 0.01 0.02 0.09 0.16 0.24 0.22 0.35 0.44 0.26 0.02 0.04 0.06 0.00 0.03 0.09 0.01 0.03 0.18 0.30 0.09 0.00 0.00 0.00 0.00 0.00 0.00 0.00 0.00 0.00 0.00 0.00 0.00 0.00 0.00 0.00 0.00 0.00 0.00 0.00 0.00
0.05 0.08 0.17 0.31 0.21 0.08 0.04 0.23 0.44 0.85 0.43 0.43 0.33 0.24 0.02 0.03 0.04 0.04 0.07 0.15 0.02 0.04 0.29 0.47 0.26 0.03 0.01 0.01 0.01 0.00 0.00 0.00 0.00 0.00 0.00 0.00 0.00 0.00 0.00 0.00 0.00 0.00 0.00 0.00 0.00
0.08 0.06 0.09 0.17 0.25 0.21 0.23 0.59 0.53 0.58 0.17 0.06 0.07 0.07 0.03 0.06 0.13 0.17 0.13 0.19 0.09 0.06 0.26 0.51 0.32 0.11 0.01 0.00 0.00 0.00 0.00 0.00 0.00 0.00 0.00 0.00 0.00 0.00 0.00 0.00 0.00 0.00 0.00 0.00 0.00
0.05 0.06 0.12 0.13 0.26 0.46 0.56 0.59 0.24 0.14 0.15 0.18 0.02 0.06 0.17 0.29 0.27 0.46 0.22 0.22 0.08 0.04 0.15 0.49 0.26 0.05 0.00 0.00 0.00 0.00 0.00 0.00 0.00 0.00 0.00 0.00 0.00 0.00 0.00 0.00 0.00 0.00 0.00 0.00 0.00
0.09 0.14 0.24 0.24 0.24 0.42 0.38 0.62 0.37 0.29 0.61 0.32 0.04 0.11 0.23 0.61 0.35 0.63 0.30 0.26 0.06 0.04 0.09 0.21 0.15 0.02 0.01 0.00 0.00 0.00 0.00 0.00 0.00 0.00 0.00 0.00 0.00 0.00 0.00 0.00 0.00 0.00 0.00 0.00 0.00
0.14 0.27 0.40 0.41 0.52 0.34 0.51 0.51 0.39 0.43 0.43 0.37 0.24 0.27 0.40 0.84 0.46 0.53 0.38 0.31 0.15 0.07 0.09 0.11 0.09 0.03 0.03 0.01 0.00 0.00 0.00 0.00 0.00 0.00 0.00 0.00 0.00 0.00 0.00 0.00 0.00 0.00 0.00 0.00 0.00
0.09 0.22 0.47 0.76 0.90 0.65 0.77 0.67 0.61 0.67 0.45 0.50 0.50 0.50 0.65 0.74 0.46 0.49 0.46 0.40 0.13 0.08 0.06 0.08 0.07 0.05 0.06 0.02 0.00 0.00 0.00 0.00 0.00 0.00 0.00 0.00 0.00 0.00 0.00 0.00 0.00 0.00 0.00 0.00 0.00
0.02 0.16 0.53 1.15 1.29 0.90 0.83 0.60 0.71 0.77 0.62 0.48 0.55 0.71 0.54 0.56 0.36 0.44 0.59 0.38 0.15 0.05 0.02 0.01 0.01 0.01 0.02 0.00 0.00 0.00 0.00 0.00 0.00 0.00 0.00 0.00 0.00 0.00 0.00 0.00 0.00 0.00 0.00 0.00 0.00
0.00 0.03 0.20 0.59 1.00 1.02 0.76 0.70 0.68 0.40 0.43 0.41 0.56 0.45 0.42 0.45 0.32 0.34 0.70 0.57 0.24 0.06 0.05 0.03 0.01 0.00 0.00 0.01 0.01 0.00 0.00 0.00 0.00 0.00 0.00 0.00 0.00 0.00 0.00 0.00 0.00 0.00 0.00 0.00 0.00
0.00 0.01 0.02 0.11 0.94 1.05 0.92 0.75 0.43 0.22 0.28 0.41 0.39 0.42 0.42 0.35 0.24 0.29 0.47 0.40 0.12 0.00 0.01 0.03 0.04 0.01 0.00 0.00 0.02 0.00 0.00 0.00 0.00 0.00 0.00 0.00 0.00 0.00 0.00 0.00 0.00 0.00 0.00 0.00 0.00
0.00 0.00 0.01 0.01 0.60 1.01 0.85 0.54 0.26 0.11 0.14 0.39 0.45 0.50 0.41 0.22 0.20 0.29 0.42 0.19 0.06 0.00 0.00 0.00 0.00 0.00 0.00 0.00 0.01 0.00 0.00 0.00 0.00 0.00 0.00 0.00 0.00 0.00 0.00 0.00 0.00 0.00 0.00 0.00 0.00
0.00 0.00 0.00 0.02 0.29 0.84 0.74 0.44 0.34 0.16 0.14 0.13 0.27 0.35 0.17 0.12 0.13 0.22 0.34 0.13 0.01 0.00 0.00 0.00 0.00 0.00 0.00 0.00 0.00 0.00 0.00 0.00 0.00 0.00 0.00 0.00 0.00 0.00 0.00 0.00 0.00 0.00 0.00 0.00 0.00
0.00 0.00 0.00 0.06 0.19 0.66 0.60 0.50 0.34 0.15 0.13 0.18 0.07 0.07 0.01 0.04 0.04 0.10 0.16 0.08 0.00 0.00 0.00 0.00 0.00 0.00 0.00 0.00 0.00 0.00 0.00 0.00 0.00 0.00 0.00 0.00 0.00 0.00 0.00 0.00 0.00 0.00 0.00 0.00 0.00
0.00 0.00 0.02 0.08 0.20 0.33 0.55 0.46 0.23 0.19 0.20 0.13 0.04 0.01 0.02 0.02 0.03 0.08 0.07 0.02 0.00 0.00 0.00 0.00 0.00 0.00 0.00 0.00 0.00 0.00 0.00 0.00 0.00 0.00 0.00 0.00 0.00 0.00 0.00 0.00 0.00 0.00 0.00 0.00 0.00
0.00 0.00 0.01 0.06 0.09 0.17 0.23 0.27 0.26 0.29 0.15 0.05 0.04 0.03 0.01 0.01 0.04 0.05 0.03 0.00 0.00 0.00 0.00 0.00 0.00 0.00 0.00 0.00 0.00 0.00 0.00 0.00 0.00 0.00 0.00 0.00 0.00 0.00 0.00 0.00 0.00 0.00 0.00 0.00 0.00
0.00 0.00 0.01 0.01 0.01 0.06 0.09 0.21 0.29 0.19 0.05 0.02 0.03 0.02 0.01 0.00 0.01 0.01 0.01 0.00 0.00 0.00 0.00 0.00 0.00 0.00 0.00 0.00 0.00 0.00 0.00 0.00 0.00 0.00 0.00 0.00 0.00 0.00 0.00 0.00 0.00 0.00 0.00 0.00 0.00
0.00 0.00 0.00 0.00 0.00 0.01 0.01 0.10 0.11 0.09 0.05 0.04 0.04 0.02 0.01 0.00 0.00 0.00 0.00 0.00 0.00 0.00 0.00 0.00 0.00 0.00 0.00 0.00 0.00 0.00 0.00 0.00 0.00 0.00 0.00 0.00 0.00 0.00 0.00 0.00 0.00 0.00 0.00 0.00 0.00
0.00 0.00 0.00 0.00 0.00 0.00 0.00 0.03 0.02 0.01 0.03 0.04 0.01 0.01 0.01 0.01 0.00 0.00 0.00 0.00 0.00 0.00 0.00 0.00 0.00 0.00 0.00 0.00 0.00 0.00 0.00 0.00 0.00 0.00 0.00 0.00 0.00 0.00 0.00 0.00 0.00 0.00 0.00 0.00 0.00
0.00 0.00 0.00 0.00 0.00 0.00 0.00 0.00 0.00 0.00 0.02 0.01 0.00 0.01 0.01 0.00 0.00 0.00 0.00 0.00 0.00 0.00 0.00 0.00 0.00 0.00 0.00 0.00 0.00 0.00 0.00 0.00 0.00 0.00 0.00 0.00 0.00 0.00 0.00 0.00 0.00 0.00 0.00 0.00 0.00

GFSSW_prec_precacc12_015.txt.gz
Total_Precipitation_Accumulation
0.00 0.00 0.00 0.00 0.00 0.00 0.00 0.00 0.00 0.01 0.04 0.07 0.06 0.06 0.05 0.02 0.01 0.01 0.01 0.00 0.00 0.00 0.00 0.00 0.00 0.00 0.00 0.00 0.00 0.00 0.00 0.00 0.00 0.00 0.00 0.00 0.00 0.00 0.00 0.00 0.00 0.00 0.00 0.00 0.00
0.00 0.00 0.00 0.00 0.00 0.01 0.02 0.01 0.01 0.01 0.01 0.02 0.05 0.07 0.06 0.03 0.01 0.01 0.00 0.00 0.00 0.00 0.00 0.00 0.00 0.00 0.00 0.00 0.00 0.00 0.00 0.00 0.00 0.00 0.00 0.00 0.00 0.00 0.00 0.00 0.00 0.00 0.00 0.00 0.00
0.00 0.00 0.00 0.00 0.00 0.01 0.02 0.03 0.03 0.03 0.03 0.02 0.02 0.05 0.09 0.04 0.02 0.00 0.00 0.00 0.00 0.00 0.01 0.00 0.00 0.00 0.00 0.00 0.00 0.00 0.00 0.00 0.00 0.00 0.00 0.00 0.00 0.00 0.00 0.00 0.00 0.00 0.00 0.00 0.00
0.00 0.00 0.00 0.00 0.00 0.03 0.06 0.06 0.04 0.03 0.03 0.05 0.06 0.09 0.12 0.08 0.01 0.00 0.00 0.00 0.00 0.01 0.04 0.02 0.00 0.00 0.00 0.00 0.00 0.00 0.00 0.00 0.00 0.00 0.00 0.00 0.00 0.00 0.00 0.00 0.00 0.00 0.00 0.00 0.00
0.00 0.00 0.00 0.00 0.00 0.00 0.01 0.04 0.06 0.06 0.06 0.10 0.14 0.15 0.15 0.08 0.01 0.00 0.00 0.00 0.00 0.01 0.04 0.03 0.01 0.00 0.00 0.00 0.00 0.00 0.00 0.00 0.00 0.00 0.00 0.00 0.00 0.00 0.00 0.00 0.00 0.00 0.00 0.00 0.00
0.00 0.00 0.00 0.00 0.00 0.00 0.00 0.02 0.04 0.07 0.11 0.07 0.15 0.26 0.11 0.02 0.00 0.00 0.00 0.00 0.00 0.00 0.06 0.05 0.01 0.00 0.00 0.00 0.00 0.00 0.00 0.00 0.00 0.00 0.00 0.00 0.00 0.00 0.00 0.00 0.00 0.00 0.00 0.00 0.00
0.03 0.02 0.01 0.00 0.00 0.00 0.00 0.00 0.01 0.07 0.17 0.13 0.16 0.22 0.07 0.00 0.00 0.00 0.00 0.00 0.00 0.02 0.06 0.01 0.02 0.00 0.00 0.00 0.00 0.00 0.00 0.00 0.00 0.00 0.00 0.00 0.00 0.00 0.00 0.00 0.00 0.00 0.00 0.00 0.00
0.06 0.04 0.01 0.01 0.02 0.02 0.04 0.03 0.01 0.03 0.06 0.16 0.40 0.33 0.03 0.00 0.00 0.00 0.00 0.00 0.01 0.04 0.19 0.19 0.11 0.01 0.00 0.00 0.00 0.00 0.00 0.00 0.00 0.00 0.00 0.00 0.00 0.00 0.00 0.00 0.00 0.00 0.00 0.00 0.00
0.05 0.04 0.05 0.13 0.06 0.03 0.03 0.06 0.08 0.11 0.12 0.34 0.47 0.26 0.02 0.00 0.00 0.00 0.00 0.01 0.01 0.02 0.14 0.32 0.22 0.05 0.00 0.00 0.00 0.00 0.00 0.00 0.00 0.00 0.00 0.00 0.00 0.00 0.00 0.00 0.00 0.00 0.00 0.00 0.00
0.03 0.07 0.14 0.22 0.18 0.09 0.09 0.16 0.25 0.45 0.36 0.44 0.36 0.27 0.01 0.00 0.00 0.00 0.00 0.03 0.03 0.05 0.26 0.49 0.31 0.07 0.02 0.02 0.02 0.00 0.00 0.00 0.00 0.00 0.00 0.00 0.00 0.00 0.00 0.00 0.00 0.00 0.00 0.00 0.00
0.05 0.05 0.08 0.15 0.23 0.23 0.28 0.37 0.32 0.46 0.16 0.06 0.08 0.07 0.02 0.01 0.01 0.00 0.01 0.07 0.09 0.08 0.23 0.55 0.38 0.15 0.01 0.00 0.00 0.00 0.00 0.00 0.00 0.00 0.00 0.00 0.00 0.00 0.00 0.00 0.00 0.00 0.00 0.00 0.00
0.04 0.06 0.14 0.17 0.27 0.43 0.50 0.42 0.15 0.08 0.05 0.01 0.01 0.02 0.08 0.05 0.04 0.04 0.08 0.14 0.11 0.04 0.15 0.61 0.31 0.06 0.00 0.00 0.00 0.00 0.00 0.00 0.00 0.00 0.00 0.00 0.00 0.00 0.00 0.00 0.00 0.00 0.00 0.00 0.00
0.05 0.13 0.27 0.33 0.35 0.48 0.43 0.56 0.31 0.14 0.18 0.07 0.00 0.01 0.10 0.16 0.06 0.09 0.19 0.21 0.06 0.02 0.08 0.35 0.23 0.03 0.01 0.00 0.00 0.00 0.00 0.00 0.00 0.00 0.00 0.00 0.00 0.00 0.00 0.00 0.00 0.00 0.00 0.00 0.00
0.08 0.24 0.43 0.54 0.66 0.40 0.52 0.47 0.39 0.47 0.46 0.14 0.06 0.07 0.24 0.44 0.12 0.19 0.30 0.28 0.13 0.03 0.08 0.21 0.26 0.04 0.03 0.01 0.00 0.00 0.00 0.00 0.00 0.00 0.00 0.00 0.00 0.00 0.00 0.00 0.00 0.00 0.00 0.00 0.00
0.07 0.21 0.50 0.88 1.02 0.58 0.58 0.59 0.64 0.72 0.44 0.14 0.23 0.25 0.41 0.46 0.17 0.36 0.42 0.35 0.09 0.03 0.08 0.18 0.25 0.09 0.06 0.02 0.00 0.00 0.00 0.00 0.00 0.00 0.00 0.00 0.00 0.00 0.00 0.00 0.00 0.00 0.00 0.00 0.00
0.02 0.16 0.55 1.25 1.38 0.94 0.87 0.76 0.80 0.82 0.52 0.23 0.30 0.40 0.36 0.27 0.23 0.37 0.55 0.34 0.20 0.03 0.03 0.11 0.10 0.13 0.04 0.00 0.00 0.00 0.00 0.00 0.00 0.00 0.00 0.00 0.00 0.00 0.00 0.00 0.00 0.00 0.00 0.00 0.00
0.00 0.03 0.20 0.62 1.09 1.13 0.90 0.78 0.74 0.42 0.31 0.25 0.29 0.26 0.22 0.19 0.22 0.31 0.64 0.53 0.57 0.08 0.07 0.15 0.05 0.13 0.04 0.03 0.02 0.02 0.02 0.02 0.00 0.00 0.00 0.00 0.00 0.00 0.00 0.00 0.00 0.00 0.00 0.00 0.00
0.00 0.02 0.03 0.11 1.05 1.24 1.11 0.83 0.47 0.18 0.26 0.28 0.17 0.17 0.22 0.16 0.18 0.29 0.48 0.42 0.28 0.00 0.01 0.07 0.06 0.05 0.03 0.04 0.05 0.03 0.01 0.00 0.00 0.00 0.00 0.00 0.00 0.00 0.00 0.00 0.00 0.00 0.00 0.00 0.00
0.01 0.01 0.02 0.01 0.78 1.21 1.06 0.67 0.26 0.23 0.33 0.31 0.24 0.29 0.29 0.16 0.20 0.32 0.46 0.22 0.15 0.00 0.00 0.01 0.00 0.00 0.00 0.00 0.04 0.03 0.01 0.00 0.00 0.00 0.00 0.00 0.00 0.00 0.00 0.00 0.00 0.00 0.00 0.00 0.00
0.00 0.00 0.00 0.04 0.55 1.03 1.01 0.57 0.37 0.44 0.23 0.12 0.16 0.26 0.13 0.11 0.19 0.25 0.38 0.15 0.08 0.01 0.00 0.00 0.00 0.00 0.00 0.00 0.00 0.01 0.00 0.00 0.00 0.00 0.00 0.00 0.00 0.00 0.00 0.00 0.00 0.00 0.00 0.00 0.00
0.00 0.00 0.01 0.16 0.47 0.88 0.77 0.64 0.45 0.28 0.18 0.17 0.05 0.06 0.01 0.06 0.13 0.12 0.20 0.10 0.03 0.01 0.00 0.00 0.00 0.00 0.00 0.00 0.00 0.00 0.01 0.00 0.00 0.00 0.00 0.00 0.00 0.00 0.00 0.00 0.00 0.00 0.00 0.00 0.00
0.00 0.00 0.04 0.20 0.41 0.48 0.66 0.67 0.46 0.22 0.21 0.18 0.05 0.02 0.01 0.03 0.09 0.09 0.07 0.02 0.00 0.00 0.00 0.00 0.00 0.00 0.00 0.00 0.00 0.00 0.00 0.00 0.00 0.00 0.00 0.00 0.00 0.00 0.00 0.00 0.00 0.00 0.00 0.00 0.00
0.00 0.02 0.08 0.16 0.22 0.36 0.42 0.42 0.37 0.32 0.20 0.15 0.05 0.03 0.01 0.01 0.06 0.06 0.03 0.00 0.00 0.00 0.00 0.00 0.00 0.00 0.00 0.00 0.00 0.00 0.00 0.00 0.00 0.00 0.00 0.00 0.00 0.00 0.00 0.00 0.00 0.00 0.00 0.00 0.00
0.00 0.01 0.04 0.06 0.08 0.25 0.30 0.33 0.37 0.29 0.14 0.10 0.03 0.02 0.01 0.01 0.02 0.02 0.02 0.00 0.00 0.00 0.00 0.00 0.00 0.00 0.00 0.00 0.00 0.00 0.00 0.00 0.00 0.00 0.00 0.00 0.00 0.00 0.00 0.00 0.00 0.00 0.00 0.00 0.00
0.00 0.00 0.00 0.00 0.01 0.08 0.16 0.26 0.25 0.26 0.11 0.07 0.05 0.02 0.01 0.00 0.00 0.00 0.00 0.00 0.00 0.00 0.00 0.00 0.00 0.00 0.00 0.00 0.00 0.00 0.00 0.00 0.00 0.00 0.00 0.00 0.00 0.00 0.00 0.00 0.00 0.00 0.00 0.00 0.00
0.00 0.00 0.00 0.00 0.00 0.01 0.07 0.15 0.18 0.12 0.05 0.05 0.01 0.01 0.01 0.01 0.00 0.00 0.00 0.00 0.00 0.00 0.00 0.00 0.00 0.00 0.00 0.00 0.00 0.00 0.00 0.00 0.00 0.00 0.00 0.00 0.00 0.00 0.00 0.00 0.00 0.00 0.00 0.00 0.00
0.00 0.00 0.00 0.00 0.00 0.00 0.00 0.04 0.11 0.07 0.07 0.01 0.00 0.01 0.03 0.01 0.00 0.00 0.00 0.00 0.00 0.00 0.00 0.00 0.00 0.00 0.00 0.00 0.00 0.00 0.00 0.00 0.00 0.00 0.00 0.00 0.00 0.00 0.00 0.00 0.00 0.00 0.00 0.00 0.00

GFSSW_prec_precacc12_018.txt.gz
Total_Precipitation_Accumulation
0.00 0.00 0.00 0.00 0.00 0.00 0.00 0.00 0.00 0.01 0.04 0.07 0.08 0.09 0.06 0.04 0.01 0.01 0.01 0.00 0.00 0.00 0.00 0.00 0.00 0.00 0.00 0.00 0.00 0.00 0.00 0.00 0.00 0.00 0.00 0.00 0.00 0.00 0.00 0.00 0.00 0.00 0.00 0.00 0.00
0.00 0.00 0.00 0.00 0.00 0.00 0.00 0.00 0.01 0.01 0.01 0.02 0.04 0.08 0.08 0.04 0.01 0.01 0.00 0.00 0.00 0.00 0.00 0.00 0.00 0.00 0.00 0.00 0.00 0.00 0.00 0.00 0.00 0.00 0.00 0.00 0.00 0.00 0.00 0.00 0.00 0.00 0.00 0.00 0.00
0.00 0.00 0.00 0.00 0.00 0.00 0.01 0.01 0.02 0.03 0.02 0.02 0.02 0.05 0.10 0.03 0.01 0.00 0.00 0.00 0.00 0.00 0.01 0.01 0.00 0.00 0.00 0.00 0.00 0.00 0.00 0.00 0.00 0.00 0.00 0.00 0.00 0.00 0.00 0.00 0.00 0.00 0.00 0.00 0.00
0.00 0.00 0.00 0.00 0.00 0.00 0.01 0.03 0.03 0.03 0.03 0.04 0.06 0.09 0.13 0.06 0.01 0.00 0.00 0.00 0.00 0.00 0.04 0.02 0.01 0.01 0.01 0.00 0.00 0.00 0.00 0.00 0.00 0.00 0.00 0.00 0.00 0.00 0.00 0.00 0.00 0.00 0.00 0.00 0.00
0.00 0.00 0.00 0.00 0.00 0.00 0.01 0.03 0.03 0.05 0.07 0.10 0.14 0.15 0.12 0.07 0.01 0.00 0.00 0.00 0.00 0.00 0.04 0.04 0.03 0.02 0.02 0.00 0.00 0.00 0.00 0.00 0.00 0.00 0.00 0.00 0.00 0.00 0.00 0.00 0.00 0.00 0.00 0.00 0.00
0.00 0.00 0.00 0.00 0.00 0.00 0.00 0.01 0.02 0.04 0.11 0.07 0.15 0.22 0.08 0.02 0.00 0.00 0.00 0.00 0.00 0.00 0.04 0.06 0.03 0.01 0.01 0.01 0.00 0.00 0.00 0.00 0.00 0.00 0.00 0.00 0.00 0.00 0.00 0.00 0.00 0.00 0.00 0.00 0.00
0.01 0.01 0.01 0.00 0.00 0.00 0.00 0.00 0.00 0.05 0.16 0.14 0.17 0.17 0.06 0.00 0.00 0.00 0.00 0.00 0.00 0.01 0.04 0.01 0.04 0.03 0.00 0.01 0.00 0.00 0.00 0.00 0.00 0.00 0.00 0.00 0.00 0.00 0.00 0.00 0.00 0.00 0.00 0.00 0.00
0.04 0.03 0.01 0.01 0.02 0.03 0.05 0.03 0.03 0.03 0.06 0.11 0.34 0.26 0.03 0.00 0.00 0.00 0.00 0.00 0.00 0.01 0.13 0.16 0.12 0.07 0.01 0.00 0.00 0.00 0.01 0.00 0.00 0.00 0.00 0.00 0.00 0.00 0.00 0.00 0.00 0.00 0.00 0.00 0.00
0.03 0.03 0.04 0.05 0.06 0.05 0.06 0.08 0.07 0.09 0.11 0.25 0.32 0.20 0.02 0.00 0.00 0.00 0.00 0.00 0.00 0.01 0.10 0.24 0.22 0.11 0.03 0.01 0.01 0.01 0.01 0.00 0.00 0.00 0.00 0.00 0.00 0.00 0.00 0.00 0.00 0.00 0.00 0.00 0.00
0.01 0.02 0.08 0.13 0.10 0.07 0.11 0.17 0.11 0.16 0.23 0.32 0.30 0.23 0.01 0.00 0.00 0.00 0.00 0.00 0.03 0.08 0.22 0.36 0.25 0.19 0.09 0.04 0.03 0.00 0.00 0.00 0.00 0.00 0.00 0.00 0.00 0.00 0.00 0.00 0.00 0.00 0.00 0.00 0.00
0.01 0.02 0.04 0.10 0.14 0.21 0.34 0.23 0.16 0.13 0.10 0.05 0.07 0.06 0.02 0.02 0.01 0.00 0.00 0.00 0.04 0.17 0.27 0.41 0.35 0.25 0.11 0.01 0.00 0.00 0.00 0.00 0.00 0.00 0.00 0.00 0.00 0.00 0.00 0.00 0.00 0.00 0.00 0.00 0.00
0.02 0.05 0.13 0.16 0.18 0.36 0.50 0.20 0.10 0.05 0.04 0.01 0.01 0.02 0.07 0.05 0.07 0.06 0.01 0.02 0.07 0.17 0.25 0.54 0.31 0.11 0.03 0.01 0.00 0.00 0.00 0.00 0.00 0.00 0.00 0.00 0.00 0.00 0.00 0.00 0.00 0.00 0.00 0.00 0.00
0.03 0.12 0.27 0.33 0.35 0.38 0.37 0.32 0.30 0.15 0.26 0.09 0.00 0.01 0.04 0.08 0.06 0.17 0.04 0.06 0.06 0.14 0.22 0.36 0.27 0.13 0.03 0.01 0.01 0.00 0.00 0.00 0.00 0.00 0.00 0.00 0.00 0.00 0.00 0.00 0.00 0.00 0.00 0.00 0.00
0.04 0.20 0.41 0.52 0.62 0.39 0.51 0.50 0.39 0.43 0.54 0.10 0.02 0.01 0.06 0.15 0.07 0.14 0.06 0.16 0.14 0.10 0.12 0.24 0.37 0.13 0.09 0.01 0.01 0.01 0.00 0.00 0.00 0.00 0.00 0.00 0.00 0.00 0.00 0.00 0.00 0.00 0.00 0.00 0.00
0.04 0.17 0.48 0.79 0.88 0.46 0.46 0.56 0.64 0.82 0.52 0.02 0.03 0.06 0.08 0.10 0.10 0.12 0.11 0.22 0.17 0.04 0.19 0.28 0.44 0.14 0.08 0.02 0.00 0.00 0.00 0.00 0.00 0.00 0.00 0.00 0.00 0.00 0.00 0.00 0.00 0.00 0.00 0.00 0.00
0.01 0.10 0.45 1.04 1.01 0.65 0.75 0.78 0.90 0.97 0.53 0.15 0.18 0.17 0.14 0.08 0.16 0.23 0.27 0.26 0.34 0.04 0.03 0.16 0.34 0.20 0.05 0.00 0.00 0.00 0.00 0.00 0.00 0.00 0.00 0.00 0.00 0.00 0.00 0.00 0.00 0.00 0.00 0.00 0.00
0.00 0.02 0.15 0.54 0.91 0.83 0.89 0.84 0.82 0.51 0.31 0.29 0.26 0.18 0.14 0.08 0.18 0.23 0.41 0.47 0.91 0.14 0.16 0.29 0.39 0.37 0.05 0.04 0.02 0.02 0.03 0.03 0.01 0.00 0.00 0.00 0.00 0.00 0.00 0.00 0.00 0.00 0.00 0.00 0.00
0.01 0.02 0.03 0.11 0.97 0.94 1.01 0.80 0.50 0.16 0.27 0.33 0.17 0.16 0.13 0.11 0.16 0.28 0.40 0.39 0.44 0.01 0.08 0.25 0.27 0.38 0.09 0.04 0.06 0.04 0.02 0.01 0.00 0.00 0.00 0.00 0.00 0.00 0.00 0.00 0.00 0.00 0.00 0.00 0.00
0.04 0.02 0.03 0.02 0.77 1.06 1.06 0.74 0.22 0.24 0.38 0.33 0.16 0.21 0.16 0.11 0.18 0.32 0.42 0.22 0.19 0.01 0.09 0.05 0.10 0.18 0.09 0.01 0.05 0.07 0.02 0.00 0.00 0.00 0.00 0.00 0.00 0.00 0.00 0.00 0.00 0.00 0.00 0.00 0.00
0.02 0.00 0.00 0.04 0.58 1.14 1.11 0.58 0.29 0.46 0.34 0.18 0.08 0.18 0.06 0.10 0.21 0.26 0.36 0.16 0.08 0.01 0.01 0.00 0.03 0.09 0.13 0.07 0.03 0.03 0.01 0.00 0.00 0.00 0.00 0.00 0.00 0.00 0.00 0.00 0.00 0.00 0.00 0.00 0.00
0.01 0.00 0.01 0.20 0.61 1.02 0.85 0.56 0.37 0.23 0.24 0.16 0.03 0.04 0.00 0.06 0.14 0.15 0.20 0.11 0.03 0.01 0.00 0.00 0.00 0.01 0.05 0.07 0.01 0.02 0.02 0.02 0.00 0.00 0.00 0.00 0.00 0.00 0.00 0.00 0.00 0.00 0.00 0.00 0.00
0.00 0.00 0.05 0.27 0.53 0.55 0.71 0.65 0.41 0.14 0.20 0.18 0.03 0.00 0.00 0.02 0.09 0.12 0.07 0.02 0.00 0.00 0.00 0.00 0.00 0.00 0.01 0.00 0.00 0.00 0.00 0.00 0.00 0.00 0.00 0.00 0.00 0.00 0.00 0.00 0.00 0.00 0.00 0.00 0.00
0.00 0.04 0.16 0.23 0.28 0.39 0.49 0.49 0.37 0.25 0.19 0.26 0.05 0.02 0.00 0.01 0.06 0.06 0.03 0.00 0.00 0.00 0.00 0.00 0.00 0.00 0.00 0.00 0.00 0.00 0.00 0.00 0.00 0.00 0.00 0.00 0.00 0.00 0.00 0.00 0.00 0.00 0.00 0.00 0.00
0.00 0.03 0.11 0.12 0.13 0.39 0.50 0.50 0.45 0.30 0.16 0.25 0.05 0.02 0.00 0.01 0.02 0.03 0.02 0.00 0.00 0.00 0.00 0.00 0.00 0.00 0.00 0.00 0.00 0.00 0.00 0.00 0.00 0.00 0.00 0.00 0.00 0.00 0.00 0.00 0.00 0.00 0.00 0.00 0.00
0.00 0.00 0.00 0.01 0.03 0.16 0.37 0.51 0.43 0.39 0.19 0.28 0.09 0.02 0.01 0.01 0.01 0.01 0.00 0.00 0.00 0.00 0.00 0.00 0.00 0.00 0.00 0.00 0.00 0.00 0.00 0.00 0.00 0.00 0.00 0.00 0.00 0.00 0.00 0.00 0.00 0.00 0.00 0.00 0.00
0.00 0.00 0.00 0.00 0.00 0.04 0.21 0.29 0.30 0.24 0.16 0.10 0.03 0.01 0.01 0.01 0.00 0.00 0.00 0.00 0.00 0.00 0.00 0.00 0.00 0.00 0.00 0.00 0.00 0.00 0.00 0.00 0.00 0.00 0.00 0.00 0.00 0.00 0.00 0.00 0.00 0.00 0.00 0.00 0.00
0.00 0.00 0.00 0.00 0.00 0.04 0.06 0.16 0.23 0.20 0.12 0.01 0.01 0.01 0.04 0.01 0.00 0.00 0.00 0.00 0.00 0.00 0.00 0.00 0.00 0.00 0.00 0.00 0.00 0.00 0.00 0.00 0.00 0.00 0.00 0.00 0.00 0.00 0.00 0.00 0.00 0.00 0.00 0.00 0.00

GFSSW_prec_precacc12_021.txt.gz
Total_Precipitation_Accumulation
0.00 0.00 0.00 0.00 0.00 0.00 0.00 0.00 0.00 0.01 0.03 0.06 0.07 0.10 0.08 0.07 0.02 0.01 0.00 0.00 0.00 0.00 0.00 0.00 0.00 0.00 0.00 0.00 0.00 0.00 0.00 0.00 0.00 0.00 0.00 0.00 0.00 0.00 0.00 0.00 0.00 0.00 0.00 0.00 0.00
0.00 0.00 0.00 0.00 0.00 0.00 0.00 0.00 0.00 0.00 0.01 0.01 0.02 0.05 0.08 0.05 0.02 0.03 0.00 0.00 0.00 0.00 0.00 0.00 0.00 0.01 0.01 0.00 0.00 0.00 0.00 0.00 0.00 0.00 0.00 0.00 0.00 0.00 0.00 0.00 0.00 0.00 0.00 0.00 0.00
0.00 0.00 0.00 0.00 0.00 0.00 0.00 0.00 0.00 0.00 0.00 0.01 0.01 0.04 0.09 0.03 0.01 0.00 0.00 0.00 0.00 0.00 0.00 0.00 0.01 0.03 0.04 0.01 0.00 0.00 0.00 0.00 0.00 0.00 0.00 0.00 0.00 0.00 0.00 0.00 0.00 0.00 0.00 0.00 0.00
0.00 0.00 0.00 0.00 0.00 0.00 0.00 0.00 0.01 0.01 0.01 0.02 0.04 0.09 0.12 0.05 0.01 0.00 0.00 0.00 0.00 0.00 0.01 0.01 0.01 0.02 0.03 0.02 0.00 0.00 0.00 0.00 0.00 0.00 0.00 0.00 0.00 0.00 0.00 0.00 0.00 0.00 0.00 0.00 0.00
0.00 0.00 0.00 0.00 0.00 0.00 0.00 0.00 0.01 0.01 0.01 0.04 0.10 0.13 0.09 0.06 0.00 0.00 0.00 0.00 0.00 0.00 0.01 0.03 0.03 0.02 0.03 0.01 0.01 0.00 0.00 0.00 0.00 0.00 0.00 0.00 0.00 0.00 0.00 0.00 0.00 0.00 0.00 0.00 0.00
0.00 0.00 0.00 0.00 0.00 0.00 0.00 0.00 0.00 0.01 0.04 0.04 0.11 0.16 0.06 0.01 0.00 0.00 0.00 0.00 0.00 0.00 0.01 0.05 0.03 0.01 0.02 0.01 0.01 0.00 0.00 0.00 0.00 0.00 0.00 0.00 0.00 0.00 0.00 0.00 0.00 0.00 0.00 0.00 0.00
0.01 0.01 0.01 0.00 0.00 0.00 0.00 0.00 0.00 0.01 0.04 0.06 0.18 0.11 0.04 0.00 0.00 0.00 0.00 0.00 0.00 0.00 0.01 0.01 0.04 0.06 0.02 0.03 0.00 0.00 0.00 0.00 0.00 0.00 0.00 0.00 0.00 0.00 0.00 0.00 0.00 0.00 0.00 0.00 0.00
0.03 0.03 0.01 0.02 0.01 0.01 0.01 0.01 0.02 0.01 0.03 0.09 0.29 0.16 0.03 0.00 0.00 0.00 0.00 0.00 0.00 0.00 0.03 0.11 0.12 0.10 0.07 0.04 0.02 0.03 0.03 0.01 0.00 0.00 0.00 0.00 0.00 0.00 0.00 0.00 0.00 0.00 0.00 0.00 0.00
0.01 0.01 0.01 0.03 0.05 0.05 0.05 0.05 0.05 0.06 0.07 0.21 0.21 0.13 0.02 0.00 0.00 0.00 0.00 0.00 0.00 0.00 0.02 0.18 0.22 0.17 0.08 0.08 0.06 0.04 0.02 0.01 0.00 0.00 0.00 0.00 0.00 0.00 0.00 0.00 0.00 0.00 0.00 0.00 0.00
0.00 0.01 0.01 0.02 0.06 0.07 0.11 0.15 0.10 0.10 0.13 0.17 0.16 0.13 0.01 0.00 0.00 0.00 0.00 0.00 0.03 0.09 0.13 0.23 0.23 0.23 0.14 0.11 0.05 0.01 0.01 0.00 0.00 0.00 0.00 0.00 0.00 0.00 0.00 0.00 0.00 0.00 0.00 0.00 0.00
0.00 0.01 0.03 0.05 0.05 0.15 0.29 0.17 0.05 0.05 0.06 0.01 0.02 0.01 0.01 0.02 0.01 0.00 0.00 0.00 0.03 0.19 0.20 0.32 0.27 0.24 0.15 0.06 0.01 0.00 0.00 0.00 0.00 0.00 0.00 0.00 0.00 0.00 0.00 0.00 0.00 0.00 0.00 0.00 0.00
0.01 0.05 0.12 0.15 0.14 0.27 0.49 0.08 0.01 0.01 0.02 0.00 0.01 0.01 0.03 0.05 0.07 0.05 0.00 0.01 0.06 0.17 0.25 0.55 0.25 0.10 0.10 0.05 0.03 0.01 0.00 0.00 0.00 0.00 0.00 0.00 0.00 0.00 0.00 0.00 0.00 0.00 0.00 0.00 0.00
0.01 0.08 0.20 0.29 0.31 0.31 0.33 0.13 0.10 0.12 0.31 0.11 0.00 0.02 0.03 0.07 0.06 0.19 0.00 0.03 0.05 0.15 0.31 0.53 0.29 0.12 0.11 0.18 0.05 0.02 0.00 0.00 0.00 0.00 0.00 0.00 0.00 0.00 0.00 0.00 0.00 0.00 0.00 0.00 0.00
0.01 0.11 0.27 0.42 0.44 0.30 0.33 0.32 0.35 0.47 0.83 0.14 0.01 0.01 0.05 0.17 0.08 0.10 0.02 0.08 0.14 0.13 0.20 0.34 0.40 0.16 0.15 0.27 0.08 0.01 0.00 0.00 0.00 0.00 0.01 0.00 0.00 0.00 0.00 0.00 0.00 0.00 0.00 0.00 0.00
0.00 0.04 0.29 0.55 0.47 0.30 0.27 0.52 0.66 0.82 0.64 0.02 0.01 0.03 0.03 0.08 0.11 0.07 0.03 0.08 0.20 0.13 0.36 0.45 0.47 0.20 0.25 0.20 0.07 0.01 0.00 0.00 0.00 0.00 0.00 0.00 0.00 0.00 0.00 0.00 0.00 0.00 0.00 0.00 0.00
0.01 0.01 0.18 0.60 0.51 0.39 0.42 0.64 0.74 0.84 0.47 0.07 0.11 0.10 0.06 0.02 0.11 0.22 0.11 0.16 0.38 0.23 0.15 0.18 0.38 0.25 0.19 0.09 0.05 0.01 0.01 0.01 0.00 0.00 0.00 0.00 0.00 0.00 0.00 0.00 0.00 0.00 0.00 0.00 0.00
0.02 0.02 0.04 0.36 0.56 0.57 0.64 0.64 0.72 0.48 0.28 0.22 0.15 0.07 0.02 0.01 0.12 0.18 0.19 0.30 1.03 0.38 0.37 0.40 0.60 0.47 0.17 0.19 0.12 0.05 0.05 0.06 0.03 0.01 0.00 0.00 0.00 0.00 0.00 0.00 0.00 0.00 0.00 0.00 0.00
0.03 0.05 0.04 0.07 0.57 0.66 0.80 0.74 0.45 0.14 0.26 0.36 0.10 0.04 0.02 0.06 0.10 0.13 0.23 0.30 0.48 0.15 0.27 0.38 0.58 0.59 0.23 0.32 0.18 0.06 0.03 0.02 0.01 0.00 0.00 0.00 0.00 0.00 0.00 0.00 0.00 0.00 0.00 0.00 0.00
0.08 0.05 0.06 0.02 0.54 0.72 0.88 0.66 0.22 0.27 0.43 0.38 0.18 0.08 0.03 0.10 0.10 0.13 0.25 0.17 0.19 0.10 0.30 0.11 0.46 0.46 0.16 0.16 0.06 0.08 0.02 0.00 0.00 0.00 0.00 0.00 0.00 0.00 0.00 0.00 0.00 0.00 0.00 0.00 0.00
0.05 0.06 0.03 0.05 0.48 0.89 1.07 0.54 0.31 0.52 0.43 0.31 0.15 0.09 0.02 0.09 0.14 0.12 0.22 0.11 0.08 0.03 0.15 0.08 0.45 0.49 0.22 0.13 0.04 0.03 0.01 0.00 0.00 0.00 0.00 0.00 0.00 0.00 0.00 0.00 0.00 0.00 0.00 0.00 0.00
0.03 0.05 0.02 0.20 0.63 0.95 0.78 0.57 0.38 0.29 0.29 0.21 0.05 0.04 0.00 0.05 0.12 0.10 0.15 0.09 0.03 0.02 0.08 0.11 0.32 0.43 0.24 0.17 0.05 0.02 0.03 0.02 0.00 0.00 0.00 0.00 0.00 0.00 0.00 0.00 0.00 0.00 0.00 0.00 0.00
0.03 0.03 0.06 0.28 0.58 0.51 0.55 0.65 0.39 0.16 0.21 0.23 0.04 0.00 0.00 0.02 0.08 0.11 0.07 0.02 0.00 0.01 0.02 0.04 0.09 0.27 0.18 0.04 0.00 0.00 0.00 0.00 0.00 0.00 0.00 0.00 0.00 0.00 0.00 0.00 0.00 0.00 0.00 0.00 0.00
0.02 0.06 0.25 0.27 0.31 0.39 0.46 0.38 0.28 0.17 0.22 0.29 0.05 0.01 0.00 0.01 0.05 0.06 0.03 0.00 0.00 0.00 0.00 0.01 0.01 0.11 0.17 0.10 0.02 0.01 0.00 0.00 0.00 0.00 0.00 0.00 0.00 0.00 0.00 0.00 0.00 0.00 0.00 0.00 0.00
0.02 0.06 0.20 0.22 0.14 0.41 0.55 0.45 0.35 0.23 0.19 0.29 0.07 0.01 0.00 0.01 0.02 0.03 0.02 0.00 0.00 0.00 0.00 0.00 0.00 0.00 0.02 0.03 0.01 0.00 0.00 0.00 0.00 0.00 0.00 0.00 0.00 0.00 0.00 0.00 0.00 0.00 0.00 0.00 0.00
0.02 0.01 0.01 0.04 0.03 0.17 0.44 0.59 0.52 0.46 0.20 0.35 0.21 0.01 0.00 0.00 0.02 0.01 0.00 0.00 0.00 0.00 0.00 0.00 0.00 0.00 0.00 0.00 0.00 0.00 0.00 0.00 0.00 0.00 0.00 0.00 0.00 0.00 0.00 0.00 0.00 0.00 0.00 0.00 0.00
0.02 0.00 0.00 0.00 0.00 0.05 0.30 0.38 0.38 0.34 0.22 0.17 0.11 0.00 0.01 0.00 0.00 0.00 0.00 0.00 0.00 0.00 0.00 0.00 0.00 0.00 0.00 0.00 0.00 0.00 0.00 0.00 0.00 0.00 0.00 0.00 0.00 0.00 0.00 0.00 0.00 0.00 0.00 0.00 0.00
0.01 0.00 0.00 0.00 0.00 0.05 0.10 0.29 0.40 0.29 0.16 0.03 0.02 0.00 0.03 0.01 0.00 0.00 0.00 0.00 0.00 0.00 0.00 0.00 0.00 0.00 0.00 0.00 0.00 0.00 0.00 0.00 0.00 0.00 0.00 0.00 0.00 0.00 0.00 0.00 0.00 0.00 0.00 0.00 0.00

GFSSW_prec_precacc12_024.txt.gz
Total_Precipitation_Accumulation
0.00 0.00 0.00 0.00 0.00 0.00 0.00 0.00 0.00 0.01 0.03 0.05 0.06 0.07 0.07 0.08 0.03 0.01 0.00 0.00 0.00 0.00 0.00 0.00 0.00 0.00 0.00 0.00 0.00 0.00 0.00 0.00 0.00 0.00 0.00 0.00 0.00 0.00 0.00 0.00 0.00 0.00 0.00 0.00 0.00
0.00 0.00 0.00 0.00 0.00 0.00 0.00 0.00 0.00 0.00 0.00 0.00 0.02 0.03 0.05 0.04 0.02 0.03 0.00 0.00 0.00 0.00 0.00 0.00 0.00 0.01 0.01 0.00 0.00 0.00 0.00 0.00 0.00 0.00 0.00 0.00 0.00 0.00 0.00 0.00 0.00 0.00 0.00 0.00 0.00
0.00 0.00 0.00 0.00 0.00 0.00 0.00 0.00 0.00 0.00 0.00 0.00 0.00 0.01 0.04 0.02 0.02 0.01 0.00 0.00 0.00 0.00 0.00 0.00 0.01 0.03 0.04 0.01 0.00 0.00 0.00 0.00 0.00 0.00 0.00 0.00 0.00 0.00 0.00 0.00 0.00 0.00 0.00 0.00 0.00
0.00 0.00 0.00 0.00 0.00 0.00 0.00 0.00 0.01 0.01 0.00 0.00 0.00 0.03 0.05 0.02 0.01 0.00 0.00 0.00 0.00 0.00 0.00 0.00 0.01 0.02 0.03 0.02 0.00 0.00 0.00 0.00 0.00 0.00 0.00 0.00 0.00 0.00 0.00 0.00 0.00 0.00 0.00 0.00 0.00
0.00 0.00 0.00 0.00 0.00 0.00 0.00 0.00 0.00 0.00 0.01 0.01 0.02 0.06 0.03 0.03 0.00 0.00 0.00 0.00 0.00 0.00 0.00 0.02 0.03 0.02 0.03 0.01 0.01 0.00 0.00 0.00 0.00 0.00 0.00 0.00 0.00 0.00 0.00 0.00 0.00 0.00 0.00 0.00 0.00
0.00 0.00 0.00 0.00 0.00 0.00 0.00 0.00 0.00 0.00 0.01 0.01 0.06 0.07 0.01 0.01 0.00 0.00 0.00 0.00 0.00 0.00 0.00 0.03 0.03 0.01 0.02 0.01 0.01 0.00 0.00 0.00 0.00 0.00 0.00 0.00 0.00 0.00 0.00 0.00 0.00 0.00 0.00 0.00 0.00
0.00 0.01 0.01 0.00 0.00 0.00 0.00 0.00 0.00 0.00 0.00 0.02 0.11 0.05 0.03 0.00 0.00 0.00 0.00 0.00 0.00 0.00 0.00 0.01 0.04 0.06 0.02 0.03 0.00 0.00 0.00 0.00 0.00 0.00 0.00 0.00 0.00 0.00 0.00 0.00 0.00 0.00 0.00 0.00 0.00
0.00 0.02 0.01 0.01 0.01 0.01 0.01 0.01 0.02 0.01 0.00 0.02 0.15 0.08 0.04 0.00 0.00 0.00 0.00 0.00 0.00 0.00 0.00 0.03 0.11 0.10 0.08 0.05 0.03 0.03 0.05 0.02 0.00 0.00 0.00 0.00 0.00 0.00 0.00 0.00 0.00 0.00 0.00 0.00 0.00
0.00 0.01 0.00 0.00 0.02 0.05 0.05 0.03 0.04 0.07 0.05 0.05 0.06 0.08 0.01 0.00 0.00 0.00 0.00 0.00 0.00 0.00 0.00 0.05 0.18 0.17 0.09 0.10 0.10 0.07 0.03 0.01 0.00 0.00 0.00 0.00 0.00 0.00 0.00 0.00 0.00 0.00 0.00 0.00 0.00
0.02 0.01 0.01 0.02 0.03 0.04 0.10 0.12 0.07 0.07 0.08 0.04 0.05 0.07 0.00 0.00 0.00 0.00 0.00 0.00 0.03 0.09 0.09 0.10 0.18 0.25 0.16 0.13 0.06 0.02 0.01 0.01 0.00 0.00 0.00 0.00 0.00 0.00 0.00 0.00 0.00 0.00 0.00 0.00 0.00
0.01 0.02 0.02 0.04 0.04 0.06 0.23 0.15 0.04 0.03 0.05 0.00 0.01 0.01 0.00 0.01 0.00 0.00 0.00 0.00 0.02 0.19 0.15 0.12 0.25 0.24 0.15 0.05 0.01 0.01 0.02 0.01 0.00 0.00 0.00 0.00 0.00 0.00 0.00 0.00 0.00 0.00 0.00 0.00 0.00
0.01 0.03 0.05 0.09 0.10 0.15 0.37 0.09 0.00 0.01 0.01 0.00 0.00 0.00 0.01 0.02 0.05 0.04 0.00 0.01 0.06 0.17 0.18 0.29 0.19 0.10 0.10 0.05 0.05 0.02 0.04 0.02 0.00 0.00 0.00 0.00 0.00 0.00 0.00 0.00 0.00 0.00 0.00 0.00 0.00
0.01 0.00 0.04 0.13 0.19 0.25 0.27 0.09 0.05 0.05 0.34 0.14 0.00 0.02 0.02 0.04 0.05 0.18 0.00 0.02 0.05 0.16 0.28 0.40 0.20 0.13 0.12 0.19 0.11 0.11 0.04 0.03 0.00 0.00 0.00 0.00 0.00 0.00 0.00 0.00 0.00 0.00 0.00 0.00 0.00
0.01 0.00 0.04 0.16 0.21 0.17 0.26 0.20 0.26 0.39 0.97 0.15 0.00 0.01 0.04 0.18 0.10 0.05 0.01 0.07 0.16 0.14 0.22 0.33 0.35 0.20 0.18 0.28 0.10 0.15 0.04 0.02 0.03 0.03 0.01 0.00 0.00 0.00 0.00 0.00 0.00 0.00 0.00 0.00 0.00
0.02 0.01 0.05 0.16 0.20 0.19 0.20 0.37 0.55 0.77 0.72 0.03 0.01 0.01 0.01 0.09 0.11 0.04 0.01 0.08 0.24 0.17 0.42 0.47 0.41 0.19 0.26 0.20 0.14 0.07 0.06 0.02 0.02 0.03 0.02 0.01 0.00 0.00 0.00 0.00 0.00 0.00 0.00 0.00 0.00
0.02 0.02 0.04 0.15 0.18 0.24 0.28 0.52 0.64 0.71 0.30 0.06 0.09 0.09 0.05 0.03 0.08 0.20 0.05 0.11 0.40 0.29 0.25 0.22 0.39 0.28 0.19 0.12 0.20 0.10 0.13 0.18 0.08 0.03 0.02 0.00 0.00 0.00 0.00 0.00 0.00 0.00 0.00 0.00 0.00
0.04 0.04 0.03 0.04 0.16 0.27 0.48 0.54 0.63 0.37 0.13 0.24 0.15 0.09 0.02 0.02 0.08 0.14 0.10 0.16 0.94 0.40 0.41 0.45 0.66 0.57 0.24 0.30 0.39 0.35 0.33 0.41 0.25 0.09 0.02 0.00 0.00 0.00 0.00 0.00 0.00 0.00 0.00 0.00 0.00
0.04 0.08 0.05 0.00 0.17 0.31 0.55 0.63 0.40 0.06 0.17 0.27 0.13 0.05 0.03 0.03 0.06 0.09 0.14 0.15 0.39 0.16 0.39 0.46 0.60 0.69 0.32 0.57 0.65 0.50 0.39 0.13 0.07 0.02 0.00 0.00 0.00 0.00 0.00 0.00 0.00 0.00 0.00 0.00 0.00
0.11 0.09 0.11 0.03 0.30 0.40 0.64 0.56 0.15 0.28 0.44 0.29 0.21 0.12 0.04 0.02 0.04 0.08 0.12 0.08 0.15 0.12 0.44 0.25 0.51 0.51 0.20 0.46 0.37 0.42 0.23 0.06 0.01 0.00 0.00 0.00 0.00 0.00 0.00 0.00 0.00 0.00 0.00 0.00 0.00
0.09 0.11 0.07 0.07 0.47 0.56 0.79 0.40 0.18 0.53 0.49 0.36 0.15 0.03 0.01 0.01 0.09 0.08 0.07 0.04 0.07 0.04 0.21 0.20 0.54 0.53 0.31 0.57 0.44 0.30 0.10 0.02 0.03 0.01 0.01 0.00 0.00 0.00 0.00 0.00 0.00 0.00 0.00 0.00 0.00
0.09 0.13 0.03 0.18 0.69 0.78 0.53 0.34 0.28 0.34 0.39 0.29 0.06 0.01 0.00 0.02 0.10 0.06 0.05 0.03 0.03 0.02 0.16 0.33 0.55 0.64 0.47 0.56 0.41 0.19 0.07 0.02 0.01 0.01 0.01 0.00 0.00 0.00 0.00 0.00 0.00 0.00 0.00 0.00 0.00
0.10 0.08 0.06 0.24 0.58 0.38 0.30 0.45 0.42 0.21 0.26 0.26 0.08 0.01 0.00 0.01 0.06 0.04 0.01 0.01 0.01 0.01 0.10 0.31 0.43 0.62 0.32 0.11 0.12 0.03 0.01 0.00 0.01 0.01 0.02 0.00 0.00 0.00 0.00 0.00 0.00 0.00 0.00 0.00 0.00
0.07 0.10 0.35 0.25 0.29 0.26 0.34 0.39 0.38 0.20 0.24 0.33 0.07 0.01 0.00 0.00 0.02 0.01 0.00 0.00 0.00 0.00 0.01 0.15 0.37 0.51 0.36 0.15 0.11 0.04 0.01 0.00 0.00 0.00 0.00 0.00 0.00 0.00 0.00 0.00 0.00 0.00 0.00 0.00 0.00
0.07 0.12 0.38 0.36 0.16 0.37 0.51 0.43 0.36 0.24 0.24 0.32 0.07 0.02 0.00 0.00 0.01 0.01 0.02 0.00 0.00 0.00 0.00 0.08 0.25 0.32 0.16 0.08 0.02 0.00 0.00 0.00 0.00 0.00 0.00 0.00 0.00 0.00 0.00 0.00 0.00 0.00 0.00 0.00 0.00
0.06 0.05 0.04 0.08 0.04 0.17 0.48 0.59 0.58 0.57 0.29 0.37 0.22 0.01 0.00 0.00 0.02 0.01 0.01 0.00 0.00 0.00 0.00 0.01 0.05 0.07 0.04 0.00 0.00 0.01 0.00 0.00 0.00 0.00 0.00 0.00 0.00 0.00 0.00 0.00 0.00 0.00 0.00 0.00 0.00
0.05 0.01 0.02 0.01 0.00 0.05 0.33 0.45 0.48 0.45 0.34 0.19 0.13 0.00 0.00 0.00 0.00 0.00 0.00 0.00 0.00 0.00 0.00 0.00 0.00 0.00 0.00 0.00 0.00 0.00 0.00 0.00 0.00 0.00 0.00 0.00 0.00 0.00 0.00 0.00 0.00 0.00 0.00 0.00 0.00
0.04 0.00 0.01 0.01 0.01 0.05 0.11 0.35 0.54 0.46 0.20 0.04 0.03 0.00 0.03 0.00 0.00 0.01 0.00 0.00 0.00 0.00 0.00 0.00 0.00 0.00 0.00 0.00 0.00 0.00 0.00 0.00 0.00 0.00 0.00 0.00 0.00 0.00 0.00 0.00 0.00 0.00 0.00 0.00 0.00

GFSSW_prec_precacc12_030.txt.gz
Total_Precipitation_Accumulation
0.00 0.00 0.00 0.00 0.00 0.00 0.00 0.00 0.00 0.00 0.00 0.01 0.04 0.05 0.05 0.06 0.02 0.00 0.00 0.00 0.00 0.00 0.00 0.00 0.00 0.00 0.00 0.00 0.00 0.00 0.00 0.00 0.00 0.00 0.00 0.00 0.00 0.00 0.00 0.00 0.00 0.00 0.00 0.00 0.00
0.00 0.00 0.00 0.00 0.00 0.00 0.00 0.00 0.00 0.00 0.00 0.00 0.00 0.00 0.02 0.01 0.01 0.03 0.00 0.00 0.00 0.00 0.00 0.00 0.00 0.01 0.01 0.00 0.00 0.00 0.00 0.00 0.00 0.00 0.00 0.00 0.00 0.00 0.00 0.00 0.00 0.00 0.00 0.00 0.00
0.00 0.00 0.00 0.00 0.00 0.00 0.00 0.00 0.00 0.00 0.00 0.00 0.00 0.00 0.01 0.00 0.01 0.00 0.00 0.00 0.00 0.00 0.00 0.00 0.00 0.02 0.03 0.01 0.00 0.00 0.00 0.00 0.00 0.00 0.00 0.00 0.00 0.00 0.00 0.00 0.00 0.00 0.00 0.00 0.00
0.00 0.00 0.00 0.00 0.00 0.00 0.00 0.00 0.00 0.00 0.00 0.00 0.00 0.01 0.01 0.00 0.00 0.00 0.00 0.00 0.00 0.01 0.00 0.00 0.00 0.01 0.02 0.02 0.00 0.00 0.00 0.00 0.00 0.00 0.00 0.00 0.00 0.00 0.00 0.00 0.00 0.00 0.00 0.00 0.00
0.00 0.00 0.00 0.00 0.00 0.00 0.00 0.00 0.00 0.00 0.00 0.00 0.00 0.02 0.01 0.01 0.00 0.00 0.00 0.00 0.00 0.00 0.00 0.00 0.00 0.01 0.01 0.01 0.01 0.00 0.00 0.00 0.00 0.00 0.00 0.00 0.00 0.00 0.00 0.00 0.00 0.00 0.00 0.00 0.00
0.00 0.00 0.00 0.00 0.00 0.00 0.00 0.00 0.00 0.00 0.00 0.01 0.02 0.03 0.01 0.01 0.00 0.00 0.00 0.00 0.00 0.00 0.00 0.00 0.00 0.00 0.01 0.00 0.01 0.00 0.00 0.00 0.00 0.00 0.00 0.00 0.00 0.00 0.00 0.00 0.00 0.00 0.00 0.00 0.00
0.02 0.01 0.00 0.00 0.00 0.00 0.01 0.00 0.01 0.00 0.00 0.01 0.04 0.03 0.03 0.00 0.00 0.00 0.00 0.00 0.00 0.00 0.00 0.00 0.00 0.03 0.02 0.02 0.00 0.00 0.01 0.00 0.00 0.00 0.00 0.00 0.00 0.00 0.00 0.00 0.00 0.00 0.00 0.00 0.00
0.02 0.02 0.00 0.01 0.00 0.00 0.00 0.01 0.00 0.01 0.00 0.00 0.02 0.04 0.03 0.00 0.00 0.00 0.00 0.00 0.00 0.00 0.00 0.00 0.00 0.03 0.07 0.05 0.03 0.03 0.05 0.02 0.00 0.00 0.00 0.00 0.00 0.00 0.00 0.00 0.00 0.00 0.00 0.00 0.00
0.01 0.01 0.00 0.00 0.00 0.00 0.01 0.02 0.03 0.03 0.04 0.02 0.00 0.03 0.01 0.00 0.00 0.00 0.00 0.00 0.00 0.00 0.00 0.00 0.01 0.07 0.06 0.10 0.10 0.06 0.03 0.01 0.00 0.00 0.00 0.00 0.00 0.00 0.00 0.00 0.00 0.00 0.00 0.00 0.00
0.06 0.05 0.03 0.01 0.01 0.01 0.01 0.03 0.05 0.05 0.08 0.05 0.02 0.02 0.00 0.00 0.00 0.00 0.00 0.00 0.00 0.01 0.02 0.03 0.03 0.06 0.08 0.11 0.05 0.01 0.01 0.01 0.00 0.00 0.00 0.00 0.00 0.00 0.00 0.00 0.00 0.00 0.00 0.00 0.00
0.05 0.04 0.04 0.02 0.03 0.01 0.02 0.02 0.02 0.02 0.05 0.00 0.00 0.00 0.00 0.00 0.00 0.00 0.00 0.00 0.00 0.04 0.05 0.04 0.07 0.04 0.04 0.04 0.01 0.01 0.02 0.02 0.00 0.00 0.00 0.00 0.00 0.00 0.00 0.00 0.00 0.00 0.00 0.00 0.00
0.05 0.04 0.04 0.04 0.05 0.05 0.05 0.03 0.00 0.00 0.01 0.00 0.00 0.00 0.00 0.00 0.00 0.01 0.00 0.00 0.00 0.01 0.05 0.14 0.07 0.00 0.06 0.04 0.05 0.03 0.04 0.02 0.01 0.00 0.01 0.00 0.00 0.00 0.00 0.00 0.00 0.00 0.00 0.00 0.00
0.06 0.05 0.06 0.06 0.05 0.07 0.05 0.01 0.00 0.02 0.19 0.11 0.00 0.01 0.01 0.03 0.02 0.05 0.00 0.01 0.00 0.01 0.12 0.22 0.06 0.02 0.09 0.18 0.11 0.11 0.04 0.03 0.01 0.01 0.01 0.01 0.00 0.00 0.00 0.00 0.00 0.00 0.00 0.00 0.00
0.10 0.09 0.08 0.05 0.02 0.01 0.05 0.05 0.09 0.21 0.67 0.13 0.00 0.01 0.03 0.10 0.08 0.00 0.01 0.04 0.07 0.05 0.15 0.22 0.07 0.11 0.14 0.28 0.10 0.15 0.04 0.02 0.04 0.05 0.02 0.03 0.03 0.00 0.00 0.00 0.00 0.00 0.00 0.00 0.00
0.14 0.13 0.07 0.02 0.02 0.03 0.02 0.07 0.16 0.42 0.44 0.02 0.00 0.00 0.01 0.07 0.05 0.02 0.00 0.08 0.21 0.18 0.33 0.36 0.04 0.10 0.24 0.20 0.16 0.08 0.06 0.02 0.06 0.17 0.09 0.04 0.07 0.01 0.00 0.00 0.00 0.00 0.00 0.00 0.00
0.17 0.15 0.09 0.09 0.01 0.02 0.01 0.09 0.17 0.35 0.17 0.02 0.03 0.05 0.04 0.03 0.02 0.08 0.03 0.10 0.16 0.42 0.48 0.16 0.06 0.14 0.16 0.13 0.22 0.10 0.15 0.19 0.13 0.21 0.40 0.07 0.06 0.02 0.00 0.00 0.00 0.00 0.00 0.00 0.00
0.30 0.22 0.09 0.02 0.03 0.03 0.04 0.15 0.26 0.19 0.04 0.11 0.08 0.06 0.02 0.02 0.02 0.08 0.12 0.13 0.21 0.32 0.36 0.24 0.31 0.21 0.21 0.30 0.40 0.38 0.40 0.67 0.59 0.31 0.27 0.10 0.05 0.05 0.00 0.00 0.00 0.00 0.00 0.00 0.00
0.45 0.44 0.24 0.04 0.05 0.04 0.08 0.25 0.22 0.02 0.07 0.15 0.12 0.04 0.03 0.01 0.02 0.03 0.14 0.13 0.08 0.16 0.34 0.23 0.38 0.32 0.24 0.55 0.63 0.48 0.48 0.51 0.38 0.20 0.04 0.04 0.11 0.01 0.00 0.00 0.00 0.00 0.00 0.00 0.00
0.61 0.93 0.70 0.12 0.13 0.10 0.15 0.27 0.09 0.10 0.13 0.14 0.25 0.17 0.04 0.01 0.01 0.03 0.08 0.03 0.02 0.11 0.37 0.23 0.48 0.38 0.14 0.46 0.37 0.41 0.38 0.30 0.25 0.12 0.08 0.02 0.01 0.00 0.00 0.00 0.00 0.00 0.00 0.00 0.00
0.58 1.08 0.97 0.14 0.25 0.27 0.41 0.18 0.07 0.11 0.18 0.24 0.19 0.05 0.02 0.01 0.01 0.04 0.03 0.00 0.00 0.03 0.20 0.24 0.64 0.61 0.46 0.80 0.60 0.33 0.17 0.24 0.46 0.32 0.19 0.06 0.00 0.00 0.00 0.00 0.00 0.00 0.00 0.00 0.00
0.57 0.96 0.60 0.27 0.53 0.77 0.41 0.14 0.09 0.14 0.22 0.24 0.11 0.06 0.02 0.01 0.00 0.01 0.02 0.00 0.00 0.02 0.16 0.40 0.70 0.73 0.88 0.86 0.57 0.40 0.38 0.22 0.24 0.16 0.23 0.16 0.00 0.00 0.00 0.00 0.00 0.00 0.00 0.00 0.00
0.59 0.63 0.39 0.46 0.76 0.51 0.16 0.16 0.12 0.13 0.25 0.26 0.15 0.07 0.03 0.02 0.01 0.01 0.01 0.01 0.00 0.00 0.12 0.35 0.58 0.77 0.61 0.25 0.17 0.22 0.22 0.11 0.26 0.23 0.14 0.17 0.02 0.00 0.00 0.00 0.00 0.00 0.00 0.00 0.00
0.54 0.59 0.60 0.33 0.50 0.10 0.09 0.15 0.19 0.15 0.27 0.25 0.13 0.05 0.01 0.01 0.03 0.00 0.00 0.00 0.00 0.01 0.08 0.37 0.70 0.72 0.54 0.40 0.36 0.49 0.25 0.09 0.15 0.30 0.23 0.09 0.01 0.00 0.00 0.00 0.00 0.00 0.00 0.00 0.00
0.56 0.46 0.84 0.73 0.20 0.05 0.09 0.15 0.21 0.16 0.24 0.26 0.20 0.09 0.04 0.01 0.01 0.00 0.00 0.00 0.00 0.00 0.03 0.35 0.72 0.80 0.58 0.24 0.15 0.24 0.18 0.10 0.13 0.21 0.19 0.14 0.02 0.00 0.00 0.00 0.00 0.00 0.00 0.00 0.00
0.44 0.20 0.17 0.24 0.11 0.03 0.15 0.20 0.31 0.38 0.30 0.34 0.35 0.09 0.03 0.02 0.00 0.00 0.00 0.01 0.00 0.00 0.05 0.31 0.70 0.73 0.36 0.12 0.04 0.10 0.16 0.09 0.22 0.17 0.13 0.05 0.03 0.01 0.00 0.00 0.00 0.00 0.00 0.00 0.00
0.23 0.10 0.05 0.01 0.01 0.04 0.17 0.21 0.27 0.34 0.38 0.27 0.21 0.05 0.04 0.01 0.00 0.00 0.00 0.00 0.01 0.01 0.03 0.13 0.43 0.45 0.25 0.04 0.07 0.09 0.26 0.08 0.36 0.17 0.10 0.02 0.01 0.00 0.00 0.00 0.00 0.00 0.00 0.00 0.00
0.12 0.04 0.04 0.05 0.02 0.05 0.08 0.21 0.37 0.36 0.17 0.10 0.12 0.15 0.07 0.00 0.00 0.01 0.00 0.00 0.00 0.02 0.02 0.02 0.17 0.29 0.16 0.04 0.02 0.05 0.10 0.07 0.15 0.06 0.04 0.02 0.00 0.00 0.00 0.00 0.00 0.00 0.00 0.00 0.00

GFSSW_prec_precacc12_033.txt.gz
Total_Precipitation_Accumulation
0.00 0.00 0.00 0.00 0.00 0.00 0.00 0.00 0.00 0.00 0.00 0.01 0.03 0.05 0.11 0.05 0.02 0.00 0.00 0.00 0.00 0.00 0.00 0.00 0.00 0.00 0.00 0.00 0.00 0.00 0.00 0.00 0.00 0.00 0.00 0.00 0.00 0.00 0.00 0.00 0.00 0.00 0.00 0.00 0.00
0.00 0.00 0.00 0.00 0.00 0.00 0.00 0.00 0.00 0.00 0.00 0.00 0.00 0.00 0.02 0.02 0.00 0.01 0.00 0.00 0.00 0.00 0.00 0.00 0.00 0.00 0.00 0.00 0.00 0.00 0.00 0.00 0.00 0.00 0.00 0.00 0.00 0.00 0.00 0.00 0.00 0.00 0.00 0.00 0.00
0.00 0.00 0.00 0.00 0.00 0.00 0.00 0.00 0.00 0.00 0.00 0.00 0.00 0.00 0.00 0.00 0.00 0.00 0.00 0.00 0.00 0.01 0.00 0.00 0.00 0.00 0.00 0.00 0.00 0.00 0.00 0.00 0.00 0.00 0.00 0.00 0.00 0.00 0.00 0.00 0.00 0.00 0.00 0.00 0.00
0.00 0.00 0.00 0.00 0.00 0.00 0.00 0.00 0.00 0.00 0.00 0.00 0.00 0.00 0.00 0.00 0.00 0.00 0.00 0.00 0.00 0.01 0.00 0.00 0.00 0.00 0.00 0.00 0.00 0.00 0.00 0.00 0.00 0.00 0.00 0.00 0.00 0.00 0.00 0.00 0.00 0.00 0.00 0.00 0.00
0.01 0.00 0.00 0.00 0.00 0.00 0.00 0.00 0.00 0.00 0.00 0.00 0.00 0.00 0.00 0.00 0.00 0.00 0.00 0.00 0.00 0.01 0.01 0.00 0.00 0.00 0.00 0.00 0.00 0.00 0.00 0.00 0.00 0.00 0.00 0.00 0.00 0.00 0.00 0.00 0.00 0.00 0.00 0.00 0.00
0.02 0.01 0.00 0.00 0.00 0.00 0.00 0.00 0.00 0.00 0.00 0.00 0.01 0.02 0.00 0.00 0.00 0.00 0.00 0.00 0.00 0.00 0.00 0.00 0.00 0.00 0.00 0.00 0.00 0.00 0.00 0.00 0.00 0.00 0.00 0.00 0.00 0.00 0.00 0.00 0.00 0.00 0.00 0.00 0.00
0.03 0.02 0.01 0.00 0.00 0.00 0.01 0.01 0.01 0.00 0.00 0.00 0.02 0.02 0.02 0.00 0.00 0.00 0.00 0.00 0.00 0.00 0.00 0.00 0.00 0.01 0.01 0.00 0.00 0.00 0.01 0.00 0.00 0.00 0.00 0.00 0.00 0.00 0.00 0.00 0.00 0.00 0.00 0.00 0.00
0.03 0.04 0.02 0.00 0.00 0.00 0.00 0.01 0.00 0.01 0.00 0.00 0.00 0.01 0.02 0.00 0.00 0.00 0.00 0.00 0.00 0.00 0.00 0.00 0.00 0.00 0.01 0.01 0.01 0.01 0.03 0.01 0.00 0.00 0.00 0.00 0.00 0.00 0.00 0.00 0.00 0.00 0.00 0.00 0.00
0.03 0.03 0.03 0.02 0.01 0.01 0.01 0.01 0.02 0.02 0.02 0.03 0.00 0.00 0.00 0.00 0.00 0.00 0.00 0.00 0.00 0.00 0.00 0.00 0.00 0.01 0.01 0.04 0.05 0.03 0.01 0.01 0.00 0.00 0.00 0.00 0.00 0.00 0.00 0.00 0.00 0.00 0.00 0.00 0.00
0.09 0.08 0.07 0.04 0.02 0.01 0.01 0.00 0.02 0.03 0.06 0.07 0.02 0.01 0.00 0.00 0.00 0.00 0.00 0.00 0.00 0.00 0.00 0.00 0.00 0.02 0.02 0.04 0.03 0.01 0.00 0.00 0.00 0.00 0.00 0.00 0.00 0.00 0.00 0.00 0.00 0.00 0.00 0.00 0.00
0.10 0.07 0.06 0.06 0.04 0.02 0.01 0.00 0.00 0.00 0.05 0.01 0.01 0.00 0.00 0.00 0.00 0.00 0.00 0.00 0.00 0.00 0.00 0.01 0.02 0.01 0.00 0.00 0.00 0.01 0.01 0.02 0.00 0.00 0.00 0.00 0.00 0.00 0.00 0.00 0.00 0.00 0.00 0.00 0.00
0.15 0.10 0.07 0.08 0.07 0.04 0.01 0.01 0.00 0.00 0.00 0.00 0.00 0.00 0.00 0.00 0.00 0.00 0.00 0.00 0.00 0.01 0.00 0.04 0.03 0.00 0.00 0.00 0.02 0.01 0.04 0.02 0.01 0.00 0.01 0.00 0.00 0.00 0.00 0.00 0.00 0.00 0.00 0.00 0.00
0.19 0.16 0.12 0.13 0.10 0.07 0.02 0.00 0.00 0.01 0.10 0.05 0.00 0.00 0.00 0.01 0.01 0.00 0.00 0.00 0.00 0.00 0.01 0.02 0.01 0.01 0.00 0.00 0.07 0.09 0.04 0.03 0.01 0.01 0.01 0.01 0.00 0.00 0.00 0.00 0.00 0.00 0.00 0.00 0.00
0.26 0.28 0.16 0.16 0.10 0.01 0.01 0.00 0.02 0.12 0.36 0.06 0.00 0.00 0.01 0.05 0.05 0.00 0.00 0.03 0.05 0.01 0.04 0.09 0.03 0.07 0.05 0.02 0.03 0.14 0.04 0.02 0.04 0.05 0.02 0.03 0.03 0.00 0.00 0.00 0.00 0.00 0.00 0.00 0.00
0.38 0.42 0.30 0.08 0.03 0.02 0.00 0.01 0.03 0.17 0.20 0.01 0.00 0.00 0.01 0.04 0.02 0.01 0.00 0.07 0.17 0.09 0.14 0.18 0.01 0.03 0.06 0.02 0.09 0.07 0.06 0.02 0.07 0.17 0.09 0.04 0.07 0.01 0.00 0.00 0.00 0.00 0.00 0.00 0.00
0.47 0.52 0.42 0.21 0.03 0.01 0.00 0.01 0.04 0.12 0.08 0.01 0.00 0.01 0.02 0.03 0.02 0.03 0.02 0.06 0.12 0.27 0.42 0.15 0.03 0.08 0.02 0.04 0.17 0.10 0.16 0.21 0.17 0.23 0.42 0.07 0.06 0.02 0.00 0.00 0.00 0.00 0.00 0.00 0.00
0.51 0.62 0.67 0.18 0.05 0.00 0.00 0.03 0.07 0.07 0.02 0.05 0.02 0.02 0.01 0.02 0.02 0.04 0.07 0.08 0.09 0.11 0.18 0.17 0.12 0.12 0.09 0.15 0.31 0.36 0.49 0.81 0.72 0.42 0.30 0.10 0.05 0.05 0.00 0.00 0.00 0.00 0.00 0.00 0.00
0.59 0.74 1.00 0.31 0.08 0.04 0.01 0.06 0.09 0.01 0.03 0.05 0.05 0.03 0.02 0.01 0.01 0.01 0.06 0.08 0.02 0.03 0.15 0.10 0.06 0.11 0.10 0.28 0.51 0.46 0.50 0.60 0.47 0.23 0.05 0.04 0.12 0.01 0.00 0.00 0.00 0.00 0.00 0.00 0.00
0.76 1.16 1.56 0.73 0.14 0.12 0.03 0.10 0.03 0.05 0.06 0.05 0.14 0.14 0.04 0.00 0.01 0.02 0.02 0.02 0.01 0.02 0.16 0.17 0.13 0.10 0.08 0.32 0.36 0.40 0.42 0.32 0.32 0.18 0.13 0.02 0.01 0.00 0.00 0.00 0.00 0.00 0.00 0.00 0.00
0.70 1.47 1.56 0.70 0.31 0.21 0.24 0.08 0.03 0.05 0.09 0.11 0.10 0.04 0.01 0.00 0.01 0.03 0.02 0.00 0.00 0.01 0.06 0.16 0.22 0.20 0.37 0.76 0.59 0.33 0.17 0.26 0.62 0.43 0.23 0.06 0.00 0.00 0.00 0.00 0.00 0.00 0.00 0.00 0.00
0.72 1.36 1.18 0.77 0.88 0.68 0.32 0.05 0.04 0.08 0.14 0.16 0.08 0.06 0.02 0.01 0.00 0.01 0.02 0.00 0.00 0.01 0.08 0.29 0.41 0.33 0.79 0.86 0.56 0.44 0.42 0.24 0.24 0.16 0.23 0.16 0.00 0.00 0.00 0.00 0.00 0.00 0.00 0.00 0.00
0.77 0.93 0.81 1.12 1.47 0.71 0.11 0.06 0.08 0.06 0.15 0.19 0.14 0.07 0.04 0.02 0.02 0.01 0.01 0.00 0.00 0.00 0.10 0.32 0.61 0.56 0.50 0.23 0.20 0.29 0.26 0.12 0.27 0.23 0.14 0.19 0.03 0.00 0.00 0.00 0.00 0.01 0.02 0.00 0.00
0.78 0.90 0.99 0.68 0.79 0.18 0.04 0.08 0.12 0.12 0.21 0.21 0.12 0.06 0.02 0.02 0.04 0.00 0.00 0.00 0.00 0.00 0.08 0.42 0.83 0.70 0.45 0.41 0.44 0.59 0.31 0.14 0.16 0.31 0.23 0.16 0.02 0.00 0.00 0.00 0.00 0.00 0.01 0.01 0.00
0.82 0.93 1.37 1.25 0.34 0.03 0.04 0.09 0.12 0.13 0.22 0.21 0.18 0.12 0.07 0.02 0.01 0.00 0.00 0.00 0.00 0.00 0.03 0.41 0.85 0.90 0.68 0.36 0.32 0.28 0.19 0.11 0.14 0.21 0.20 0.18 0.03 0.01 0.01 0.01 0.00 0.00 0.01 0.00 0.00
0.65 0.49 0.38 0.44 0.20 0.03 0.07 0.10 0.16 0.24 0.26 0.26 0.23 0.10 0.06 0.04 0.00 0.00 0.00 0.01 0.00 0.00 0.06 0.42 0.85 0.84 0.45 0.21 0.24 0.23 0.19 0.10 0.23 0.17 0.14 0.07 0.06 0.02 0.02 0.01 0.02 0.01 0.00 0.00 0.00
0.40 0.29 0.07 0.01 0.02 0.04 0.09 0.12 0.18 0.24 0.31 0.18 0.14 0.07 0.06 0.02 0.00 0.00 0.00 0.00 0.01 0.01 0.10 0.29 0.61 0.68 0.56 0.14 0.15 0.19 0.31 0.11 0.43 0.20 0.16 0.14 0.11 0.00 0.00 0.00 0.00 0.00 0.00 0.00 0.00
0.32 0.13 0.05 0.05 0.03 0.04 0.04 0.08 0.20 0.29 0.14 0.08 0.11 0.17 0.08 0.01 0.00 0.01 0.00 0.00 0.01 0.04 0.12 0.17 0.37 0.53 0.51 0.31 0.18 0.28 0.30 0.47 0.43 0.17 0.21 0.25 0.12 0.00 0.00 0.00 0.00 0.00 0.00 0.00 0.00

GFSSW_prec_precacc12_036.txt.gz
Total_Precipitation_Accumulation
0.00 0.00 0.00 0.00 0.00 0.00 0.00 0.00 0.00 0.00 0.00 0.00 0.03 0.06 0.14 0.10 0.04 0.01 0.00 0.00 0.00 0.00 0.00 0.00 0.00 0.00 0.00 0.00 0.00 0.00 0.00 0.00 0.00 0.00 0.00 0.00 0.00 0.00 0.00 0.00 0.00 0.00 0.00 0.00 0.00
0.00 0.00 0.00 0.00 0.00 0.00 0.00 0.00 0.00 0.00 0.00 0.00 0.00 0.00 0.02 0.05 0.02 0.01 0.00 0.00 0.00 0.00 0.00 0.00 0.00 0.00 0.00 0.00 0.00 0.00 0.00 0.00 0.00 0.00 0.00 0.00 0.00 0.00 0.00 0.00 0.00 0.00 0.00 0.00 0.00
0.01 0.00 0.00 0.00 0.00 0.00 0.00 0.00 0.00 0.00 0.00 0.00 0.00 0.00 0.00 0.00 0.00 0.00 0.00 0.00 0.01 0.04 0.00 0.00 0.00 0.00 0.00 0.00 0.00 0.00 0.00 0.00 0.00 0.00 0.00 0.00 0.00 0.00 0.00 0.00 0.00 0.00 0.00 0.00 0.00
0.03 0.01 0.00 0.00 0.00 0.00 0.00 0.00 0.00 0.00 0.00 0.00 0.00 0.00 0.00 0.00 0.00 0.00 0.00 0.00 0.00 0.02 0.01 0.00 0.00 0.00 0.00 0.00 0.00 0.00 0.00 0.00 0.00 0.00 0.00 0.00 0.00 0.00 0.00 0.00 0.00 0.00 0.00 0.00 0.00
0.04 0.04 0.01 0.00 0.00 0.00 0.00 0.00 0.00 0.00 0.00 0.00 0.00 0.00 0.00 0.00 0.00 0.00 0.00 0.00 0.00 0.01 0.02 0.01 0.00 0.00 0.00 0.00 0.00 0.00 0.00 0.00 0.00 0.00 0.00 0.00 0.00 0.00 0.00 0.00 0.00 0.00 0.00 0.00 0.00
0.05 0.04 0.03 0.01 0.00 0.00 0.00 0.00 0.00 0.00 0.00 0.00 0.01 0.01 0.00 0.00 0.00 0.00 0.00 0.00 0.00 0.00 0.01 0.01 0.00 0.00 0.00 0.00 0.00 0.00 0.00 0.00 0.00 0.00 0.00 0.00 0.00 0.00 0.00 0.00 0.00 0.00 0.00 0.00 0.00
0.06 0.05 0.04 0.02 0.00 0.00 0.01 0.01 0.01 0.01 0.00 0.00 0.01 0.02 0.01 0.00 0.00 0.00 0.00 0.00 0.00 0.00 0.00 0.00 0.00 0.01 0.01 0.00 0.00 0.00 0.00 0.00 0.00 0.00 0.00 0.00 0.00 0.00 0.00 0.00 0.00 0.00 0.00 0.00 0.00
0.08 0.08 0.07 0.05 0.02 0.00 0.00 0.01 0.01 0.01 0.00 0.00 0.00 0.01 0.01 0.00 0.00 0.00 0.00 0.00 0.00 0.00 0.00 0.00 0.00 0.00 0.01 0.00 0.00 0.00 0.00 0.00 0.00 0.00 0.00 0.00 0.00 0.00 0.00 0.00 0.00 0.00 0.00 0.00 0.00
0.13 0.09 0.07 0.06 0.05 0.01 0.01 0.01 0.01 0.00 0.01 0.04 0.00 0.00 0.00 0.00 0.00 0.00 0.00 0.00 0.00 0.00 0.00 0.00 0.00 0.00 0.00 0.02 0.01 0.00 0.00 0.00 0.00 0.00 0.00 0.00 0.00 0.00 0.00 0.00 0.00 0.00 0.00 0.00 0.00
0.18 0.16 0.13 0.10 0.08 0.03 0.02 0.02 0.00 0.00 0.05 0.08 0.02 0.00 0.00 0.00 0.00 0.00 0.00 0.00 0.00 0.00 0.00 0.00 0.00 0.00 0.00 0.01 0.01 0.00 0.00 0.00 0.00 0.00 0.00 0.00 0.00 0.00 0.00 0.00 0.00 0.00 0.00 0.00 0.00
0.22 0.19 0.15 0.13 0.11 0.06 0.01 0.00 0.00 0.00 0.04 0.01 0.01 0.00 0.00 0.00 0.00 0.00 0.00 0.00 0.00 0.00 0.00 0.00 0.00 0.00 0.00 0.00 0.00 0.00 0.00 0.00 0.00 0.00 0.00 0.00 0.00 0.00 0.00 0.00 0.00 0.00 0.00 0.00 0.00
0.18 0.27 0.25 0.17 0.17 0.07 0.02 0.00 0.00 0.00 0.00 0.00 0.00 0.00 0.00 0.00 0.00 0.00 0.00 0.00 0.00 0.00 0.00 0.01 0.01 0.00 0.00 0.00 0.00 0.00 0.00 0.00 0.00 0.00 0.01 0.00 0.00 0.00 0.00 0.00 0.00 0.00 0.00 0.00 0.00
0.20 0.24 0.31 0.35 0.27 0.15 0.02 0.00 0.00 0.00 0.04 0.02 0.00 0.00 0.00 0.00 0.01 0.00 0.00 0.00 0.00 0.00 0.00 0.00 0.00 0.00 0.00 0.00 0.00 0.00 0.00 0.00 0.00 0.00 0.01 0.01 0.00 0.00 0.00 0.00 0.00 0.00 0.00 0.00 0.00
0.26 0.31 0.34 0.45 0.51 0.16 0.04 0.01 0.00 0.02 0.09 0.01 0.00 0.00 0.01 0.02 0.02 0.00 0.00 0.01 0.02 0.00 0.01 0.04 0.00 0.00 0.01 0.00 0.00 0.00 0.00 0.00 0.01 0.03 0.01 0.03 0.03 0.00 0.00 0.00 0.00 0.00 0.00 0.00 0.00
0.37 0.42 0.48 0.48 0.51 0.16 0.02 0.00 0.00 0.02 0.02 0.00 0.00 0.00 0.02 0.02 0.00 0.00 0.00 0.03 0.13 0.05 0.07 0.11 0.00 0.00 0.01 0.00 0.01 0.01 0.00 0.00 0.06 0.15 0.08 0.03 0.07 0.01 0.00 0.00 0.00 0.00 0.00 0.00 0.00
0.46 0.50 0.52 0.71 0.43 0.09 0.00 0.00 0.00 0.01 0.01 0.00 0.00 0.00 0.03 0.02 0.01 0.01 0.01 0.02 0.07 0.23 0.32 0.11 0.01 0.04 0.01 0.00 0.02 0.02 0.04 0.05 0.11 0.26 0.47 0.07 0.06 0.02 0.00 0.00 0.00 0.00 0.00 0.00 0.00
0.50 0.61 0.80 0.69 0.48 0.08 0.03 0.02 0.03 0.02 0.00 0.00 0.00 0.00 0.00 0.01 0.01 0.01 0.04 0.05 0.06 0.09 0.14 0.12 0.05 0.01 0.02 0.04 0.03 0.05 0.23 0.52 0.56 0.44 0.32 0.10 0.05 0.05 0.00 0.00 0.00 0.00 0.00 0.00 0.00
0.59 0.76 1.06 0.84 0.44 0.17 0.05 0.04 0.03 0.00 0.00 0.00 0.00 0.00 0.01 0.00 0.01 0.00 0.04 0.04 0.02 0.02 0.04 0.02 0.01 0.00 0.01 0.03 0.02 0.02 0.14 0.50 0.44 0.22 0.06 0.04 0.12 0.01 0.00 0.00 0.00 0.00 0.00 0.00 0.00
0.79 1.20 1.58 1.24 0.65 0.32 0.11 0.10 0.01 0.00 0.00 0.01 0.05 0.05 0.02 0.00 0.00 0.01 0.01 0.00 0.00 0.01 0.04 0.03 0.08 0.05 0.03 0.02 0.04 0.06 0.22 0.27 0.34 0.23 0.22 0.04 0.01 0.00 0.00 0.00 0.00 0.00 0.00 0.00 0.00
0.75 1.52 1.64 1.05 0.83 0.54 0.36 0.06 0.00 0.00 0.01 0.05 0.05 0.02 0.01 0.00 0.01 0.01 0.01 0.00 0.00 0.00 0.00 0.05 0.13 0.16 0.28 0.31 0.20 0.07 0.10 0.28 0.70 0.48 0.25 0.07 0.00 0.00 0.00 0.00 0.00 0.00 0.00 0.00 0.00
0.70 1.41 1.32 1.01 1.22 0.98 0.51 0.04 0.00 0.01 0.04 0.06 0.05 0.05 0.02 0.01 0.00 0.00 0.00 0.00 0.00 0.00 0.00 0.06 0.18 0.13 0.58 0.47 0.22 0.36 0.52 0.32 0.25 0.15 0.22 0.16 0.00 0.00 0.00 0.00 0.00 0.00 0.00 0.00 0.00
0.74 0.95 1.02 1.47 2.06 1.17 0.19 0.01 0.00 0.01 0.06 0.10 0.09 0.06 0.04 0.02 0.02 0.00 0.00 0.00 0.00 0.00 0.02 0.05 0.29 0.22 0.37 0.17 0.09 0.31 0.28 0.20 0.36 0.22 0.13 0.19 0.03 0.00 0.00 0.00 0.00 0.01 0.02 0.01 0.00
0.83 0.91 1.18 1.02 1.04 0.40 0.08 0.00 0.01 0.04 0.12 0.15 0.10 0.05 0.02 0.03 0.06 0.00 0.00 0.00 0.00 0.00 0.07 0.28 0.50 0.32 0.27 0.38 0.45 0.72 0.39 0.24 0.26 0.38 0.25 0.16 0.02 0.00 0.00 0.00 0.00 0.00 0.03 0.02 0.01
0.96 1.07 1.57 1.56 0.47 0.05 0.02 0.01 0.02 0.06 0.15 0.18 0.17 0.12 0.08 0.04 0.02 0.01 0.00 0.00 0.00 0.00 0.03 0.33 0.62 0.61 0.58 0.35 0.49 0.53 0.31 0.27 0.29 0.34 0.22 0.18 0.03 0.01 0.01 0.01 0.00 0.00 0.02 0.04 0.01
0.78 0.65 0.49 0.53 0.37 0.06 0.02 0.03 0.04 0.12 0.16 0.25 0.21 0.10 0.07 0.06 0.01 0.01 0.00 0.00 0.00 0.00 0.06 0.41 0.82 0.81 0.45 0.28 0.37 0.38 0.33 0.23 0.34 0.20 0.15 0.07 0.07 0.03 0.02 0.01 0.02 0.01 0.01 0.02 0.00
0.42 0.49 0.10 0.02 0.04 0.07 0.07 0.04 0.06 0.13 0.18 0.15 0.12 0.07 0.07 0.04 0.00 0.00 0.00 0.00 0.01 0.01 0.10 0.31 0.67 0.73 0.61 0.24 0.31 0.31 0.36 0.16 0.46 0.21 0.16 0.14 0.12 0.01 0.01 0.01 0.00 0.00 0.00 0.01 0.00
0.34 0.33 0.18 0.11 0.05 0.09 0.04 0.02 0.06 0.12 0.09 0.06 0.10 0.17 0.08 0.01 0.00 0.00 0.00 0.00 0.00 0.05 0.14 0.23 0.45 0.65 0.61 0.48 0.25 0.40 0.42 0.50 0.43 0.17 0.21 0.26 0.14 0.01 0.01 0.01 0.00 0.00 0.01 0.00 0.00

GFSSW_prec_precacc12_039.txt.gz
Total_Precipitation_Accumulation
0.01 0.00 0.00 0.00 0.00 0.00 0.00 0.00 0.00 0.00 0.00 0.00 0.01 0.05 0.15 0.14 0.08 0.02 0.00 0.00 0.00 0.00 0.00 0.00 0.00 0.00 0.00 0.00 0.00 0.00 0.00 0.00 0.00 0.00 0.00 0.00 0.00 0.00 0.00 0.00 0.00 0.00 0.00 0.00 0.00
0.02 0.01 0.01 0.00 0.00 0.00 0.00 0.00 0.00 0.00 0.00 0.00 0.00 0.00 0.03 0.05 0.09 0.05 0.00 0.00 0.01 0.01 0.00 0.00 0.00 0.00 0.00 0.00 0.00 0.00 0.00 0.00 0.00 0.00 0.00 0.00 0.00 0.00 0.00 0.00 0.00 0.00 0.00 0.00 0.00
0.04 0.04 0.03 0.01 0.00 0.00 0.00 0.00 0.00 0.00 0.00 0.00 0.00 0.00 0.00 0.00 0.00 0.00 0.00 0.00 0.02 0.10 0.00 0.00 0.00 0.00 0.00 0.00 0.00 0.00 0.00 0.00 0.00 0.00 0.00 0.00 0.00 0.00 0.00 0.00 0.00 0.00 0.00 0.00 0.00
0.06 0.06 0.05 0.03 0.01 0.00 0.00 0.00 0.00 0.00 0.00 0.00 0.00 0.00 0.00 0.00 0.00 0.00 0.00 0.00 0.00 0.04 0.01 0.00 0.00 0.00 0.00 0.00 0.00 0.00 0.00 0.00 0.00 0.00 0.00 0.00 0.00 0.00 0.00 0.00 0.00 0.00 0.00 0.00 0.00
0.06 0.07 0.07 0.05 0.02 0.00 0.00 0.00 0.00 0.00 0.00 0.00 0.00 0.00 0.00 0.00 0.00 0.00 0.00 0.00 0.00 0.01 0.02 0.01 0.00 0.00 0.00 0.00 0.00 0.00 0.00 0.00 0.00 0.00 0.00 0.00 0.00 0.00 0.00 0.00 0.00 0.00 0.00 0.00 0.00
0.06 0.07 0.07 0.07 0.05 0.01 0.00 0.00 0.00 0.00 0.00 0.00 0.00 0.00 0.00 0.00 0.00 0.00 0.00 0.00 0.00 0.01 0.01 0.01 0.00 0.00 0.00 0.00 0.00 0.00 0.00 0.00 0.00 0.00 0.00 0.00 0.00 0.00 0.00 0.00 0.00 0.00 0.00 0.00 0.00
0.07 0.07 0.07 0.07 0.06 0.03 0.00 0.01 0.01 0.02 0.00 0.00 0.00 0.00 0.00 0.00 0.00 0.00 0.00 0.00 0.00 0.00 0.00 0.00 0.00 0.01 0.01 0.00 0.00 0.00 0.00 0.00 0.00 0.00 0.00 0.00 0.00 0.00 0.00 0.00 0.00 0.00 0.00 0.00 0.00
0.10 0.11 0.10 0.09 0.09 0.05 0.02 0.01 0.03 0.04 0.01 0.01 0.00 0.00 0.00 0.00 0.00 0.00 0.00 0.00 0.00 0.00 0.00 0.00 0.00 0.00 0.00 0.00 0.00 0.00 0.00 0.00 0.00 0.00 0.00 0.00 0.00 0.00 0.00 0.00 0.00 0.00 0.00 0.00 0.00
0.14 0.13 0.12 0.13 0.12 0.09 0.06 0.02 0.02 0.02 0.01 0.06 0.01 0.00 0.00 0.00 0.00 0.00 0.00 0.00 0.00 0.00 0.00 0.00 0.00 0.00 0.00 0.01 0.01 0.00 0.00 0.00 0.00 0.00 0.00 0.00 0.00 0.00 0.00 0.00 0.00 0.00 0.00 0.00 0.00
0.17 0.19 0.21 0.20 0.18 0.13 0.09 0.05 0.00 0.00 0.03 0.09 0.02 0.00 0.00 0.00 0.00 0.00 0.00 0.00 0.00 0.00 0.00 0.00 0.00 0.00 0.00 0.01 0.00 0.00 0.00 0.00 0.00 0.00 0.00 0.00 0.00 0.00 0.00 0.00 0.00 0.00 0.00 0.00 0.00
0.21 0.18 0.19 0.25 0.23 0.18 0.09 0.02 0.00 0.00 0.03 0.01 0.01 0.00 0.00 0.00 0.00 0.00 0.00 0.00 0.00 0.00 0.00 0.00 0.00 0.00 0.00 0.00 0.00 0.00 0.00 0.00 0.00 0.00 0.00 0.00 0.00 0.00 0.00 0.00 0.00 0.00 0.00 0.00 0.00
0.18 0.27 0.30 0.30 0.38 0.34 0.13 0.00 0.00 0.00 0.00 0.00 0.00 0.00 0.00 0.00 0.00 0.00 0.00 0.00 0.00 0.00 0.00 0.00 0.00 0.00 0.00 0.00 0.00 0.00 0.00 0.00 0.00 0.00 0.00 0.00 0.00 0.00 0.00 0.00 0.00 0.00 0.00 0.00 0.00
0.20 0.24 0.33 0.49 0.59 0.64 0.18 0.01 0.00 0.00 0.00 0.00 0.00 0.00 0.00 0.00 0.01 0.00 0.00 0.00 0.00 0.00 0.00 0.00 0.00 0.00 0.00 0.00 0.00 0.00 0.00 0.00 0.00 0.00 0.00 0.00 0.00 0.00 0.00 0.00 0.00 0.00 0.00 0.00 0.00
0.27 0.32 0.33 0.50 0.85 0.74 0.35 0.03 0.00 0.00 0.01 0.00 0.00 0.00 0.01 0.02 0.01 0.00 0.00 0.00 0.00 0.00 0.00 0.02 0.00 0.00 0.00 0.00 0.00 0.00 0.00 0.00 0.00 0.01 0.00 0.01 0.02 0.00 0.00 0.00 0.00 0.00 0.00 0.00 0.00
0.37 0.39 0.47 0.53 0.81 0.72 0.33 0.08 0.01 0.01 0.00 0.00 0.00 0.01 0.03 0.02 0.00 0.00 0.00 0.01 0.04 0.03 0.03 0.04 0.00 0.00 0.00 0.00 0.00 0.00 0.00 0.00 0.01 0.02 0.03 0.00 0.06 0.01 0.00 0.00 0.00 0.00 0.00 0.00 0.00
0.42 0.47 0.52 0.72 0.60 0.45 0.33 0.13 0.04 0.00 0.00 0.00 0.00 0.01 0.04 0.02 0.01 0.00 0.01 0.02 0.04 0.14 0.23 0.08 0.00 0.01 0.00 0.00 0.00 0.01 0.04 0.05 0.09 0.14 0.17 0.01 0.02 0.01 0.00 0.00 0.00 0.00 0.00 0.00 0.00
0.47 0.59 0.80 0.72 0.61 0.39 0.46 0.35 0.11 0.02 0.00 0.00 0.00 0.01 0.01 0.01 0.01 0.01 0.03 0.06 0.05 0.07 0.11 0.11 0.05 0.01 0.00 0.01 0.01 0.03 0.20 0.32 0.25 0.27 0.10 0.00 0.01 0.03 0.00 0.00 0.00 0.00 0.00 0.00 0.00
0.53 0.73 1.04 0.85 0.61 0.59 0.55 0.34 0.06 0.00 0.00 0.00 0.00 0.00 0.00 0.00 0.00 0.01 0.03 0.03 0.02 0.02 0.03 0.01 0.00 0.01 0.01 0.01 0.01 0.01 0.06 0.18 0.15 0.05 0.01 0.01 0.05 0.01 0.00 0.00 0.00 0.00 0.00 0.00 0.00
0.72 1.10 1.44 1.20 0.88 0.88 0.63 0.38 0.02 0.00 0.00 0.00 0.00 0.01 0.01 0.00 0.00 0.01 0.01 0.00 0.00 0.01 0.02 0.01 0.00 0.00 0.00 0.00 0.01 0.03 0.11 0.04 0.12 0.13 0.17 0.03 0.01 0.00 0.00 0.00 0.00 0.00 0.00 0.00 0.00
0.70 1.36 1.46 1.03 1.00 1.07 0.78 0.20 0.00 0.00 0.00 0.00 0.00 0.01 0.00 0.00 0.00 0.01 0.00 0.00 0.00 0.00 0.00 0.00 0.01 0.00 0.05 0.19 0.12 0.02 0.04 0.10 0.38 0.29 0.17 0.06 0.00 0.00 0.00 0.00 0.00 0.00 0.00 0.00 0.00
0.67 1.28 1.26 1.02 1.34 1.49 0.87 0.15 0.00 0.00 0.00 0.00 0.01 0.02 0.01 0.00 0.00 0.00 0.00 0.00 0.00 0.00 0.00 0.01 0.10 0.08 0.31 0.37 0.15 0.17 0.29 0.23 0.16 0.08 0.16 0.15 0.00 0.00 0.00 0.00 0.00 0.00 0.00 0.00 0.00
0.68 0.89 1.10 1.42 2.06 1.40 0.44 0.04 0.00 0.00 0.00 0.02 0.03 0.04 0.03 0.02 0.02 0.00 0.00 0.00 0.00 0.00 0.01 0.03 0.25 0.16 0.22 0.12 0.05 0.13 0.11 0.18 0.38 0.18 0.12 0.20 0.03 0.00 0.01 0.01 0.00 0.01 0.02 0.01 0.00
0.90 0.92 1.38 0.97 0.99 0.43 0.16 0.03 0.00 0.00 0.01 0.06 0.06 0.04 0.02 0.02 0.05 0.00 0.00 0.00 0.00 0.00 0.06 0.17 0.33 0.19 0.12 0.28 0.28 0.41 0.18 0.25 0.34 0.58 0.39 0.20 0.03 0.00 0.00 0.00 0.00 0.00 0.03 0.02 0.01
1.05 1.26 1.72 1.63 0.49 0.05 0.06 0.01 0.00 0.00 0.03 0.08 0.11 0.11 0.07 0.04 0.01 0.01 0.00 0.00 0.00 0.00 0.02 0.16 0.31 0.39 0.43 0.32 0.44 0.59 0.30 0.38 0.55 0.58 0.26 0.20 0.03 0.01 0.01 0.02 0.01 0.00 0.02 0.04 0.01
0.73 0.70 0.52 0.53 0.46 0.07 0.01 0.01 0.00 0.01 0.04 0.12 0.12 0.08 0.06 0.06 0.02 0.01 0.00 0.00 0.00 0.00 0.05 0.24 0.42 0.53 0.35 0.28 0.41 0.51 0.49 0.38 0.51 0.23 0.19 0.08 0.07 0.03 0.03 0.02 0.02 0.01 0.01 0.02 0.00
0.45 0.64 0.18 0.03 0.07 0.09 0.05 0.03 0.01 0.01 0.06 0.08 0.08 0.06 0.07 0.04 0.00 0.00 0.00 0.00 0.00 0.01 0.10 0.28 0.56 0.62 0.50 0.24 0.38 0.47 0.47 0.23 0.47 0.21 0.18 0.14 0.12 0.01 0.01 0.01 0.00 0.00 0.01 0.02 0.00
0.49 0.55 0.30 0.13 0.06 0.11 0.04 0.01 0.01 0.02 0.02 0.03 0.07 0.10 0.06 0.01 0.00 0.00 0.00 0.00 0.00 0.05 0.15 0.25 0.47 0.66 0.58 0.47 0.27 0.45 0.55 0.59 0.44 0.18 0.22 0.26 0.14 0.01 0.01 0.01 0.00 0.01 0.02 0.01 0.00

GFSSW_prec_precacc12_042.txt.gz
Total_Precipitation_Accumulation
0.03 0.04 0.02 0.00 0.00 0.00 0.00 0.00 0.00 0.00 0.00 0.00 0.00 0.03 0.14 0.15 0.13 0.03 0.00 0.00 0.00 0.00 0.00 0.00 0.00 0.00 0.00 0.00 0.00 0.00 0.00 0.00 0.00 0.00 0.00 0.00 0.00 0.00 0.00 0.00 0.00 0.00 0.00 0.00 0.00
0.03 0.03 0.06 0.05 0.01 0.00 0.00 0.00 0.00 0.00 0.00 0.00 0.00 0.00 0.02 0.05 0.12 0.08 0.00 0.00 0.01 0.01 0.00 0.00 0.00 0.00 0.00 0.00 0.00 0.00 0.00 0.00 0.00 0.00 0.00 0.00 0.00 0.00 0.00 0.00 0.00 0.00 0.00 0.00 0.00
0.05 0.06 0.06 0.07 0.04 0.00 0.00 0.00 0.00 0.00 0.00 0.00 0.00 0.00 0.00 0.00 0.00 0.00 0.00 0.02 0.04 0.16 0.00 0.00 0.00 0.00 0.00 0.00 0.00 0.00 0.00 0.00 0.00 0.00 0.00 0.00 0.00 0.00 0.00 0.00 0.00 0.00 0.00 0.00 0.00
0.07 0.08 0.08 0.09 0.08 0.03 0.00 0.00 0.00 0.00 0.00 0.00 0.00 0.00 0.00 0.00 0.00 0.00 0.00 0.00 0.00 0.09 0.02 0.00 0.00 0.00 0.00 0.00 0.00 0.00 0.00 0.00 0.00 0.00 0.00 0.00 0.00 0.00 0.00 0.00 0.00 0.00 0.00 0.00 0.00
0.07 0.08 0.09 0.08 0.07 0.06 0.02 0.00 0.00 0.00 0.00 0.00 0.00 0.00 0.00 0.00 0.00 0.00 0.00 0.00 0.00 0.02 0.03 0.01 0.00 0.00 0.00 0.00 0.00 0.00 0.00 0.00 0.00 0.00 0.00 0.00 0.00 0.00 0.00 0.00 0.00 0.00 0.00 0.00 0.00
0.06 0.07 0.08 0.08 0.07 0.07 0.04 0.00 0.00 0.00 0.00 0.00 0.00 0.00 0.00 0.00 0.00 0.00 0.00 0.00 0.00 0.01 0.02 0.02 0.01 0.00 0.00 0.00 0.00 0.00 0.00 0.00 0.00 0.00 0.00 0.00 0.00 0.00 0.00 0.00 0.00 0.00 0.00 0.00 0.00
0.05 0.06 0.07 0.07 0.07 0.07 0.06 0.03 0.01 0.02 0.00 0.00 0.00 0.00 0.00 0.00 0.00 0.00 0.00 0.00 0.00 0.00 0.01 0.00 0.00 0.00 0.00 0.00 0.00 0.00 0.00 0.00 0.00 0.00 0.00 0.00 0.00 0.00 0.00 0.00 0.00 0.00 0.00 0.00 0.00
0.09 0.10 0.10 0.10 0.10 0.09 0.09 0.07 0.04 0.04 0.02 0.01 0.00 0.00 0.00 0.00 0.00 0.00 0.00 0.00 0.00 0.00 0.01 0.01 0.01 0.01 0.00 0.00 0.00 0.00 0.00 0.00 0.00 0.00 0.00 0.00 0.00 0.00 0.00 0.00 0.00 0.00 0.00 0.00 0.00
0.13 0.13 0.13 0.14 0.16 0.15 0.13 0.09 0.06 0.02 0.03 0.08 0.01 0.00 0.00 0.00 0.00 0.00 0.00 0.00 0.00 0.00 0.00 0.00 0.00 0.00 0.00 0.01 0.00 0.00 0.00 0.00 0.00 0.00 0.00 0.00 0.00 0.00 0.00 0.00 0.00 0.00 0.00 0.00 0.00
0.15 0.16 0.20 0.20 0.21 0.20 0.23 0.25 0.08 0.00 0.02 0.08 0.03 0.00 0.00 0.00 0.00 0.00 0.00 0.00 0.00 0.00 0.00 0.00 0.00 0.00 0.00 0.01 0.00 0.00 0.00 0.00 0.00 0.00 0.00 0.00 0.00 0.00 0.00 0.00 0.00 0.00 0.00 0.00 0.00
0.21 0.19 0.18 0.25 0.27 0.35 0.50 0.49 0.12 0.00 0.03 0.01 0.01 0.00 0.00 0.00 0.00 0.00 0.00 0.00 0.00 0.00 0.00 0.00 0.00 0.00 0.00 0.00 0.00 0.00 0.00 0.00 0.00 0.00 0.00 0.00 0.00 0.00 0.00 0.00 0.00 0.00 0.00 0.00 0.00
0.18 0.27 0.28 0.29 0.41 0.56 0.81 0.39 0.03 0.00 0.00 0.00 0.00 0.00 0.00 0.00 0.00 0.00 0.00 0.00 0.00 0.00 0.00 0.00 0.00 0.00 0.00 0.00 0.00 0.00 0.00 0.00 0.00 0.00 0.00 0.00 0.00 0.00 0.00 0.00 0.00 0.00 0.00 0.00 0.00
0.20 0.23 0.31 0.48 0.60 0.82 0.67 0.30 0.02 0.00 0.00 0.00 0.00 0.00 0.00 0.00 0.00 0.00 0.00 0.00 0.00 0.00 0.00 0.00 0.00 0.00 0.00 0.00 0.00 0.00 0.00 0.00 0.00 0.00 0.00 0.00 0.00 0.00 0.00 0.00 0.00 0.00 0.00 0.00 0.00
0.25 0.29 0.31 0.49 0.84 0.82 0.68 0.28 0.09 0.01 0.01 0.00 0.00 0.00 0.01 0.02 0.01 0.00 0.00 0.00 0.00 0.00 0.00 0.01 0.00 0.00 0.00 0.00 0.00 0.00 0.00 0.00 0.00 0.01 0.00 0.00 0.00 0.00 0.00 0.00 0.00 0.00 0.00 0.00 0.00
0.31 0.32 0.42 0.56 0.85 0.82 0.55 0.45 0.22 0.07 0.03 0.00 0.00 0.01 0.03 0.01 0.00 0.00 0.00 0.00 0.01 0.00 0.00 0.01 0.00 0.00 0.00 0.00 0.00 0.00 0.00 0.00 0.01 0.02 0.02 0.00 0.01 0.00 0.00 0.00 0.00 0.00 0.00 0.00 0.00
0.34 0.42 0.49 0.66 0.62 0.47 0.57 0.61 0.48 0.15 0.01 0.01 0.00 0.03 0.06 0.02 0.02 0.00 0.01 0.02 0.02 0.06 0.08 0.02 0.00 0.00 0.00 0.00 0.00 0.01 0.03 0.04 0.09 0.12 0.14 0.00 0.00 0.00 0.00 0.00 0.00 0.00 0.00 0.00 0.00
0.42 0.50 0.78 0.75 0.61 0.45 0.80 1.15 0.64 0.12 0.00 0.01 0.01 0.02 0.02 0.01 0.02 0.01 0.02 0.04 0.04 0.05 0.07 0.06 0.03 0.01 0.00 0.01 0.00 0.01 0.16 0.24 0.23 0.26 0.09 0.00 0.00 0.00 0.00 0.00 0.00 0.00 0.00 0.00 0.00
0.27 0.44 0.91 0.84 0.61 0.69 0.93 1.05 0.31 0.02 0.00 0.00 0.00 0.01 0.01 0.00 0.01 0.01 0.03 0.03 0.02 0.01 0.02 0.01 0.00 0.00 0.00 0.01 0.01 0.01 0.04 0.12 0.14 0.05 0.01 0.00 0.00 0.00 0.00 0.00 0.00 0.00 0.00 0.00 0.00
0.41 0.40 0.99 1.15 0.86 1.02 0.94 0.82 0.11 0.00 0.00 0.00 0.00 0.01 0.01 0.00 0.00 0.01 0.01 0.00 0.00 0.01 0.02 0.00 0.00 0.00 0.00 0.00 0.00 0.01 0.07 0.03 0.12 0.11 0.16 0.02 0.00 0.00 0.00 0.00 0.00 0.00 0.00 0.00 0.00
0.38 0.60 0.79 1.01 1.00 1.34 1.00 0.42 0.04 0.00 0.00 0.00 0.00 0.00 0.00 0.00 0.00 0.01 0.00 0.00 0.00 0.00 0.00 0.00 0.00 0.00 0.00 0.01 0.01 0.01 0.02 0.09 0.35 0.23 0.11 0.01 0.00 0.00 0.00 0.00 0.00 0.00 0.00 0.00 0.00
0.37 0.61 0.84 0.94 1.40 1.72 1.11 0.35 0.01 0.00 0.00 0.00 0.00 0.00 0.00 0.00 0.00 0.00 0.00 0.00 0.00 0.00 0.00 0.00 0.03 0.02 0.12 0.10 0.04 0.14 0.24 0.21 0.20 0.13 0.05 0.03 0.01 0.00 0.00 0.00 0.00 0.00 0.00 0.00 0.00
0.37 0.63 0.85 1.27 1.93 1.49 0.62 0.14 0.00 0.00 0.00 0.00 0.00 0.00 0.00 0.00 0.01 0.00 0.00 0.00 0.00 0.00 0.00 0.01 0.16 0.09 0.08 0.02 0.04 0.12 0.08 0.18 0.50 0.19 0.20 0.13 0.05 0.00 0.01 0.01 0.00 0.01 0.02 0.01 0.00
0.56 0.73 1.31 0.90 0.75 0.55 0.30 0.07 0.00 0.00 0.00 0.00 0.00 0.01 0.01 0.01 0.03 0.00 0.00 0.00 0.00 0.00 0.01 0.06 0.19 0.11 0.08 0.13 0.21 0.30 0.16 0.26 0.40 0.53 0.36 0.23 0.08 0.00 0.00 0.00 0.00 0.01 0.03 0.02 0.01
0.73 1.36 1.66 1.43 0.39 0.05 0.09 0.04 0.01 0.00 0.00 0.00 0.01 0.03 0.04 0.03 0.01 0.00 0.00 0.00 0.00 0.00 0.00 0.06 0.15 0.13 0.16 0.19 0.42 0.58 0.27 0.44 0.76 0.62 0.13 0.12 0.01 0.01 0.01 0.02 0.01 0.00 0.02 0.04 0.01
0.70 0.90 0.50 0.44 0.39 0.06 0.01 0.01 0.00 0.01 0.00 0.02 0.03 0.02 0.04 0.05 0.02 0.01 0.00 0.00 0.00 0.00 0.01 0.12 0.19 0.16 0.13 0.17 0.38 0.47 0.40 0.39 0.56 0.18 0.15 0.05 0.04 0.01 0.03 0.02 0.02 0.01 0.01 0.02 0.01
0.51 0.79 0.23 0.03 0.08 0.09 0.04 0.02 0.00 0.00 0.01 0.01 0.02 0.02 0.02 0.04 0.00 0.00 0.00 0.00 0.00 0.01 0.07 0.19 0.27 0.30 0.36 0.20 0.31 0.39 0.29 0.26 0.16 0.05 0.09 0.13 0.11 0.01 0.01 0.01 0.00 0.00 0.01 0.02 0.00
0.47 0.62 0.39 0.16 0.07 0.12 0.04 0.01 0.01 0.01 0.01 0.00 0.01 0.03 0.02 0.01 0.00 0.00 0.00 0.00 0.00 0.03 0.14 0.24 0.32 0.42 0.48 0.44 0.25 0.40 0.48 0.59 0.30 0.12 0.17 0.24 0.14 0.01 0.01 0.01 0.00 0.01 0.02 0.02 0.00

GFSSW_prec_precacc12_045.txt.gz
Total_Precipitation_Accumulation
0.04 0.05 0.05 0.06 0.04 0.01 0.00 0.00 0.00 0.00 0.00 0.00 0.00 0.02 0.06 0.13 0.15 0.04 0.01 0.00 0.00 0.00 0.00 0.00 0.00 0.00 0.00 0.00 0.00 0.00 0.00 0.00 0.00 0.00 0.00 0.00 0.00 0.00 0.00 0.00 0.00 0.00 0.00 0.00 0.00
0.03 0.04 0.07 0.08 0.06 0.04 0.01 0.00 0.00 0.00 0.00 0.00 0.00 0.00 0.01 0.04 0.17 0.11 0.00 0.00 0.02 0.02 0.00 0.00 0.00 0.00 0.00 0.00 0.00 0.00 0.00 0.00 0.00 0.00 0.00 0.00 0.00 0.00 0.00 0.00 0.00 0.00 0.00 0.00 0.00
0.05 0.06 0.07 0.08 0.09 0.06 0.03 0.00 0.00 0.00 0.00 0.00 0.00 0.00 0.00 0.00 0.01 0.01 0.00 0.03 0.10 0.20 0.01 0.00 0.00 0.00 0.00 0.00 0.00 0.00 0.00 0.00 0.00 0.00 0.00 0.00 0.00 0.00 0.00 0.00 0.00 0.00 0.00 0.00 0.00
0.07 0.08 0.08 0.09 0.09 0.09 0.06 0.02 0.00 0.00 0.00 0.00 0.00 0.00 0.00 0.00 0.00 0.00 0.00 0.01 0.04 0.19 0.05 0.00 0.00 0.00 0.00 0.00 0.00 0.00 0.00 0.00 0.00 0.00 0.00 0.00 0.00 0.00 0.00 0.00 0.00 0.00 0.00 0.00 0.00
0.06 0.08 0.09 0.08 0.07 0.08 0.07 0.04 0.01 0.00 0.00 0.00 0.00 0.00 0.00 0.00 0.00 0.00 0.00 0.00 0.00 0.03 0.04 0.01 0.00 0.00 0.00 0.00 0.00 0.00 0.00 0.00 0.00 0.00 0.00 0.00 0.00 0.00 0.00 0.00 0.00 0.00 0.00 0.00 0.00
0.05 0.07 0.07 0.08 0.07 0.07 0.08 0.07 0.03 0.00 0.00 0.00 0.00 0.00 0.00 0.00 0.00 0.00 0.00 0.00 0.00 0.02 0.04 0.02 0.01 0.00 0.00 0.00 0.00 0.00 0.00 0.00 0.00 0.00 0.00 0.00 0.00 0.00 0.00 0.00 0.00 0.00 0.00 0.00 0.00
0.04 0.05 0.06 0.07 0.08 0.07 0.09 0.09 0.09 0.04 0.00 0.00 0.00 0.00 0.00 0.00 0.00 0.00 0.00 0.00 0.00 0.01 0.02 0.01 0.01 0.00 0.00 0.00 0.00 0.00 0.00 0.00 0.00 0.00 0.00 0.00 0.00 0.00 0.00 0.00 0.00 0.00 0.00 0.00 0.00
0.08 0.08 0.09 0.10 0.11 0.10 0.10 0.12 0.19 0.10 0.03 0.02 0.00 0.00 0.00 0.00 0.00 0.00 0.00 0.00 0.00 0.01 0.02 0.02 0.01 0.01 0.00 0.00 0.00 0.00 0.00 0.00 0.00 0.00 0.00 0.00 0.00 0.00 0.00 0.00 0.00 0.00 0.00 0.00 0.00
0.11 0.11 0.11 0.13 0.16 0.15 0.15 0.15 0.24 0.19 0.06 0.09 0.01 0.00 0.00 0.00 0.00 0.00 0.00 0.00 0.00 0.00 0.00 0.02 0.01 0.00 0.00 0.00 0.00 0.00 0.00 0.00 0.00 0.00 0.00 0.00 0.00 0.00 0.00 0.00 0.00 0.00 0.00 0.00 0.00
0.13 0.14 0.16 0.18 0.22 0.21 0.25 0.37 0.41 0.26 0.06 0.09 0.03 0.00 0.00 0.00 0.00 0.00 0.00 0.00 0.00 0.00 0.00 0.00 0.00 0.00 0.00 0.00 0.00 0.00 0.00 0.00 0.00 0.00 0.00 0.00 0.00 0.00 0.00 0.00 0.00 0.00 0.00 0.00 0.00
0.16 0.16 0.17 0.24 0.27 0.36 0.53 0.78 0.83 0.57 0.14 0.01 0.01 0.00 0.00 0.00 0.00 0.00 0.00 0.00 0.00 0.00 0.00 0.00 0.00 0.00 0.00 0.00 0.00 0.00 0.00 0.00 0.00 0.00 0.00 0.00 0.00 0.00 0.00 0.00 0.00 0.00 0.00 0.00 0.00
0.10 0.23 0.28 0.26 0.39 0.56 0.85 0.77 0.47 0.17 0.06 0.00 0.00 0.00 0.00 0.00 0.00 0.00 0.00 0.00 0.00 0.00 0.00 0.00 0.00 0.00 0.00 0.00 0.00 0.00 0.00 0.00 0.00 0.00 0.00 0.00 0.00 0.00 0.00 0.00 0.00 0.00 0.00 0.00 0.00
0.09 0.17 0.31 0.47 0.56 0.80 0.70 0.43 0.27 0.20 0.13 0.01 0.00 0.00 0.00 0.00 0.00 0.00 0.00 0.00 0.00 0.00 0.00 0.00 0.00 0.00 0.00 0.00 0.00 0.00 0.00 0.00 0.00 0.00 0.00 0.00 0.00 0.00 0.00 0.00 0.00 0.00 0.00 0.00 0.00
0.10 0.13 0.27 0.42 0.78 0.84 0.71 0.38 0.39 0.33 0.16 0.01 0.00 0.00 0.00 0.01 0.01 0.00 0.00 0.00 0.00 0.00 0.00 0.00 0.00 0.00 0.00 0.00 0.00 0.00 0.00 0.00 0.00 0.00 0.00 0.00 0.00 0.00 0.00 0.00 0.00 0.00 0.00 0.00 0.00
0.10 0.09 0.25 0.56 0.89 0.82 0.60 0.68 0.69 0.50 0.24 0.01 0.00 0.01 0.02 0.01 0.00 0.00 0.00 0.00 0.00 0.00 0.00 0.00 0.00 0.00 0.00 0.00 0.00 0.00 0.00 0.00 0.00 0.01 0.01 0.00 0.01 0.00 0.00 0.00 0.00 0.00 0.00 0.00 0.00
0.07 0.10 0.24 0.59 0.66 0.47 0.60 0.91 1.23 0.76 0.20 0.01 0.01 0.04 0.06 0.02 0.01 0.01 0.02 0.02 0.01 0.02 0.02 0.00 0.00 0.00 0.00 0.00 0.00 0.00 0.01 0.02 0.04 0.11 0.12 0.00 0.00 0.00 0.00 0.00 0.00 0.00 0.00 0.00 0.00
0.20 0.13 0.26 0.63 0.60 0.46 0.89 1.51 1.22 0.52 0.04 0.01 0.02 0.04 0.02 0.01 0.03 0.01 0.03 0.04 0.02 0.02 0.03 0.01 0.00 0.00 0.00 0.01 0.00 0.01 0.06 0.08 0.08 0.16 0.07 0.00 0.00 0.00 0.00 0.00 0.00 0.00 0.00 0.00 0.00
0.25 0.20 0.17 0.61 0.58 0.73 1.01 1.37 0.61 0.16 0.00 0.00 0.01 0.03 0.02 0.01 0.02 0.01 0.03 0.03 0.02 0.01 0.01 0.00 0.00 0.00 0.00 0.01 0.01 0.01 0.02 0.03 0.03 0.02 0.01 0.00 0.00 0.00 0.00 0.00 0.00 0.00 0.00 0.00 0.00
0.39 0.16 0.12 0.56 0.83 1.02 0.99 1.00 0.30 0.03 0.00 0.00 0.02 0.03 0.03 0.01 0.01 0.01 0.02 0.01 0.00 0.01 0.02 0.00 0.00 0.00 0.00 0.00 0.00 0.01 0.04 0.01 0.05 0.05 0.11 0.02 0.00 0.00 0.00 0.00 0.00 0.00 0.00 0.00 0.00
0.33 0.20 0.26 0.46 0.94 1.36 1.06 0.47 0.16 0.00 0.00 0.00 0.01 0.00 0.01 0.01 0.00 0.01 0.00 0.00 0.00 0.00 0.00 0.00 0.00 0.00 0.00 0.00 0.01 0.01 0.01 0.07 0.20 0.12 0.07 0.01 0.00 0.00 0.00 0.00 0.00 0.00 0.00 0.00 0.00
0.30 0.22 0.35 0.52 1.05 1.72 1.12 0.38 0.09 0.00 0.00 0.00 0.00 0.00 0.00 0.00 0.00 0.00 0.00 0.00 0.00 0.00 0.00 0.00 0.01 0.00 0.01 0.00 0.02 0.09 0.20 0.20 0.20 0.12 0.05 0.03 0.01 0.00 0.00 0.00 0.00 0.00 0.00 0.00 0.00
0.26 0.49 0.51 0.65 1.24 1.31 0.64 0.17 0.04 0.00 0.00 0.00 0.00 0.00 0.00 0.00 0.00 0.00 0.00 0.00 0.00 0.00 0.00 0.00 0.05 0.03 0.00 0.00 0.01 0.04 0.04 0.17 0.50 0.19 0.25 0.16 0.07 0.00 0.01 0.01 0.00 0.00 0.00 0.00 0.00
0.41 0.53 0.88 0.59 0.48 0.51 0.31 0.16 0.03 0.00 0.00 0.00 0.00 0.00 0.00 0.01 0.02 0.00 0.00 0.00 0.00 0.00 0.00 0.00 0.05 0.03 0.01 0.03 0.11 0.19 0.09 0.21 0.42 0.62 0.42 0.24 0.11 0.00 0.00 0.00 0.00 0.00 0.01 0.02 0.01
0.61 0.92 1.10 0.89 0.26 0.07 0.12 0.15 0.03 0.01 0.00 0.00 0.00 0.00 0.01 0.02 0.00 0.00 0.00 0.00 0.00 0.00 0.00 0.00 0.02 0.03 0.04 0.03 0.24 0.54 0.26 0.46 0.96 0.79 0.15 0.10 0.01 0.00 0.00 0.00 0.00 0.00 0.01 0.03 0.01
0.64 0.67 0.41 0.28 0.30 0.09 0.03 0.06 0.01 0.01 0.00 0.00 0.00 0.00 0.01 0.03 0.01 0.01 0.00 0.00 0.00 0.00 0.00 0.01 0.05 0.04 0.04 0.08 0.18 0.33 0.37 0.38 0.66 0.31 0.26 0.06 0.00 0.00 0.01 0.01 0.00 0.00 0.01 0.03 0.02
0.42 0.70 0.26 0.04 0.07 0.10 0.05 0.04 0.01 0.00 0.00 0.00 0.00 0.00 0.01 0.02 0.00 0.00 0.00 0.00 0.00 0.00 0.01 0.04 0.10 0.07 0.05 0.10 0.23 0.29 0.25 0.26 0.13 0.05 0.06 0.01 0.01 0.01 0.01 0.00 0.00 0.00 0.02 0.04 0.04
0.35 0.63 0.43 0.16 0.07 0.12 0.04 0.00 0.01 0.00 0.00 0.00 0.00 0.00 0.00 0.00 0.00 0.00 0.00 0.00 0.00 0.02 0.04 0.10 0.14 0.19 0.13 0.17 0.10 0.18 0.28 0.21 0.05 0.02 0.01 0.01 0.02 0.01 0.01 0.04 0.05 0.03 0.04 0.03 0.02

GFSSW_prec_precacc12_048.txt.gz
Total_Precipitation_Accumulation
0.04 0.05 0.06 0.06 0.06 0.05 0.03 0.01 0.00 0.00 0.00 0.00 0.00 0.01 0.03 0.07 0.13 0.04 0.01 0.00 0.00 0.00 0.00 0.00 0.00 0.00 0.00 0.00 0.00 0.00 0.00 0.00 0.00 0.00 0.00 0.00 0.00 0.00 0.00 0.00 0.00 0.00 0.00 0.00 0.00
0.03 0.04 0.07 0.08 0.07 0.06 0.05 0.03 0.00 0.00 0.00 0.00 0.00 0.00 0.00 0.01 0.17 0.11 0.00 0.00 0.01 0.01 0.00 0.00 0.00 0.00 0.00 0.00 0.00 0.00 0.00 0.00 0.00 0.00 0.00 0.00 0.00 0.00 0.00 0.00 0.00 0.00 0.00 0.00 0.00
0.04 0.06 0.07 0.09 0.09 0.07 0.06 0.05 0.02 0.00 0.00 0.00 0.00 0.00 0.00 0.00 0.02 0.01 0.00 0.04 0.10 0.18 0.00 0.00 0.00 0.00 0.00 0.00 0.00 0.00 0.00 0.00 0.00 0.00 0.00 0.00 0.00 0.00 0.00 0.00 0.00 0.00 0.00 0.00 0.00
0.04 0.06 0.08 0.09 0.09 0.09 0.07 0.07 0.05 0.02 0.00 0.00 0.00 0.00 0.00 0.00 0.00 0.00 0.00 0.05 0.15 0.26 0.06 0.00 0.00 0.00 0.00 0.00 0.00 0.00 0.00 0.00 0.00 0.00 0.00 0.00 0.00 0.00 0.00 0.00 0.00 0.00 0.00 0.00 0.00
0.03 0.04 0.07 0.08 0.07 0.08 0.07 0.06 0.06 0.05 0.01 0.00 0.00 0.00 0.00 0.00 0.00 0.00 0.00 0.00 0.05 0.12 0.08 0.03 0.00 0.00 0.00 0.00 0.00 0.00 0.00 0.00 0.00 0.00 0.00 0.00 0.00 0.00 0.00 0.00 0.00 0.00 0.00 0.00 0.00
0.02 0.03 0.04 0.06 0.07 0.07 0.08 0.07 0.07 0.08 0.04 0.00 0.00 0.00 0.00 0.00 0.00 0.00 0.00 0.00 0.00 0.03 0.08 0.07 0.01 0.00 0.00 0.00 0.00 0.00 0.00 0.00 0.00 0.00 0.00 0.00 0.00 0.00 0.00 0.00 0.00 0.00 0.00 0.00 0.00
0.01 0.02 0.03 0.05 0.07 0.07 0.09 0.10 0.11 0.12 0.10 0.02 0.00 0.00 0.00 0.00 0.00 0.00 0.00 0.00 0.00 0.01 0.04 0.04 0.01 0.00 0.00 0.00 0.00 0.00 0.00 0.00 0.00 0.00 0.00 0.00 0.00 0.00 0.00 0.00 0.00 0.00 0.00 0.00 0.00
0.03 0.04 0.04 0.06 0.09 0.10 0.11 0.12 0.18 0.23 0.23 0.10 0.01 0.00 0.00 0.00 0.00 0.00 0.00 0.00 0.00 0.01 0.04 0.04 0.01 0.01 0.00 0.00 0.00 0.00 0.00 0.00 0.00 0.00 0.00 0.00 0.00 0.00 0.00 0.00 0.00 0.00 0.00 0.00 0.00
0.02 0.06 0.07 0.08 0.12 0.14 0.15 0.15 0.24 0.35 0.37 0.23 0.03 0.00 0.00 0.00 0.00 0.00 0.00 0.00 0.00 0.00 0.01 0.03 0.01 0.00 0.00 0.00 0.00 0.00 0.00 0.00 0.00 0.00 0.00 0.00 0.00 0.00 0.00 0.00 0.00 0.00 0.00 0.00 0.00
0.03 0.06 0.11 0.12 0.16 0.20 0.25 0.36 0.41 0.44 0.48 0.39 0.11 0.01 0.00 0.00 0.00 0.00 0.00 0.00 0.00 0.01 0.04 0.02 0.00 0.00 0.00 0.00 0.00 0.00 0.00 0.00 0.00 0.00 0.00 0.00 0.00 0.00 0.00 0.00 0.00 0.00 0.00 0.00 0.00
0.05 0.05 0.10 0.18 0.23 0.34 0.57 0.80 0.85 0.82 0.75 0.34 0.10 0.00 0.00 0.00 0.00 0.00 0.00 0.00 0.00 0.00 0.00 0.00 0.00 0.00 0.00 0.00 0.00 0.00 0.00 0.00 0.00 0.00 0.00 0.00 0.00 0.00 0.00 0.00 0.00 0.00 0.00 0.00 0.00
0.07 0.07 0.13 0.20 0.33 0.55 0.87 0.80 0.59 0.49 0.53 0.21 0.02 0.00 0.00 0.00 0.00 0.00 0.00 0.00 0.00 0.00 0.00 0.00 0.00 0.00 0.00 0.00 0.00 0.00 0.00 0.00 0.00 0.00 0.00 0.00 0.00 0.00 0.00 0.00 0.00 0.00 0.00 0.00 0.00
0.09 0.11 0.16 0.30 0.44 0.73 0.74 0.45 0.35 0.56 0.50 0.23 0.05 0.00 0.00 0.00 0.00 0.00 0.00 0.00 0.00 0.00 0.00 0.00 0.00 0.00 0.00 0.00 0.00 0.00 0.00 0.00 0.00 0.00 0.00 0.00 0.00 0.00 0.00 0.00 0.00 0.00 0.00 0.00 0.00
0.11 0.11 0.14 0.19 0.41 0.76 0.75 0.46 0.45 0.81 0.52 0.22 0.11 0.01 0.00 0.00 0.00 0.00 0.00 0.00 0.00 0.00 0.00 0.00 0.00 0.00 0.00 0.00 0.00 0.00 0.00 0.00 0.00 0.00 0.00 0.00 0.00 0.00 0.00 0.00 0.00 0.00 0.00 0.00 0.00
0.11 0.09 0.10 0.23 0.43 0.67 0.64 0.78 0.79 0.89 0.54 0.09 0.08 0.01 0.01 0.00 0.00 0.00 0.00 0.00 0.00 0.00 0.00 0.00 0.00 0.00 0.00 0.00 0.00 0.00 0.00 0.00 0.00 0.00 0.01 0.00 0.01 0.00 0.00 0.00 0.00 0.00 0.00 0.00 0.00
0.07 0.10 0.14 0.12 0.31 0.41 0.66 0.96 1.53 1.13 0.53 0.16 0.07 0.04 0.05 0.02 0.01 0.01 0.01 0.02 0.00 0.00 0.01 0.00 0.00 0.00 0.00 0.00 0.00 0.00 0.00 0.01 0.02 0.05 0.06 0.00 0.00 0.00 0.00 0.00 0.00 0.00 0.00 0.00 0.00
0.19 0.16 0.19 0.21 0.20 0.40 0.93 1.55 1.46 0.76 0.23 0.06 0.03 0.04 0.02 0.01 0.03 0.02 0.03 0.03 0.01 0.02 0.02 0.01 0.00 0.00 0.00 0.00 0.00 0.01 0.04 0.02 0.03 0.07 0.02 0.00 0.00 0.00 0.00 0.00 0.00 0.00 0.00 0.00 0.00
0.25 0.20 0.13 0.11 0.21 0.63 1.01 1.41 0.73 0.25 0.12 0.02 0.02 0.03 0.03 0.01 0.03 0.02 0.02 0.03 0.01 0.00 0.00 0.00 0.00 0.00 0.00 0.00 0.01 0.01 0.02 0.01 0.00 0.00 0.00 0.00 0.00 0.00 0.00 0.00 0.00 0.00 0.00 0.00 0.00
0.34 0.10 0.08 0.06 0.30 0.83 0.93 0.97 0.38 0.18 0.03 0.02 0.04 0.05 0.05 0.01 0.02 0.02 0.02 0.01 0.00 0.00 0.00 0.00 0.00 0.00 0.00 0.00 0.00 0.01 0.02 0.00 0.02 0.01 0.01 0.00 0.00 0.00 0.00 0.00 0.00 0.00 0.00 0.00 0.00
0.28 0.15 0.24 0.11 0.33 1.03 0.92 0.46 0.27 0.17 0.02 0.00 0.02 0.01 0.02 0.01 0.01 0.01 0.01 0.00 0.00 0.00 0.00 0.00 0.00 0.00 0.00 0.00 0.00 0.00 0.00 0.03 0.10 0.06 0.03 0.00 0.00 0.00 0.00 0.00 0.00 0.00 0.00 0.00 0.00
0.32 0.16 0.31 0.27 0.54 1.25 0.89 0.42 0.26 0.07 0.01 0.00 0.00 0.00 0.00 0.00 0.00 0.00 0.00 0.00 0.00 0.00 0.00 0.00 0.00 0.00 0.00 0.00 0.00 0.01 0.05 0.11 0.18 0.12 0.05 0.03 0.01 0.00 0.00 0.00 0.00 0.00 0.00 0.00 0.00
0.37 0.58 0.40 0.33 0.47 0.76 0.57 0.22 0.23 0.08 0.01 0.00 0.00 0.00 0.00 0.00 0.00 0.00 0.00 0.00 0.00 0.00 0.00 0.00 0.02 0.02 0.00 0.00 0.00 0.00 0.01 0.09 0.40 0.18 0.25 0.16 0.07 0.00 0.00 0.01 0.00 0.00 0.00 0.00 0.00
0.39 0.49 0.63 0.28 0.21 0.29 0.29 0.24 0.16 0.04 0.00 0.00 0.00 0.00 0.00 0.00 0.00 0.00 0.00 0.00 0.00 0.00 0.00 0.00 0.03 0.01 0.00 0.00 0.01 0.03 0.01 0.10 0.33 0.58 0.41 0.26 0.11 0.00 0.00 0.00 0.00 0.00 0.00 0.00 0.00
0.45 0.74 0.76 0.54 0.16 0.06 0.16 0.28 0.09 0.03 0.00 0.00 0.00 0.00 0.00 0.00 0.00 0.00 0.00 0.00 0.00 0.00 0.00 0.00 0.01 0.00 0.00 0.00 0.05 0.28 0.15 0.31 0.83 0.74 0.13 0.11 0.01 0.00 0.00 0.00 0.00 0.00 0.00 0.00 0.00
0.48 0.49 0.30 0.16 0.21 0.07 0.08 0.12 0.04 0.02 0.00 0.00 0.00 0.00 0.00 0.00 0.00 0.00 0.00 0.00 0.00 0.00 0.00 0.01 0.03 0.00 0.00 0.00 0.04 0.18 0.23 0.26 0.59 0.32 0.35 0.08 0.00 0.00 0.01 0.01 0.00 0.00 0.00 0.01 0.02
0.38 0.56 0.28 0.05 0.11 0.08 0.05 0.13 0.03 0.00 0.01 0.00 0.00 0.00 0.00 0.00 0.00 0.00 0.00 0.00 0.00 0.00 0.01 0.02 0.04 0.02 0.00 0.00 0.07 0.17 0.19 0.20 0.10 0.06 0.09 0.02 0.01 0.00 0.00 0.00 0.00 0.01 0.04 0.05 0.05
0.31 0.44 0.30 0.10 0.06 0.08 0.03 0.03 0.01 0.00 0.00 0.00 0.00 0.00 0.00 0.00 0.00 0.00 0.00 0.00 0.00 0.01 0.02 0.04 0.06 0.07 0.03 0.00 0.02 0.06 0.16 0.18 0.05 0.02 0.03 0.01 0.00 0.00 0.00 0.03 0.05 0.04 0.05 0.04 0.02

GFSSW_prec_precacc12_051.txt.gz
Total_Precipitation_Accumulation
0.02 0.05 0.06 0.06 0.06 0.05 0.03 0.03 0.04 0.02 0.00 0.00 0.00 0.00 0.01 0.03 0.09 0.04 0.02 0.00 0.00 0.00 0.00 0.00 0.00 0.00 0.00 0.00 0.00 0.00 0.00 0.00 0.00 0.00 0.00 0.00 0.00 0.00 0.00 0.00 0.00 0.00 0.00 0.00 0.00
0.01 0.03 0.06 0.08 0.07 0.06 0.05 0.04 0.04 0.04 0.01 0.00 0.00 0.00 0.00 0.00 0.10 0.07 0.00 0.00 0.01 0.01 0.00 0.00 0.00 0.00 0.00 0.00 0.00 0.00 0.00 0.00 0.00 0.00 0.00 0.00 0.00 0.00 0.00 0.00 0.00 0.00 0.00 0.00 0.00
0.01 0.02 0.04 0.08 0.09 0.07 0.06 0.05 0.04 0.05 0.05 0.00 0.00 0.00 0.00 0.00 0.02 0.01 0.00 0.04 0.09 0.13 0.00 0.00 0.00 0.00 0.00 0.00 0.00 0.00 0.00 0.00 0.00 0.00 0.00 0.00 0.00 0.00 0.00 0.00 0.00 0.00 0.00 0.00 0.00
0.02 0.02 0.03 0.06 0.09 0.09 0.07 0.07 0.05 0.05 0.08 0.04 0.00 0.00 0.00 0.00 0.00 0.00 0.00 0.05 0.18 0.31 0.07 0.01 0.00 0.00 0.00 0.00 0.00 0.00 0.00 0.00 0.00 0.00 0.00 0.00 0.00 0.00 0.00 0.00 0.00 0.00 0.00 0.00 0.00
0.01 0.01 0.02 0.03 0.06 0.08 0.07 0.06 0.06 0.06 0.10 0.12 0.01 0.00 0.00 0.00 0.00 0.00 0.00 0.01 0.12 0.22 0.10 0.05 0.01 0.00 0.00 0.00 0.00 0.00 0.00 0.00 0.00 0.00 0.00 0.00 0.00 0.00 0.00 0.00 0.00 0.00 0.00 0.00 0.00
0.00 0.00 0.00 0.01 0.03 0.06 0.09 0.07 0.08 0.08 0.10 0.13 0.04 0.00 0.00 0.00 0.00 0.00 0.00 0.00 0.01 0.10 0.14 0.14 0.02 0.00 0.00 0.00 0.00 0.00 0.00 0.00 0.00 0.00 0.00 0.00 0.00 0.00 0.00 0.00 0.00 0.00 0.00 0.00 0.00
0.01 0.01 0.01 0.01 0.02 0.05 0.09 0.10 0.11 0.11 0.14 0.18 0.17 0.01 0.00 0.00 0.00 0.00 0.00 0.00 0.00 0.01 0.08 0.12 0.04 0.01 0.00 0.00 0.00 0.00 0.00 0.00 0.00 0.00 0.00 0.00 0.00 0.00 0.00 0.00 0.00 0.00 0.00 0.00 0.00
0.02 0.02 0.01 0.02 0.02 0.05 0.09 0.13 0.17 0.20 0.22 0.23 0.24 0.02 0.00 0.00 0.00 0.00 0.00 0.00 0.00 0.01 0.04 0.11 0.05 0.01 0.00 0.00 0.00 0.00 0.00 0.00 0.00 0.00 0.00 0.00 0.00 0.00 0.00 0.00 0.00 0.00 0.00 0.00 0.00
0.02 0.03 0.03 0.02 0.05 0.07 0.10 0.14 0.23 0.34 0.36 0.33 0.43 0.07 0.00 0.00 0.00 0.00 0.00 0.00 0.00 0.00 0.01 0.06 0.05 0.00 0.00 0.00 0.00 0.00 0.00 0.00 0.00 0.00 0.00 0.00 0.00 0.00 0.00 0.00 0.00 0.00 0.00 0.00 0.00
0.04 0.04 0.04 0.05 0.07 0.11 0.20 0.35 0.41 0.44 0.49 0.62 0.55 0.14 0.01 0.00 0.00 0.00 0.00 0.00 0.00 0.02 0.06 0.03 0.01 0.00 0.00 0.00 0.00 0.00 0.00 0.00 0.00 0.00 0.00 0.00 0.00 0.00 0.00 0.00 0.00 0.00 0.00 0.00 0.00
0.05 0.07 0.08 0.08 0.11 0.26 0.55 0.79 0.86 0.84 0.78 0.63 0.44 0.06 0.00 0.00 0.00 0.00 0.00 0.00 0.01 0.03 0.02 0.02 0.01 0.00 0.00 0.00 0.00 0.00 0.00 0.00 0.00 0.00 0.00 0.00 0.00 0.00 0.00 0.00 0.00 0.00 0.00 0.00 0.00
0.08 0.08 0.10 0.09 0.13 0.31 0.82 0.81 0.62 0.53 0.56 0.39 0.22 0.01 0.00 0.00 0.00 0.00 0.00 0.00 0.00 0.01 0.00 0.01 0.00 0.00 0.00 0.00 0.00 0.00 0.00 0.00 0.00 0.00 0.00 0.00 0.00 0.00 0.00 0.00 0.00 0.00 0.00 0.00 0.00
0.08 0.09 0.15 0.18 0.12 0.25 0.63 0.53 0.39 0.59 0.57 0.34 0.35 0.14 0.00 0.00 0.00 0.00 0.00 0.00 0.00 0.00 0.00 0.00 0.00 0.00 0.00 0.00 0.00 0.00 0.00 0.00 0.00 0.00 0.00 0.00 0.00 0.00 0.00 0.00 0.00 0.00 0.00 0.00 0.00
0.08 0.07 0.14 0.16 0.09 0.20 0.48 0.70 0.49 0.87 0.63 0.31 0.46 0.24 0.01 0.00 0.00 0.00 0.00 0.00 0.00 0.00 0.00 0.00 0.00 0.00 0.00 0.00 0.00 0.00 0.00 0.00 0.00 0.00 0.00 0.00 0.00 0.00 0.00 0.00 0.00 0.00 0.00 0.00 0.00
0.07 0.09 0.12 0.23 0.15 0.11 0.38 0.78 0.79 0.93 0.64 0.14 0.30 0.12 0.01 0.00 0.00 0.00 0.00 0.00 0.00 0.00 0.00 0.00 0.00 0.00 0.00 0.00 0.00 0.00 0.00 0.00 0.00 0.00 0.00 0.00 0.00 0.00 0.00 0.00 0.00 0.00 0.00 0.00 0.00
0.07 0.10 0.15 0.13 0.22 0.09 0.35 0.92 1.52 1.16 0.69 0.38 0.31 0.12 0.04 0.02 0.01 0.01 0.01 0.01 0.00 0.00 0.00 0.00 0.00 0.00 0.00 0.00 0.00 0.00 0.00 0.00 0.01 0.02 0.02 0.00 0.00 0.00 0.00 0.00 0.00 0.00 0.00 0.00 0.00
0.17 0.16 0.19 0.23 0.15 0.10 0.51 1.24 1.39 0.78 0.44 0.22 0.17 0.06 0.03 0.02 0.03 0.01 0.02 0.02 0.01 0.01 0.01 0.00 0.00 0.00 0.00 0.00 0.00 0.01 0.02 0.01 0.01 0.04 0.01 0.00 0.00 0.00 0.00 0.00 0.00 0.00 0.00 0.00 0.00
0.21 0.18 0.12 0.12 0.10 0.22 0.54 1.12 0.71 0.29 0.33 0.12 0.04 0.05 0.03 0.02 0.03 0.02 0.02 0.02 0.01 0.00 0.00 0.00 0.00 0.00 0.00 0.00 0.01 0.01 0.01 0.00 0.00 0.00 0.00 0.00 0.00 0.00 0.00 0.00 0.00 0.00 0.00 0.00 0.00
0.30 0.07 0.06 0.06 0.07 0.26 0.41 0.69 0.36 0.41 0.17 0.16 0.13 0.12 0.09 0.02 0.02 0.02 0.02 0.01 0.00 0.00 0.00 0.00 0.00 0.00 0.00 0.00 0.00 0.01 0.01 0.00 0.01 0.00 0.00 0.00 0.00 0.00 0.00 0.00 0.00 0.00 0.00 0.00 0.00
0.22 0.15 0.24 0.10 0.12 0.43 0.44 0.31 0.28 0.31 0.21 0.06 0.13 0.06 0.03 0.02 0.02 0.01 0.01 0.00 0.00 0.00 0.00 0.00 0.00 0.00 0.00 0.00 0.00 0.00 0.00 0.01 0.04 0.02 0.01 0.00 0.00 0.00 0.00 0.00 0.00 0.00 0.00 0.00 0.00
0.29 0.19 0.31 0.24 0.27 0.53 0.44 0.31 0.30 0.21 0.15 0.05 0.00 0.00 0.00 0.01 0.00 0.00 0.00 0.00 0.00 0.00 0.00 0.00 0.00 0.00 0.00 0.00 0.00 0.00 0.01 0.01 0.05 0.06 0.03 0.03 0.01 0.00 0.00 0.00 0.00 0.00 0.00 0.00 0.00
0.33 0.63 0.30 0.27 0.20 0.38 0.31 0.22 0.52 0.29 0.05 0.00 0.00 0.00 0.00 0.00 0.00 0.00 0.00 0.00 0.00 0.00 0.00 0.00 0.01 0.01 0.00 0.00 0.00 0.00 0.00 0.01 0.15 0.09 0.20 0.14 0.06 0.00 0.00 0.00 0.00 0.00 0.00 0.00 0.00
0.26 0.36 0.30 0.23 0.15 0.23 0.24 0.31 0.37 0.09 0.01 0.01 0.00 0.00 0.00 0.00 0.00 0.00 0.00 0.00 0.00 0.00 0.00 0.00 0.01 0.00 0.00 0.00 0.00 0.00 0.00 0.02 0.16 0.34 0.25 0.21 0.10 0.00 0.00 0.00 0.00 0.00 0.00 0.00 0.00
0.30 0.46 0.33 0.30 0.11 0.08 0.19 0.44 0.21 0.08 0.01 0.00 0.00 0.00 0.00 0.00 0.00 0.00 0.00 0.00 0.00 0.00 0.00 0.00 0.01 0.00 0.00 0.00 0.01 0.06 0.04 0.16 0.56 0.48 0.08 0.08 0.01 0.00 0.00 0.00 0.00 0.00 0.00 0.00 0.00
0.45 0.37 0.22 0.11 0.11 0.07 0.15 0.19 0.07 0.02 0.00 0.00 0.00 0.00 0.00 0.00 0.00 0.00 0.00 0.00 0.00 0.00 0.00 0.00 0.02 0.00 0.00 0.00 0.00 0.04 0.06 0.10 0.40 0.27 0.32 0.07 0.00 0.00 0.00 0.00 0.00 0.00 0.00 0.02 0.04
0.30 0.37 0.18 0.11 0.11 0.05 0.15 0.26 0.07 0.00 0.01 0.00 0.00 0.00 0.00 0.00 0.00 0.00 0.00 0.00 0.00 0.00 0.01 0.01 0.02 0.01 0.00 0.00 0.00 0.01 0.08 0.13 0.08 0.06 0.08 0.02 0.01 0.00 0.00 0.00 0.00 0.01 0.03 0.05 0.07
0.15 0.19 0.16 0.09 0.05 0.10 0.13 0.11 0.02 0.00 0.00 0.00 0.00 0.00 0.00 0.00 0.00 0.00 0.00 0.00 0.00 0.01 0.01 0.02 0.02 0.04 0.01 0.00 0.00 0.01 0.03 0.09 0.05 0.02 0.03 0.01 0.00 0.00 0.00 0.03 0.05 0.03 0.04 0.03 0.03

GFSSW_prec_precacc12_054.txt.gz
Total_Precipitation_Accumulation
0.00 0.01 0.03 0.06 0.06 0.05 0.03 0.03 0.04 0.04 0.05 0.04 0.00 0.00 0.00 0.01 0.03 0.03 0.02 0.00 0.00 0.00 0.00 0.00 0.00 0.00 0.00 0.00 0.00 0.00 0.00 0.00 0.00 0.00 0.00 0.00 0.00 0.00 0.00 0.00 0.00 0.00 0.00 0.00 0.00
0.00 0.01 0.01 0.03 0.06 0.07 0.05 0.04 0.04 0.04 0.06 0.07 0.03 0.00 0.00 0.00 0.07 0.04 0.00 0.00 0.00 0.01 0.01 0.00 0.00 0.00 0.00 0.00 0.00 0.00 0.00 0.00 0.00 0.00 0.00 0.00 0.00 0.00 0.00 0.00 0.00 0.00 0.00 0.00 0.00
0.00 0.00 0.01 0.02 0.05 0.07 0.06 0.05 0.04 0.05 0.07 0.10 0.08 0.01 0.00 0.00 0.02 0.01 0.00 0.02 0.07 0.08 0.01 0.00 0.00 0.00 0.00 0.00 0.00 0.00 0.00 0.00 0.00 0.00 0.00 0.00 0.00 0.00 0.00 0.00 0.00 0.00 0.00 0.00 0.00
0.01 0.01 0.01 0.01 0.02 0.06 0.07 0.07 0.05 0.05 0.08 0.09 0.09 0.05 0.00 0.00 0.00 0.00 0.00 0.05 0.18 0.29 0.09 0.01 0.00 0.00 0.00 0.00 0.00 0.00 0.00 0.00 0.00 0.00 0.00 0.00 0.00 0.00 0.00 0.00 0.00 0.00 0.00 0.00 0.00
0.02 0.02 0.01 0.01 0.01 0.02 0.06 0.06 0.06 0.06 0.10 0.14 0.14 0.14 0.01 0.00 0.00 0.00 0.01 0.03 0.13 0.28 0.12 0.05 0.01 0.00 0.00 0.00 0.00 0.00 0.00 0.00 0.00 0.00 0.00 0.00 0.00 0.00 0.00 0.00 0.00 0.00 0.00 0.00 0.00
0.02 0.01 0.01 0.01 0.01 0.01 0.04 0.07 0.08 0.08 0.10 0.14 0.21 0.22 0.03 0.00 0.00 0.00 0.00 0.05 0.04 0.13 0.14 0.16 0.03 0.00 0.00 0.00 0.00 0.00 0.00 0.00 0.00 0.00 0.00 0.00 0.00 0.00 0.00 0.00 0.00 0.00 0.00 0.00 0.00
0.02 0.02 0.02 0.01 0.01 0.01 0.03 0.08 0.11 0.11 0.13 0.18 0.26 0.33 0.06 0.00 0.00 0.00 0.00 0.00 0.02 0.04 0.12 0.13 0.08 0.01 0.00 0.00 0.00 0.00 0.00 0.00 0.00 0.00 0.00 0.00 0.00 0.00 0.00 0.00 0.00 0.00 0.00 0.00 0.00
0.03 0.02 0.02 0.02 0.02 0.01 0.02 0.07 0.16 0.20 0.21 0.22 0.29 0.33 0.08 0.00 0.00 0.00 0.00 0.00 0.00 0.01 0.08 0.18 0.13 0.03 0.00 0.00 0.00 0.00 0.00 0.00 0.00 0.00 0.00 0.00 0.00 0.00 0.00 0.00 0.00 0.00 0.00 0.00 0.00
0.04 0.03 0.04 0.03 0.03 0.03 0.04 0.08 0.20 0.33 0.34 0.31 0.47 0.34 0.07 0.00 0.00 0.00 0.00 0.00 0.00 0.00 0.02 0.12 0.13 0.12 0.06 0.00 0.00 0.00 0.00 0.00 0.00 0.00 0.00 0.00 0.00 0.00 0.00 0.00 0.00 0.00 0.00 0.00 0.00
0.05 0.04 0.06 0.06 0.04 0.04 0.10 0.16 0.33 0.44 0.50 0.63 0.62 0.43 0.08 0.00 0.00 0.00 0.00 0.00 0.00 0.04 0.10 0.09 0.07 0.04 0.09 0.01 0.00 0.00 0.00 0.00 0.00 0.00 0.00 0.00 0.00 0.00 0.00 0.00 0.00 0.00 0.00 0.00 0.00
0.06 0.07 0.09 0.07 0.07 0.10 0.17 0.33 0.74 0.87 0.80 0.63 0.55 0.13 0.01 0.00 0.00 0.00 0.00 0.00 0.03 0.06 0.02 0.03 0.01 0.00 0.00 0.00 0.00 0.00 0.00 0.00 0.00 0.00 0.00 0.00 0.00 0.00 0.00 0.00 0.00 0.00 0.00 0.00 0.00
0.09 0.07 0.10 0.09 0.09 0.10 0.17 0.43 0.60 0.56 0.59 0.39 0.35 0.08 0.02 0.00 0.00 0.00 0.00 0.00 0.02 0.02 0.01 0.01 0.00 0.00 0.00 0.00 0.00 0.00 0.00 0.00 0.00 0.00 0.00 0.00 0.00 0.00 0.00 0.00 0.00 0.00 0.00 0.00 0.00
0.07 0.08 0.12 0.17 0.10 0.06 0.14 0.30 0.48 0.62 0.58 0.34 0.45 0.34 0.06 0.00 0.00 0.00 0.00 0.00 0.01 0.01 0.00 0.00 0.00 0.00 0.00 0.00 0.00 0.00 0.00 0.00 0.00 0.00 0.00 0.00 0.00 0.00 0.00 0.00 0.00 0.00 0.00 0.00 0.00
0.06 0.06 0.12 0.16 0.08 0.13 0.16 0.52 0.47 0.88 0.67 0.31 0.55 0.56 0.15 0.00 0.00 0.00 0.00 0.00 0.00 0.00 0.00 0.01 0.00 0.00 0.00 0.00 0.00 0.00 0.00 0.00 0.00 0.00 0.00 0.00 0.00 0.00 0.00 0.00 0.00 0.00 0.00 0.00 0.00
0.06 0.08 0.11 0.23 0.13 0.03 0.19 0.44 0.60 0.87 0.65 0.17 0.39 0.38 0.08 0.00 0.00 0.00 0.00 0.00 0.00 0.00 0.00 0.00 0.00 0.00 0.00 0.00 0.00 0.00 0.00 0.00 0.00 0.00 0.00 0.00 0.00 0.00 0.00 0.00 0.00 0.00 0.00 0.00 0.00
0.04 0.06 0.14 0.15 0.25 0.14 0.13 0.46 1.09 1.02 0.74 0.62 0.46 0.43 0.07 0.02 0.00 0.01 0.00 0.00 0.00 0.00 0.00 0.00 0.00 0.00 0.00 0.00 0.00 0.00 0.00 0.00 0.00 0.01 0.01 0.00 0.00 0.00 0.00 0.00 0.00 0.00 0.00 0.00 0.00
0.02 0.09 0.18 0.22 0.17 0.05 0.17 0.45 0.86 0.70 0.57 0.46 0.41 0.17 0.03 0.02 0.02 0.01 0.01 0.01 0.00 0.01 0.01 0.00 0.00 0.00 0.00 0.00 0.00 0.00 0.01 0.00 0.01 0.02 0.00 0.00 0.00 0.00 0.00 0.00 0.00 0.00 0.00 0.00 0.00
0.17 0.15 0.08 0.10 0.14 0.12 0.17 0.42 0.45 0.31 0.44 0.36 0.18 0.06 0.04 0.02 0.03 0.02 0.01 0.01 0.00 0.00 0.00 0.00 0.00 0.00 0.00 0.00 0.00 0.00 0.01 0.00 0.00 0.00 0.00 0.00 0.00 0.00 0.00 0.00 0.00 0.00 0.00 0.00 0.00
0.20 0.05 0.06 0.08 0.09 0.11 0.10 0.22 0.31 0.51 0.40 0.47 0.21 0.19 0.13 0.02 0.02 0.02 0.02 0.00 0.00 0.00 0.00 0.00 0.00 0.00 0.00 0.00 0.00 0.00 0.01 0.00 0.00 0.00 0.00 0.00 0.00 0.00 0.00 0.00 0.00 0.00 0.00 0.00 0.00
0.16 0.14 0.22 0.11 0.09 0.10 0.14 0.14 0.28 0.36 0.47 0.23 0.22 0.10 0.05 0.03 0.02 0.01 0.02 0.00 0.00 0.00 0.00 0.00 0.00 0.00 0.00 0.00 0.00 0.00 0.00 0.00 0.01 0.00 0.00 0.00 0.00 0.00 0.00 0.00 0.00 0.00 0.00 0.00 0.00
0.17 0.17 0.30 0.16 0.13 0.12 0.11 0.15 0.34 0.30 0.34 0.15 0.01 0.01 0.00 0.01 0.00 0.00 0.00 0.00 0.00 0.00 0.00 0.00 0.00 0.01 0.00 0.00 0.00 0.00 0.01 0.00 0.00 0.00 0.00 0.00 0.00 0.00 0.00 0.00 0.00 0.00 0.00 0.00 0.00
0.25 0.44 0.26 0.17 0.10 0.10 0.14 0.22 0.71 0.48 0.10 0.01 0.00 0.00 0.00 0.00 0.00 0.00 0.00 0.00 0.00 0.00 0.00 0.00 0.00 0.01 0.00 0.00 0.00 0.00 0.00 0.00 0.01 0.00 0.05 0.05 0.02 0.00 0.00 0.00 0.00 0.00 0.00 0.00 0.00
0.19 0.17 0.13 0.16 0.11 0.11 0.15 0.38 0.54 0.16 0.02 0.01 0.00 0.00 0.00 0.00 0.00 0.00 0.00 0.00 0.00 0.00 0.00 0.00 0.00 0.00 0.00 0.00 0.00 0.00 0.00 0.00 0.04 0.14 0.09 0.11 0.05 0.00 0.00 0.00 0.00 0.00 0.00 0.00 0.00
0.19 0.09 0.11 0.21 0.11 0.14 0.32 0.63 0.37 0.09 0.02 0.00 0.00 0.00 0.00 0.00 0.00 0.00 0.00 0.00 0.00 0.00 0.00 0.00 0.00 0.00 0.00 0.00 0.00 0.00 0.00 0.04 0.24 0.27 0.04 0.03 0.00 0.00 0.00 0.00 0.00 0.00 0.00 0.00 0.00
0.18 0.09 0.17 0.10 0.11 0.09 0.23 0.26 0.08 0.02 0.01 0.00 0.00 0.00 0.00 0.00 0.00 0.00 0.00 0.00 0.00 0.00 0.00 0.00 0.01 0.00 0.00 0.00 0.00 0.00 0.00 0.01 0.16 0.17 0.24 0.06 0.00 0.00 0.00 0.00 0.00 0.00 0.00 0.02 0.04
0.11 0.21 0.14 0.10 0.11 0.07 0.18 0.27 0.07 0.01 0.01 0.00 0.00 0.00 0.00 0.00 0.00 0.00 0.00 0.00 0.00 0.00 0.00 0.01 0.01 0.00 0.00 0.00 0.00 0.00 0.00 0.02 0.04 0.05 0.08 0.02 0.01 0.00 0.00 0.00 0.00 0.01 0.03 0.05 0.06
0.10 0.11 0.06 0.06 0.06 0.17 0.19 0.12 0.02 0.00 0.01 0.00 0.00 0.00 0.00 0.00 0.00 0.00 0.00 0.00 0.00 0.00 0.00 0.01 0.01 0.01 0.00 0.00 0.00 0.01 0.00 0.02 0.03 0.02 0.03 0.01 0.00 0.00 0.00 0.03 0.05 0.04 0.04 0.03 0.03

GFSSW_prec_precacc12_057.txt.gz
Total_Precipitation_Accumulation
0.00 0.00 0.00 0.01 0.02 0.04 0.03 0.03 0.04 0.04 0.05 0.06 0.07 0.06 0.01 0.00 0.01 0.02 0.02 0.00 0.00 0.00 0.00 0.00 0.00 0.00 0.00 0.00 0.00 0.00 0.00 0.00 0.00 0.00 0.00 0.00 0.00 0.00 0.00 0.00 0.00 0.00 0.00 0.00 0.00
0.00 0.00 0.00 0.00 0.01 0.03 0.05 0.04 0.04 0.04 0.06 0.07 0.07 0.07 0.06 0.01 0.02 0.02 0.00 0.00 0.00 0.01 0.02 0.00 0.00 0.00 0.00 0.00 0.00 0.00 0.00 0.00 0.00 0.00 0.00 0.00 0.00 0.00 0.00 0.00 0.00 0.00 0.00 0.00 0.00
0.01 0.01 0.01 0.01 0.01 0.01 0.04 0.05 0.04 0.05 0.07 0.10 0.10 0.10 0.11 0.02 0.01 0.00 0.00 0.00 0.01 0.03 0.02 0.01 0.00 0.00 0.00 0.00 0.00 0.00 0.00 0.00 0.00 0.00 0.00 0.00 0.00 0.00 0.00 0.00 0.00 0.00 0.00 0.00 0.00
0.02 0.02 0.03 0.01 0.01 0.01 0.02 0.05 0.05 0.05 0.08 0.09 0.09 0.10 0.16 0.05 0.00 0.00 0.00 0.04 0.15 0.20 0.08 0.02 0.00 0.00 0.00 0.00 0.00 0.00 0.00 0.00 0.00 0.00 0.00 0.00 0.00 0.00 0.00 0.00 0.00 0.00 0.00 0.00 0.00
0.03 0.03 0.02 0.01 0.01 0.01 0.02 0.03 0.06 0.06 0.10 0.14 0.14 0.19 0.24 0.05 0.00 0.00 0.02 0.04 0.13 0.30 0.13 0.05 0.01 0.00 0.00 0.00 0.00 0.00 0.00 0.00 0.00 0.00 0.00 0.00 0.00 0.00 0.00 0.00 0.00 0.00 0.00 0.00 0.00
0.04 0.03 0.02 0.02 0.02 0.02 0.02 0.01 0.05 0.08 0.11 0.14 0.21 0.27 0.23 0.03 0.00 0.00 0.00 0.08 0.05 0.16 0.16 0.16 0.03 0.00 0.00 0.00 0.00 0.00 0.00 0.00 0.00 0.00 0.00 0.00 0.00 0.00 0.00 0.00 0.00 0.00 0.00 0.00 0.00
0.04 0.03 0.03 0.03 0.02 0.02 0.02 0.02 0.03 0.10 0.13 0.18 0.26 0.35 0.20 0.03 0.00 0.00 0.00 0.04 0.09 0.12 0.15 0.13 0.08 0.01 0.00 0.00 0.00 0.00 0.00 0.00 0.00 0.00 0.00 0.00 0.00 0.00 0.00 0.00 0.00 0.00 0.00 0.00 0.00
0.04 0.04 0.04 0.04 0.03 0.03 0.02 0.02 0.03 0.15 0.20 0.22 0.30 0.39 0.15 0.00 0.00 0.00 0.00 0.01 0.04 0.10 0.18 0.30 0.20 0.05 0.00 0.00 0.00 0.00 0.00 0.00 0.00 0.00 0.00 0.00 0.00 0.00 0.00 0.00 0.00 0.00 0.00 0.00 0.00
0.05 0.05 0.05 0.05 0.03 0.05 0.04 0.04 0.02 0.16 0.34 0.30 0.49 0.39 0.14 0.00 0.00 0.00 0.00 0.00 0.00 0.06 0.12 0.24 0.25 0.23 0.07 0.00 0.00 0.00 0.00 0.00 0.00 0.00 0.00 0.00 0.00 0.00 0.00 0.00 0.00 0.00 0.00 0.00 0.00
0.07 0.06 0.08 0.05 0.04 0.06 0.10 0.05 0.00 0.18 0.46 0.61 0.63 0.47 0.11 0.00 0.00 0.00 0.00 0.00 0.00 0.06 0.16 0.29 0.28 0.30 0.18 0.03 0.00 0.00 0.00 0.00 0.00 0.00 0.00 0.00 0.00 0.00 0.00 0.00 0.00 0.00 0.00 0.00 0.00
0.09 0.07 0.08 0.05 0.06 0.13 0.17 0.04 0.03 0.32 0.69 0.63 0.55 0.14 0.04 0.00 0.01 0.00 0.00 0.00 0.06 0.14 0.04 0.12 0.35 0.10 0.13 0.07 0.01 0.00 0.00 0.00 0.00 0.00 0.00 0.00 0.00 0.00 0.00 0.00 0.00 0.00 0.00 0.00 0.00
0.10 0.06 0.07 0.07 0.09 0.14 0.15 0.05 0.16 0.40 0.55 0.39 0.35 0.09 0.09 0.00 0.01 0.00 0.00 0.00 0.04 0.05 0.02 0.02 0.08 0.06 0.03 0.06 0.04 0.00 0.00 0.00 0.00 0.00 0.00 0.00 0.00 0.00 0.00 0.00 0.00 0.00 0.00 0.00 0.00
0.07 0.05 0.07 0.12 0.09 0.06 0.11 0.17 0.25 0.44 0.50 0.33 0.45 0.36 0.17 0.03 0.01 0.00 0.00 0.01 0.05 0.04 0.01 0.00 0.00 0.00 0.00 0.00 0.00 0.00 0.00 0.00 0.00 0.00 0.00 0.00 0.00 0.00 0.00 0.00 0.00 0.00 0.00 0.00 0.00
0.05 0.05 0.09 0.12 0.06 0.09 0.14 0.43 0.18 0.61 0.65 0.32 0.55 0.61 0.34 0.10 0.03 0.00 0.00 0.01 0.05 0.03 0.02 0.01 0.00 0.00 0.00 0.00 0.00 0.00 0.00 0.00 0.00 0.00 0.00 0.00 0.00 0.00 0.00 0.00 0.00 0.00 0.00 0.00 0.00
0.04 0.03 0.07 0.21 0.18 0.07 0.18 0.24 0.14 0.49 0.49 0.18 0.39 0.49 0.31 0.07 0.02 0.01 0.00 0.01 0.01 0.00 0.00 0.01 0.00 0.00 0.00 0.00 0.00 0.00 0.00 0.00 0.00 0.00 0.00 0.00 0.00 0.00 0.00 0.00 0.00 0.00 0.00 0.00 0.00
0.01 0.02 0.09 0.17 0.28 0.19 0.12 0.17 0.37 0.43 0.62 0.71 0.47 0.71 0.33 0.04 0.00 0.01 0.01 0.00 0.01 0.01 0.00 0.00 0.00 0.00 0.00 0.00 0.00 0.00 0.00 0.00 0.00 0.00 0.00 0.00 0.00 0.00 0.00 0.00 0.00 0.00 0.00 0.00 0.00
0.02 0.09 0.17 0.20 0.15 0.04 0.09 0.09 0.28 0.30 0.59 0.65 0.47 0.51 0.11 0.03 0.01 0.02 0.03 0.00 0.01 0.05 0.04 0.01 0.00 0.00 0.00 0.00 0.00 0.00 0.00 0.00 0.00 0.01 0.00 0.00 0.00 0.00 0.00 0.00 0.00 0.00 0.00 0.00 0.00
0.07 0.11 0.04 0.08 0.14 0.05 0.09 0.10 0.17 0.23 0.64 0.56 0.36 0.22 0.06 0.02 0.03 0.03 0.01 0.01 0.00 0.00 0.00 0.00 0.00 0.00 0.00 0.00 0.00 0.00 0.00 0.00 0.00 0.00 0.00 0.00 0.00 0.00 0.00 0.00 0.00 0.00 0.00 0.00 0.00
0.05 0.02 0.05 0.09 0.09 0.05 0.04 0.06 0.18 0.62 0.64 0.86 0.40 0.22 0.15 0.03 0.03 0.02 0.01 0.00 0.00 0.00 0.00 0.00 0.00 0.00 0.00 0.00 0.00 0.00 0.00 0.00 0.00 0.00 0.00 0.00 0.00 0.00 0.00 0.00 0.00 0.00 0.00 0.00 0.00
0.06 0.09 0.16 0.10 0.06 0.06 0.05 0.12 0.27 0.49 0.77 0.46 0.30 0.14 0.07 0.04 0.03 0.01 0.02 0.00 0.00 0.00 0.00 0.00 0.00 0.00 0.00 0.00 0.00 0.00 0.00 0.00 0.00 0.00 0.00 0.00 0.00 0.00 0.00 0.00 0.00 0.00 0.00 0.00 0.00
0.08 0.11 0.20 0.07 0.08 0.05 0.06 0.23 0.42 0.44 0.47 0.18 0.01 0.01 0.00 0.01 0.01 0.00 0.00 0.00 0.00 0.00 0.00 0.00 0.00 0.01 0.00 0.00 0.00 0.00 0.00 0.00 0.00 0.00 0.00 0.00 0.00 0.00 0.00 0.00 0.00 0.00 0.00 0.00 0.00
0.15 0.25 0.17 0.11 0.02 0.03 0.13 0.28 0.75 0.52 0.11 0.01 0.00 0.00 0.00 0.00 0.00 0.00 0.00 0.00 0.00 0.00 0.00 0.00 0.00 0.01 0.00 0.00 0.00 0.00 0.00 0.00 0.00 0.00 0.01 0.01 0.00 0.00 0.00 0.00 0.00 0.00 0.00 0.00 0.00
0.08 0.04 0.07 0.08 0.06 0.08 0.20 0.36 0.55 0.16 0.02 0.01 0.00 0.00 0.00 0.00 0.00 0.00 0.00 0.00 0.00 0.00 0.00 0.00 0.00 0.00 0.00 0.00 0.00 0.00 0.00 0.00 0.01 0.04 0.02 0.03 0.01 0.00 0.00 0.00 0.00 0.00 0.00 0.00 0.00
0.02 0.03 0.04 0.12 0.09 0.20 0.48 0.61 0.35 0.08 0.02 0.00 0.00 0.00 0.00 0.00 0.00 0.00 0.00 0.00 0.00 0.00 0.00 0.00 0.00 0.00 0.00 0.00 0.00 0.00 0.00 0.00 0.03 0.08 0.02 0.01 0.00 0.00 0.00 0.00 0.00 0.00 0.00 0.00 0.00
0.01 0.02 0.04 0.03 0.10 0.06 0.24 0.23 0.07 0.02 0.00 0.00 0.00 0.00 0.00 0.00 0.00 0.00 0.00 0.00 0.00 0.00 0.00 0.00 0.00 0.00 0.00 0.00 0.00 0.00 0.00 0.00 0.05 0.03 0.11 0.03 0.00 0.00 0.00 0.00 0.00 0.00 0.00 0.01 0.03
0.01 0.11 0.09 0.10 0.11 0.05 0.17 0.25 0.06 0.00 0.00 0.00 0.00 0.00 0.00 0.00 0.00 0.00 0.00 0.00 0.00 0.00 0.00 0.00 0.00 0.00 0.00 0.00 0.00 0.00 0.00 0.00 0.00 0.02 0.04 0.01 0.01 0.00 0.00 0.00 0.00 0.00 0.02 0.03 0.02
0.01 0.02 0.02 0.05 0.06 0.17 0.19 0.12 0.02 0.00 0.00 0.00 0.00 0.00 0.00 0.00 0.00 0.00 0.00 0.00 0.00 0.00 0.00 0.00 0.00 0.01 0.00 0.00 0.00 0.00 0.00 0.00 0.00 0.01 0.02 0.01 0.00 0.00 0.00 0.00 0.01 0.02 0.02 0.01 0.01

GFSSW_prec_precacc12_060.txt.gz
Total_Precipitation_Accumulation
0.01 0.01 0.00 0.01 0.01 0.01 0.01 0.02 0.04 0.04 0.05 0.06 0.07 0.08 0.07 0.06 0.03 0.02 0.01 0.00 0.00 0.00 0.00 0.00 0.01 0.00 0.00 0.00 0.00 0.00 0.00 0.00 0.00 0.00 0.00 0.00 0.00 0.00 0.00 0.00 0.00 0.00 0.00 0.00 0.00
0.01 0.01 0.02 0.02 0.02 0.02 0.02 0.02 0.04 0.04 0.06 0.07 0.07 0.07 0.07 0.07 0.03 0.01 0.00 0.00 0.00 0.01 0.02 0.00 0.00 0.00 0.00 0.00 0.00 0.00 0.00 0.00 0.00 0.00 0.00 0.00 0.00 0.00 0.00 0.00 0.00 0.00 0.00 0.00 0.00
0.01 0.02 0.03 0.03 0.03 0.02 0.01 0.01 0.02 0.05 0.08 0.10 0.10 0.10 0.12 0.09 0.03 0.00 0.00 0.00 0.00 0.02 0.03 0.01 0.00 0.00 0.00 0.00 0.00 0.00 0.00 0.00 0.00 0.00 0.00 0.00 0.00 0.00 0.00 0.00 0.00 0.00 0.00 0.00 0.00
0.03 0.03 0.05 0.03 0.02 0.01 0.01 0.01 0.02 0.04 0.08 0.09 0.09 0.10 0.16 0.11 0.01 0.00 0.01 0.00 0.04 0.13 0.07 0.05 0.01 0.01 0.00 0.00 0.00 0.00 0.00 0.00 0.00 0.00 0.00 0.00 0.00 0.00 0.00 0.00 0.00 0.00 0.00 0.00 0.00
0.04 0.05 0.04 0.03 0.02 0.02 0.02 0.03 0.02 0.03 0.11 0.15 0.14 0.19 0.25 0.10 0.01 0.00 0.02 0.05 0.09 0.20 0.08 0.05 0.01 0.01 0.00 0.00 0.00 0.00 0.00 0.00 0.00 0.00 0.00 0.00 0.00 0.00 0.00 0.00 0.00 0.00 0.00 0.00 0.00
0.05 0.04 0.03 0.03 0.03 0.03 0.03 0.03 0.02 0.02 0.09 0.16 0.22 0.27 0.25 0.07 0.00 0.00 0.00 0.09 0.05 0.15 0.11 0.13 0.03 0.00 0.00 0.00 0.00 0.00 0.00 0.00 0.00 0.00 0.00 0.00 0.00 0.00 0.00 0.00 0.00 0.00 0.00 0.00 0.00
0.05 0.04 0.04 0.04 0.03 0.03 0.04 0.03 0.03 0.04 0.04 0.18 0.27 0.37 0.23 0.04 0.00 0.00 0.00 0.06 0.11 0.12 0.12 0.11 0.09 0.02 0.00 0.00 0.00 0.00 0.00 0.00 0.00 0.00 0.00 0.00 0.00 0.00 0.00 0.00 0.00 0.00 0.00 0.00 0.00
0.05 0.05 0.05 0.06 0.04 0.05 0.04 0.04 0.03 0.01 0.02 0.18 0.33 0.45 0.16 0.00 0.00 0.00 0.00 0.02 0.11 0.23 0.25 0.40 0.26 0.09 0.00 0.00 0.00 0.00 0.00 0.00 0.00 0.00 0.00 0.00 0.00 0.00 0.00 0.00 0.00 0.00 0.00 0.00 0.00
0.05 0.07 0.07 0.07 0.04 0.06 0.05 0.04 0.02 0.00 0.10 0.22 0.55 0.44 0.15 0.00 0.00 0.00 0.00 0.00 0.07 0.16 0.28 0.45 0.42 0.31 0.09 0.00 0.00 0.00 0.00 0.00 0.00 0.00 0.00 0.00 0.00 0.00 0.00 0.00 0.00 0.00 0.00 0.00 0.00
0.08 0.07 0.09 0.06 0.03 0.06 0.09 0.04 0.00 0.00 0.04 0.32 0.61 0.50 0.12 0.00 0.00 0.01 0.00 0.00 0.01 0.10 0.24 0.47 0.46 0.35 0.23 0.04 0.00 0.00 0.00 0.00 0.00 0.00 0.00 0.00 0.00 0.00 0.00 0.00 0.00 0.00 0.00 0.00 0.00
0.09 0.07 0.08 0.04 0.04 0.11 0.13 0.02 0.01 0.07 0.08 0.30 0.47 0.14 0.05 0.00 0.02 0.01 0.01 0.00 0.08 0.20 0.11 0.39 0.82 0.20 0.18 0.08 0.01 0.00 0.00 0.00 0.00 0.00 0.00 0.00 0.00 0.00 0.00 0.00 0.00 0.00 0.00 0.00 0.00
0.09 0.05 0.05 0.05 0.05 0.11 0.12 0.02 0.04 0.10 0.11 0.18 0.33 0.09 0.11 0.02 0.05 0.03 0.01 0.00 0.05 0.07 0.05 0.26 0.61 0.27 0.14 0.14 0.06 0.00 0.00 0.00 0.00 0.00 0.00 0.00 0.00 0.00 0.00 0.00 0.00 0.00 0.00 0.00 0.00
0.06 0.03 0.04 0.06 0.03 0.03 0.06 0.15 0.18 0.11 0.17 0.13 0.40 0.36 0.21 0.08 0.06 0.03 0.00 0.01 0.07 0.08 0.04 0.06 0.19 0.19 0.21 0.25 0.16 0.02 0.00 0.00 0.00 0.00 0.00 0.00 0.00 0.00 0.00 0.00 0.00 0.00 0.00 0.00 0.00
0.04 0.03 0.04 0.09 0.10 0.03 0.09 0.37 0.15 0.17 0.35 0.11 0.45 0.61 0.40 0.18 0.10 0.01 0.00 0.02 0.08 0.09 0.06 0.04 0.02 0.03 0.06 0.10 0.12 0.07 0.00 0.00 0.00 0.00 0.00 0.00 0.00 0.00 0.00 0.00 0.00 0.00 0.00 0.00 0.00
0.03 0.04 0.10 0.32 0.56 0.44 0.31 0.21 0.08 0.12 0.27 0.13 0.32 0.52 0.43 0.29 0.09 0.09 0.00 0.02 0.02 0.03 0.03 0.01 0.00 0.00 0.00 0.00 0.00 0.00 0.00 0.00 0.00 0.00 0.00 0.00 0.00 0.00 0.00 0.00 0.00 0.00 0.00 0.00 0.00
0.04 0.07 0.13 0.19 0.29 0.23 0.08 0.13 0.09 0.09 0.40 0.61 0.42 0.77 0.52 0.19 0.05 0.04 0.01 0.01 0.03 0.04 0.03 0.00 0.00 0.00 0.00 0.00 0.00 0.00 0.00 0.00 0.00 0.00 0.00 0.00 0.00 0.00 0.00 0.00 0.00 0.00 0.00 0.00 0.00
0.05 0.08 0.10 0.12 0.12 0.03 0.02 0.03 0.04 0.11 0.47 0.63 0.46 0.65 0.32 0.09 0.03 0.04 0.05 0.02 0.04 0.06 0.07 0.01 0.00 0.00 0.00 0.00 0.00 0.00 0.00 0.00 0.00 0.00 0.00 0.00 0.00 0.00 0.00 0.00 0.00 0.00 0.00 0.00 0.00
0.07 0.06 0.01 0.05 0.13 0.02 0.03 0.04 0.08 0.21 0.62 0.59 0.42 0.43 0.16 0.04 0.05 0.09 0.02 0.02 0.04 0.00 0.01 0.01 0.00 0.00 0.00 0.00 0.00 0.00 0.00 0.00 0.00 0.00 0.00 0.00 0.00 0.00 0.00 0.00 0.00 0.00 0.00 0.00 0.00
0.03 0.00 0.01 0.07 0.05 0.01 0.03 0.07 0.16 0.54 0.67 0.95 0.62 0.36 0.17 0.04 0.05 0.11 0.01 0.00 0.02 0.00 0.00 0.00 0.00 0.00 0.00 0.00 0.00 0.00 0.00 0.00 0.00 0.00 0.00 0.00 0.00 0.00 0.00 0.00 0.00 0.00 0.00 0.00 0.00
0.02 0.04 0.06 0.07 0.01 0.02 0.06 0.21 0.30 0.43 0.91 0.66 0.45 0.17 0.10 0.05 0.05 0.05 0.01 0.00 0.00 0.00 0.00 0.00 0.00 0.00 0.00 0.00 0.00 0.00 0.00 0.00 0.00 0.00 0.00 0.00 0.00 0.00 0.00 0.00 0.00 0.00 0.00 0.00 0.00
0.01 0.03 0.09 0.04 0.01 0.02 0.10 0.30 0.44 0.46 0.52 0.19 0.01 0.01 0.00 0.01 0.00 0.00 0.00 0.00 0.00 0.00 0.00 0.00 0.00 0.01 0.00 0.00 0.00 0.00 0.00 0.00 0.00 0.00 0.00 0.00 0.00 0.00 0.00 0.00 0.00 0.00 0.00 0.00 0.00
0.01 0.09 0.06 0.05 0.01 0.02 0.13 0.27 0.59 0.44 0.10 0.01 0.00 0.00 0.00 0.00 0.00 0.00 0.00 0.00 0.00 0.00 0.00 0.00 0.00 0.01 0.00 0.00 0.00 0.00 0.00 0.00 0.00 0.00 0.00 0.00 0.00 0.00 0.00 0.00 0.00 0.00 0.00 0.00 0.00
0.00 0.01 0.02 0.01 0.03 0.07 0.17 0.28 0.42 0.13 0.02 0.01 0.00 0.00 0.00 0.00 0.00 0.00 0.00 0.00 0.00 0.00 0.00 0.00 0.00 0.00 0.00 0.00 0.00 0.00 0.00 0.00 0.00 0.00 0.00 0.00 0.00 0.00 0.00 0.00 0.00 0.00 0.00 0.00 0.00
0.00 0.02 0.01 0.02 0.02 0.20 0.44 0.47 0.30 0.06 0.01 0.00 0.00 0.00 0.00 0.00 0.00 0.00 0.00 0.00 0.00 0.00 0.00 0.00 0.00 0.00 0.00 0.00 0.00 0.00 0.00 0.00 0.00 0.01 0.00 0.00 0.00 0.00 0.00 0.00 0.00 0.00 0.00 0.00 0.00
0.00 0.00 0.01 0.02 0.02 0.05 0.19 0.17 0.04 0.01 0.00 0.00 0.00 0.00 0.00 0.00 0.00 0.00 0.00 0.00 0.00 0.00 0.00 0.00 0.00 0.00 0.00 0.00 0.00 0.00 0.00 0.00 0.00 0.00 0.02 0.00 0.00 0.00 0.00 0.00 0.00 0.00 0.00 0.01 0.03
0.00 0.03 0.01 0.07 0.04 0.03 0.15 0.15 0.04 0.00 0.00 0.00 0.00 0.00 0.00 0.00 0.00 0.00 0.00 0.00 0.00 0.00 0.00 0.00 0.00 0.00 0.00 0.00 0.00 0.00 0.00 0.00 0.00 0.00 0.01 0.00 0.00 0.00 0.00 0.00 0.00 0.00 0.00 0.01 0.02
0.00 0.01 0.01 0.04 0.04 0.16 0.17 0.09 0.01 0.00 0.01 0.00 0.00 0.00 0.00 0.00 0.00 0.00 0.00 0.00 0.00 0.00 0.00 0.00 0.00 0.00 0.00 0.00 0.00 0.00 0.00 0.00 0.00 0.00 0.00 0.00 0.00 0.00 0.00 0.00 0.00 0.00 0.00 0.00 0.01

GFSSW_prec_precacc12_063.txt.gz
Total_Precipitation_Accumulation
0.01 0.01 0.01 0.02 0.02 0.02 0.02 0.01 0.01 0.02 0.05 0.06 0.07 0.08 0.07 0.08 0.06 0.03 0.02 0.00 0.00 0.00 0.01 0.00 0.01 0.03 0.00 0.00 0.00 0.00 0.00 0.00 0.00 0.00 0.00 0.00 0.00 0.00 0.00 0.00 0.00 0.00 0.00 0.00 0.00
0.03 0.03 0.03 0.03 0.03 0.04 0.02 0.02 0.00 0.00 0.05 0.08 0.08 0.07 0.07 0.07 0.03 0.01 0.00 0.00 0.00 0.00 0.02 0.01 0.00 0.01 0.01 0.00 0.00 0.00 0.00 0.00 0.00 0.00 0.00 0.00 0.00 0.00 0.00 0.00 0.00 0.00 0.00 0.00 0.00
0.03 0.03 0.03 0.05 0.05 0.03 0.02 0.01 0.01 0.01 0.03 0.11 0.11 0.11 0.12 0.09 0.03 0.00 0.00 0.00 0.00 0.01 0.03 0.01 0.01 0.00 0.01 0.00 0.00 0.00 0.00 0.00 0.00 0.00 0.00 0.00 0.00 0.00 0.00 0.00 0.00 0.00 0.00 0.00 0.00
0.03 0.05 0.06 0.04 0.03 0.03 0.03 0.02 0.03 0.03 0.02 0.06 0.10 0.10 0.16 0.12 0.02 0.00 0.02 0.00 0.00 0.06 0.06 0.06 0.01 0.02 0.01 0.00 0.00 0.00 0.00 0.00 0.00 0.00 0.00 0.00 0.00 0.00 0.00 0.00 0.00 0.00 0.00 0.00 0.00
0.06 0.06 0.05 0.04 0.03 0.03 0.04 0.05 0.05 0.03 0.03 0.05 0.16 0.22 0.26 0.11 0.02 0.02 0.03 0.04 0.02 0.10 0.06 0.04 0.02 0.02 0.00 0.00 0.00 0.00 0.00 0.00 0.00 0.00 0.00 0.00 0.00 0.00 0.00 0.00 0.00 0.00 0.00 0.00 0.00
0.06 0.06 0.04 0.03 0.03 0.04 0.04 0.04 0.02 0.03 0.05 0.04 0.22 0.31 0.26 0.08 0.00 0.00 0.00 0.09 0.05 0.07 0.05 0.06 0.03 0.00 0.00 0.00 0.00 0.00 0.00 0.00 0.00 0.00 0.00 0.00 0.00 0.00 0.00 0.00 0.00 0.00 0.00 0.00 0.00
0.06 0.05 0.04 0.05 0.05 0.04 0.05 0.04 0.03 0.05 0.03 0.04 0.14 0.42 0.26 0.04 0.00 0.00 0.00 0.06 0.12 0.12 0.09 0.04 0.09 0.02 0.00 0.00 0.00 0.00 0.00 0.00 0.00 0.00 0.00 0.00 0.00 0.00 0.00 0.00 0.00 0.00 0.00 0.00 0.00
0.05 0.06 0.06 0.07 0.04 0.05 0.05 0.04 0.03 0.01 0.03 0.08 0.16 0.54 0.17 0.00 0.00 0.00 0.00 0.02 0.12 0.23 0.29 0.40 0.34 0.15 0.01 0.00 0.00 0.00 0.00 0.00 0.00 0.00 0.00 0.00 0.00 0.00 0.00 0.00 0.00 0.00 0.00 0.00 0.00
0.06 0.08 0.08 0.07 0.04 0.06 0.05 0.04 0.01 0.01 0.13 0.17 0.30 0.46 0.16 0.01 0.00 0.00 0.00 0.00 0.13 0.21 0.38 0.64 0.62 0.43 0.14 0.00 0.00 0.00 0.00 0.00 0.00 0.00 0.00 0.00 0.00 0.00 0.00 0.00 0.00 0.00 0.00 0.00 0.00
0.09 0.08 0.08 0.05 0.03 0.06 0.08 0.02 0.00 0.00 0.02 0.10 0.20 0.40 0.11 0.00 0.00 0.01 0.01 0.01 0.05 0.20 0.38 0.64 0.64 0.47 0.28 0.05 0.00 0.00 0.00 0.00 0.00 0.00 0.00 0.00 0.00 0.00 0.00 0.00 0.00 0.00 0.00 0.00 0.00
0.09 0.06 0.05 0.03 0.04 0.10 0.11 0.01 0.00 0.05 0.05 0.01 0.12 0.09 0.05 0.01 0.04 0.03 0.02 0.02 0.10 0.26 0.18 0.52 1.12 0.39 0.18 0.08 0.01 0.00 0.00 0.00 0.00 0.00 0.00 0.00 0.00 0.00 0.00 0.00 0.00 0.00 0.00 0.00 0.00
0.07 0.03 0.03 0.04 0.05 0.11 0.08 0.01 0.01 0.06 0.08 0.00 0.14 0.08 0.11 0.03 0.08 0.07 0.03 0.01 0.07 0.12 0.12 0.42 0.98 0.44 0.17 0.15 0.07 0.00 0.00 0.00 0.00 0.00 0.00 0.00 0.00 0.00 0.00 0.00 0.00 0.00 0.00 0.00 0.00
0.05 0.04 0.05 0.09 0.08 0.03 0.03 0.06 0.14 0.08 0.12 0.01 0.10 0.22 0.21 0.09 0.10 0.07 0.03 0.01 0.07 0.11 0.09 0.24 0.45 0.48 0.38 0.33 0.19 0.02 0.00 0.00 0.00 0.00 0.00 0.00 0.00 0.00 0.00 0.00 0.00 0.00 0.00 0.00 0.00
0.05 0.06 0.10 0.17 0.19 0.14 0.16 0.23 0.20 0.18 0.30 0.03 0.10 0.40 0.40 0.24 0.21 0.05 0.02 0.03 0.10 0.11 0.12 0.21 0.18 0.32 0.44 0.39 0.30 0.16 0.01 0.00 0.00 0.00 0.00 0.00 0.00 0.00 0.00 0.00 0.00 0.00 0.00 0.00 0.00
0.06 0.05 0.11 0.32 0.59 0.49 0.36 0.17 0.10 0.10 0.20 0.10 0.13 0.46 0.49 0.39 0.27 0.15 0.03 0.04 0.05 0.05 0.05 0.09 0.06 0.07 0.10 0.20 0.21 0.12 0.04 0.00 0.00 0.00 0.00 0.00 0.00 0.00 0.00 0.00 0.00 0.00 0.00 0.00 0.00
0.06 0.07 0.11 0.16 0.22 0.19 0.06 0.05 0.08 0.08 0.27 0.42 0.19 0.72 0.59 0.46 0.19 0.15 0.03 0.03 0.07 0.11 0.05 0.05 0.02 0.07 0.04 0.02 0.02 0.01 0.00 0.00 0.00 0.00 0.00 0.00 0.00 0.00 0.00 0.00 0.00 0.00 0.00 0.00 0.00
0.06 0.08 0.08 0.07 0.05 0.01 0.01 0.02 0.04 0.13 0.31 0.49 0.34 0.64 0.47 0.24 0.16 0.07 0.07 0.04 0.05 0.18 0.22 0.10 0.03 0.02 0.01 0.00 0.00 0.00 0.00 0.00 0.00 0.00 0.00 0.00 0.00 0.00 0.00 0.00 0.00 0.00 0.00 0.00 0.00
0.06 0.06 0.00 0.02 0.07 0.01 0.03 0.03 0.10 0.23 0.46 0.52 0.42 0.51 0.40 0.13 0.22 0.10 0.06 0.04 0.05 0.03 0.06 0.04 0.05 0.01 0.00 0.00 0.00 0.00 0.00 0.00 0.00 0.00 0.00 0.00 0.00 0.00 0.00 0.00 0.00 0.00 0.00 0.00 0.00
0.03 0.00 0.01 0.05 0.03 0.01 0.03 0.08 0.19 0.35 0.55 0.82 0.58 0.50 0.28 0.11 0.12 0.11 0.01 0.02 0.04 0.00 0.01 0.00 0.00 0.00 0.00 0.00 0.00 0.00 0.00 0.00 0.00 0.00 0.00 0.00 0.00 0.00 0.00 0.00 0.00 0.00 0.00 0.00 0.00
0.00 0.00 0.04 0.04 0.00 0.01 0.05 0.23 0.32 0.31 0.72 0.63 0.52 0.19 0.13 0.08 0.07 0.06 0.01 0.01 0.01 0.00 0.00 0.00 0.00 0.00 0.00 0.00 0.00 0.00 0.00 0.00 0.00 0.00 0.00 0.00 0.00 0.00 0.00 0.00 0.00 0.00 0.00 0.00 0.00
0.00 0.00 0.03 0.00 0.00 0.00 0.10 0.29 0.40 0.33 0.38 0.16 0.02 0.01 0.00 0.00 0.01 0.00 0.00 0.00 0.00 0.00 0.00 0.00 0.00 0.01 0.00 0.00 0.00 0.00 0.00 0.00 0.00 0.00 0.00 0.00 0.00 0.00 0.00 0.00 0.00 0.00 0.00 0.00 0.00
0.00 0.00 0.01 0.00 0.00 0.01 0.11 0.24 0.31 0.24 0.06 0.00 0.00 0.00 0.00 0.00 0.00 0.00 0.00 0.00 0.00 0.00 0.00 0.00 0.00 0.01 0.00 0.00 0.00 0.00 0.00 0.00 0.00 0.00 0.00 0.00 0.00 0.00 0.00 0.00 0.00 0.00 0.00 0.00 0.00
0.00 0.00 0.00 0.00 0.02 0.06 0.14 0.18 0.21 0.08 0.01 0.00 0.00 0.00 0.00 0.00 0.00 0.00 0.00 0.00 0.00 0.00 0.00 0.00 0.00 0.00 0.00 0.00 0.00 0.00 0.00 0.00 0.00 0.00 0.00 0.00 0.00 0.00 0.00 0.00 0.00 0.00 0.00 0.00 0.00
0.00 0.00 0.00 0.00 0.01 0.17 0.36 0.31 0.17 0.01 0.00 0.00 0.00 0.00 0.00 0.00 0.00 0.00 0.00 0.00 0.00 0.00 0.00 0.00 0.00 0.00 0.00 0.00 0.00 0.00 0.00 0.00 0.00 0.00 0.00 0.00 0.00 0.00 0.00 0.00 0.00 0.00 0.00 0.00 0.00
0.00 0.00 0.00 0.00 0.00 0.04 0.12 0.09 0.01 0.00 0.00 0.00 0.00 0.00 0.00 0.00 0.00 0.00 0.00 0.00 0.00 0.00 0.00 0.00 0.00 0.00 0.00 0.00 0.00 0.00 0.00 0.00 0.00 0.00 0.00 0.00 0.00 0.00 0.00 0.00 0.00 0.00 0.00 0.00 0.00
0.00 0.00 0.00 0.00 0.00 0.02 0.04 0.01 0.00 0.00 0.00 0.00 0.00 0.00 0.00 0.00 0.00 0.00 0.00 0.00 0.00 0.00 0.00 0.00 0.00 0.00 0.00 0.00 0.00 0.00 0.00 0.00 0.00 0.00 0.00 0.00 0.00 0.00 0.00 0.00 0.00 0.00 0.00 0.00 0.00
0.00 0.00 0.00 0.00 0.03 0.09 0.06 0.01 0.00 0.00 0.01 0.00 0.00 0.00 0.00 0.00 0.00 0.00 0.00 0.00 0.00 0.00 0.00 0.00 0.00 0.00 0.00 0.00 0.00 0.00 0.00 0.00 0.00 0.00 0.00 0.00 0.00 0.00 0.00 0.00 0.00 0.00 0.00 0.00 0.00

GFSSW_prec_precacc12_066.txt.gz
Total_Precipitation_Accumulation
0.03 0.04 0.04 0.03 0.03 0.03 0.03 0.02 0.01 0.00 0.00 0.03 0.07 0.08 0.07 0.08 0.06 0.03 0.02 0.00 0.00 0.00 0.01 0.00 0.01 0.06 0.02 0.00 0.00 0.00 0.00 0.00 0.00 0.00 0.00 0.00 0.00 0.00 0.00 0.00 0.00 0.00 0.00 0.00 0.00
0.05 0.05 0.04 0.03 0.05 0.05 0.03 0.03 0.01 0.01 0.00 0.01 0.05 0.08 0.08 0.07 0.03 0.01 0.00 0.00 0.00 0.00 0.01 0.01 0.00 0.05 0.05 0.00 0.00 0.00 0.00 0.00 0.00 0.00 0.00 0.00 0.00 0.00 0.00 0.00 0.00 0.00 0.00 0.00 0.00
0.05 0.03 0.04 0.06 0.06 0.04 0.04 0.03 0.02 0.02 0.02 0.02 0.03 0.10 0.12 0.09 0.03 0.00 0.00 0.00 0.00 0.00 0.02 0.01 0.01 0.03 0.04 0.00 0.00 0.00 0.00 0.00 0.00 0.00 0.00 0.00 0.00 0.00 0.00 0.00 0.00 0.00 0.00 0.00 0.00
0.04 0.05 0.06 0.05 0.04 0.03 0.03 0.03 0.04 0.05 0.03 0.04 0.02 0.07 0.19 0.14 0.02 0.02 0.03 0.01 0.04 0.08 0.05 0.07 0.03 0.04 0.03 0.00 0.00 0.00 0.00 0.00 0.00 0.00 0.00 0.00 0.00 0.00 0.00 0.00 0.00 0.00 0.00 0.00 0.00
0.06 0.06 0.05 0.04 0.03 0.03 0.04 0.05 0.06 0.05 0.04 0.05 0.04 0.13 0.30 0.12 0.02 0.05 0.03 0.02 0.01 0.10 0.05 0.05 0.03 0.03 0.01 0.00 0.00 0.00 0.00 0.00 0.00 0.00 0.00 0.00 0.00 0.00 0.00 0.00 0.00 0.00 0.00 0.00 0.00
0.05 0.05 0.04 0.03 0.04 0.04 0.05 0.04 0.03 0.04 0.07 0.06 0.07 0.15 0.27 0.10 0.00 0.00 0.01 0.04 0.02 0.08 0.07 0.04 0.03 0.01 0.01 0.01 0.00 0.00 0.00 0.00 0.00 0.00 0.00 0.00 0.00 0.00 0.00 0.00 0.00 0.00 0.00 0.00 0.00
0.06 0.04 0.04 0.04 0.05 0.04 0.05 0.04 0.03 0.05 0.04 0.05 0.08 0.16 0.24 0.04 0.00 0.00 0.01 0.06 0.10 0.12 0.07 0.02 0.09 0.02 0.00 0.01 0.00 0.00 0.00 0.00 0.00 0.00 0.00 0.00 0.00 0.00 0.00 0.00 0.00 0.00 0.00 0.00 0.00
0.04 0.06 0.06 0.08 0.05 0.06 0.06 0.04 0.03 0.02 0.05 0.11 0.16 0.30 0.12 0.00 0.00 0.00 0.00 0.03 0.12 0.23 0.25 0.32 0.37 0.20 0.02 0.00 0.00 0.00 0.00 0.00 0.00 0.00 0.00 0.00 0.00 0.00 0.00 0.00 0.00 0.00 0.00 0.00 0.00
0.06 0.08 0.08 0.07 0.04 0.05 0.05 0.05 0.01 0.00 0.13 0.20 0.32 0.22 0.10 0.01 0.00 0.00 0.00 0.01 0.14 0.25 0.39 0.65 0.74 0.44 0.15 0.01 0.01 0.01 0.00 0.00 0.00 0.00 0.00 0.00 0.00 0.00 0.00 0.00 0.00 0.00 0.00 0.00 0.00
0.08 0.08 0.07 0.04 0.03 0.06 0.08 0.03 0.00 0.00 0.02 0.09 0.14 0.12 0.04 0.01 0.00 0.02 0.01 0.01 0.09 0.29 0.39 0.69 0.75 0.67 0.30 0.06 0.01 0.00 0.00 0.00 0.00 0.00 0.00 0.00 0.00 0.00 0.00 0.00 0.00 0.00 0.00 0.00 0.00
0.07 0.05 0.05 0.05 0.07 0.10 0.10 0.01 0.00 0.01 0.02 0.00 0.01 0.01 0.04 0.01 0.04 0.05 0.03 0.04 0.13 0.34 0.21 0.55 1.22 0.68 0.27 0.09 0.01 0.00 0.00 0.00 0.00 0.00 0.00 0.00 0.00 0.00 0.00 0.00 0.00 0.00 0.00 0.00 0.00
0.06 0.05 0.06 0.07 0.09 0.12 0.06 0.01 0.00 0.03 0.05 0.00 0.00 0.01 0.10 0.03 0.08 0.12 0.07 0.08 0.10 0.23 0.15 0.47 1.04 0.47 0.20 0.18 0.07 0.00 0.00 0.00 0.00 0.00 0.00 0.00 0.00 0.00 0.00 0.00 0.00 0.00 0.00 0.00 0.00
0.07 0.07 0.06 0.10 0.11 0.04 0.06 0.06 0.05 0.06 0.13 0.01 0.00 0.02 0.16 0.09 0.11 0.18 0.11 0.09 0.10 0.30 0.11 0.32 0.50 0.55 0.49 0.38 0.21 0.03 0.00 0.00 0.00 0.00 0.00 0.00 0.00 0.00 0.00 0.00 0.00 0.00 0.00 0.00 0.00
0.06 0.08 0.10 0.16 0.20 0.14 0.17 0.20 0.17 0.19 0.30 0.03 0.03 0.10 0.27 0.24 0.23 0.12 0.15 0.07 0.11 0.38 0.16 0.39 0.32 0.51 0.70 0.48 0.33 0.19 0.01 0.00 0.00 0.00 0.00 0.00 0.00 0.00 0.00 0.00 0.00 0.00 0.00 0.00 0.00
0.06 0.06 0.12 0.28 0.56 0.48 0.33 0.15 0.11 0.11 0.19 0.11 0.06 0.23 0.43 0.41 0.35 0.27 0.17 0.05 0.08 0.22 0.16 0.31 0.27 0.27 0.39 0.34 0.26 0.17 0.06 0.00 0.00 0.00 0.00 0.00 0.00 0.00 0.00 0.00 0.00 0.00 0.00 0.00 0.00
0.06 0.07 0.10 0.13 0.17 0.12 0.03 0.04 0.08 0.08 0.25 0.19 0.04 0.41 0.59 0.52 0.34 0.30 0.13 0.05 0.08 0.13 0.15 0.16 0.13 0.22 0.12 0.20 0.12 0.09 0.04 0.00 0.00 0.00 0.00 0.00 0.00 0.00 0.00 0.00 0.00 0.00 0.00 0.00 0.00
0.06 0.07 0.05 0.03 0.03 0.01 0.02 0.03 0.05 0.15 0.19 0.26 0.10 0.56 0.65 0.45 0.27 0.21 0.10 0.06 0.06 0.19 0.27 0.27 0.18 0.11 0.22 0.17 0.13 0.04 0.02 0.02 0.00 0.00 0.00 0.00 0.00 0.00 0.00 0.00 0.00 0.00 0.00 0.00 0.00
0.05 0.04 0.00 0.02 0.02 0.01 0.03 0.01 0.11 0.22 0.36 0.29 0.36 0.70 0.69 0.23 0.30 0.16 0.08 0.05 0.05 0.04 0.10 0.20 0.18 0.12 0.14 0.03 0.01 0.00 0.00 0.00 0.00 0.00 0.00 0.00 0.00 0.00 0.00 0.00 0.00 0.00 0.00 0.00 0.00
0.02 0.00 0.01 0.03 0.00 0.00 0.02 0.08 0.17 0.27 0.34 0.55 0.57 0.57 0.36 0.16 0.19 0.13 0.03 0.03 0.04 0.01 0.03 0.05 0.05 0.04 0.02 0.02 0.00 0.00 0.00 0.00 0.00 0.00 0.00 0.00 0.00 0.00 0.00 0.00 0.00 0.00 0.00 0.00 0.00
0.00 0.00 0.02 0.01 0.00 0.00 0.04 0.19 0.29 0.26 0.46 0.47 0.52 0.18 0.16 0.10 0.07 0.06 0.02 0.01 0.01 0.00 0.00 0.00 0.01 0.00 0.00 0.00 0.00 0.00 0.00 0.00 0.00 0.00 0.00 0.00 0.00 0.00 0.00 0.00 0.00 0.00 0.00 0.00 0.00
0.00 0.00 0.00 0.00 0.00 0.00 0.10 0.26 0.35 0.24 0.19 0.06 0.01 0.01 0.01 0.01 0.01 0.00 0.00 0.00 0.00 0.00 0.00 0.00 0.00 0.01 0.00 0.00 0.00 0.00 0.00 0.00 0.00 0.00 0.00 0.00 0.00 0.00 0.00 0.00 0.00 0.00 0.00 0.00 0.00
0.00 0.00 0.00 0.00 0.00 0.00 0.06 0.14 0.12 0.04 0.00 0.00 0.00 0.00 0.00 0.00 0.00 0.00 0.00 0.00 0.00 0.00 0.00 0.00 0.00 0.01 0.01 0.00 0.00 0.00 0.00 0.00 0.00 0.00 0.00 0.00 0.00 0.00 0.00 0.00 0.00 0.00 0.00 0.00 0.00
0.00 0.00 0.00 0.00 0.02 0.04 0.08 0.07 0.03 0.00 0.00 0.00 0.00 0.00 0.00 0.00 0.00 0.00 0.00 0.00 0.00 0.00 0.00 0.00 0.00 0.00 0.00 0.00 0.00 0.00 0.00 0.00 0.00 0.00 0.00 0.00 0.00 0.00 0.00 0.00 0.00 0.00 0.00 0.00 0.00
0.00 0.00 0.00 0.00 0.01 0.11 0.20 0.08 0.01 0.00 0.00 0.00 0.00 0.00 0.00 0.00 0.00 0.00 0.00 0.00 0.00 0.00 0.00 0.00 0.00 0.00 0.00 0.00 0.00 0.00 0.00 0.00 0.00 0.00 0.00 0.00 0.00 0.00 0.00 0.00 0.00 0.00 0.00 0.00 0.00
0.00 0.00 0.00 0.00 0.00 0.02 0.03 0.02 0.00 0.00 0.00 0.00 0.00 0.00 0.00 0.00 0.00 0.00 0.00 0.00 0.00 0.00 0.00 0.00 0.00 0.00 0.00 0.00 0.00 0.00 0.00 0.00 0.00 0.00 0.00 0.00 0.00 0.00 0.00 0.00 0.00 0.00 0.00 0.00 0.00
0.00 0.00 0.00 0.00 0.00 0.00 0.00 0.00 0.00 0.00 0.00 0.00 0.00 0.00 0.00 0.00 0.00 0.00 0.00 0.00 0.00 0.00 0.00 0.00 0.00 0.00 0.00 0.00 0.00 0.00 0.00 0.00 0.00 0.00 0.00 0.00 0.00 0.00 0.00 0.00 0.00 0.00 0.00 0.00 0.00
0.00 0.00 0.00 0.00 0.00 0.00 0.00 0.00 0.00 0.00 0.00 0.00 0.00 0.00 0.00 0.00 0.00 0.00 0.00 0.00 0.00 0.00 0.00 0.00 0.00 0.00 0.00 0.00 0.00 0.00 0.00 0.00 0.00 0.00 0.00 0.00 0.00 0.00 0.00 0.00 0.00 0.00 0.00 0.00 0.00

GFSSW_prec_precacc12_069.txt.gz
Total_Precipitation_Accumulation
0.03 0.05 0.05 0.04 0.04 0.04 0.04 0.03 0.03 0.03 0.03 0.01 0.01 0.02 0.06 0.08 0.05 0.03 0.02 0.01 0.00 0.00 0.01 0.00 0.01 0.07 0.05 0.00 0.00 0.00 0.00 0.00 0.00 0.00 0.00 0.00 0.00 0.00 0.00 0.00 0.00 0.00 0.00 0.00 0.00
0.07 0.07 0.04 0.04 0.05 0.05 0.04 0.03 0.02 0.02 0.01 0.02 0.01 0.02 0.02 0.07 0.03 0.01 0.00 0.00 0.00 0.00 0.00 0.01 0.01 0.08 0.10 0.01 0.00 0.00 0.00 0.00 0.00 0.00 0.00 0.00 0.00 0.00 0.00 0.00 0.00 0.00 0.00 0.00 0.00
0.07 0.03 0.05 0.07 0.06 0.05 0.04 0.03 0.02 0.02 0.02 0.02 0.02 0.02 0.03 0.08 0.04 0.00 0.00 0.00 0.00 0.04 0.01 0.01 0.01 0.06 0.10 0.04 0.00 0.00 0.00 0.00 0.00 0.00 0.00 0.00 0.00 0.00 0.00 0.00 0.00 0.00 0.00 0.00 0.00
0.04 0.04 0.05 0.05 0.04 0.03 0.03 0.03 0.04 0.06 0.05 0.04 0.05 0.05 0.07 0.12 0.03 0.04 0.03 0.01 0.05 0.15 0.12 0.06 0.03 0.08 0.06 0.02 0.00 0.00 0.00 0.00 0.00 0.00 0.00 0.00 0.00 0.00 0.00 0.00 0.00 0.00 0.00 0.00 0.00
0.05 0.05 0.05 0.04 0.03 0.04 0.04 0.05 0.07 0.05 0.07 0.09 0.07 0.11 0.10 0.10 0.03 0.05 0.03 0.01 0.03 0.15 0.14 0.07 0.03 0.04 0.02 0.01 0.01 0.00 0.00 0.00 0.00 0.00 0.00 0.00 0.00 0.00 0.00 0.00 0.00 0.00 0.00 0.00 0.00
0.04 0.06 0.05 0.04 0.04 0.05 0.06 0.05 0.04 0.06 0.09 0.09 0.09 0.14 0.09 0.07 0.00 0.00 0.02 0.01 0.01 0.06 0.11 0.08 0.03 0.01 0.02 0.02 0.01 0.00 0.00 0.00 0.00 0.00 0.00 0.00 0.00 0.00 0.00 0.00 0.00 0.00 0.00 0.00 0.00
0.06 0.05 0.04 0.04 0.06 0.05 0.07 0.06 0.06 0.09 0.06 0.08 0.12 0.19 0.11 0.01 0.00 0.00 0.01 0.03 0.03 0.04 0.07 0.06 0.09 0.03 0.02 0.02 0.01 0.00 0.00 0.00 0.00 0.00 0.00 0.00 0.00 0.00 0.00 0.00 0.00 0.00 0.00 0.00 0.00
0.04 0.05 0.04 0.06 0.05 0.06 0.05 0.05 0.05 0.05 0.08 0.15 0.21 0.31 0.05 0.00 0.00 0.00 0.00 0.03 0.08 0.13 0.16 0.24 0.32 0.23 0.04 0.02 0.02 0.01 0.01 0.00 0.00 0.00 0.00 0.00 0.00 0.00 0.00 0.00 0.00 0.00 0.00 0.00 0.00
0.05 0.06 0.07 0.07 0.05 0.05 0.04 0.03 0.02 0.02 0.11 0.22 0.39 0.22 0.03 0.00 0.00 0.00 0.00 0.03 0.16 0.20 0.33 0.59 0.69 0.42 0.20 0.06 0.07 0.05 0.01 0.00 0.00 0.00 0.00 0.00 0.00 0.00 0.00 0.00 0.00 0.00 0.00 0.00 0.00
0.05 0.07 0.08 0.07 0.06 0.07 0.09 0.03 0.00 0.00 0.01 0.08 0.15 0.11 0.01 0.00 0.00 0.02 0.01 0.03 0.18 0.34 0.43 0.67 0.64 0.50 0.29 0.11 0.04 0.01 0.00 0.00 0.00 0.00 0.00 0.00 0.00 0.00 0.00 0.00 0.00 0.00 0.00 0.00 0.00
0.05 0.08 0.08 0.07 0.08 0.10 0.10 0.02 0.01 0.01 0.02 0.02 0.02 0.00 0.01 0.01 0.03 0.04 0.03 0.07 0.21 0.48 0.27 0.64 0.93 0.72 0.21 0.03 0.00 0.00 0.00 0.00 0.00 0.00 0.00 0.00 0.00 0.00 0.00 0.00 0.00 0.00 0.00 0.00 0.00
0.06 0.07 0.06 0.06 0.08 0.08 0.05 0.02 0.00 0.03 0.03 0.00 0.00 0.00 0.02 0.03 0.07 0.14 0.11 0.16 0.21 0.48 0.17 0.49 0.97 0.44 0.25 0.15 0.05 0.00 0.00 0.00 0.00 0.00 0.00 0.00 0.00 0.00 0.00 0.00 0.00 0.00 0.00 0.00 0.00
0.07 0.07 0.06 0.09 0.10 0.04 0.06 0.11 0.10 0.05 0.09 0.02 0.00 0.00 0.04 0.07 0.11 0.22 0.17 0.19 0.18 0.48 0.13 0.32 0.50 0.56 0.63 0.52 0.28 0.04 0.00 0.00 0.00 0.00 0.00 0.00 0.00 0.00 0.00 0.00 0.00 0.00 0.00 0.00 0.00
0.08 0.08 0.09 0.15 0.19 0.14 0.17 0.21 0.16 0.16 0.19 0.05 0.05 0.08 0.08 0.15 0.23 0.24 0.19 0.17 0.13 0.46 0.18 0.41 0.33 0.52 0.76 0.72 0.43 0.21 0.01 0.00 0.00 0.00 0.00 0.00 0.00 0.00 0.00 0.00 0.00 0.00 0.00 0.00 0.00
0.07 0.06 0.11 0.24 0.46 0.44 0.31 0.13 0.09 0.07 0.18 0.14 0.16 0.19 0.23 0.40 0.49 0.40 0.29 0.11 0.14 0.56 0.20 0.32 0.29 0.29 0.43 0.48 0.40 0.20 0.06 0.00 0.00 0.00 0.00 0.00 0.00 0.00 0.00 0.00 0.00 0.00 0.00 0.00 0.00
0.07 0.07 0.06 0.05 0.08 0.08 0.02 0.03 0.06 0.09 0.21 0.11 0.05 0.15 0.34 0.56 0.49 0.67 0.30 0.15 0.26 0.49 0.20 0.21 0.20 0.33 0.20 0.29 0.29 0.11 0.04 0.00 0.00 0.00 0.00 0.00 0.00 0.00 0.00 0.00 0.00 0.00 0.00 0.00 0.00
0.05 0.03 0.01 0.01 0.02 0.00 0.01 0.03 0.05 0.16 0.13 0.06 0.04 0.23 0.64 0.51 0.53 0.55 0.18 0.24 0.25 0.45 0.40 0.41 0.26 0.22 0.33 0.38 0.31 0.12 0.10 0.08 0.03 0.00 0.00 0.00 0.00 0.00 0.00 0.00 0.00 0.00 0.00 0.00 0.00
0.02 0.00 0.00 0.00 0.00 0.00 0.03 0.01 0.09 0.18 0.18 0.11 0.18 0.55 0.74 0.39 0.62 0.28 0.10 0.09 0.09 0.09 0.17 0.36 0.37 0.27 0.33 0.14 0.15 0.07 0.11 0.06 0.01 0.00 0.00 0.00 0.00 0.00 0.00 0.00 0.00 0.00 0.00 0.00 0.00
0.00 0.00 0.00 0.00 0.00 0.00 0.03 0.06 0.12 0.13 0.15 0.29 0.53 0.62 0.33 0.17 0.25 0.13 0.03 0.03 0.05 0.02 0.04 0.12 0.13 0.13 0.14 0.06 0.04 0.04 0.02 0.01 0.00 0.00 0.00 0.00 0.00 0.00 0.00 0.00 0.00 0.00 0.00 0.00 0.00
0.00 0.00 0.00 0.00 0.00 0.00 0.04 0.14 0.18 0.13 0.16 0.28 0.52 0.15 0.14 0.09 0.07 0.06 0.02 0.01 0.01 0.00 0.00 0.00 0.05 0.06 0.02 0.04 0.01 0.00 0.01 0.00 0.00 0.00 0.00 0.00 0.00 0.00 0.00 0.00 0.00 0.00 0.00 0.00 0.00
0.00 0.00 0.00 0.00 0.00 0.00 0.06 0.13 0.20 0.10 0.06 0.02 0.01 0.00 0.01 0.01 0.01 0.00 0.00 0.00 0.00 0.00 0.00 0.00 0.00 0.02 0.01 0.02 0.01 0.00 0.00 0.00 0.00 0.00 0.00 0.00 0.00 0.00 0.00 0.00 0.00 0.00 0.00 0.00 0.00
0.00 0.00 0.00 0.00 0.00 0.00 0.03 0.04 0.03 0.00 0.00 0.00 0.00 0.00 0.00 0.00 0.00 0.00 0.00 0.00 0.00 0.00 0.00 0.00 0.00 0.01 0.01 0.00 0.00 0.00 0.00 0.00 0.00 0.00 0.00 0.00 0.00 0.00 0.00 0.00 0.00 0.00 0.00 0.00 0.00
0.00 0.00 0.00 0.00 0.01 0.01 0.00 0.00 0.00 0.00 0.00 0.00 0.00 0.00 0.00 0.00 0.00 0.00 0.00 0.00 0.00 0.00 0.00 0.00 0.00 0.00 0.00 0.00 0.00 0.00 0.00 0.00 0.00 0.00 0.00 0.00 0.00 0.00 0.00 0.00 0.00 0.00 0.00 0.00 0.00
0.00 0.00 0.00 0.00 0.00 0.01 0.01 0.00 0.00 0.00 0.00 0.00 0.00 0.00 0.00 0.00 0.00 0.00 0.00 0.00 0.00 0.00 0.00 0.00 0.00 0.00 0.00 0.00 0.00 0.00 0.00 0.00 0.00 0.00 0.00 0.00 0.00 0.00 0.00 0.00 0.00 0.00 0.00 0.00 0.00
0.00 0.00 0.00 0.00 0.00 0.00 0.00 0.00 0.00 0.00 0.00 0.00 0.00 0.00 0.00 0.00 0.00 0.00 0.00 0.00 0.00 0.00 0.00 0.00 0.00 0.00 0.00 0.00 0.00 0.00 0.00 0.00 0.00 0.00 0.00 0.00 0.00 0.00 0.00 0.00 0.00 0.00 0.00 0.00 0.00
0.00 0.01 0.00 0.00 0.00 0.00 0.00 0.00 0.00 0.00 0.00 0.00 0.00 0.00 0.00 0.00 0.00 0.00 0.00 0.00 0.00 0.00 0.00 0.00 0.00 0.00 0.00 0.00 0.00 0.00 0.00 0.00 0.00 0.00 0.00 0.00 0.00 0.00 0.00 0.00 0.00 0.00 0.00 0.00 0.00
0.00 0.00 0.01 0.00 0.00 0.00 0.00 0.00 0.00 0.00 0.00 0.00 0.00 0.00 0.00 0.00 0.00 0.00 0.00 0.00 0.00 0.00 0.00 0.00 0.00 0.00 0.00 0.00 0.00 0.00 0.00 0.00 0.00 0.00 0.00 0.00 0.00 0.00 0.00 0.00 0.00 0.00 0.00 0.00 0.00

GFSSW_prec_precacc12_072.txt.gz
Total_Precipitation_Accumulation
0.04 0.09 0.08 0.05 0.04 0.04 0.05 0.04 0.03 0.03 0.05 0.03 0.03 0.02 0.02 0.03 0.03 0.02 0.01 0.01 0.00 0.00 0.01 0.00 0.00 0.08 0.10 0.04 0.01 0.00 0.00 0.00 0.00 0.00 0.00 0.00 0.00 0.00 0.00 0.00 0.00 0.00 0.00 0.00 0.00
0.10 0.09 0.04 0.03 0.04 0.04 0.04 0.04 0.03 0.02 0.01 0.03 0.02 0.03 0.02 0.02 0.01 0.01 0.00 0.00 0.00 0.01 0.01 0.01 0.01 0.09 0.14 0.03 0.03 0.00 0.00 0.00 0.00 0.00 0.00 0.00 0.00 0.00 0.00 0.00 0.00 0.00 0.00 0.00 0.00
0.08 0.04 0.04 0.05 0.04 0.04 0.04 0.03 0.02 0.02 0.02 0.02 0.02 0.03 0.04 0.04 0.02 0.00 0.00 0.00 0.00 0.06 0.04 0.01 0.01 0.06 0.11 0.07 0.01 0.00 0.00 0.00 0.00 0.00 0.00 0.00 0.00 0.00 0.00 0.00 0.00 0.00 0.00 0.00 0.00
0.05 0.04 0.05 0.05 0.04 0.04 0.04 0.03 0.04 0.06 0.06 0.05 0.06 0.08 0.14 0.10 0.03 0.07 0.02 0.01 0.05 0.18 0.19 0.07 0.03 0.08 0.08 0.04 0.00 0.00 0.00 0.00 0.00 0.00 0.00 0.00 0.00 0.00 0.00 0.00 0.00 0.00 0.00 0.00 0.00
0.05 0.04 0.05 0.04 0.04 0.04 0.04 0.05 0.06 0.06 0.07 0.11 0.10 0.20 0.16 0.08 0.02 0.06 0.03 0.00 0.02 0.16 0.17 0.10 0.03 0.03 0.03 0.01 0.04 0.01 0.00 0.00 0.00 0.00 0.00 0.00 0.00 0.00 0.00 0.00 0.00 0.00 0.00 0.00 0.00
0.04 0.05 0.04 0.03 0.04 0.03 0.04 0.04 0.05 0.06 0.08 0.09 0.13 0.19 0.10 0.04 0.00 0.00 0.02 0.00 0.01 0.05 0.13 0.12 0.03 0.01 0.02 0.02 0.04 0.01 0.00 0.00 0.00 0.00 0.00 0.00 0.00 0.00 0.00 0.00 0.00 0.00 0.00 0.00 0.00
0.06 0.04 0.04 0.04 0.05 0.05 0.06 0.06 0.08 0.07 0.07 0.08 0.15 0.23 0.10 0.01 0.00 0.00 0.01 0.01 0.01 0.03 0.07 0.09 0.13 0.03 0.02 0.04 0.01 0.02 0.02 0.02 0.00 0.00 0.00 0.00 0.00 0.00 0.00 0.00 0.00 0.00 0.00 0.00 0.00
0.04 0.04 0.03 0.05 0.06 0.06 0.07 0.07 0.07 0.05 0.08 0.13 0.24 0.32 0.05 0.00 0.00 0.00 0.00 0.02 0.01 0.01 0.08 0.14 0.30 0.25 0.05 0.04 0.04 0.06 0.04 0.03 0.00 0.00 0.00 0.00 0.00 0.00 0.00 0.00 0.00 0.00 0.00 0.00 0.00
0.04 0.04 0.05 0.08 0.07 0.07 0.07 0.08 0.06 0.03 0.05 0.17 0.34 0.23 0.02 0.00 0.00 0.00 0.00 0.02 0.11 0.10 0.16 0.40 0.62 0.42 0.20 0.12 0.13 0.10 0.03 0.00 0.00 0.00 0.00 0.00 0.00 0.00 0.00 0.00 0.00 0.00 0.00 0.00 0.00
0.03 0.05 0.09 0.07 0.07 0.07 0.10 0.08 0.04 0.01 0.02 0.05 0.14 0.13 0.02 0.00 0.00 0.01 0.00 0.02 0.19 0.35 0.33 0.53 0.66 0.53 0.28 0.18 0.13 0.03 0.00 0.00 0.00 0.00 0.00 0.00 0.00 0.00 0.00 0.00 0.00 0.00 0.00 0.00 0.00
0.04 0.08 0.08 0.06 0.07 0.09 0.09 0.03 0.04 0.04 0.03 0.02 0.03 0.01 0.02 0.00 0.02 0.03 0.02 0.06 0.26 0.67 0.31 0.44 0.72 0.73 0.17 0.03 0.01 0.00 0.00 0.00 0.00 0.00 0.00 0.00 0.00 0.00 0.00 0.00 0.00 0.00 0.00 0.00 0.00
0.05 0.07 0.06 0.07 0.08 0.06 0.04 0.03 0.02 0.04 0.03 0.01 0.00 0.00 0.00 0.01 0.03 0.11 0.10 0.16 0.35 0.68 0.23 0.48 0.54 0.25 0.15 0.07 0.03 0.01 0.01 0.00 0.00 0.00 0.00 0.00 0.00 0.00 0.00 0.00 0.00 0.00 0.00 0.00 0.00
0.08 0.08 0.05 0.08 0.09 0.05 0.06 0.12 0.10 0.03 0.06 0.01 0.00 0.00 0.01 0.02 0.05 0.20 0.21 0.21 0.23 0.69 0.19 0.35 0.34 0.37 0.43 0.28 0.13 0.03 0.00 0.00 0.00 0.00 0.00 0.00 0.00 0.00 0.00 0.00 0.00 0.00 0.00 0.00 0.00
0.09 0.08 0.09 0.11 0.13 0.14 0.15 0.17 0.15 0.12 0.16 0.08 0.09 0.10 0.06 0.08 0.17 0.23 0.25 0.26 0.25 0.83 0.21 0.43 0.32 0.50 0.72 0.69 0.36 0.17 0.01 0.00 0.00 0.00 0.00 0.00 0.00 0.00 0.00 0.00 0.00 0.00 0.00 0.00 0.00
0.07 0.05 0.04 0.05 0.05 0.06 0.11 0.06 0.06 0.05 0.16 0.16 0.18 0.20 0.14 0.19 0.43 0.35 0.34 0.42 0.44 0.92 0.34 0.39 0.30 0.30 0.43 0.50 0.52 0.34 0.06 0.00 0.01 0.00 0.00 0.00 0.00 0.00 0.00 0.00 0.00 0.00 0.00 0.00 0.00
0.04 0.01 0.00 0.01 0.02 0.02 0.01 0.03 0.05 0.07 0.11 0.09 0.08 0.10 0.17 0.42 0.52 0.70 0.36 0.48 0.51 0.72 0.20 0.21 0.21 0.33 0.20 0.29 0.45 0.30 0.13 0.04 0.01 0.02 0.01 0.00 0.00 0.00 0.00 0.00 0.00 0.00 0.00 0.00 0.00
0.01 0.00 0.00 0.00 0.02 0.00 0.01 0.04 0.05 0.12 0.08 0.07 0.10 0.16 0.49 0.46 0.55 0.56 0.24 0.36 0.29 0.61 0.39 0.41 0.27 0.22 0.34 0.39 0.42 0.40 0.25 0.15 0.09 0.03 0.01 0.00 0.00 0.00 0.00 0.00 0.00 0.00 0.00 0.00 0.00
0.00 0.00 0.00 0.00 0.00 0.00 0.03 0.01 0.06 0.11 0.09 0.10 0.18 0.39 0.71 0.51 0.75 0.36 0.33 0.20 0.21 0.16 0.18 0.37 0.40 0.30 0.36 0.16 0.20 0.19 0.20 0.16 0.04 0.01 0.00 0.00 0.00 0.00 0.00 0.00 0.00 0.00 0.00 0.00 0.00
0.00 0.00 0.00 0.00 0.00 0.00 0.02 0.03 0.06 0.06 0.11 0.18 0.30 0.49 0.44 0.33 0.46 0.27 0.20 0.08 0.19 0.09 0.06 0.15 0.17 0.18 0.22 0.12 0.12 0.18 0.08 0.07 0.00 0.00 0.00 0.00 0.00 0.00 0.00 0.00 0.00 0.00 0.00 0.00 0.00
0.00 0.00 0.00 0.00 0.00 0.00 0.02 0.05 0.04 0.02 0.01 0.09 0.37 0.11 0.13 0.11 0.11 0.04 0.02 0.01 0.01 0.00 0.00 0.01 0.08 0.12 0.10 0.10 0.06 0.10 0.05 0.03 0.03 0.00 0.00 0.00 0.00 0.00 0.00 0.00 0.00 0.00 0.00 0.00 0.00
0.00 0.00 0.00 0.00 0.00 0.00 0.02 0.02 0.01 0.00 0.00 0.02 0.01 0.01 0.02 0.01 0.01 0.00 0.00 0.00 0.00 0.00 0.00 0.00 0.01 0.05 0.05 0.06 0.03 0.03 0.04 0.00 0.00 0.00 0.00 0.00 0.00 0.00 0.00 0.00 0.00 0.00 0.00 0.00 0.00
0.00 0.00 0.00 0.00 0.00 0.00 0.01 0.01 0.00 0.00 0.00 0.00 0.00 0.00 0.00 0.00 0.00 0.00 0.00 0.00 0.00 0.00 0.00 0.00 0.00 0.01 0.01 0.00 0.00 0.00 0.00 0.00 0.00 0.00 0.00 0.00 0.00 0.00 0.00 0.00 0.00 0.00 0.00 0.00 0.00
0.00 0.00 0.00 0.00 0.00 0.00 0.00 0.00 0.00 0.00 0.00 0.00 0.00 0.00 0.00 0.00 0.00 0.00 0.00 0.00 0.00 0.00 0.00 0.00 0.00 0.00 0.00 0.00 0.00 0.00 0.00 0.00 0.00 0.00 0.00 0.00 0.00 0.00 0.00 0.00 0.00 0.00 0.00 0.00 0.00
0.00 0.00 0.00 0.00 0.00 0.00 0.00 0.00 0.00 0.00 0.00 0.00 0.00 0.00 0.00 0.00 0.00 0.00 0.00 0.00 0.00 0.00 0.00 0.00 0.00 0.00 0.00 0.00 0.00 0.00 0.00 0.00 0.00 0.00 0.00 0.00 0.00 0.00 0.00 0.00 0.00 0.00 0.00 0.00 0.00
0.00 0.00 0.00 0.00 0.00 0.00 0.00 0.00 0.00 0.00 0.00 0.00 0.00 0.00 0.00 0.00 0.00 0.00 0.00 0.00 0.00 0.00 0.00 0.00 0.00 0.00 0.00 0.00 0.00 0.00 0.00 0.00 0.00 0.00 0.00 0.00 0.00 0.00 0.00 0.00 0.00 0.00 0.00 0.00 0.00
0.00 0.01 0.00 0.00 0.00 0.00 0.00 0.00 0.00 0.00 0.00 0.00 0.00 0.00 0.00 0.00 0.00 0.00 0.00 0.00 0.00 0.00 0.00 0.00 0.00 0.00 0.00 0.00 0.00 0.00 0.00 0.00 0.00 0.00 0.00 0.00 0.00 0.00 0.00 0.00 0.00 0.00 0.00 0.00 0.00
0.00 0.00 0.01 0.00 0.00 0.00 0.00 0.00 0.00 0.00 0.00 0.00 0.00 0.00 0.00 0.00 0.00 0.00 0.00 0.00 0.00 0.00 0.00 0.00 0.00 0.00 0.00 0.00 0.00 0.00 0.00 0.00 0.00 0.00 0.00 0.00 0.00 0.00 0.00 0.00 0.00 0.00 0.00 0.00 0.00

GFSSW_prec_precacc12_075.txt.gz
Total_Precipitation_Accumulation
0.06 0.11 0.09 0.04 0.03 0.02 0.03 0.03 0.03 0.03 0.05 0.03 0.03 0.03 0.03 0.02 0.02 0.00 0.00 0.01 0.00 0.00 0.01 0.00 0.00 0.05 0.13 0.07 0.04 0.05 0.03 0.02 0.00 0.00 0.00 0.00 0.00 0.00 0.00 0.00 0.00 0.00 0.00 0.00 0.01
0.10 0.09 0.04 0.03 0.04 0.03 0.03 0.03 0.03 0.02 0.01 0.02 0.02 0.03 0.03 0.02 0.00 0.00 0.00 0.00 0.00 0.01 0.01 0.01 0.01 0.08 0.14 0.07 0.14 0.03 0.00 0.00 0.00 0.00 0.00 0.00 0.01 0.01 0.00 0.00 0.00 0.00 0.01 0.00 0.00
0.08 0.04 0.03 0.04 0.04 0.03 0.04 0.03 0.02 0.01 0.02 0.02 0.02 0.03 0.05 0.07 0.02 0.00 0.00 0.00 0.00 0.06 0.05 0.03 0.01 0.06 0.11 0.10 0.08 0.01 0.00 0.00 0.00 0.00 0.00 0.00 0.02 0.00 0.00 0.00 0.00 0.00 0.00 0.00 0.00
0.06 0.04 0.04 0.04 0.03 0.02 0.02 0.02 0.02 0.05 0.05 0.06 0.06 0.09 0.18 0.12 0.03 0.09 0.02 0.01 0.05 0.18 0.20 0.13 0.04 0.07 0.07 0.05 0.01 0.00 0.00 0.00 0.00 0.00 0.00 0.00 0.00 0.00 0.00 0.00 0.00 0.00 0.00 0.00 0.00
0.06 0.04 0.04 0.03 0.03 0.04 0.03 0.03 0.04 0.07 0.07 0.12 0.09 0.19 0.16 0.09 0.02 0.05 0.04 0.00 0.02 0.16 0.18 0.13 0.07 0.03 0.03 0.01 0.06 0.02 0.00 0.00 0.00 0.00 0.00 0.00 0.00 0.00 0.00 0.00 0.00 0.00 0.00 0.00 0.00
0.06 0.04 0.03 0.03 0.04 0.04 0.05 0.05 0.06 0.08 0.07 0.09 0.14 0.18 0.09 0.05 0.00 0.00 0.01 0.00 0.01 0.05 0.13 0.15 0.07 0.02 0.02 0.02 0.04 0.02 0.01 0.00 0.01 0.00 0.00 0.00 0.00 0.00 0.00 0.00 0.00 0.00 0.00 0.00 0.00
0.05 0.04 0.04 0.04 0.06 0.06 0.08 0.11 0.13 0.08 0.06 0.07 0.17 0.23 0.08 0.01 0.01 0.00 0.01 0.01 0.00 0.04 0.07 0.09 0.17 0.09 0.02 0.04 0.01 0.03 0.04 0.06 0.02 0.00 0.00 0.00 0.00 0.00 0.00 0.00 0.00 0.00 0.00 0.00 0.00
0.04 0.03 0.03 0.05 0.08 0.08 0.09 0.10 0.13 0.09 0.07 0.13 0.25 0.27 0.03 0.00 0.00 0.00 0.00 0.02 0.01 0.01 0.04 0.07 0.20 0.23 0.06 0.05 0.04 0.10 0.09 0.09 0.03 0.00 0.00 0.00 0.00 0.00 0.00 0.00 0.00 0.00 0.00 0.00 0.00
0.03 0.02 0.05 0.09 0.08 0.07 0.07 0.08 0.10 0.11 0.05 0.17 0.24 0.16 0.01 0.00 0.00 0.00 0.00 0.02 0.05 0.05 0.06 0.17 0.42 0.35 0.17 0.13 0.17 0.15 0.07 0.01 0.01 0.00 0.00 0.00 0.00 0.00 0.00 0.00 0.00 0.00 0.00 0.00 0.00
0.01 0.03 0.09 0.08 0.07 0.06 0.09 0.08 0.07 0.04 0.03 0.05 0.12 0.11 0.02 0.00 0.00 0.00 0.00 0.02 0.15 0.25 0.19 0.36 0.56 0.50 0.25 0.18 0.14 0.03 0.01 0.00 0.00 0.00 0.00 0.00 0.00 0.00 0.00 0.00 0.00 0.00 0.00 0.00 0.00
0.02 0.07 0.08 0.07 0.07 0.06 0.07 0.03 0.05 0.06 0.09 0.04 0.03 0.01 0.02 0.00 0.00 0.01 0.01 0.05 0.23 0.65 0.30 0.35 0.55 0.69 0.17 0.03 0.01 0.00 0.00 0.00 0.00 0.00 0.00 0.00 0.00 0.00 0.00 0.00 0.00 0.00 0.00 0.00 0.00
0.05 0.08 0.06 0.07 0.07 0.04 0.03 0.04 0.03 0.06 0.04 0.01 0.01 0.00 0.00 0.00 0.00 0.07 0.07 0.16 0.33 0.69 0.29 0.36 0.31 0.18 0.12 0.06 0.03 0.02 0.01 0.00 0.00 0.00 0.00 0.00 0.00 0.00 0.00 0.00 0.00 0.00 0.00 0.00 0.00
0.08 0.07 0.02 0.03 0.03 0.04 0.04 0.12 0.09 0.02 0.04 0.01 0.00 0.00 0.00 0.00 0.02 0.16 0.18 0.22 0.22 0.72 0.32 0.21 0.13 0.16 0.28 0.20 0.11 0.03 0.00 0.00 0.00 0.00 0.00 0.00 0.00 0.00 0.00 0.00 0.00 0.00 0.00 0.00 0.00
0.07 0.05 0.01 0.00 0.01 0.01 0.03 0.06 0.05 0.04 0.11 0.10 0.12 0.08 0.06 0.02 0.06 0.19 0.23 0.24 0.24 0.83 0.27 0.30 0.18 0.25 0.35 0.40 0.18 0.07 0.00 0.01 0.02 0.00 0.00 0.00 0.00 0.00 0.00 0.00 0.00 0.00 0.00 0.00 0.00
0.04 0.03 0.01 0.00 0.01 0.01 0.01 0.03 0.03 0.04 0.18 0.26 0.18 0.16 0.10 0.09 0.25 0.29 0.33 0.43 0.45 0.95 0.42 0.38 0.26 0.26 0.34 0.31 0.31 0.23 0.02 0.01 0.05 0.02 0.00 0.00 0.00 0.00 0.00 0.00 0.00 0.00 0.00 0.00 0.00
0.02 0.01 0.00 0.01 0.01 0.01 0.01 0.02 0.03 0.07 0.11 0.17 0.21 0.15 0.17 0.18 0.46 0.62 0.38 0.62 0.75 0.82 0.47 0.25 0.23 0.29 0.16 0.27 0.43 0.29 0.13 0.06 0.04 0.06 0.09 0.00 0.00 0.00 0.00 0.00 0.00 0.00 0.00 0.00 0.00
0.01 0.00 0.00 0.00 0.01 0.00 0.01 0.03 0.03 0.08 0.04 0.07 0.12 0.16 0.40 0.39 0.46 0.55 0.34 0.69 0.78 0.80 0.64 0.40 0.31 0.21 0.32 0.39 0.41 0.42 0.40 0.27 0.20 0.12 0.04 0.00 0.00 0.00 0.00 0.00 0.00 0.00 0.00 0.00 0.00
0.00 0.00 0.00 0.00 0.00 0.00 0.01 0.01 0.02 0.06 0.04 0.08 0.16 0.31 0.46 0.42 0.57 0.36 0.48 0.56 0.45 0.19 0.23 0.40 0.42 0.30 0.36 0.16 0.19 0.21 0.39 0.31 0.08 0.02 0.00 0.00 0.00 0.00 0.00 0.00 0.00 0.00 0.00 0.00 0.00
0.00 0.00 0.00 0.00 0.00 0.00 0.01 0.01 0.03 0.03 0.09 0.17 0.25 0.35 0.43 0.30 0.40 0.38 0.32 0.18 0.24 0.10 0.06 0.15 0.18 0.19 0.22 0.12 0.12 0.19 0.16 0.18 0.02 0.00 0.00 0.00 0.00 0.00 0.00 0.00 0.00 0.00 0.00 0.00 0.00
0.00 0.00 0.00 0.00 0.00 0.00 0.00 0.01 0.01 0.00 0.01 0.07 0.20 0.06 0.20 0.19 0.15 0.04 0.04 0.02 0.01 0.00 0.00 0.01 0.09 0.13 0.11 0.11 0.07 0.11 0.06 0.06 0.14 0.03 0.00 0.00 0.00 0.00 0.00 0.00 0.00 0.00 0.00 0.00 0.00
0.00 0.00 0.00 0.00 0.00 0.00 0.00 0.01 0.01 0.00 0.00 0.01 0.00 0.00 0.01 0.01 0.00 0.00 0.00 0.00 0.00 0.00 0.00 0.00 0.01 0.08 0.08 0.07 0.04 0.05 0.09 0.00 0.03 0.04 0.00 0.00 0.00 0.00 0.00 0.00 0.00 0.00 0.00 0.00 0.00
0.00 0.00 0.00 0.00 0.00 0.00 0.01 0.00 0.00 0.00 0.00 0.00 0.00 0.00 0.00 0.00 0.00 0.00 0.00 0.00 0.00 0.00 0.00 0.00 0.00 0.02 0.02 0.00 0.00 0.00 0.02 0.00 0.00 0.01 0.00 0.00 0.00 0.00 0.00 0.00 0.00 0.00 0.00 0.00 0.00
0.00 0.00 0.00 0.00 0.00 0.00 0.00 0.00 0.00 0.00 0.00 0.00 0.00 0.00 0.00 0.00 0.00 0.00 0.00 0.00 0.00 0.00 0.00 0.00 0.00 0.00 0.00 0.00 0.00 0.00 0.00 0.00 0.00 0.00 0.00 0.00 0.00 0.00 0.00 0.00 0.00 0.00 0.00 0.00 0.00
0.00 0.00 0.00 0.00 0.00 0.00 0.00 0.00 0.00 0.00 0.00 0.00 0.00 0.00 0.00 0.00 0.00 0.00 0.00 0.00 0.00 0.00 0.00 0.00 0.00 0.00 0.00 0.00 0.00 0.00 0.00 0.00 0.00 0.00 0.00 0.00 0.00 0.00 0.00 0.00 0.00 0.00 0.00 0.00 0.00
0.00 0.00 0.00 0.00 0.00 0.00 0.00 0.00 0.00 0.00 0.00 0.00 0.00 0.00 0.00 0.00 0.00 0.00 0.00 0.00 0.00 0.00 0.00 0.00 0.00 0.00 0.00 0.00 0.00 0.00 0.00 0.00 0.00 0.00 0.00 0.00 0.00 0.00 0.00 0.00 0.00 0.00 0.00 0.00 0.00
0.00 0.01 0.00 0.00 0.00 0.00 0.00 0.00 0.00 0.00 0.00 0.00 0.00 0.00 0.00 0.00 0.00 0.00 0.00 0.00 0.00 0.00 0.00 0.00 0.00 0.00 0.00 0.00 0.00 0.00 0.00 0.00 0.00 0.00 0.00 0.00 0.00 0.00 0.00 0.00 0.00 0.00 0.00 0.00 0.00
0.00 0.00 0.01 0.00 0.00 0.00 0.00 0.00 0.00 0.00 0.00 0.00 0.00 0.00 0.00 0.00 0.00 0.00 0.00 0.00 0.00 0.00 0.00 0.00 0.00 0.00 0.00 0.00 0.00 0.00 0.00 0.00 0.00 0.00 0.00 0.00 0.00 0.00 0.00 0.00 0.00 0.00 0.00 0.00 0.00

GFSSW_prec_precacc12_078.txt.gz
Total_Precipitation_Accumulation
0.05 0.10 0.07 0.03 0.03 0.02 0.02 0.02 0.02 0.03 0.05 0.03 0.02 0.03 0.03 0.03 0.02 0.00 0.00 0.00 0.00 0.00 0.00 0.00 0.00 0.02 0.11 0.09 0.08 0.07 0.06 0.02 0.01 0.00 0.00 0.00 0.00 0.00 0.00 0.00 0.00 0.00 0.00 0.00 0.01
0.09 0.08 0.03 0.02 0.03 0.03 0.02 0.02 0.02 0.02 0.01 0.02 0.02 0.02 0.03 0.03 0.01 0.00 0.00 0.00 0.00 0.01 0.02 0.01 0.01 0.04 0.11 0.08 0.18 0.06 0.00 0.00 0.00 0.00 0.00 0.00 0.06 0.02 0.00 0.00 0.00 0.00 0.03 0.04 0.05
0.07 0.06 0.03 0.04 0.03 0.03 0.03 0.02 0.01 0.01 0.01 0.01 0.01 0.03 0.05 0.07 0.02 0.00 0.01 0.00 0.00 0.06 0.04 0.03 0.02 0.04 0.09 0.11 0.10 0.02 0.00 0.00 0.00 0.00 0.00 0.03 0.08 0.00 0.00 0.00 0.00 0.00 0.00 0.03 0.06
0.06 0.05 0.04 0.03 0.03 0.03 0.04 0.03 0.04 0.05 0.06 0.04 0.05 0.08 0.15 0.11 0.03 0.11 0.03 0.01 0.02 0.12 0.19 0.13 0.05 0.06 0.06 0.05 0.01 0.00 0.00 0.00 0.00 0.00 0.01 0.03 0.01 0.03 0.01 0.00 0.00 0.00 0.00 0.00 0.01
0.06 0.04 0.03 0.03 0.03 0.05 0.06 0.07 0.07 0.10 0.08 0.13 0.14 0.16 0.12 0.08 0.01 0.06 0.04 0.00 0.01 0.11 0.16 0.13 0.07 0.05 0.02 0.01 0.06 0.02 0.00 0.00 0.00 0.00 0.00 0.00 0.00 0.00 0.00 0.00 0.00 0.00 0.03 0.00 0.01
0.06 0.05 0.03 0.03 0.05 0.06 0.07 0.08 0.12 0.17 0.13 0.11 0.22 0.16 0.05 0.02 0.00 0.00 0.01 0.00 0.03 0.05 0.11 0.15 0.09 0.05 0.02 0.02 0.04 0.03 0.01 0.00 0.01 0.00 0.00 0.00 0.00 0.00 0.00 0.00 0.00 0.00 0.01 0.02 0.01
0.05 0.04 0.03 0.04 0.07 0.07 0.09 0.11 0.16 0.21 0.17 0.11 0.25 0.22 0.04 0.00 0.01 0.01 0.00 0.01 0.02 0.04 0.04 0.10 0.18 0.17 0.03 0.03 0.01 0.04 0.06 0.08 0.03 0.00 0.00 0.00 0.00 0.00 0.00 0.00 0.00 0.00 0.01 0.00 0.01
0.04 0.02 0.02 0.04 0.07 0.07 0.07 0.09 0.14 0.19 0.19 0.17 0.28 0.23 0.02 0.00 0.00 0.01 0.00 0.01 0.01 0.07 0.03 0.06 0.10 0.19 0.06 0.05 0.04 0.10 0.12 0.12 0.05 0.00 0.00 0.00 0.00 0.00 0.00 0.00 0.00 0.00 0.00 0.00 0.00
0.02 0.01 0.04 0.08 0.08 0.06 0.06 0.07 0.10 0.17 0.11 0.16 0.18 0.13 0.00 0.01 0.00 0.00 0.00 0.01 0.04 0.07 0.06 0.09 0.24 0.27 0.14 0.13 0.17 0.15 0.08 0.02 0.01 0.00 0.00 0.00 0.00 0.00 0.00 0.00 0.00 0.00 0.00 0.00 0.00
0.02 0.03 0.08 0.09 0.06 0.05 0.06 0.07 0.07 0.05 0.04 0.05 0.10 0.10 0.01 0.00 0.00 0.00 0.00 0.01 0.11 0.16 0.20 0.25 0.44 0.38 0.17 0.16 0.14 0.03 0.01 0.00 0.00 0.00 0.00 0.00 0.00 0.00 0.00 0.00 0.00 0.00 0.00 0.00 0.00
0.02 0.06 0.07 0.06 0.04 0.05 0.03 0.03 0.05 0.06 0.09 0.04 0.03 0.01 0.02 0.00 0.00 0.00 0.00 0.02 0.18 0.54 0.40 0.33 0.49 0.57 0.13 0.02 0.01 0.00 0.00 0.00 0.00 0.00 0.00 0.00 0.00 0.00 0.00 0.00 0.00 0.00 0.00 0.00 0.00
0.03 0.05 0.03 0.03 0.02 0.01 0.01 0.03 0.03 0.07 0.04 0.01 0.01 0.00 0.00 0.00 0.00 0.02 0.04 0.09 0.29 0.57 0.39 0.36 0.27 0.20 0.12 0.03 0.03 0.02 0.01 0.00 0.00 0.00 0.00 0.00 0.00 0.00 0.00 0.00 0.00 0.00 0.00 0.00 0.00
0.05 0.04 0.01 0.00 0.00 0.02 0.01 0.06 0.07 0.02 0.03 0.00 0.00 0.00 0.00 0.00 0.00 0.05 0.11 0.14 0.19 0.53 0.36 0.20 0.09 0.16 0.27 0.16 0.09 0.03 0.01 0.00 0.01 0.00 0.00 0.00 0.00 0.00 0.00 0.00 0.00 0.00 0.00 0.00 0.00
0.05 0.03 0.00 0.00 0.01 0.01 0.01 0.02 0.02 0.01 0.07 0.12 0.11 0.06 0.06 0.01 0.04 0.12 0.10 0.21 0.22 0.56 0.24 0.15 0.04 0.12 0.26 0.31 0.15 0.05 0.02 0.02 0.02 0.00 0.00 0.00 0.00 0.00 0.00 0.00 0.00 0.00 0.00 0.00 0.00
0.03 0.02 0.00 0.00 0.01 0.01 0.01 0.01 0.01 0.02 0.18 0.31 0.19 0.12 0.09 0.07 0.17 0.17 0.18 0.42 0.42 0.79 0.31 0.16 0.06 0.11 0.20 0.18 0.27 0.17 0.01 0.02 0.06 0.02 0.00 0.00 0.00 0.00 0.00 0.00 0.00 0.00 0.00 0.00 0.00
0.02 0.01 0.00 0.01 0.01 0.00 0.01 0.01 0.01 0.06 0.09 0.17 0.31 0.22 0.16 0.12 0.32 0.48 0.29 0.62 0.74 0.81 0.38 0.16 0.14 0.23 0.14 0.11 0.35 0.22 0.11 0.07 0.05 0.10 0.15 0.00 0.00 0.00 0.00 0.00 0.00 0.00 0.00 0.00 0.00
0.01 0.00 0.00 0.00 0.00 0.00 0.00 0.01 0.01 0.06 0.03 0.09 0.17 0.22 0.32 0.27 0.42 0.42 0.31 0.69 0.78 0.82 0.64 0.31 0.20 0.24 0.20 0.23 0.31 0.38 0.39 0.30 0.25 0.18 0.06 0.00 0.00 0.00 0.00 0.00 0.00 0.00 0.00 0.00 0.00
0.00 0.00 0.00 0.00 0.00 0.00 0.00 0.00 0.01 0.03 0.03 0.07 0.20 0.15 0.17 0.35 0.56 0.37 0.58 0.69 0.48 0.31 0.39 0.35 0.38 0.24 0.28 0.14 0.19 0.22 0.40 0.32 0.09 0.02 0.00 0.00 0.00 0.00 0.00 0.00 0.00 0.00 0.00 0.00 0.00
0.00 0.00 0.00 0.00 0.00 0.00 0.01 0.00 0.01 0.01 0.07 0.14 0.20 0.38 0.32 0.27 0.38 0.53 0.64 0.39 0.31 0.26 0.16 0.14 0.21 0.16 0.20 0.10 0.12 0.19 0.17 0.23 0.07 0.00 0.00 0.00 0.00 0.00 0.00 0.00 0.00 0.00 0.00 0.00 0.00
0.00 0.00 0.00 0.00 0.00 0.00 0.00 0.01 0.00 0.00 0.01 0.06 0.11 0.06 0.20 0.17 0.17 0.09 0.14 0.05 0.03 0.04 0.01 0.00 0.11 0.14 0.11 0.10 0.07 0.11 0.06 0.09 0.26 0.08 0.00 0.00 0.00 0.00 0.00 0.00 0.00 0.00 0.00 0.00 0.00
0.00 0.00 0.00 0.00 0.00 0.00 0.00 0.00 0.00 0.00 0.00 0.01 0.00 0.00 0.01 0.01 0.00 0.00 0.01 0.01 0.00 0.00 0.00 0.00 0.01 0.09 0.08 0.07 0.04 0.05 0.09 0.00 0.04 0.05 0.00 0.00 0.00 0.00 0.00 0.00 0.00 0.00 0.00 0.00 0.00
0.00 0.00 0.00 0.00 0.00 0.00 0.00 0.00 0.00 0.00 0.00 0.00 0.00 0.00 0.00 0.00 0.00 0.00 0.01 0.00 0.00 0.00 0.00 0.00 0.00 0.02 0.02 0.00 0.00 0.00 0.02 0.00 0.00 0.01 0.00 0.00 0.00 0.00 0.00 0.00 0.00 0.00 0.00 0.00 0.00
0.00 0.00 0.00 0.00 0.00 0.00 0.00 0.00 0.00 0.00 0.00 0.00 0.00 0.00 0.00 0.00 0.00 0.00 0.00 0.00 0.00 0.00 0.00 0.00 0.00 0.01 0.02 0.01 0.01 0.00 0.00 0.00 0.00 0.00 0.00 0.00 0.00 0.00 0.00 0.00 0.00 0.00 0.00 0.00 0.00
0.00 0.00 0.00 0.00 0.00 0.00 0.00 0.00 0.00 0.00 0.00 0.00 0.00 0.00 0.00 0.00 0.00 0.00 0.00 0.00 0.00 0.00 0.00 0.00 0.00 0.00 0.00 0.00 0.00 0.00 0.00 0.00 0.00 0.00 0.00 0.00 0.00 0.00 0.00 0.00 0.00 0.00 0.00 0.00 0.00
0.00 0.00 0.00 0.00 0.00 0.00 0.00 0.00 0.00 0.00 0.00 0.00 0.00 0.00 0.00 0.00 0.00 0.00 0.00 0.00 0.00 0.00 0.00 0.00 0.00 0.00 0.00 0.00 0.00 0.00 0.00 0.00 0.00 0.00 0.00 0.00 0.00 0.00 0.00 0.00 0.00 0.00 0.00 0.00 0.00
0.00 0.00 0.00 0.00 0.00 0.00 0.00 0.00 0.00 0.00 0.00 0.00 0.00 0.00 0.00 0.00 0.00 0.00 0.00 0.00 0.00 0.00 0.00 0.00 0.00 0.00 0.00 0.00 0.00 0.00 0.00 0.00 0.00 0.00 0.00 0.00 0.00 0.00 0.00 0.00 0.00 0.00 0.00 0.00 0.00
0.00 0.00 0.01 0.00 0.00 0.00 0.00 0.00 0.00 0.00 0.00 0.01 0.00 0.00 0.00 0.00 0.00 0.00 0.00 0.00 0.00 0.00 0.00 0.00 0.00 0.00 0.00 0.00 0.00 0.00 0.00 0.00 0.00 0.00 0.00 0.00 0.00 0.00 0.00 0.00 0.00 0.00 0.00 0.00 0.00

GFSSW_prec_precacc12_081.txt.gz
Total_Precipitation_Accumulation
0.05 0.10 0.09 0.03 0.02 0.02 0.02 0.01 0.01 0.01 0.02 0.02 0.02 0.03 0.03 0.03 0.05 0.03 0.00 0.00 0.00 0.00 0.00 0.00 0.00 0.01 0.09 0.09 0.11 0.08 0.09 0.02 0.01 0.00 0.00 0.00 0.00 0.00 0.00 0.00 0.00 0.00 0.00 0.01 0.01
0.07 0.08 0.05 0.02 0.03 0.02 0.02 0.02 0.02 0.02 0.01 0.01 0.02 0.02 0.03 0.03 0.02 0.01 0.00 0.00 0.01 0.01 0.02 0.01 0.00 0.01 0.06 0.08 0.21 0.08 0.01 0.00 0.00 0.00 0.00 0.00 0.06 0.02 0.00 0.00 0.00 0.02 0.09 0.10 0.06
0.05 0.07 0.03 0.03 0.03 0.02 0.03 0.04 0.04 0.05 0.03 0.01 0.02 0.04 0.06 0.07 0.02 0.00 0.02 0.00 0.01 0.04 0.03 0.03 0.03 0.01 0.03 0.08 0.11 0.03 0.00 0.00 0.00 0.00 0.00 0.04 0.09 0.02 0.01 0.00 0.00 0.01 0.07 0.10 0.09
0.05 0.05 0.04 0.03 0.03 0.04 0.05 0.07 0.09 0.15 0.16 0.08 0.08 0.08 0.12 0.08 0.02 0.12 0.07 0.03 0.07 0.06 0.09 0.12 0.05 0.05 0.03 0.05 0.02 0.01 0.00 0.00 0.00 0.00 0.02 0.03 0.01 0.04 0.02 0.00 0.00 0.01 0.08 0.12 0.07
0.06 0.05 0.03 0.03 0.04 0.06 0.08 0.11 0.11 0.17 0.20 0.17 0.22 0.16 0.08 0.06 0.01 0.07 0.06 0.00 0.00 0.02 0.04 0.11 0.07 0.06 0.01 0.01 0.06 0.03 0.00 0.00 0.00 0.00 0.00 0.00 0.00 0.01 0.02 0.00 0.00 0.00 0.07 0.09 0.09
0.05 0.04 0.02 0.02 0.04 0.06 0.07 0.07 0.12 0.20 0.21 0.17 0.30 0.14 0.04 0.02 0.00 0.00 0.00 0.01 0.03 0.06 0.07 0.12 0.10 0.06 0.02 0.00 0.04 0.04 0.02 0.00 0.01 0.00 0.00 0.00 0.00 0.00 0.01 0.09 0.00 0.00 0.03 0.06 0.04
0.04 0.03 0.02 0.03 0.05 0.07 0.06 0.09 0.13 0.22 0.22 0.18 0.28 0.16 0.03 0.00 0.01 0.01 0.00 0.00 0.03 0.05 0.08 0.08 0.18 0.20 0.04 0.02 0.00 0.04 0.07 0.10 0.03 0.00 0.00 0.00 0.00 0.00 0.00 0.07 0.02 0.00 0.02 0.04 0.06
0.03 0.02 0.02 0.05 0.07 0.06 0.06 0.08 0.11 0.18 0.20 0.16 0.24 0.16 0.01 0.00 0.00 0.01 0.00 0.00 0.01 0.09 0.09 0.02 0.08 0.16 0.08 0.04 0.02 0.09 0.11 0.13 0.05 0.00 0.00 0.00 0.00 0.00 0.00 0.02 0.04 0.00 0.00 0.01 0.04
0.02 0.02 0.04 0.07 0.07 0.04 0.05 0.05 0.09 0.16 0.11 0.13 0.11 0.08 0.00 0.01 0.00 0.00 0.00 0.00 0.01 0.14 0.09 0.02 0.17 0.24 0.14 0.09 0.12 0.11 0.07 0.02 0.01 0.00 0.00 0.00 0.00 0.00 0.00 0.00 0.00 0.00 0.00 0.00 0.01
0.02 0.03 0.06 0.06 0.03 0.01 0.02 0.05 0.07 0.05 0.04 0.03 0.07 0.06 0.01 0.01 0.00 0.00 0.00 0.00 0.03 0.14 0.25 0.07 0.37 0.38 0.26 0.10 0.10 0.02 0.01 0.00 0.00 0.00 0.00 0.00 0.00 0.00 0.00 0.00 0.00 0.00 0.00 0.00 0.00
0.02 0.03 0.04 0.04 0.01 0.00 0.00 0.01 0.03 0.04 0.07 0.03 0.02 0.01 0.02 0.00 0.00 0.00 0.00 0.00 0.07 0.33 0.52 0.19 0.51 0.61 0.25 0.01 0.01 0.00 0.00 0.00 0.00 0.00 0.00 0.00 0.00 0.00 0.00 0.00 0.00 0.00 0.00 0.00 0.00
0.02 0.03 0.03 0.03 0.00 0.00 0.00 0.01 0.03 0.05 0.04 0.01 0.01 0.00 0.00 0.00 0.00 0.00 0.01 0.01 0.15 0.30 0.48 0.36 0.29 0.31 0.10 0.01 0.01 0.01 0.01 0.00 0.00 0.00 0.00 0.00 0.00 0.00 0.00 0.00 0.00 0.00 0.00 0.00 0.00
0.03 0.02 0.01 0.00 0.00 0.02 0.00 0.01 0.00 0.00 0.00 0.00 0.00 0.00 0.00 0.00 0.00 0.00 0.05 0.03 0.06 0.32 0.40 0.21 0.09 0.29 0.29 0.03 0.02 0.01 0.01 0.00 0.01 0.00 0.00 0.00 0.00 0.00 0.00 0.00 0.00 0.00 0.00 0.00 0.00
0.03 0.02 0.01 0.00 0.01 0.01 0.00 0.00 0.00 0.00 0.04 0.11 0.08 0.03 0.04 0.01 0.01 0.00 0.05 0.10 0.16 0.45 0.21 0.13 0.04 0.20 0.41 0.11 0.05 0.04 0.02 0.02 0.02 0.00 0.00 0.00 0.00 0.00 0.00 0.00 0.00 0.00 0.00 0.00 0.00
0.01 0.02 0.00 0.00 0.01 0.00 0.00 0.01 0.00 0.01 0.13 0.32 0.12 0.04 0.06 0.01 0.02 0.03 0.06 0.35 0.36 0.45 0.27 0.15 0.04 0.10 0.32 0.10 0.13 0.15 0.02 0.02 0.06 0.02 0.00 0.00 0.00 0.00 0.00 0.00 0.00 0.00 0.00 0.00 0.00
0.01 0.00 0.00 0.00 0.01 0.00 0.00 0.00 0.01 0.02 0.06 0.19 0.36 0.23 0.14 0.07 0.17 0.10 0.13 0.51 0.55 0.44 0.33 0.12 0.07 0.15 0.12 0.08 0.18 0.21 0.11 0.07 0.06 0.11 0.15 0.00 0.00 0.00 0.00 0.00 0.00 0.00 0.00 0.00 0.00
0.00 0.00 0.00 0.00 0.00 0.00 0.00 0.00 0.00 0.03 0.05 0.14 0.22 0.26 0.34 0.22 0.15 0.06 0.19 0.51 0.58 0.54 0.50 0.21 0.16 0.19 0.16 0.18 0.16 0.32 0.32 0.30 0.29 0.24 0.06 0.00 0.00 0.00 0.00 0.00 0.00 0.00 0.00 0.00 0.00
0.00 0.00 0.00 0.00 0.00 0.00 0.00 0.00 0.00 0.01 0.01 0.07 0.21 0.14 0.14 0.26 0.29 0.26 0.56 0.65 0.45 0.26 0.35 0.23 0.31 0.23 0.29 0.16 0.09 0.15 0.29 0.27 0.08 0.03 0.00 0.00 0.00 0.00 0.00 0.00 0.00 0.00 0.00 0.00 0.00
0.00 0.00 0.00 0.00 0.00 0.00 0.00 0.00 0.00 0.01 0.01 0.00 0.06 0.34 0.34 0.29 0.39 0.61 0.66 0.40 0.32 0.25 0.22 0.09 0.19 0.17 0.27 0.10 0.09 0.16 0.16 0.22 0.07 0.00 0.00 0.00 0.00 0.00 0.00 0.00 0.00 0.00 0.00 0.00 0.00
0.00 0.00 0.00 0.00 0.00 0.00 0.00 0.00 0.00 0.00 0.00 0.02 0.02 0.06 0.21 0.19 0.25 0.20 0.31 0.15 0.17 0.09 0.03 0.00 0.11 0.11 0.15 0.09 0.07 0.11 0.05 0.09 0.26 0.09 0.00 0.00 0.00 0.00 0.00 0.00 0.00 0.00 0.00 0.00 0.00
0.00 0.00 0.00 0.00 0.00 0.00 0.00 0.00 0.00 0.00 0.00 0.01 0.00 0.00 0.01 0.01 0.01 0.01 0.03 0.04 0.03 0.03 0.00 0.00 0.02 0.10 0.08 0.06 0.04 0.05 0.09 0.00 0.04 0.05 0.00 0.00 0.00 0.00 0.00 0.00 0.00 0.00 0.00 0.00 0.00
0.00 0.00 0.00 0.00 0.00 0.00 0.00 0.00 0.00 0.00 0.00 0.00 0.00 0.00 0.00 0.00 0.00 0.01 0.02 0.01 0.00 0.00 0.00 0.00 0.00 0.03 0.02 0.00 0.00 0.00 0.02 0.00 0.00 0.02 0.00 0.00 0.00 0.00 0.00 0.00 0.00 0.00 0.00 0.00 0.00
0.00 0.00 0.00 0.00 0.00 0.00 0.00 0.00 0.00 0.00 0.00 0.00 0.00 0.00 0.00 0.00 0.00 0.00 0.00 0.00 0.00 0.00 0.00 0.00 0.00 0.01 0.03 0.02 0.01 0.01 0.00 0.00 0.00 0.00 0.00 0.00 0.00 0.00 0.00 0.00 0.00 0.00 0.00 0.00 0.00
0.00 0.00 0.00 0.00 0.00 0.00 0.00 0.00 0.00 0.00 0.00 0.00 0.00 0.00 0.00 0.00 0.00 0.00 0.00 0.00 0.00 0.00 0.00 0.00 0.00 0.00 0.00 0.00 0.00 0.00 0.00 0.00 0.00 0.00 0.00 0.00 0.00 0.00 0.00 0.00 0.00 0.00 0.00 0.00 0.00
0.00 0.00 0.00 0.00 0.00 0.00 0.00 0.00 0.00 0.00 0.00 0.00 0.00 0.00 0.00 0.00 0.00 0.00 0.00 0.00 0.00 0.00 0.00 0.00 0.00 0.00 0.00 0.00 0.00 0.00 0.00 0.00 0.00 0.00 0.00 0.00 0.00 0.00 0.00 0.00 0.00 0.00 0.00 0.00 0.00
0.00 0.00 0.00 0.00 0.00 0.00 0.00 0.00 0.00 0.00 0.00 0.01 0.00 0.00 0.00 0.00 0.00 0.00 0.00 0.00 0.00 0.00 0.00 0.00 0.00 0.00 0.00 0.00 0.00 0.00 0.00 0.00 0.00 0.00 0.00 0.00 0.00 0.00 0.00 0.00 0.00 0.00 0.00 0.00 0.00
0.00 0.00 0.01 0.00 0.00 0.00 0.00 0.00 0.00 0.01 0.02 0.03 0.01 0.00 0.00 0.00 0.00 0.00 0.00 0.00 0.00 0.00 0.00 0.00 0.00 0.00 0.00 0.00 0.00 0.00 0.00 0.00 0.00 0.00 0.00 0.00 0.00 0.00 0.00 0.00 0.00 0.00 0.00 0.00 0.00

GFSSW_prec_precacc12_084.txt.gz
Total_Precipitation_Accumulation
0.03 0.06 0.07 0.03 0.02 0.02 0.01 0.01 0.01 0.02 0.01 0.01 0.01 0.02 0.03 0.03 0.05 0.05 0.02 0.00 0.00 0.00 0.01 0.00 0.00 0.00 0.04 0.06 0.12 0.09 0.10 0.02 0.01 0.00 0.00 0.00 0.00 0.00 0.00 0.00 0.00 0.00 0.00 0.02 0.03
0.03 0.06 0.04 0.03 0.03 0.02 0.01 0.02 0.04 0.05 0.03 0.03 0.04 0.04 0.04 0.04 0.01 0.01 0.00 0.00 0.03 0.04 0.02 0.01 0.00 0.00 0.03 0.06 0.20 0.11 0.01 0.00 0.00 0.00 0.00 0.00 0.06 0.02 0.00 0.00 0.00 0.02 0.10 0.12 0.10
0.03 0.06 0.03 0.03 0.03 0.03 0.04 0.05 0.07 0.10 0.12 0.15 0.11 0.12 0.08 0.05 0.01 0.00 0.04 0.01 0.03 0.05 0.02 0.03 0.04 0.03 0.02 0.04 0.11 0.04 0.00 0.00 0.00 0.00 0.00 0.04 0.09 0.02 0.01 0.00 0.00 0.01 0.08 0.16 0.24
0.04 0.05 0.03 0.02 0.02 0.04 0.06 0.08 0.10 0.15 0.21 0.20 0.19 0.12 0.07 0.03 0.01 0.11 0.15 0.05 0.15 0.17 0.06 0.09 0.07 0.08 0.02 0.02 0.02 0.03 0.01 0.00 0.00 0.00 0.02 0.03 0.01 0.04 0.02 0.00 0.00 0.01 0.08 0.12 0.14
0.05 0.04 0.02 0.02 0.03 0.05 0.08 0.10 0.10 0.16 0.20 0.19 0.25 0.11 0.02 0.02 0.00 0.07 0.08 0.00 0.01 0.04 0.06 0.07 0.09 0.09 0.02 0.00 0.03 0.04 0.02 0.00 0.00 0.00 0.00 0.00 0.00 0.01 0.02 0.00 0.00 0.00 0.07 0.09 0.11
0.04 0.04 0.02 0.02 0.04 0.07 0.07 0.07 0.11 0.18 0.20 0.15 0.32 0.12 0.01 0.01 0.00 0.00 0.01 0.03 0.03 0.07 0.11 0.10 0.09 0.07 0.03 0.00 0.02 0.03 0.03 0.01 0.01 0.00 0.00 0.00 0.00 0.00 0.01 0.10 0.01 0.00 0.03 0.06 0.06
0.03 0.02 0.02 0.04 0.06 0.07 0.05 0.07 0.11 0.20 0.20 0.17 0.24 0.12 0.01 0.00 0.01 0.01 0.00 0.00 0.03 0.05 0.11 0.09 0.19 0.27 0.09 0.01 0.00 0.03 0.06 0.11 0.04 0.00 0.00 0.00 0.00 0.00 0.00 0.08 0.04 0.00 0.02 0.05 0.08
0.02 0.02 0.03 0.04 0.06 0.03 0.02 0.03 0.08 0.17 0.19 0.15 0.18 0.09 0.00 0.00 0.00 0.01 0.00 0.00 0.01 0.09 0.15 0.08 0.06 0.18 0.14 0.04 0.01 0.06 0.10 0.11 0.06 0.00 0.00 0.00 0.00 0.00 0.00 0.03 0.08 0.01 0.00 0.01 0.04
0.02 0.02 0.04 0.05 0.05 0.01 0.00 0.01 0.05 0.16 0.11 0.10 0.07 0.02 0.00 0.01 0.00 0.00 0.00 0.00 0.00 0.13 0.17 0.07 0.08 0.22 0.21 0.09 0.06 0.06 0.06 0.02 0.01 0.00 0.00 0.00 0.00 0.00 0.00 0.00 0.04 0.05 0.00 0.00 0.01
0.02 0.02 0.04 0.05 0.02 0.00 0.00 0.01 0.03 0.04 0.02 0.03 0.02 0.00 0.00 0.01 0.00 0.00 0.00 0.00 0.02 0.07 0.33 0.11 0.19 0.32 0.37 0.09 0.02 0.00 0.01 0.00 0.00 0.00 0.00 0.00 0.00 0.00 0.00 0.00 0.00 0.04 0.02 0.00 0.00
0.02 0.03 0.03 0.04 0.01 0.00 0.00 0.00 0.01 0.02 0.05 0.02 0.01 0.00 0.01 0.00 0.00 0.00 0.00 0.00 0.00 0.08 0.56 0.34 0.28 0.52 0.35 0.08 0.00 0.00 0.00 0.00 0.00 0.00 0.00 0.00 0.00 0.00 0.00 0.00 0.00 0.01 0.03 0.01 0.00
0.02 0.02 0.03 0.02 0.00 0.00 0.00 0.00 0.01 0.02 0.01 0.00 0.01 0.00 0.00 0.00 0.00 0.00 0.00 0.01 0.00 0.07 0.46 0.30 0.20 0.29 0.15 0.12 0.02 0.00 0.00 0.00 0.00 0.00 0.00 0.00 0.00 0.00 0.00 0.00 0.00 0.00 0.00 0.00 0.00
0.02 0.02 0.01 0.00 0.00 0.00 0.00 0.00 0.00 0.00 0.00 0.00 0.00 0.00 0.00 0.00 0.00 0.00 0.01 0.01 0.00 0.07 0.31 0.19 0.07 0.29 0.39 0.20 0.03 0.01 0.00 0.00 0.00 0.00 0.00 0.00 0.00 0.00 0.00 0.00 0.00 0.00 0.00 0.00 0.00
0.02 0.02 0.00 0.00 0.00 0.00 0.00 0.00 0.00 0.00 0.01 0.07 0.04 0.00 0.01 0.00 0.00 0.00 0.00 0.00 0.00 0.04 0.14 0.09 0.03 0.24 0.63 0.27 0.03 0.01 0.02 0.02 0.02 0.00 0.00 0.00 0.00 0.00 0.00 0.00 0.00 0.00 0.00 0.00 0.00
0.01 0.01 0.00 0.00 0.00 0.00 0.00 0.00 0.00 0.00 0.08 0.29 0.09 0.00 0.02 0.00 0.00 0.01 0.01 0.03 0.04 0.06 0.11 0.09 0.02 0.13 0.55 0.28 0.03 0.01 0.01 0.02 0.05 0.02 0.00 0.00 0.00 0.00 0.00 0.00 0.00 0.00 0.00 0.00 0.00
0.00 0.00 0.00 0.00 0.00 0.00 0.00 0.00 0.00 0.00 0.04 0.18 0.34 0.22 0.12 0.05 0.09 0.05 0.05 0.17 0.28 0.20 0.31 0.13 0.06 0.16 0.23 0.29 0.04 0.03 0.03 0.04 0.05 0.10 0.14 0.00 0.00 0.00 0.00 0.00 0.00 0.00 0.00 0.00 0.00
0.00 0.00 0.00 0.00 0.00 0.00 0.00 0.00 0.00 0.02 0.03 0.11 0.17 0.20 0.29 0.20 0.11 0.03 0.12 0.38 0.51 0.37 0.48 0.22 0.19 0.21 0.20 0.33 0.13 0.08 0.18 0.26 0.25 0.23 0.06 0.00 0.00 0.00 0.00 0.00 0.00 0.00 0.00 0.00 0.00
0.00 0.00 0.00 0.00 0.00 0.00 0.00 0.00 0.00 0.00 0.00 0.04 0.16 0.12 0.11 0.12 0.13 0.12 0.31 0.52 0.28 0.19 0.34 0.23 0.39 0.22 0.26 0.23 0.17 0.08 0.21 0.18 0.05 0.02 0.00 0.00 0.00 0.00 0.00 0.00 0.00 0.00 0.00 0.00 0.00
0.00 0.00 0.00 0.00 0.00 0.00 0.00 0.00 0.00 0.00 0.00 0.00 0.06 0.33 0.24 0.16 0.19 0.37 0.48 0.34 0.16 0.19 0.21 0.07 0.21 0.14 0.26 0.10 0.08 0.03 0.11 0.15 0.07 0.00 0.00 0.00 0.00 0.00 0.00 0.00 0.00 0.00 0.00 0.00 0.00
0.00 0.00 0.00 0.00 0.00 0.00 0.00 0.00 0.00 0.00 0.00 0.00 0.00 0.05 0.19 0.22 0.25 0.22 0.33 0.16 0.16 0.09 0.03 0.00 0.13 0.11 0.23 0.14 0.15 0.01 0.01 0.07 0.23 0.09 0.00 0.00 0.00 0.00 0.00 0.00 0.00 0.00 0.00 0.00 0.00
0.00 0.00 0.00 0.00 0.00 0.00 0.00 0.00 0.00 0.00 0.00 0.00 0.00 0.00 0.00 0.01 0.07 0.05 0.08 0.13 0.06 0.04 0.00 0.00 0.02 0.14 0.13 0.15 0.11 0.02 0.05 0.00 0.04 0.05 0.00 0.00 0.00 0.00 0.00 0.00 0.00 0.00 0.00 0.00 0.00
0.00 0.00 0.00 0.00 0.00 0.00 0.00 0.00 0.00 0.00 0.00 0.00 0.00 0.00 0.00 0.00 0.00 0.03 0.05 0.02 0.04 0.02 0.00 0.00 0.00 0.03 0.04 0.00 0.01 0.00 0.01 0.00 0.00 0.02 0.00 0.00 0.00 0.00 0.00 0.00 0.00 0.00 0.00 0.00 0.00
0.00 0.00 0.00 0.00 0.00 0.00 0.00 0.00 0.00 0.00 0.00 0.00 0.00 0.00 0.00 0.00 0.00 0.00 0.00 0.00 0.00 0.00 0.00 0.00 0.00 0.02 0.04 0.03 0.01 0.01 0.00 0.00 0.00 0.00 0.00 0.00 0.00 0.00 0.00 0.00 0.00 0.00 0.00 0.00 0.00
0.00 0.00 0.00 0.00 0.00 0.00 0.00 0.00 0.00 0.00 0.00 0.00 0.01 0.00 0.00 0.00 0.00 0.00 0.03 0.03 0.00 0.00 0.00 0.00 0.00 0.00 0.00 0.00 0.00 0.00 0.00 0.00 0.00 0.00 0.00 0.00 0.00 0.00 0.00 0.00 0.00 0.00 0.00 0.00 0.00
0.00 0.00 0.00 0.00 0.00 0.00 0.00 0.00 0.00 0.00 0.00 0.01 0.01 0.02 0.00 0.00 0.00 0.00 0.00 0.01 0.00 0.00 0.00 0.00 0.00 0.00 0.00 0.00 0.00 0.00 0.00 0.00 0.00 0.00 0.00 0.00 0.00 0.00 0.00 0.00 0.00 0.00 0.00 0.00 0.00
0.00 0.00 0.00 0.00 0.00 0.00 0.00 0.00 0.00 0.01 0.01 0.02 0.04 0.05 0.00 0.00 0.00 0.00 0.00 0.00 0.00 0.00 0.00 0.00 0.00 0.00 0.00 0.00 0.00 0.00 0.00 0.00 0.00 0.00 0.00 0.00 0.00 0.00 0.00 0.00 0.00 0.00 0.00 0.00 0.00
0.00 0.00 0.00 0.00 0.00 0.00 0.00 0.00 0.00 0.01 0.02 0.04 0.09 0.12 0.02 0.00 0.00 0.00 0.00 0.00 0.00 0.00 0.00 0.00 0.00 0.00 0.00 0.00 0.00 0.00 0.00 0.00 0.00 0.00 0.00 0.00 0.00 0.00 0.00 0.00 0.00 0.00 0.00 0.00 0.00

GFSSW_prec_precacc12_087.txt.gz
Total_Precipitation_Accumulation
0.01 0.03 0.05 0.03 0.02 0.02 0.01 0.01 0.02 0.04 0.03 0.03 0.05 0.06 0.05 0.05 0.04 0.05 0.02 0.00 0.01 0.00 0.01 0.00 0.00 0.00 0.01 0.02 0.09 0.05 0.09 0.01 0.00 0.00 0.00 0.00 0.00 0.00 0.00 0.00 0.00 0.00 0.00 0.02 0.02
0.01 0.05 0.04 0.03 0.02 0.02 0.02 0.04 0.05 0.06 0.04 0.05 0.14 0.14 0.10 0.05 0.01 0.01 0.00 0.01 0.05 0.07 0.04 0.02 0.02 0.01 0.01 0.02 0.09 0.09 0.01 0.00 0.00 0.00 0.00 0.00 0.05 0.01 0.00 0.00 0.00 0.02 0.09 0.13 0.13
0.02 0.05 0.04 0.03 0.02 0.03 0.04 0.06 0.07 0.10 0.13 0.16 0.16 0.17 0.10 0.02 0.00 0.00 0.07 0.02 0.04 0.09 0.05 0.02 0.05 0.05 0.03 0.03 0.04 0.03 0.00 0.00 0.00 0.00 0.00 0.03 0.07 0.02 0.01 0.00 0.00 0.01 0.08 0.16 0.28
0.03 0.05 0.04 0.02 0.03 0.04 0.06 0.08 0.10 0.15 0.20 0.19 0.20 0.12 0.05 0.00 0.00 0.08 0.24 0.07 0.16 0.28 0.14 0.07 0.12 0.13 0.04 0.02 0.01 0.03 0.01 0.00 0.00 0.00 0.02 0.03 0.01 0.04 0.02 0.00 0.00 0.01 0.08 0.12 0.15
0.03 0.03 0.03 0.02 0.04 0.05 0.08 0.09 0.09 0.14 0.19 0.17 0.24 0.11 0.01 0.00 0.00 0.05 0.07 0.00 0.01 0.05 0.13 0.05 0.08 0.17 0.05 0.00 0.02 0.03 0.03 0.01 0.00 0.00 0.00 0.00 0.00 0.01 0.02 0.00 0.00 0.00 0.07 0.09 0.11
0.02 0.03 0.02 0.02 0.04 0.06 0.05 0.04 0.08 0.16 0.19 0.14 0.27 0.09 0.00 0.00 0.00 0.00 0.01 0.03 0.02 0.07 0.16 0.16 0.06 0.09 0.09 0.00 0.02 0.02 0.03 0.02 0.01 0.00 0.00 0.00 0.00 0.00 0.01 0.10 0.01 0.00 0.03 0.06 0.06
0.02 0.03 0.03 0.03 0.04 0.05 0.01 0.01 0.05 0.18 0.19 0.16 0.18 0.06 0.00 0.00 0.00 0.00 0.00 0.00 0.03 0.05 0.14 0.20 0.15 0.28 0.22 0.05 0.00 0.04 0.04 0.08 0.02 0.00 0.00 0.00 0.00 0.00 0.00 0.08 0.04 0.00 0.02 0.05 0.08
0.02 0.03 0.03 0.04 0.04 0.02 0.00 0.00 0.02 0.12 0.17 0.12 0.11 0.03 0.00 0.00 0.00 0.01 0.00 0.00 0.01 0.09 0.15 0.14 0.07 0.15 0.31 0.09 0.00 0.05 0.06 0.06 0.03 0.00 0.00 0.00 0.00 0.00 0.00 0.03 0.08 0.01 0.00 0.01 0.04
0.02 0.03 0.03 0.04 0.04 0.01 0.00 0.00 0.01 0.08 0.08 0.03 0.02 0.00 0.00 0.01 0.00 0.00 0.00 0.00 0.00 0.13 0.17 0.09 0.07 0.20 0.29 0.22 0.02 0.03 0.02 0.01 0.01 0.01 0.00 0.00 0.00 0.00 0.00 0.00 0.04 0.05 0.00 0.00 0.01
0.02 0.02 0.03 0.04 0.01 0.00 0.00 0.00 0.00 0.01 0.00 0.00 0.00 0.00 0.00 0.00 0.00 0.00 0.00 0.00 0.02 0.06 0.31 0.14 0.16 0.28 0.48 0.32 0.02 0.00 0.01 0.00 0.00 0.00 0.00 0.00 0.00 0.00 0.00 0.00 0.00 0.04 0.02 0.00 0.00
0.02 0.02 0.03 0.04 0.01 0.00 0.00 0.00 0.00 0.00 0.00 0.00 0.00 0.00 0.00 0.00 0.00 0.00 0.00 0.00 0.00 0.01 0.48 0.47 0.31 0.43 0.47 0.23 0.03 0.00 0.00 0.00 0.00 0.00 0.00 0.00 0.00 0.00 0.00 0.00 0.00 0.01 0.03 0.01 0.00
0.02 0.02 0.03 0.02 0.00 0.00 0.00 0.00 0.00 0.00 0.00 0.00 0.00 0.00 0.00 0.00 0.00 0.00 0.00 0.00 0.00 0.01 0.34 0.39 0.11 0.19 0.16 0.17 0.09 0.00 0.00 0.00 0.00 0.00 0.01 0.00 0.00 0.00 0.00 0.00 0.00 0.00 0.00 0.00 0.00
0.02 0.02 0.02 0.00 0.00 0.00 0.00 0.00 0.00 0.00 0.00 0.00 0.00 0.00 0.00 0.00 0.00 0.00 0.00 0.00 0.00 0.01 0.14 0.22 0.04 0.21 0.42 0.24 0.17 0.01 0.00 0.00 0.00 0.00 0.00 0.00 0.00 0.00 0.00 0.00 0.00 0.00 0.00 0.00 0.00
0.02 0.02 0.00 0.00 0.00 0.00 0.00 0.00 0.00 0.00 0.01 0.05 0.00 0.00 0.00 0.00 0.00 0.00 0.00 0.00 0.00 0.01 0.03 0.09 0.04 0.21 0.64 0.35 0.19 0.03 0.02 0.01 0.00 0.00 0.00 0.00 0.00 0.00 0.00 0.00 0.00 0.00 0.00 0.00 0.00
0.01 0.01 0.00 0.00 0.00 0.00 0.00 0.00 0.00 0.00 0.03 0.16 0.07 0.00 0.00 0.00 0.00 0.00 0.00 0.00 0.00 0.00 0.01 0.04 0.02 0.10 0.54 0.34 0.28 0.04 0.01 0.00 0.01 0.00 0.00 0.00 0.00 0.00 0.00 0.00 0.00 0.00 0.00 0.00 0.00
0.01 0.00 0.00 0.00 0.00 0.00 0.00 0.00 0.00 0.00 0.01 0.07 0.20 0.14 0.04 0.01 0.02 0.02 0.01 0.01 0.00 0.03 0.01 0.05 0.02 0.14 0.23 0.43 0.34 0.07 0.03 0.03 0.03 0.05 0.06 0.00 0.00 0.00 0.00 0.00 0.00 0.00 0.00 0.00 0.00
0.00 0.00 0.00 0.00 0.00 0.00 0.00 0.00 0.00 0.00 0.02 0.10 0.15 0.20 0.24 0.12 0.06 0.01 0.00 0.02 0.01 0.04 0.08 0.15 0.13 0.20 0.24 0.60 0.43 0.12 0.04 0.17 0.15 0.14 0.03 0.00 0.00 0.00 0.00 0.00 0.00 0.00 0.00 0.00 0.00
0.00 0.00 0.00 0.00 0.00 0.00 0.00 0.00 0.00 0.00 0.00 0.04 0.16 0.11 0.14 0.15 0.13 0.10 0.13 0.15 0.04 0.13 0.24 0.18 0.38 0.23 0.30 0.51 0.48 0.10 0.01 0.02 0.01 0.01 0.00 0.00 0.00 0.00 0.00 0.00 0.00 0.00 0.00 0.00 0.00
0.00 0.00 0.00 0.00 0.00 0.00 0.00 0.00 0.00 0.00 0.00 0.00 0.06 0.26 0.13 0.17 0.21 0.27 0.36 0.22 0.09 0.17 0.20 0.07 0.23 0.15 0.28 0.19 0.30 0.13 0.02 0.05 0.06 0.00 0.00 0.00 0.00 0.00 0.00 0.00 0.00 0.00 0.00 0.00 0.00
0.00 0.00 0.00 0.00 0.00 0.00 0.00 0.00 0.00 0.00 0.00 0.00 0.00 0.04 0.09 0.15 0.27 0.25 0.31 0.15 0.16 0.08 0.03 0.00 0.16 0.11 0.26 0.15 0.22 0.08 0.00 0.03 0.12 0.05 0.00 0.00 0.00 0.00 0.00 0.00 0.00 0.00 0.00 0.00 0.00
0.00 0.00 0.00 0.00 0.00 0.00 0.00 0.00 0.00 0.00 0.00 0.00 0.00 0.01 0.01 0.01 0.14 0.14 0.12 0.15 0.06 0.04 0.00 0.00 0.05 0.15 0.12 0.15 0.15 0.01 0.00 0.00 0.00 0.01 0.00 0.00 0.00 0.00 0.00 0.00 0.00 0.00 0.00 0.00 0.00
0.00 0.00 0.00 0.00 0.00 0.00 0.00 0.00 0.00 0.00 0.01 0.01 0.01 0.01 0.00 0.00 0.01 0.10 0.18 0.07 0.04 0.02 0.00 0.00 0.00 0.06 0.04 0.01 0.04 0.00 0.00 0.00 0.00 0.01 0.00 0.00 0.00 0.00 0.00 0.00 0.00 0.00 0.00 0.00 0.00
0.00 0.00 0.00 0.00 0.00 0.00 0.00 0.00 0.00 0.00 0.01 0.03 0.02 0.02 0.01 0.00 0.00 0.02 0.07 0.01 0.01 0.00 0.00 0.00 0.00 0.03 0.05 0.03 0.03 0.03 0.00 0.00 0.00 0.00 0.00 0.00 0.00 0.00 0.00 0.00 0.00 0.00 0.00 0.00 0.00
0.00 0.00 0.00 0.00 0.00 0.00 0.00 0.00 0.00 0.00 0.01 0.05 0.04 0.04 0.01 0.00 0.00 0.00 0.25 0.04 0.01 0.04 0.00 0.00 0.00 0.00 0.01 0.00 0.00 0.00 0.00 0.00 0.00 0.00 0.00 0.00 0.00 0.00 0.00 0.00 0.00 0.00 0.00 0.00 0.00
0.00 0.00 0.00 0.00 0.00 0.00 0.00 0.00 0.00 0.01 0.01 0.02 0.05 0.13 0.20 0.02 0.00 0.00 0.15 0.21 0.05 0.02 0.01 0.00 0.00 0.00 0.00 0.00 0.00 0.00 0.00 0.00 0.00 0.00 0.00 0.00 0.00 0.00 0.00 0.00 0.00 0.00 0.00 0.00 0.00
0.00 0.00 0.00 0.00 0.00 0.00 0.00 0.00 0.00 0.01 0.01 0.02 0.10 0.12 0.15 0.08 0.04 0.02 0.01 0.09 0.06 0.02 0.00 0.00 0.00 0.00 0.00 0.00 0.00 0.00 0.00 0.00 0.00 0.00 0.00 0.00 0.00 0.00 0.00 0.00 0.00 0.00 0.00 0.00 0.00
0.00 0.00 0.00 0.00 0.00 0.00 0.00 0.00 0.00 0.01 0.02 0.04 0.10 0.16 0.11 0.05 0.03 0.00 0.00 0.00 0.00 0.02 0.00 0.00 0.00 0.00 0.00 0.00 0.00 0.00 0.00 0.00 0.00 0.00 0.00 0.00 0.00 0.00 0.00 0.00 0.00 0.00 0.00 0.00 0.00

GFSSW_prec_precacc12_090.txt.gz
Total_Precipitation_Accumulation
0.00 0.02 0.05 0.03 0.02 0.02 0.02 0.02 0.03 0.04 0.03 0.03 0.07 0.13 0.16 0.07 0.03 0.05 0.02 0.00 0.01 0.01 0.02 0.00 0.00 0.01 0.01 0.02 0.07 0.04 0.10 0.02 0.00 0.00 0.00 0.00 0.00 0.00 0.00 0.00 0.00 0.00 0.00 0.02 0.02
0.01 0.04 0.04 0.04 0.02 0.02 0.02 0.04 0.06 0.06 0.04 0.05 0.14 0.17 0.14 0.05 0.01 0.01 0.00 0.01 0.05 0.10 0.08 0.02 0.05 0.04 0.03 0.01 0.07 0.08 0.02 0.00 0.00 0.00 0.00 0.00 0.00 0.00 0.00 0.00 0.00 0.01 0.07 0.09 0.08
0.01 0.03 0.03 0.03 0.02 0.03 0.04 0.07 0.07 0.10 0.12 0.16 0.16 0.17 0.09 0.02 0.00 0.00 0.10 0.06 0.05 0.12 0.08 0.04 0.05 0.11 0.06 0.03 0.03 0.03 0.00 0.00 0.00 0.00 0.00 0.00 0.00 0.01 0.00 0.00 0.00 0.01 0.08 0.13 0.22
0.01 0.02 0.03 0.02 0.02 0.04 0.06 0.06 0.07 0.13 0.18 0.18 0.20 0.12 0.05 0.00 0.00 0.05 0.24 0.07 0.15 0.31 0.22 0.10 0.10 0.17 0.08 0.03 0.01 0.03 0.01 0.00 0.00 0.00 0.01 0.00 0.00 0.01 0.02 0.00 0.00 0.00 0.08 0.12 0.15
0.02 0.03 0.02 0.02 0.04 0.04 0.04 0.04 0.05 0.08 0.17 0.15 0.18 0.10 0.01 0.00 0.00 0.02 0.04 0.00 0.00 0.04 0.17 0.12 0.10 0.18 0.10 0.01 0.02 0.03 0.03 0.01 0.00 0.00 0.00 0.00 0.00 0.00 0.02 0.00 0.00 0.00 0.04 0.09 0.11
0.01 0.03 0.02 0.02 0.03 0.04 0.02 0.01 0.03 0.06 0.11 0.10 0.17 0.05 0.00 0.00 0.00 0.00 0.00 0.03 0.00 0.04 0.15 0.20 0.06 0.08 0.16 0.03 0.02 0.02 0.04 0.03 0.00 0.00 0.00 0.00 0.00 0.00 0.01 0.09 0.01 0.00 0.02 0.04 0.06
0.02 0.02 0.02 0.03 0.03 0.04 0.00 0.01 0.01 0.04 0.08 0.11 0.08 0.01 0.00 0.00 0.00 0.00 0.00 0.00 0.01 0.02 0.13 0.21 0.13 0.24 0.30 0.11 0.01 0.04 0.03 0.10 0.02 0.00 0.00 0.00 0.00 0.00 0.00 0.08 0.04 0.00 0.01 0.04 0.07
0.02 0.02 0.02 0.03 0.04 0.02 0.00 0.00 0.00 0.02 0.05 0.04 0.03 0.00 0.00 0.00 0.00 0.00 0.00 0.00 0.00 0.03 0.14 0.15 0.08 0.13 0.33 0.24 0.01 0.07 0.04 0.05 0.02 0.01 0.00 0.00 0.00 0.00 0.00 0.03 0.08 0.01 0.00 0.01 0.04
0.02 0.02 0.02 0.03 0.03 0.01 0.00 0.00 0.00 0.01 0.02 0.01 0.00 0.00 0.00 0.00 0.00 0.00 0.00 0.00 0.00 0.07 0.15 0.09 0.07 0.18 0.29 0.47 0.08 0.04 0.03 0.01 0.01 0.02 0.01 0.00 0.00 0.00 0.00 0.00 0.04 0.05 0.00 0.00 0.01
0.02 0.02 0.03 0.03 0.01 0.00 0.00 0.00 0.00 0.00 0.00 0.00 0.00 0.00 0.00 0.00 0.00 0.00 0.00 0.00 0.02 0.05 0.25 0.16 0.16 0.21 0.49 0.55 0.17 0.01 0.02 0.00 0.01 0.01 0.01 0.00 0.00 0.00 0.00 0.00 0.00 0.04 0.02 0.00 0.00
0.02 0.02 0.03 0.03 0.01 0.00 0.00 0.00 0.00 0.00 0.00 0.00 0.00 0.00 0.00 0.00 0.00 0.00 0.00 0.00 0.00 0.01 0.35 0.46 0.31 0.32 0.43 0.28 0.08 0.00 0.00 0.00 0.00 0.00 0.00 0.00 0.00 0.00 0.00 0.00 0.00 0.01 0.03 0.01 0.00
0.02 0.02 0.02 0.02 0.00 0.00 0.00 0.00 0.00 0.00 0.00 0.00 0.00 0.00 0.00 0.00 0.00 0.00 0.00 0.00 0.00 0.02 0.21 0.34 0.10 0.15 0.13 0.23 0.17 0.00 0.00 0.00 0.00 0.01 0.01 0.00 0.00 0.00 0.00 0.00 0.00 0.00 0.00 0.00 0.00
0.02 0.02 0.02 0.01 0.00 0.00 0.00 0.00 0.00 0.00 0.00 0.00 0.00 0.00 0.00 0.00 0.00 0.00 0.00 0.00 0.00 0.02 0.08 0.15 0.03 0.15 0.34 0.32 0.33 0.01 0.00 0.00 0.00 0.00 0.00 0.00 0.00 0.00 0.00 0.00 0.00 0.00 0.00 0.00 0.00
0.02 0.02 0.01 0.00 0.00 0.00 0.00 0.00 0.00 0.00 0.00 0.02 0.00 0.00 0.00 0.00 0.00 0.00 0.00 0.00 0.00 0.02 0.03 0.06 0.03 0.16 0.49 0.37 0.36 0.05 0.00 0.01 0.00 0.00 0.01 0.00 0.00 0.00 0.00 0.00 0.00 0.00 0.00 0.00 0.00
0.01 0.01 0.00 0.00 0.00 0.00 0.00 0.00 0.00 0.00 0.01 0.08 0.03 0.00 0.00 0.00 0.00 0.00 0.00 0.00 0.00 0.00 0.02 0.04 0.03 0.08 0.40 0.34 0.36 0.07 0.01 0.01 0.01 0.00 0.00 0.00 0.00 0.00 0.00 0.00 0.00 0.00 0.00 0.00 0.00
0.01 0.00 0.00 0.00 0.00 0.00 0.00 0.00 0.00 0.00 0.00 0.05 0.09 0.04 0.00 0.00 0.00 0.01 0.00 0.00 0.00 0.03 0.01 0.03 0.02 0.07 0.18 0.42 0.37 0.14 0.03 0.05 0.05 0.04 0.01 0.00 0.00 0.00 0.00 0.00 0.00 0.00 0.00 0.00 0.00
0.00 0.00 0.00 0.00 0.00 0.00 0.00 0.00 0.00 0.00 0.02 0.07 0.09 0.10 0.13 0.03 0.00 0.00 0.00 0.00 0.00 0.01 0.02 0.08 0.09 0.10 0.15 0.61 0.53 0.37 0.11 0.17 0.13 0.09 0.01 0.00 0.00 0.00 0.00 0.00 0.00 0.00 0.00 0.00 0.00
0.00 0.00 0.00 0.00 0.00 0.00 0.00 0.00 0.00 0.00 0.00 0.02 0.05 0.07 0.14 0.14 0.08 0.02 0.00 0.00 0.00 0.01 0.05 0.08 0.29 0.18 0.24 0.53 0.71 0.25 0.08 0.02 0.01 0.01 0.00 0.00 0.00 0.00 0.00 0.00 0.00 0.00 0.00 0.00 0.00
0.00 0.00 0.00 0.00 0.00 0.00 0.00 0.00 0.00 0.00 0.00 0.00 0.03 0.10 0.11 0.20 0.22 0.11 0.03 0.01 0.01 0.00 0.08 0.05 0.17 0.14 0.28 0.26 0.61 0.28 0.02 0.00 0.00 0.00 0.00 0.00 0.00 0.00 0.00 0.00 0.00 0.00 0.00 0.00 0.00
0.00 0.00 0.00 0.00 0.00 0.00 0.00 0.00 0.00 0.00 0.00 0.00 0.02 0.03 0.05 0.18 0.36 0.29 0.24 0.12 0.14 0.04 0.03 0.03 0.14 0.12 0.31 0.25 0.40 0.26 0.01 0.00 0.00 0.00 0.00 0.00 0.00 0.00 0.00 0.00 0.00 0.00 0.00 0.00 0.00
0.00 0.00 0.00 0.00 0.00 0.00 0.00 0.00 0.00 0.00 0.01 0.03 0.02 0.03 0.04 0.04 0.16 0.27 0.24 0.15 0.06 0.04 0.00 0.02 0.07 0.19 0.24 0.21 0.20 0.13 0.02 0.00 0.00 0.00 0.00 0.00 0.00 0.00 0.00 0.00 0.00 0.00 0.00 0.00 0.00
0.00 0.00 0.00 0.00 0.00 0.00 0.00 0.00 0.00 0.00 0.02 0.02 0.02 0.08 0.06 0.02 0.01 0.22 0.40 0.15 0.04 0.02 0.00 0.00 0.05 0.07 0.07 0.01 0.04 0.04 0.00 0.00 0.00 0.00 0.00 0.00 0.00 0.00 0.00 0.00 0.00 0.00 0.00 0.00 0.00
0.00 0.00 0.00 0.00 0.00 0.00 0.00 0.00 0.00 0.01 0.03 0.06 0.06 0.08 0.14 0.05 0.01 0.04 0.27 0.10 0.01 0.00 0.00 0.00 0.01 0.05 0.06 0.02 0.02 0.04 0.00 0.00 0.00 0.00 0.00 0.00 0.00 0.00 0.00 0.00 0.00 0.00 0.00 0.00 0.00
0.00 0.00 0.00 0.00 0.00 0.00 0.00 0.00 0.00 0.00 0.02 0.06 0.07 0.11 0.10 0.02 0.00 0.01 0.46 0.11 0.02 0.05 0.02 0.00 0.00 0.00 0.00 0.00 0.00 0.00 0.00 0.00 0.00 0.00 0.00 0.00 0.00 0.00 0.00 0.00 0.00 0.00 0.00 0.00 0.00
0.00 0.00 0.00 0.00 0.00 0.00 0.00 0.00 0.00 0.01 0.01 0.02 0.08 0.21 0.39 0.16 0.04 0.02 0.36 0.32 0.14 0.13 0.02 0.01 0.00 0.00 0.00 0.00 0.00 0.00 0.00 0.00 0.00 0.00 0.00 0.00 0.00 0.00 0.00 0.00 0.00 0.00 0.00 0.00 0.00
0.00 0.00 0.00 0.00 0.00 0.00 0.00 0.00 0.00 0.01 0.01 0.02 0.10 0.12 0.21 0.20 0.21 0.09 0.09 0.30 0.23 0.06 0.07 0.02 0.00 0.00 0.00 0.00 0.00 0.00 0.00 0.00 0.00 0.00 0.00 0.00 0.00 0.00 0.00 0.00 0.00 0.00 0.00 0.00 0.00
0.00 0.00 0.00 0.00 0.00 0.00 0.00 0.00 0.00 0.01 0.02 0.04 0.10 0.16 0.12 0.06 0.06 0.01 0.00 0.01 0.04 0.07 0.01 0.00 0.00 0.00 0.00 0.00 0.00 0.00 0.00 0.00 0.00 0.00 0.00 0.00 0.00 0.00 0.00 0.00 0.00 0.00 0.00 0.00 0.00

GFSSW_prec_precacc12_093.txt.gz
Total_Precipitation_Accumulation
0.00 0.01 0.03 0.03 0.02 0.02 0.02 0.02 0.04 0.05 0.03 0.03 0.06 0.12 0.16 0.06 0.00 0.02 0.02 0.00 0.01 0.01 0.03 0.00 0.00 0.02 0.03 0.02 0.06 0.09 0.13 0.03 0.00 0.00 0.00 0.00 0.00 0.00 0.00 0.00 0.00 0.00 0.00 0.01 0.02
0.00 0.01 0.02 0.03 0.02 0.02 0.02 0.04 0.06 0.05 0.03 0.05 0.13 0.17 0.13 0.04 0.00 0.00 0.00 0.01 0.04 0.10 0.11 0.04 0.06 0.07 0.07 0.01 0.07 0.09 0.05 0.00 0.00 0.00 0.00 0.00 0.00 0.00 0.00 0.00 0.00 0.00 0.01 0.03 0.06
0.01 0.02 0.03 0.02 0.01 0.03 0.04 0.05 0.04 0.05 0.10 0.15 0.15 0.15 0.07 0.01 0.00 0.00 0.11 0.08 0.05 0.12 0.11 0.06 0.06 0.14 0.11 0.04 0.03 0.03 0.00 0.00 0.00 0.00 0.00 0.00 0.00 0.00 0.00 0.00 0.00 0.00 0.01 0.07 0.19
0.02 0.02 0.03 0.02 0.02 0.04 0.05 0.02 0.02 0.03 0.07 0.14 0.14 0.09 0.05 0.00 0.00 0.02 0.19 0.05 0.09 0.31 0.28 0.11 0.12 0.18 0.13 0.06 0.00 0.03 0.01 0.00 0.00 0.02 0.01 0.00 0.00 0.00 0.00 0.00 0.00 0.00 0.00 0.01 0.08
0.02 0.02 0.02 0.01 0.03 0.03 0.03 0.00 0.00 0.01 0.02 0.06 0.07 0.07 0.01 0.00 0.00 0.00 0.03 0.00 0.00 0.06 0.24 0.15 0.12 0.19 0.14 0.03 0.01 0.02 0.03 0.01 0.00 0.01 0.01 0.00 0.00 0.00 0.00 0.00 0.00 0.00 0.00 0.00 0.02
0.01 0.03 0.02 0.02 0.03 0.03 0.01 0.00 0.01 0.01 0.00 0.01 0.08 0.04 0.00 0.00 0.00 0.00 0.00 0.02 0.00 0.01 0.13 0.27 0.10 0.10 0.17 0.05 0.02 0.01 0.03 0.03 0.00 0.00 0.00 0.00 0.00 0.00 0.00 0.01 0.00 0.00 0.00 0.00 0.02
0.02 0.02 0.02 0.02 0.03 0.03 0.00 0.00 0.00 0.00 0.00 0.00 0.01 0.00 0.00 0.00 0.00 0.00 0.00 0.00 0.01 0.00 0.06 0.21 0.27 0.23 0.30 0.14 0.01 0.03 0.01 0.09 0.03 0.00 0.00 0.00 0.00 0.00 0.00 0.00 0.02 0.00 0.00 0.00 0.01
0.02 0.02 0.02 0.03 0.03 0.02 0.00 0.00 0.00 0.00 0.00 0.00 0.01 0.00 0.00 0.00 0.00 0.00 0.00 0.00 0.00 0.00 0.06 0.14 0.20 0.24 0.37 0.26 0.02 0.08 0.05 0.05 0.03 0.01 0.00 0.00 0.00 0.00 0.00 0.00 0.04 0.01 0.00 0.00 0.00
0.02 0.02 0.02 0.03 0.03 0.01 0.00 0.00 0.00 0.00 0.00 0.00 0.00 0.00 0.00 0.00 0.00 0.00 0.00 0.00 0.00 0.00 0.09 0.09 0.09 0.29 0.36 0.50 0.15 0.09 0.06 0.01 0.02 0.03 0.01 0.01 0.00 0.00 0.00 0.00 0.04 0.05 0.00 0.00 0.00
0.02 0.02 0.03 0.03 0.02 0.00 0.00 0.00 0.00 0.00 0.00 0.00 0.00 0.00 0.00 0.00 0.00 0.00 0.00 0.00 0.01 0.00 0.11 0.17 0.16 0.19 0.44 0.63 0.31 0.04 0.02 0.00 0.01 0.02 0.02 0.01 0.00 0.00 0.00 0.00 0.00 0.04 0.02 0.00 0.00
0.01 0.02 0.03 0.03 0.01 0.00 0.00 0.00 0.00 0.00 0.00 0.00 0.00 0.00 0.00 0.00 0.00 0.00 0.00 0.00 0.01 0.02 0.16 0.43 0.30 0.19 0.26 0.29 0.13 0.02 0.01 0.00 0.00 0.00 0.02 0.00 0.00 0.00 0.00 0.00 0.00 0.01 0.03 0.01 0.00
0.02 0.02 0.02 0.02 0.00 0.00 0.00 0.00 0.00 0.00 0.00 0.00 0.00 0.00 0.00 0.00 0.00 0.00 0.00 0.02 0.02 0.04 0.10 0.33 0.10 0.01 0.08 0.27 0.27 0.03 0.01 0.00 0.00 0.01 0.03 0.01 0.00 0.00 0.00 0.00 0.00 0.00 0.00 0.00 0.00
0.02 0.02 0.02 0.01 0.00 0.00 0.00 0.00 0.00 0.00 0.00 0.00 0.00 0.00 0.00 0.00 0.00 0.00 0.00 0.01 0.01 0.03 0.06 0.16 0.05 0.01 0.20 0.40 0.44 0.04 0.00 0.00 0.00 0.01 0.01 0.01 0.01 0.00 0.00 0.00 0.00 0.00 0.00 0.00 0.00
0.03 0.02 0.01 0.00 0.00 0.00 0.00 0.00 0.00 0.00 0.00 0.00 0.00 0.00 0.00 0.00 0.00 0.00 0.00 0.00 0.01 0.03 0.04 0.07 0.03 0.08 0.30 0.37 0.40 0.07 0.00 0.01 0.01 0.01 0.01 0.00 0.00 0.00 0.00 0.00 0.00 0.00 0.00 0.00 0.00
0.02 0.01 0.00 0.00 0.00 0.00 0.00 0.00 0.00 0.00 0.00 0.01 0.01 0.00 0.00 0.00 0.00 0.00 0.00 0.00 0.00 0.01 0.06 0.11 0.04 0.06 0.25 0.30 0.37 0.14 0.02 0.02 0.03 0.01 0.02 0.01 0.00 0.00 0.00 0.00 0.00 0.00 0.00 0.00 0.00
0.01 0.01 0.00 0.00 0.00 0.00 0.00 0.00 0.00 0.00 0.00 0.00 0.01 0.01 0.01 0.02 0.00 0.00 0.00 0.00 0.00 0.03 0.03 0.05 0.05 0.08 0.15 0.37 0.38 0.19 0.03 0.07 0.07 0.07 0.04 0.00 0.00 0.00 0.00 0.00 0.00 0.00 0.00 0.00 0.00
0.00 0.00 0.00 0.00 0.00 0.00 0.00 0.00 0.00 0.00 0.00 0.01 0.03 0.05 0.06 0.09 0.01 0.00 0.00 0.00 0.00 0.02 0.03 0.05 0.14 0.07 0.13 0.51 0.56 0.48 0.17 0.24 0.16 0.10 0.01 0.00 0.00 0.00 0.00 0.00 0.00 0.00 0.00 0.00 0.00
0.00 0.00 0.00 0.00 0.00 0.00 0.00 0.00 0.00 0.00 0.00 0.00 0.03 0.06 0.11 0.14 0.07 0.00 0.00 0.00 0.00 0.00 0.02 0.05 0.20 0.08 0.07 0.42 0.74 0.36 0.14 0.07 0.02 0.01 0.00 0.00 0.00 0.00 0.00 0.00 0.00 0.00 0.00 0.00 0.00
0.00 0.00 0.00 0.00 0.00 0.00 0.00 0.00 0.00 0.00 0.01 0.01 0.02 0.05 0.10 0.18 0.22 0.05 0.00 0.00 0.00 0.00 0.02 0.04 0.14 0.06 0.10 0.21 0.66 0.45 0.05 0.01 0.00 0.00 0.00 0.00 0.00 0.00 0.00 0.00 0.00 0.00 0.00 0.00 0.00
0.00 0.00 0.00 0.00 0.00 0.00 0.00 0.00 0.00 0.00 0.01 0.03 0.06 0.04 0.10 0.25 0.30 0.28 0.08 0.02 0.00 0.00 0.02 0.05 0.13 0.10 0.24 0.24 0.43 0.40 0.04 0.01 0.01 0.00 0.00 0.00 0.00 0.00 0.00 0.00 0.00 0.00 0.00 0.00 0.00
0.00 0.00 0.00 0.00 0.00 0.00 0.00 0.00 0.00 0.01 0.02 0.05 0.02 0.04 0.10 0.17 0.17 0.39 0.27 0.12 0.04 0.01 0.00 0.03 0.09 0.21 0.27 0.23 0.21 0.18 0.05 0.01 0.01 0.00 0.00 0.00 0.00 0.00 0.00 0.00 0.00 0.00 0.00 0.00 0.00
0.00 0.00 0.00 0.00 0.00 0.00 0.00 0.00 0.00 0.01 0.03 0.04 0.04 0.13 0.14 0.11 0.03 0.38 0.56 0.15 0.04 0.02 0.00 0.02 0.09 0.14 0.16 0.04 0.05 0.05 0.01 0.02 0.03 0.00 0.00 0.00 0.00 0.00 0.00 0.00 0.00 0.00 0.00 0.00 0.00
0.00 0.00 0.00 0.00 0.00 0.00 0.00 0.00 0.00 0.01 0.03 0.06 0.10 0.13 0.16 0.09 0.03 0.10 0.55 0.14 0.01 0.00 0.01 0.03 0.08 0.13 0.13 0.04 0.02 0.04 0.00 0.01 0.00 0.00 0.00 0.00 0.00 0.00 0.00 0.00 0.00 0.00 0.00 0.00 0.00
0.00 0.00 0.00 0.00 0.00 0.00 0.00 0.00 0.00 0.00 0.02 0.06 0.08 0.11 0.10 0.03 0.01 0.04 0.66 0.17 0.02 0.05 0.02 0.02 0.05 0.04 0.02 0.01 0.00 0.00 0.00 0.00 0.00 0.00 0.00 0.00 0.00 0.00 0.00 0.00 0.00 0.00 0.00 0.00 0.00
0.00 0.00 0.00 0.00 0.00 0.00 0.00 0.00 0.00 0.01 0.01 0.02 0.08 0.21 0.39 0.16 0.04 0.03 0.47 0.40 0.17 0.14 0.03 0.02 0.03 0.00 0.00 0.00 0.00 0.00 0.00 0.00 0.00 0.00 0.00 0.00 0.00 0.00 0.00 0.00 0.00 0.00 0.00 0.00 0.00
0.00 0.00 0.00 0.00 0.00 0.00 0.00 0.00 0.00 0.01 0.01 0.02 0.10 0.12 0.21 0.20 0.22 0.10 0.11 0.36 0.33 0.08 0.11 0.02 0.00 0.00 0.00 0.00 0.00 0.00 0.00 0.00 0.00 0.00 0.00 0.00 0.00 0.00 0.00 0.00 0.00 0.00 0.00 0.00 0.00
0.00 0.00 0.00 0.00 0.00 0.00 0.00 0.00 0.00 0.00 0.00 0.02 0.08 0.16 0.12 0.06 0.06 0.01 0.00 0.01 0.07 0.12 0.03 0.00 0.00 0.00 0.00 0.00 0.00 0.00 0.00 0.00 0.00 0.00 0.00 0.00 0.00 0.00 0.00 0.00 0.00 0.00 0.00 0.00 0.00

GFSSW_prec_precacc12_096.txt.gz
Total_Precipitation_Accumulation
0.00 0.01 0.01 0.03 0.02 0.01 0.02 0.02 0.04 0.04 0.03 0.02 0.06 0.11 0.14 0.05 0.00 0.00 0.00 0.00 0.01 0.08 0.10 0.01 0.00 0.02 0.05 0.03 0.04 0.15 0.23 0.08 0.00 0.00 0.00 0.00 0.00 0.00 0.00 0.00 0.00 0.00 0.00 0.00 0.00
0.00 0.02 0.02 0.03 0.01 0.02 0.03 0.04 0.03 0.01 0.01 0.03 0.10 0.14 0.11 0.02 0.00 0.00 0.00 0.01 0.02 0.08 0.12 0.06 0.07 0.07 0.11 0.03 0.09 0.12 0.13 0.02 0.00 0.00 0.00 0.00 0.00 0.00 0.00 0.00 0.00 0.00 0.00 0.00 0.03
0.01 0.02 0.02 0.02 0.01 0.02 0.04 0.04 0.01 0.00 0.01 0.02 0.06 0.06 0.03 0.00 0.00 0.00 0.08 0.07 0.03 0.09 0.09 0.07 0.08 0.14 0.13 0.09 0.06 0.03 0.01 0.00 0.00 0.01 0.01 0.02 0.01 0.00 0.00 0.00 0.00 0.00 0.00 0.01 0.07
0.01 0.02 0.02 0.02 0.02 0.03 0.04 0.02 0.00 0.00 0.01 0.01 0.02 0.01 0.02 0.00 0.00 0.00 0.11 0.02 0.02 0.17 0.25 0.12 0.16 0.18 0.13 0.11 0.01 0.01 0.00 0.00 0.03 0.06 0.04 0.03 0.04 0.01 0.00 0.00 0.00 0.00 0.00 0.00 0.02
0.02 0.02 0.02 0.01 0.03 0.03 0.02 0.00 0.00 0.01 0.00 0.00 0.01 0.02 0.00 0.00 0.00 0.00 0.00 0.00 0.00 0.03 0.21 0.21 0.15 0.19 0.15 0.04 0.04 0.01 0.01 0.00 0.01 0.08 0.03 0.01 0.01 0.02 0.01 0.02 0.00 0.00 0.00 0.00 0.00
0.02 0.02 0.02 0.02 0.03 0.03 0.01 0.00 0.00 0.00 0.00 0.00 0.00 0.01 0.00 0.00 0.00 0.00 0.00 0.00 0.00 0.00 0.09 0.29 0.11 0.17 0.18 0.06 0.06 0.00 0.02 0.02 0.01 0.02 0.02 0.01 0.01 0.01 0.01 0.01 0.00 0.00 0.00 0.00 0.00
0.02 0.02 0.02 0.02 0.03 0.02 0.01 0.00 0.00 0.00 0.00 0.00 0.00 0.00 0.00 0.00 0.00 0.00 0.00 0.00 0.00 0.00 0.03 0.18 0.23 0.30 0.38 0.16 0.01 0.03 0.01 0.07 0.02 0.02 0.04 0.02 0.02 0.04 0.01 0.00 0.00 0.00 0.00 0.00 0.00
0.02 0.02 0.02 0.02 0.03 0.02 0.00 0.00 0.00 0.00 0.00 0.00 0.00 0.00 0.00 0.00 0.00 0.00 0.00 0.00 0.00 0.00 0.00 0.08 0.19 0.24 0.48 0.29 0.03 0.11 0.04 0.05 0.02 0.01 0.02 0.05 0.05 0.00 0.00 0.01 0.00 0.00 0.00 0.00 0.00
0.02 0.02 0.02 0.03 0.03 0.01 0.00 0.00 0.00 0.00 0.00 0.00 0.00 0.00 0.00 0.00 0.00 0.00 0.00 0.00 0.00 0.00 0.00 0.03 0.10 0.34 0.37 0.51 0.21 0.16 0.08 0.00 0.02 0.02 0.01 0.01 0.00 0.00 0.00 0.00 0.00 0.00 0.00 0.00 0.00
0.01 0.02 0.02 0.03 0.02 0.00 0.00 0.00 0.00 0.00 0.00 0.00 0.00 0.00 0.01 0.00 0.00 0.00 0.00 0.00 0.01 0.00 0.02 0.08 0.17 0.26 0.47 0.67 0.41 0.10 0.03 0.00 0.01 0.02 0.02 0.01 0.00 0.00 0.00 0.00 0.00 0.00 0.00 0.00 0.00
0.01 0.02 0.02 0.03 0.01 0.00 0.00 0.00 0.00 0.00 0.00 0.00 0.00 0.00 0.00 0.00 0.00 0.00 0.00 0.00 0.01 0.02 0.04 0.21 0.29 0.22 0.21 0.25 0.16 0.05 0.01 0.00 0.00 0.00 0.02 0.00 0.00 0.00 0.00 0.00 0.00 0.00 0.00 0.00 0.00
0.01 0.02 0.02 0.02 0.00 0.00 0.00 0.00 0.00 0.00 0.00 0.00 0.00 0.00 0.00 0.00 0.00 0.00 0.00 0.02 0.06 0.07 0.08 0.17 0.09 0.01 0.04 0.20 0.33 0.11 0.03 0.01 0.01 0.02 0.03 0.01 0.00 0.00 0.00 0.00 0.00 0.00 0.00 0.00 0.00
0.01 0.02 0.02 0.01 0.00 0.00 0.00 0.00 0.00 0.00 0.00 0.00 0.00 0.00 0.00 0.00 0.00 0.00 0.00 0.01 0.02 0.03 0.07 0.11 0.07 0.01 0.10 0.27 0.51 0.06 0.01 0.00 0.01 0.03 0.05 0.02 0.03 0.00 0.00 0.00 0.00 0.00 0.00 0.00 0.00
0.02 0.01 0.01 0.00 0.00 0.00 0.00 0.00 0.00 0.00 0.00 0.00 0.00 0.00 0.00 0.00 0.00 0.00 0.00 0.00 0.02 0.05 0.04 0.05 0.03 0.03 0.08 0.18 0.40 0.10 0.01 0.02 0.02 0.03 0.14 0.03 0.04 0.01 0.00 0.00 0.00 0.00 0.00 0.00 0.00
0.01 0.01 0.00 0.00 0.00 0.00 0.00 0.00 0.00 0.00 0.02 0.01 0.00 0.00 0.00 0.02 0.00 0.00 0.00 0.00 0.01 0.02 0.06 0.17 0.05 0.04 0.04 0.12 0.36 0.16 0.03 0.05 0.08 0.03 0.03 0.02 0.01 0.00 0.00 0.00 0.00 0.00 0.00 0.00 0.00
0.01 0.01 0.00 0.00 0.00 0.00 0.00 0.00 0.00 0.01 0.01 0.00 0.00 0.00 0.04 0.10 0.01 0.00 0.00 0.00 0.01 0.02 0.07 0.15 0.06 0.09 0.07 0.17 0.39 0.19 0.04 0.09 0.13 0.12 0.13 0.01 0.00 0.00 0.00 0.00 0.00 0.00 0.00 0.00 0.00
0.00 0.00 0.00 0.00 0.00 0.00 0.00 0.00 0.01 0.01 0.00 0.01 0.01 0.03 0.08 0.16 0.04 0.00 0.00 0.00 0.00 0.04 0.09 0.13 0.12 0.08 0.10 0.35 0.52 0.48 0.20 0.32 0.36 0.20 0.05 0.00 0.00 0.00 0.00 0.00 0.00 0.00 0.00 0.00 0.00
0.00 0.00 0.00 0.00 0.00 0.00 0.00 0.00 0.00 0.01 0.00 0.00 0.01 0.03 0.10 0.17 0.09 0.00 0.00 0.00 0.00 0.01 0.05 0.08 0.12 0.09 0.10 0.35 0.63 0.37 0.22 0.15 0.06 0.03 0.00 0.00 0.01 0.00 0.00 0.00 0.00 0.00 0.00 0.00 0.00
0.00 0.00 0.00 0.00 0.00 0.00 0.00 0.00 0.01 0.00 0.02 0.01 0.02 0.04 0.07 0.20 0.21 0.07 0.00 0.00 0.00 0.00 0.05 0.07 0.09 0.04 0.04 0.17 0.60 0.48 0.07 0.07 0.01 0.00 0.01 0.00 0.00 0.00 0.00 0.00 0.00 0.00 0.00 0.00 0.00
0.00 0.00 0.00 0.00 0.00 0.00 0.00 0.00 0.00 0.01 0.01 0.03 0.07 0.05 0.12 0.26 0.25 0.31 0.06 0.00 0.00 0.00 0.01 0.06 0.11 0.06 0.09 0.13 0.31 0.43 0.06 0.08 0.03 0.01 0.02 0.00 0.00 0.00 0.00 0.00 0.00 0.00 0.00 0.00 0.00
0.00 0.00 0.00 0.00 0.00 0.00 0.00 0.00 0.00 0.01 0.02 0.05 0.03 0.05 0.11 0.22 0.14 0.42 0.24 0.04 0.00 0.00 0.00 0.03 0.08 0.17 0.18 0.11 0.13 0.20 0.06 0.02 0.03 0.01 0.01 0.00 0.00 0.00 0.00 0.00 0.00 0.00 0.00 0.00 0.00
0.00 0.00 0.00 0.00 0.00 0.00 0.00 0.00 0.00 0.01 0.03 0.04 0.05 0.14 0.14 0.12 0.06 0.47 0.54 0.14 0.01 0.00 0.00 0.04 0.11 0.15 0.16 0.04 0.04 0.05 0.01 0.03 0.06 0.02 0.01 0.01 0.00 0.00 0.00 0.00 0.00 0.00 0.00 0.00 0.00
0.00 0.00 0.00 0.00 0.00 0.00 0.00 0.00 0.00 0.01 0.03 0.06 0.10 0.13 0.16 0.09 0.06 0.15 0.56 0.15 0.01 0.00 0.10 0.11 0.11 0.19 0.16 0.05 0.03 0.05 0.00 0.01 0.01 0.01 0.02 0.03 0.00 0.00 0.00 0.00 0.00 0.00 0.00 0.00 0.00
0.00 0.00 0.00 0.00 0.00 0.00 0.00 0.00 0.00 0.00 0.02 0.05 0.07 0.10 0.10 0.03 0.01 0.06 0.65 0.16 0.02 0.05 0.04 0.06 0.09 0.09 0.06 0.02 0.00 0.00 0.00 0.00 0.00 0.01 0.01 0.02 0.00 0.00 0.00 0.00 0.00 0.00 0.00 0.00 0.00
0.00 0.00 0.00 0.00 0.00 0.00 0.00 0.00 0.00 0.00 0.01 0.01 0.06 0.19 0.39 0.16 0.04 0.03 0.48 0.39 0.17 0.14 0.03 0.02 0.10 0.02 0.00 0.00 0.00 0.00 0.00 0.00 0.00 0.00 0.00 0.00 0.00 0.00 0.00 0.00 0.00 0.00 0.00 0.00 0.00
0.00 0.00 0.00 0.00 0.00 0.00 0.00 0.00 0.00 0.00 0.00 0.00 0.06 0.06 0.21 0.20 0.22 0.10 0.11 0.37 0.34 0.09 0.11 0.02 0.01 0.00 0.00 0.00 0.00 0.00 0.00 0.00 0.00 0.00 0.00 0.00 0.00 0.00 0.00 0.00 0.00 0.00 0.00 0.00 0.00
0.00 0.00 0.00 0.00 0.00 0.00 0.00 0.00 0.00 0.00 0.00 0.00 0.01 0.04 0.10 0.06 0.06 0.01 0.00 0.01 0.07 0.13 0.04 0.00 0.00 0.01 0.02 0.00 0.00 0.00 0.00 0.00 0.00 0.00 0.00 0.00 0.00 0.00 0.00 0.00 0.00 0.00 0.00 0.00 0.00

GFSSW_prec_precacc12_099.txt.gz
Total_Precipitation_Accumulation
0.00 0.01 0.01 0.02 0.01 0.01 0.02 0.02 0.03 0.03 0.01 0.00 0.02 0.08 0.12 0.03 0.00 0.00 0.00 0.00 0.01 0.12 0.19 0.05 0.01 0.02 0.05 0.04 0.05 0.18 0.38 0.42 0.00 0.00 0.00 0.01 0.00 0.00 0.00 0.00 0.00 0.00 0.00 0.00 0.01
0.00 0.02 0.02 0.02 0.01 0.02 0.02 0.03 0.02 0.00 0.00 0.01 0.01 0.03 0.04 0.00 0.00 0.00 0.01 0.01 0.00 0.05 0.13 0.12 0.07 0.10 0.11 0.04 0.12 0.15 0.15 0.27 0.04 0.00 0.01 0.04 0.01 0.00 0.00 0.00 0.00 0.01 0.03 0.02 0.01
0.01 0.02 0.02 0.02 0.01 0.02 0.03 0.03 0.01 0.00 0.00 0.01 0.00 0.00 0.00 0.00 0.00 0.00 0.05 0.06 0.02 0.04 0.07 0.07 0.08 0.16 0.12 0.11 0.09 0.05 0.01 0.00 0.01 0.06 0.05 0.04 0.02 0.00 0.00 0.00 0.00 0.01 0.01 0.01 0.03
0.01 0.02 0.02 0.02 0.02 0.03 0.03 0.01 0.00 0.00 0.00 0.00 0.00 0.00 0.00 0.00 0.00 0.00 0.02 0.01 0.01 0.06 0.15 0.09 0.11 0.21 0.13 0.11 0.02 0.02 0.00 0.00 0.04 0.13 0.09 0.04 0.05 0.03 0.00 0.00 0.00 0.00 0.02 0.00 0.01
0.02 0.02 0.02 0.02 0.02 0.03 0.03 0.00 0.00 0.00 0.00 0.00 0.00 0.01 0.00 0.01 0.00 0.00 0.00 0.00 0.00 0.02 0.15 0.21 0.16 0.26 0.13 0.03 0.05 0.01 0.00 0.00 0.03 0.16 0.13 0.03 0.03 0.06 0.02 0.02 0.01 0.01 0.03 0.00 0.00
0.02 0.02 0.02 0.02 0.02 0.02 0.02 0.00 0.00 0.00 0.00 0.00 0.00 0.00 0.00 0.00 0.00 0.00 0.00 0.00 0.00 0.00 0.03 0.21 0.13 0.31 0.15 0.05 0.08 0.03 0.01 0.01 0.01 0.13 0.09 0.05 0.04 0.08 0.04 0.01 0.03 0.05 0.02 0.02 0.01
0.02 0.02 0.01 0.02 0.02 0.02 0.01 0.00 0.00 0.00 0.00 0.00 0.00 0.00 0.00 0.00 0.00 0.00 0.00 0.00 0.00 0.00 0.00 0.05 0.21 0.31 0.38 0.12 0.01 0.02 0.00 0.05 0.03 0.06 0.12 0.05 0.11 0.09 0.08 0.01 0.01 0.03 0.02 0.02 0.00
0.01 0.02 0.02 0.02 0.02 0.02 0.01 0.00 0.00 0.00 0.00 0.00 0.00 0.00 0.00 0.00 0.00 0.00 0.00 0.00 0.00 0.00 0.00 0.01 0.16 0.22 0.49 0.28 0.03 0.11 0.04 0.04 0.02 0.01 0.05 0.10 0.13 0.05 0.06 0.12 0.04 0.02 0.01 0.01 0.00
0.01 0.02 0.02 0.02 0.03 0.01 0.00 0.00 0.00 0.00 0.00 0.00 0.00 0.00 0.00 0.00 0.00 0.00 0.00 0.00 0.00 0.00 0.00 0.01 0.09 0.32 0.39 0.62 0.25 0.26 0.18 0.00 0.02 0.02 0.03 0.08 0.03 0.02 0.04 0.15 0.07 0.01 0.00 0.00 0.00
0.01 0.01 0.02 0.02 0.02 0.00 0.00 0.00 0.00 0.00 0.00 0.00 0.00 0.00 0.01 0.00 0.00 0.00 0.00 0.00 0.01 0.00 0.02 0.04 0.12 0.21 0.36 0.74 0.48 0.14 0.12 0.01 0.01 0.02 0.02 0.03 0.00 0.00 0.04 0.06 0.04 0.01 0.00 0.00 0.00
0.00 0.01 0.02 0.02 0.01 0.00 0.00 0.00 0.00 0.00 0.00 0.00 0.00 0.00 0.00 0.00 0.00 0.00 0.00 0.00 0.01 0.02 0.03 0.02 0.11 0.15 0.09 0.17 0.20 0.08 0.03 0.01 0.00 0.01 0.01 0.01 0.00 0.01 0.00 0.02 0.02 0.00 0.00 0.00 0.00
0.01 0.01 0.01 0.02 0.01 0.00 0.00 0.00 0.00 0.00 0.00 0.00 0.00 0.00 0.00 0.00 0.00 0.00 0.00 0.02 0.06 0.08 0.07 0.05 0.03 0.01 0.04 0.15 0.30 0.22 0.06 0.01 0.01 0.02 0.03 0.01 0.00 0.00 0.00 0.00 0.00 0.00 0.00 0.00 0.00
0.01 0.01 0.01 0.01 0.00 0.00 0.00 0.00 0.00 0.00 0.00 0.00 0.00 0.00 0.00 0.00 0.00 0.00 0.00 0.01 0.02 0.03 0.07 0.05 0.05 0.02 0.08 0.24 0.44 0.14 0.05 0.00 0.01 0.04 0.06 0.03 0.04 0.01 0.00 0.00 0.00 0.00 0.00 0.00 0.00
0.01 0.01 0.01 0.00 0.00 0.00 0.00 0.00 0.00 0.00 0.00 0.01 0.00 0.00 0.00 0.00 0.00 0.00 0.00 0.00 0.02 0.05 0.04 0.01 0.01 0.03 0.08 0.14 0.32 0.15 0.04 0.02 0.04 0.05 0.16 0.05 0.04 0.01 0.00 0.00 0.00 0.00 0.00 0.00 0.00
0.01 0.01 0.00 0.00 0.00 0.00 0.00 0.00 0.00 0.00 0.03 0.01 0.00 0.00 0.00 0.03 0.01 0.00 0.00 0.00 0.01 0.03 0.07 0.16 0.07 0.06 0.09 0.07 0.14 0.16 0.06 0.05 0.09 0.04 0.07 0.13 0.03 0.00 0.00 0.00 0.00 0.00 0.00 0.00 0.00
0.01 0.01 0.00 0.00 0.00 0.00 0.00 0.00 0.00 0.01 0.01 0.00 0.00 0.00 0.06 0.11 0.01 0.00 0.00 0.00 0.01 0.02 0.11 0.17 0.11 0.16 0.12 0.05 0.11 0.17 0.07 0.10 0.16 0.15 0.19 0.06 0.04 0.00 0.00 0.00 0.00 0.00 0.00 0.00 0.00
0.00 0.00 0.00 0.00 0.00 0.00 0.00 0.00 0.01 0.01 0.01 0.01 0.01 0.02 0.08 0.18 0.04 0.00 0.00 0.00 0.00 0.09 0.32 0.22 0.24 0.13 0.08 0.08 0.23 0.46 0.27 0.33 0.45 0.33 0.08 0.00 0.01 0.00 0.00 0.00 0.00 0.00 0.00 0.00 0.00
0.00 0.00 0.00 0.00 0.00 0.00 0.00 0.00 0.00 0.01 0.00 0.00 0.01 0.02 0.08 0.17 0.10 0.00 0.00 0.00 0.00 0.04 0.24 0.13 0.09 0.08 0.07 0.07 0.33 0.37 0.29 0.21 0.12 0.07 0.00 0.00 0.01 0.00 0.00 0.00 0.00 0.00 0.00 0.00 0.00
0.00 0.00 0.00 0.00 0.00 0.00 0.00 0.00 0.01 0.01 0.02 0.01 0.02 0.02 0.05 0.17 0.20 0.07 0.00 0.00 0.00 0.01 0.14 0.08 0.07 0.03 0.03 0.08 0.40 0.41 0.11 0.13 0.01 0.00 0.01 0.00 0.00 0.00 0.00 0.00 0.00 0.00 0.00 0.00 0.00
0.00 0.00 0.00 0.00 0.00 0.00 0.00 0.00 0.00 0.01 0.01 0.03 0.06 0.04 0.11 0.22 0.20 0.27 0.05 0.00 0.00 0.00 0.02 0.06 0.08 0.05 0.06 0.11 0.23 0.36 0.06 0.11 0.03 0.02 0.02 0.00 0.00 0.00 0.00 0.00 0.00 0.00 0.00 0.00 0.00
0.00 0.00 0.00 0.00 0.00 0.00 0.00 0.00 0.00 0.01 0.02 0.05 0.03 0.04 0.11 0.22 0.12 0.35 0.20 0.02 0.00 0.00 0.00 0.03 0.06 0.13 0.17 0.09 0.08 0.19 0.05 0.04 0.03 0.01 0.02 0.00 0.00 0.00 0.00 0.00 0.00 0.00 0.00 0.00 0.00
0.00 0.00 0.00 0.00 0.00 0.00 0.00 0.00 0.00 0.01 0.02 0.03 0.03 0.14 0.14 0.13 0.13 0.42 0.41 0.09 0.00 0.00 0.00 0.04 0.11 0.12 0.15 0.04 0.01 0.05 0.01 0.04 0.06 0.02 0.02 0.02 0.00 0.00 0.00 0.00 0.00 0.00 0.00 0.00 0.00
0.00 0.00 0.00 0.00 0.00 0.00 0.00 0.00 0.00 0.00 0.01 0.03 0.08 0.11 0.16 0.09 0.11 0.14 0.49 0.14 0.01 0.00 0.21 0.14 0.13 0.20 0.16 0.05 0.02 0.02 0.00 0.01 0.01 0.01 0.03 0.14 0.01 0.00 0.00 0.00 0.00 0.00 0.00 0.00 0.00
0.00 0.00 0.00 0.00 0.00 0.00 0.00 0.00 0.00 0.00 0.00 0.00 0.04 0.07 0.09 0.03 0.02 0.06 0.43 0.14 0.02 0.02 0.05 0.09 0.11 0.13 0.09 0.02 0.00 0.00 0.00 0.00 0.00 0.01 0.02 0.07 0.01 0.00 0.00 0.00 0.00 0.00 0.00 0.00 0.00
0.00 0.00 0.00 0.00 0.00 0.00 0.00 0.00 0.00 0.00 0.00 0.00 0.02 0.08 0.19 0.14 0.04 0.04 0.34 0.19 0.13 0.12 0.03 0.05 0.16 0.03 0.00 0.00 0.00 0.00 0.00 0.00 0.00 0.00 0.00 0.01 0.00 0.00 0.00 0.00 0.00 0.00 0.00 0.00 0.00
0.00 0.00 0.00 0.00 0.00 0.00 0.00 0.00 0.00 0.00 0.00 0.00 0.00 0.00 0.06 0.12 0.17 0.08 0.10 0.29 0.28 0.07 0.11 0.02 0.01 0.00 0.00 0.00 0.00 0.00 0.00 0.00 0.00 0.00 0.00 0.00 0.00 0.00 0.00 0.00 0.00 0.00 0.00 0.00 0.00
0.00 0.00 0.00 0.00 0.00 0.00 0.00 0.00 0.00 0.00 0.00 0.00 0.00 0.00 0.01 0.01 0.03 0.01 0.00 0.01 0.07 0.11 0.04 0.00 0.00 0.02 0.03 0.00 0.00 0.00 0.00 0.00 0.00 0.00 0.00 0.00 0.00 0.00 0.00 0.00 0.00 0.00 0.00 0.00 0.00

GFSSW_prec_precacc12_102.txt.gz
Total_Precipitation_Accumulation
0.00 0.01 0.01 0.02 0.01 0.01 0.01 0.02 0.03 0.02 0.00 0.00 0.01 0.02 0.01 0.00 0.00 0.00 0.00 0.00 0.01 0.13 0.22 0.06 0.04 0.08 0.09 0.03 0.06 0.24 0.41 0.59 0.08 0.00 0.00 0.01 0.00 0.00 0.00 0.00 0.00 0.00 0.00 0.00 0.01
0.00 0.01 0.02 0.02 0.01 0.02 0.02 0.03 0.02 0.00 0.00 0.01 0.01 0.01 0.00 0.00 0.00 0.00 0.01 0.03 0.05 0.05 0.11 0.14 0.10 0.13 0.16 0.06 0.14 0.18 0.16 0.37 0.06 0.01 0.01 0.05 0.01 0.00 0.00 0.00 0.01 0.04 0.04 0.02 0.01
0.01 0.02 0.02 0.02 0.01 0.02 0.03 0.02 0.01 0.00 0.00 0.01 0.00 0.00 0.00 0.00 0.00 0.00 0.02 0.02 0.02 0.02 0.03 0.06 0.10 0.15 0.13 0.10 0.12 0.10 0.02 0.02 0.06 0.08 0.06 0.06 0.03 0.01 0.00 0.00 0.00 0.02 0.08 0.04 0.04
0.01 0.02 0.02 0.02 0.01 0.02 0.02 0.01 0.00 0.00 0.00 0.00 0.00 0.00 0.00 0.00 0.00 0.00 0.00 0.00 0.00 0.03 0.07 0.08 0.15 0.20 0.14 0.10 0.03 0.05 0.00 0.01 0.14 0.26 0.13 0.08 0.07 0.05 0.01 0.00 0.04 0.04 0.02 0.02 0.05
0.01 0.02 0.02 0.01 0.02 0.02 0.02 0.01 0.00 0.00 0.00 0.00 0.00 0.00 0.00 0.01 0.00 0.00 0.00 0.00 0.00 0.02 0.11 0.14 0.16 0.25 0.15 0.06 0.05 0.01 0.00 0.00 0.12 0.52 0.22 0.06 0.05 0.08 0.02 0.03 0.06 0.14 0.16 0.15 0.14
0.01 0.02 0.02 0.02 0.02 0.02 0.02 0.01 0.00 0.00 0.00 0.00 0.00 0.00 0.00 0.00 0.00 0.00 0.00 0.00 0.00 0.00 0.03 0.16 0.13 0.33 0.14 0.12 0.08 0.04 0.01 0.01 0.05 0.40 0.31 0.19 0.06 0.09 0.06 0.02 0.06 0.14 0.12 0.13 0.13
0.01 0.01 0.02 0.02 0.02 0.02 0.01 0.00 0.00 0.00 0.00 0.00 0.00 0.00 0.00 0.00 0.00 0.00 0.00 0.00 0.00 0.00 0.00 0.05 0.22 0.34 0.44 0.17 0.02 0.02 0.01 0.03 0.05 0.09 0.27 0.33 0.24 0.10 0.10 0.05 0.02 0.05 0.06 0.09 0.10
0.01 0.01 0.02 0.02 0.02 0.02 0.01 0.00 0.00 0.00 0.00 0.00 0.00 0.00 0.00 0.00 0.00 0.00 0.00 0.00 0.00 0.00 0.00 0.02 0.14 0.23 0.57 0.32 0.05 0.11 0.05 0.05 0.03 0.02 0.09 0.39 0.33 0.07 0.09 0.18 0.05 0.02 0.03 0.06 0.06
0.01 0.01 0.01 0.02 0.02 0.02 0.00 0.00 0.00 0.00 0.00 0.00 0.00 0.00 0.00 0.00 0.00 0.00 0.00 0.00 0.00 0.00 0.00 0.02 0.06 0.28 0.37 0.53 0.29 0.26 0.18 0.00 0.01 0.01 0.04 0.21 0.18 0.12 0.08 0.25 0.11 0.03 0.02 0.05 0.03
0.01 0.01 0.01 0.01 0.02 0.01 0.00 0.00 0.00 0.00 0.00 0.00 0.00 0.00 0.01 0.00 0.00 0.00 0.00 0.00 0.01 0.00 0.02 0.03 0.09 0.17 0.32 0.58 0.47 0.15 0.12 0.01 0.01 0.02 0.04 0.05 0.07 0.13 0.09 0.16 0.17 0.09 0.01 0.04 0.02
0.00 0.01 0.01 0.02 0.02 0.00 0.00 0.00 0.00 0.00 0.00 0.00 0.00 0.00 0.00 0.00 0.00 0.00 0.00 0.00 0.01 0.02 0.03 0.01 0.07 0.09 0.09 0.15 0.27 0.12 0.04 0.03 0.00 0.02 0.02 0.01 0.01 0.06 0.06 0.14 0.21 0.17 0.03 0.01 0.01
0.01 0.01 0.01 0.02 0.00 0.00 0.00 0.00 0.00 0.00 0.00 0.00 0.00 0.00 0.00 0.00 0.00 0.00 0.00 0.02 0.06 0.07 0.07 0.03 0.03 0.01 0.04 0.13 0.35 0.29 0.07 0.04 0.01 0.03 0.04 0.02 0.01 0.03 0.03 0.06 0.12 0.20 0.06 0.00 0.01
0.01 0.01 0.01 0.01 0.00 0.00 0.00 0.00 0.00 0.00 0.00 0.00 0.00 0.00 0.00 0.00 0.00 0.00 0.00 0.01 0.02 0.03 0.06 0.04 0.05 0.01 0.06 0.19 0.35 0.18 0.07 0.02 0.02 0.05 0.08 0.04 0.06 0.09 0.04 0.02 0.03 0.11 0.09 0.00 0.00
0.01 0.01 0.01 0.00 0.00 0.00 0.00 0.00 0.00 0.00 0.00 0.01 0.00 0.00 0.00 0.00 0.00 0.00 0.00 0.00 0.02 0.04 0.03 0.01 0.01 0.02 0.06 0.12 0.19 0.17 0.06 0.01 0.04 0.07 0.21 0.07 0.06 0.05 0.03 0.01 0.00 0.01 0.03 0.00 0.00
0.01 0.01 0.00 0.00 0.00 0.00 0.00 0.00 0.00 0.00 0.03 0.01 0.00 0.00 0.00 0.03 0.01 0.00 0.00 0.00 0.01 0.02 0.06 0.16 0.05 0.05 0.09 0.06 0.07 0.23 0.09 0.05 0.07 0.03 0.08 0.15 0.04 0.00 0.00 0.00 0.00 0.00 0.00 0.00 0.00
0.01 0.01 0.00 0.00 0.00 0.00 0.00 0.00 0.00 0.01 0.01 0.00 0.00 0.00 0.06 0.12 0.01 0.00 0.00 0.00 0.01 0.02 0.11 0.19 0.10 0.18 0.15 0.05 0.06 0.13 0.14 0.09 0.14 0.13 0.20 0.07 0.05 0.00 0.00 0.00 0.00 0.00 0.00 0.00 0.00
0.00 0.00 0.00 0.00 0.00 0.00 0.00 0.00 0.01 0.01 0.01 0.01 0.01 0.01 0.07 0.18 0.04 0.00 0.00 0.00 0.00 0.13 0.37 0.37 0.43 0.19 0.10 0.07 0.12 0.30 0.30 0.43 0.55 0.39 0.10 0.00 0.03 0.00 0.00 0.00 0.00 0.00 0.00 0.00 0.00
0.00 0.00 0.00 0.00 0.00 0.00 0.00 0.00 0.00 0.01 0.00 0.00 0.01 0.01 0.06 0.15 0.10 0.00 0.00 0.00 0.01 0.08 0.32 0.35 0.20 0.15 0.08 0.05 0.11 0.30 0.29 0.27 0.18 0.09 0.02 0.01 0.01 0.00 0.00 0.00 0.00 0.00 0.00 0.00 0.00
0.00 0.00 0.00 0.00 0.00 0.00 0.00 0.00 0.01 0.01 0.02 0.01 0.02 0.01 0.05 0.13 0.14 0.06 0.00 0.00 0.00 0.02 0.17 0.08 0.10 0.04 0.03 0.02 0.09 0.30 0.15 0.13 0.01 0.01 0.01 0.01 0.00 0.00 0.00 0.00 0.00 0.00 0.00 0.00 0.00
0.00 0.00 0.00 0.00 0.00 0.00 0.00 0.00 0.00 0.01 0.01 0.03 0.04 0.02 0.09 0.19 0.09 0.18 0.03 0.00 0.00 0.00 0.01 0.03 0.07 0.03 0.01 0.01 0.06 0.20 0.08 0.11 0.03 0.02 0.02 0.00 0.00 0.00 0.00 0.00 0.00 0.00 0.00 0.00 0.00
0.00 0.00 0.00 0.00 0.00 0.00 0.00 0.00 0.00 0.01 0.01 0.03 0.01 0.02 0.07 0.20 0.11 0.22 0.08 0.01 0.00 0.00 0.00 0.00 0.03 0.08 0.04 0.02 0.03 0.09 0.05 0.04 0.03 0.01 0.02 0.00 0.00 0.00 0.00 0.00 0.00 0.00 0.00 0.00 0.00
0.00 0.00 0.00 0.00 0.00 0.00 0.00 0.00 0.00 0.01 0.00 0.02 0.02 0.07 0.08 0.11 0.13 0.31 0.18 0.02 0.00 0.00 0.00 0.04 0.06 0.09 0.11 0.03 0.00 0.01 0.01 0.04 0.06 0.02 0.02 0.02 0.00 0.00 0.00 0.00 0.00 0.00 0.00 0.00 0.00
0.00 0.00 0.00 0.00 0.00 0.00 0.00 0.00 0.00 0.00 0.00 0.00 0.04 0.05 0.03 0.04 0.12 0.11 0.30 0.05 0.00 0.00 0.20 0.14 0.12 0.17 0.13 0.05 0.02 0.01 0.00 0.01 0.01 0.01 0.03 0.14 0.01 0.00 0.00 0.00 0.00 0.00 0.00 0.00 0.00
0.00 0.00 0.00 0.00 0.00 0.00 0.00 0.00 0.00 0.00 0.00 0.00 0.00 0.00 0.00 0.01 0.01 0.06 0.22 0.08 0.01 0.01 0.04 0.08 0.11 0.15 0.09 0.01 0.00 0.00 0.00 0.00 0.00 0.01 0.04 0.08 0.02 0.00 0.00 0.00 0.00 0.00 0.00 0.00 0.00
0.00 0.00 0.00 0.00 0.00 0.00 0.00 0.00 0.00 0.00 0.00 0.00 0.00 0.00 0.00 0.00 0.00 0.02 0.13 0.09 0.04 0.01 0.01 0.05 0.17 0.03 0.00 0.00 0.00 0.00 0.00 0.00 0.00 0.00 0.06 0.02 0.00 0.00 0.00 0.00 0.00 0.00 0.00 0.00 0.00
0.00 0.00 0.00 0.00 0.00 0.00 0.00 0.00 0.00 0.00 0.00 0.00 0.00 0.00 0.00 0.00 0.00 0.00 0.03 0.07 0.12 0.03 0.04 0.00 0.01 0.00 0.00 0.00 0.00 0.00 0.00 0.00 0.00 0.00 0.01 0.01 0.00 0.00 0.00 0.00 0.00 0.00 0.00 0.00 0.00
0.00 0.00 0.00 0.00 0.00 0.00 0.00 0.00 0.00 0.00 0.00 0.00 0.00 0.00 0.00 0.00 0.00 0.00 0.00 0.00 0.04 0.05 0.03 0.00 0.00 0.02 0.03 0.00 0.00 0.00 0.00 0.00 0.00 0.00 0.00 0.00 0.00 0.00 0.00 0.00 0.00 0.00 0.00 0.00 0.00

GFSSW_prec_precacc12_105.txt.gz
Total_Precipitation_Accumulation
0.00 0.01 0.01 0.02 0.02 0.01 0.01 0.03 0.02 0.02 0.01 0.00 0.01 0.02 0.01 0.00 0.00 0.00 0.00 0.00 0.02 0.14 0.20 0.06 0.04 0.08 0.07 0.03 0.06 0.22 0.41 0.58 0.13 0.07 0.05 0.01 0.00 0.00 0.00 0.00 0.00 0.00 0.01 0.01 0.02
0.00 0.01 0.02 0.02 0.02 0.02 0.02 0.03 0.02 0.01 0.00 0.01 0.01 0.01 0.00 0.00 0.00 0.00 0.01 0.03 0.12 0.12 0.08 0.12 0.10 0.10 0.14 0.08 0.15 0.21 0.19 0.37 0.07 0.04 0.07 0.09 0.01 0.00 0.00 0.00 0.02 0.09 0.10 0.09 0.10
0.00 0.01 0.02 0.02 0.02 0.01 0.02 0.02 0.01 0.00 0.00 0.01 0.00 0.00 0.00 0.00 0.00 0.00 0.00 0.00 0.01 0.02 0.01 0.03 0.09 0.11 0.09 0.17 0.15 0.16 0.12 0.03 0.07 0.13 0.17 0.21 0.05 0.01 0.00 0.00 0.00 0.03 0.13 0.23 0.27
0.00 0.02 0.02 0.02 0.02 0.02 0.02 0.02 0.01 0.00 0.00 0.00 0.00 0.00 0.00 0.00 0.00 0.00 0.00 0.00 0.00 0.00 0.01 0.06 0.14 0.18 0.10 0.10 0.08 0.10 0.04 0.01 0.15 0.41 0.31 0.42 0.17 0.05 0.02 0.01 0.05 0.11 0.05 0.05 0.13
0.01 0.02 0.02 0.02 0.02 0.02 0.02 0.02 0.01 0.00 0.00 0.00 0.00 0.00 0.00 0.01 0.00 0.00 0.00 0.00 0.00 0.00 0.03 0.12 0.14 0.23 0.11 0.05 0.09 0.04 0.01 0.01 0.15 0.76 0.51 0.39 0.35 0.09 0.02 0.03 0.09 0.25 0.39 0.29 0.25
0.00 0.01 0.02 0.02 0.02 0.02 0.02 0.02 0.00 0.00 0.00 0.00 0.00 0.00 0.00 0.00 0.00 0.00 0.00 0.00 0.00 0.00 0.01 0.08 0.11 0.37 0.14 0.11 0.12 0.06 0.02 0.01 0.08 0.56 0.62 0.53 0.45 0.12 0.06 0.02 0.09 0.23 0.23 0.29 0.31
0.01 0.01 0.02 0.02 0.02 0.02 0.02 0.01 0.00 0.00 0.00 0.00 0.00 0.00 0.00 0.00 0.00 0.00 0.00 0.00 0.00 0.00 0.00 0.02 0.08 0.38 0.47 0.18 0.07 0.03 0.04 0.03 0.06 0.17 0.53 0.68 0.55 0.27 0.10 0.05 0.06 0.09 0.15 0.24 0.32
0.01 0.01 0.02 0.02 0.02 0.02 0.01 0.00 0.00 0.00 0.00 0.00 0.00 0.00 0.00 0.00 0.00 0.00 0.00 0.00 0.00 0.00 0.00 0.01 0.03 0.15 0.52 0.39 0.18 0.15 0.06 0.07 0.05 0.06 0.18 0.74 0.72 0.29 0.14 0.19 0.07 0.04 0.05 0.11 0.18
0.00 0.01 0.01 0.01 0.02 0.02 0.01 0.00 0.00 0.00 0.00 0.00 0.00 0.00 0.00 0.00 0.00 0.00 0.00 0.00 0.00 0.00 0.01 0.02 0.04 0.13 0.25 0.54 0.43 0.30 0.17 0.02 0.05 0.07 0.10 0.36 0.60 0.34 0.25 0.27 0.12 0.04 0.02 0.06 0.07
0.00 0.01 0.01 0.01 0.02 0.01 0.00 0.00 0.00 0.00 0.00 0.00 0.00 0.00 0.01 0.00 0.00 0.00 0.00 0.00 0.00 0.00 0.01 0.01 0.04 0.11 0.22 0.53 0.49 0.20 0.13 0.02 0.04 0.07 0.08 0.08 0.27 0.47 0.39 0.28 0.20 0.09 0.01 0.04 0.02
0.00 0.00 0.01 0.02 0.02 0.00 0.00 0.00 0.00 0.00 0.00 0.00 0.00 0.00 0.00 0.00 0.00 0.00 0.00 0.00 0.00 0.00 0.02 0.00 0.02 0.05 0.07 0.15 0.27 0.17 0.05 0.04 0.03 0.09 0.05 0.01 0.03 0.28 0.42 0.34 0.30 0.19 0.03 0.01 0.01
0.00 0.00 0.01 0.02 0.01 0.00 0.00 0.00 0.00 0.00 0.00 0.00 0.00 0.00 0.00 0.00 0.00 0.00 0.00 0.01 0.04 0.04 0.04 0.01 0.00 0.00 0.04 0.09 0.26 0.33 0.07 0.06 0.04 0.07 0.10 0.04 0.02 0.09 0.28 0.30 0.30 0.25 0.06 0.00 0.02
0.00 0.00 0.01 0.01 0.00 0.00 0.00 0.00 0.00 0.00 0.00 0.00 0.00 0.00 0.00 0.00 0.00 0.00 0.00 0.01 0.01 0.01 0.03 0.02 0.03 0.01 0.04 0.17 0.24 0.21 0.07 0.04 0.04 0.10 0.12 0.07 0.09 0.13 0.17 0.22 0.16 0.24 0.16 0.01 0.01
0.00 0.01 0.01 0.00 0.00 0.00 0.00 0.00 0.00 0.00 0.00 0.01 0.00 0.00 0.00 0.00 0.00 0.00 0.00 0.00 0.01 0.03 0.01 0.00 0.00 0.02 0.04 0.13 0.16 0.16 0.06 0.02 0.05 0.09 0.28 0.13 0.13 0.07 0.06 0.11 0.10 0.11 0.18 0.05 0.00
0.00 0.00 0.00 0.00 0.00 0.00 0.00 0.00 0.00 0.00 0.02 0.01 0.00 0.00 0.00 0.03 0.01 0.00 0.00 0.00 0.00 0.02 0.02 0.09 0.04 0.05 0.10 0.06 0.09 0.25 0.08 0.04 0.07 0.06 0.10 0.19 0.04 0.01 0.01 0.03 0.04 0.01 0.06 0.07 0.01
0.00 0.00 0.00 0.00 0.00 0.00 0.00 0.00 0.00 0.00 0.01 0.00 0.00 0.00 0.05 0.09 0.01 0.00 0.00 0.00 0.01 0.01 0.10 0.16 0.07 0.19 0.14 0.05 0.09 0.23 0.16 0.07 0.15 0.14 0.19 0.07 0.05 0.00 0.00 0.00 0.00 0.00 0.00 0.03 0.01
0.00 0.00 0.00 0.00 0.00 0.00 0.00 0.00 0.00 0.01 0.01 0.01 0.01 0.00 0.05 0.11 0.02 0.00 0.00 0.00 0.00 0.14 0.38 0.42 0.48 0.25 0.06 0.02 0.12 0.40 0.29 0.37 0.55 0.37 0.10 0.00 0.03 0.00 0.00 0.00 0.00 0.00 0.00 0.00 0.00
0.00 0.00 0.00 0.00 0.00 0.00 0.00 0.00 0.00 0.00 0.00 0.00 0.00 0.00 0.04 0.07 0.04 0.00 0.00 0.00 0.01 0.11 0.51 0.54 0.29 0.14 0.06 0.03 0.07 0.36 0.28 0.22 0.19 0.09 0.03 0.01 0.01 0.00 0.00 0.00 0.00 0.00 0.00 0.00 0.00
0.00 0.00 0.00 0.00 0.00 0.00 0.00 0.00 0.00 0.00 0.01 0.00 0.00 0.00 0.03 0.11 0.06 0.04 0.00 0.00 0.00 0.02 0.19 0.08 0.12 0.03 0.02 0.02 0.04 0.21 0.16 0.15 0.01 0.01 0.01 0.01 0.00 0.00 0.00 0.00 0.00 0.00 0.00 0.00 0.00
0.00 0.00 0.00 0.00 0.00 0.00 0.00 0.00 0.00 0.01 0.00 0.00 0.00 0.00 0.02 0.10 0.07 0.07 0.01 0.00 0.00 0.00 0.01 0.01 0.05 0.02 0.00 0.00 0.02 0.09 0.09 0.13 0.02 0.02 0.02 0.00 0.00 0.00 0.00 0.00 0.00 0.00 0.00 0.00 0.00
0.00 0.00 0.00 0.00 0.00 0.00 0.00 0.00 0.00 0.00 0.00 0.01 0.00 0.01 0.01 0.07 0.10 0.09 0.02 0.00 0.00 0.00 0.00 0.00 0.01 0.03 0.00 0.00 0.01 0.03 0.02 0.04 0.02 0.01 0.01 0.00 0.00 0.00 0.00 0.00 0.00 0.00 0.00 0.00 0.00
0.00 0.00 0.00 0.00 0.00 0.00 0.00 0.00 0.00 0.00 0.00 0.00 0.00 0.01 0.00 0.01 0.12 0.14 0.01 0.01 0.00 0.00 0.00 0.02 0.02 0.02 0.02 0.01 0.00 0.00 0.00 0.02 0.04 0.01 0.02 0.02 0.00 0.00 0.00 0.00 0.00 0.00 0.00 0.00 0.00
0.00 0.00 0.00 0.00 0.00 0.00 0.00 0.00 0.00 0.00 0.00 0.00 0.00 0.00 0.00 0.00 0.10 0.05 0.01 0.00 0.00 0.00 0.19 0.11 0.06 0.09 0.05 0.02 0.01 0.00 0.00 0.00 0.00 0.01 0.02 0.14 0.01 0.00 0.00 0.00 0.00 0.00 0.00 0.00 0.00
0.00 0.00 0.00 0.00 0.00 0.00 0.00 0.00 0.00 0.00 0.00 0.00 0.00 0.00 0.00 0.00 0.01 0.03 0.02 0.00 0.01 0.01 0.04 0.07 0.06 0.11 0.07 0.01 0.00 0.00 0.00 0.00 0.00 0.01 0.04 0.08 0.02 0.00 0.00 0.00 0.00 0.00 0.00 0.00 0.00
0.00 0.00 0.00 0.00 0.00 0.00 0.00 0.00 0.00 0.00 0.00 0.00 0.00 0.00 0.00 0.00 0.00 0.00 0.01 0.00 0.00 0.01 0.00 0.04 0.16 0.03 0.00 0.00 0.00 0.00 0.00 0.00 0.00 0.00 0.06 0.02 0.00 0.00 0.00 0.00 0.00 0.00 0.00 0.00 0.00
0.00 0.00 0.00 0.00 0.00 0.00 0.00 0.00 0.00 0.00 0.00 0.00 0.00 0.00 0.00 0.00 0.00 0.00 0.00 0.01 0.01 0.00 0.00 0.00 0.01 0.00 0.00 0.00 0.00 0.00 0.00 0.00 0.00 0.00 0.01 0.01 0.00 0.00 0.00 0.00 0.00 0.00 0.00 0.00 0.00
0.00 0.00 0.00 0.00 0.00 0.00 0.00 0.00 0.00 0.00 0.00 0.00 0.00 0.00 0.00 0.00 0.00 0.00 0.00 0.00 0.00 0.01 0.01 0.00 0.00 0.02 0.02 0.00 0.00 0.00 0.00 0.00 0.00 0.00 0.00 0.00 0.00 0.00 0.00 0.00 0.00 0.00 0.00 0.00 0.00

GFSSW_prec_precacc12_108.txt.gz
Total_Precipitation_Accumulation
0.00 0.01 0.01 0.02 0.02 0.02 0.01 0.02 0.03 0.02 0.01 0.00 0.01 0.02 0.01 0.01 0.00 0.00 0.00 0.00 0.01 0.10 0.19 0.06 0.04 0.08 0.05 0.02 0.06 0.17 0.34 0.55 0.13 0.07 0.06 0.05 0.01 0.00 0.00 0.00 0.00 0.00 0.01 0.03 0.15
0.00 0.01 0.02 0.02 0.02 0.02 0.02 0.02 0.02 0.01 0.00 0.01 0.01 0.01 0.01 0.00 0.00 0.00 0.01 0.03 0.15 0.24 0.09 0.10 0.09 0.09 0.09 0.06 0.11 0.17 0.12 0.36 0.07 0.04 0.07 0.12 0.08 0.01 0.00 0.00 0.03 0.12 0.11 0.11 0.16
0.00 0.01 0.02 0.02 0.02 0.02 0.02 0.02 0.02 0.01 0.00 0.01 0.00 0.00 0.00 0.00 0.00 0.00 0.00 0.01 0.02 0.03 0.00 0.02 0.06 0.10 0.06 0.11 0.11 0.15 0.12 0.03 0.07 0.12 0.16 0.23 0.15 0.03 0.05 0.03 0.00 0.04 0.18 0.26 0.34
0.00 0.01 0.01 0.02 0.02 0.02 0.03 0.02 0.02 0.01 0.00 0.00 0.00 0.00 0.00 0.00 0.00 0.00 0.00 0.00 0.00 0.00 0.00 0.03 0.08 0.16 0.09 0.06 0.07 0.10 0.04 0.01 0.13 0.37 0.29 0.43 0.24 0.13 0.11 0.03 0.05 0.12 0.11 0.20 0.23
0.01 0.01 0.01 0.02 0.02 0.02 0.02 0.03 0.02 0.01 0.00 0.00 0.00 0.00 0.00 0.00 0.00 0.00 0.00 0.00 0.00 0.00 0.00 0.04 0.09 0.20 0.10 0.04 0.06 0.07 0.01 0.01 0.13 0.70 0.51 0.41 0.47 0.32 0.15 0.03 0.09 0.26 0.47 0.44 0.36
0.00 0.01 0.01 0.02 0.02 0.02 0.02 0.03 0.02 0.00 0.00 0.00 0.00 0.00 0.00 0.00 0.00 0.00 0.00 0.00 0.00 0.00 0.00 0.03 0.09 0.29 0.13 0.12 0.09 0.08 0.03 0.01 0.08 0.55 0.62 0.58 0.59 0.50 0.26 0.03 0.09 0.24 0.33 0.40 0.47
0.00 0.01 0.01 0.02 0.01 0.02 0.02 0.02 0.01 0.00 0.00 0.00 0.00 0.00 0.00 0.00 0.00 0.00 0.00 0.00 0.00 0.00 0.00 0.01 0.06 0.25 0.34 0.22 0.14 0.03 0.05 0.04 0.06 0.16 0.53 0.74 0.69 0.59 0.36 0.10 0.06 0.11 0.21 0.34 0.53
0.00 0.01 0.01 0.01 0.02 0.02 0.02 0.01 0.00 0.00 0.00 0.00 0.00 0.00 0.00 0.00 0.00 0.00 0.00 0.00 0.00 0.00 0.00 0.01 0.01 0.09 0.36 0.40 0.23 0.14 0.10 0.10 0.05 0.06 0.21 0.78 0.83 0.78 0.60 0.37 0.11 0.05 0.08 0.15 0.27
0.01 0.00 0.01 0.01 0.01 0.02 0.01 0.00 0.00 0.00 0.00 0.00 0.00 0.00 0.00 0.00 0.00 0.00 0.00 0.00 0.00 0.00 0.01 0.03 0.01 0.02 0.16 0.49 0.37 0.31 0.25 0.05 0.07 0.08 0.14 0.41 0.72 0.90 0.92 0.60 0.20 0.08 0.06 0.10 0.12
0.02 0.00 0.01 0.01 0.01 0.01 0.00 0.00 0.00 0.00 0.00 0.00 0.00 0.00 0.00 0.00 0.00 0.00 0.00 0.00 0.00 0.00 0.01 0.01 0.01 0.02 0.05 0.43 0.40 0.30 0.27 0.06 0.06 0.10 0.11 0.10 0.34 0.82 1.14 0.63 0.27 0.14 0.05 0.10 0.07
0.08 0.00 0.00 0.01 0.01 0.01 0.00 0.00 0.00 0.00 0.00 0.00 0.00 0.00 0.00 0.00 0.00 0.00 0.00 0.00 0.00 0.00 0.00 0.00 0.00 0.00 0.02 0.12 0.26 0.20 0.17 0.10 0.04 0.14 0.09 0.03 0.06 0.43 1.02 0.77 0.39 0.24 0.05 0.05 0.07
0.09 0.01 0.00 0.01 0.01 0.00 0.00 0.00 0.00 0.00 0.00 0.00 0.00 0.00 0.00 0.00 0.00 0.00 0.00 0.00 0.00 0.01 0.00 0.00 0.00 0.00 0.02 0.08 0.24 0.28 0.15 0.10 0.06 0.12 0.16 0.07 0.06 0.17 0.65 0.77 0.49 0.33 0.07 0.02 0.03
0.21 0.03 0.01 0.01 0.00 0.00 0.00 0.00 0.00 0.00 0.00 0.00 0.00 0.00 0.00 0.00 0.00 0.00 0.00 0.00 0.00 0.00 0.00 0.00 0.01 0.00 0.03 0.19 0.20 0.19 0.11 0.08 0.07 0.13 0.14 0.13 0.13 0.18 0.33 0.52 0.46 0.38 0.18 0.02 0.01
0.21 0.03 0.01 0.00 0.00 0.00 0.00 0.00 0.00 0.00 0.00 0.00 0.00 0.00 0.00 0.00 0.00 0.00 0.00 0.00 0.00 0.01 0.00 0.00 0.00 0.01 0.03 0.12 0.15 0.14 0.06 0.06 0.08 0.10 0.23 0.24 0.15 0.10 0.10 0.20 0.26 0.31 0.23 0.05 0.00
0.22 0.04 0.00 0.00 0.00 0.00 0.00 0.00 0.00 0.00 0.00 0.00 0.00 0.00 0.00 0.01 0.00 0.00 0.00 0.00 0.00 0.00 0.01 0.02 0.03 0.04 0.08 0.04 0.10 0.31 0.07 0.02 0.04 0.06 0.13 0.22 0.04 0.02 0.04 0.05 0.09 0.13 0.18 0.07 0.01
0.08 0.01 0.00 0.00 0.00 0.00 0.00 0.00 0.00 0.00 0.00 0.00 0.00 0.00 0.02 0.02 0.00 0.00 0.00 0.00 0.00 0.01 0.05 0.06 0.06 0.16 0.14 0.06 0.17 0.31 0.15 0.05 0.09 0.10 0.12 0.11 0.05 0.00 0.01 0.01 0.03 0.02 0.17 0.04 0.01
0.05 0.00 0.00 0.00 0.00 0.00 0.00 0.00 0.00 0.00 0.00 0.00 0.00 0.00 0.01 0.02 0.00 0.00 0.00 0.00 0.02 0.14 0.35 0.36 0.52 0.31 0.14 0.10 0.24 0.51 0.25 0.28 0.41 0.30 0.06 0.00 0.03 0.00 0.00 0.00 0.01 0.01 0.06 0.07 0.00
0.03 0.01 0.00 0.00 0.00 0.00 0.00 0.00 0.00 0.00 0.00 0.00 0.00 0.00 0.01 0.03 0.02 0.00 0.00 0.00 0.03 0.17 0.52 0.63 0.34 0.15 0.03 0.03 0.16 0.49 0.21 0.15 0.17 0.08 0.03 0.01 0.00 0.00 0.00 0.00 0.00 0.00 0.00 0.05 0.00
0.04 0.01 0.00 0.00 0.00 0.00 0.00 0.00 0.00 0.00 0.00 0.00 0.00 0.00 0.01 0.03 0.04 0.00 0.00 0.00 0.00 0.03 0.18 0.06 0.11 0.03 0.00 0.00 0.08 0.26 0.13 0.09 0.00 0.00 0.00 0.01 0.00 0.00 0.00 0.00 0.00 0.00 0.00 0.00 0.00
0.02 0.01 0.00 0.00 0.00 0.00 0.00 0.00 0.00 0.00 0.00 0.00 0.00 0.00 0.00 0.02 0.04 0.00 0.00 0.00 0.00 0.00 0.01 0.00 0.02 0.01 0.00 0.00 0.06 0.11 0.08 0.07 0.01 0.01 0.01 0.00 0.00 0.00 0.00 0.00 0.00 0.00 0.00 0.00 0.00
0.00 0.00 0.00 0.00 0.00 0.00 0.00 0.00 0.00 0.00 0.00 0.00 0.00 0.00 0.00 0.02 0.07 0.02 0.00 0.00 0.00 0.00 0.00 0.00 0.00 0.01 0.00 0.00 0.01 0.05 0.04 0.03 0.00 0.00 0.00 0.00 0.00 0.00 0.00 0.00 0.00 0.00 0.00 0.00 0.00
0.00 0.01 0.01 0.00 0.00 0.00 0.00 0.00 0.00 0.00 0.00 0.00 0.00 0.00 0.00 0.01 0.08 0.02 0.00 0.00 0.00 0.00 0.00 0.00 0.00 0.00 0.00 0.00 0.00 0.00 0.00 0.01 0.00 0.00 0.01 0.00 0.00 0.00 0.00 0.00 0.00 0.00 0.00 0.00 0.00
0.00 0.01 0.02 0.00 0.00 0.00 0.00 0.00 0.00 0.00 0.00 0.00 0.00 0.00 0.00 0.00 0.06 0.00 0.00 0.00 0.00 0.00 0.11 0.03 0.02 0.01 0.01 0.00 0.00 0.00 0.00 0.00 0.00 0.00 0.01 0.11 0.00 0.00 0.00 0.00 0.00 0.00 0.00 0.00 0.00
0.00 0.01 0.01 0.00 0.00 0.00 0.00 0.00 0.00 0.00 0.00 0.00 0.00 0.00 0.00 0.00 0.00 0.00 0.00 0.00 0.01 0.01 0.03 0.03 0.02 0.06 0.04 0.00 0.00 0.00 0.00 0.00 0.00 0.00 0.03 0.06 0.01 0.00 0.00 0.00 0.00 0.00 0.00 0.00 0.00
0.00 0.00 0.00 0.00 0.00 0.00 0.00 0.00 0.00 0.00 0.00 0.00 0.00 0.00 0.00 0.00 0.00 0.00 0.00 0.00 0.00 0.00 0.00 0.04 0.10 0.01 0.00 0.00 0.00 0.00 0.00 0.00 0.00 0.00 0.06 0.02 0.00 0.00 0.00 0.00 0.00 0.00 0.00 0.00 0.00
0.00 0.00 0.00 0.00 0.00 0.00 0.00 0.00 0.00 0.00 0.00 0.00 0.00 0.00 0.00 0.00 0.00 0.00 0.00 0.00 0.00 0.00 0.00 0.00 0.00 0.00 0.00 0.00 0.00 0.00 0.00 0.00 0.00 0.00 0.01 0.01 0.00 0.00 0.00 0.00 0.00 0.00 0.00 0.00 0.00
0.00 0.00 0.00 0.00 0.00 0.00 0.00 0.00 0.00 0.00 0.00 0.00 0.00 0.00 0.00 0.00 0.00 0.00 0.00 0.00 0.00 0.00 0.00 0.00 0.00 0.01 0.01 0.00 0.00 0.00 0.00 0.00 0.00 0.00 0.00 0.00 0.00 0.00 0.00 0.00 0.00 0.00 0.00 0.00 0.00

GFSSW_prec_precacc12_111.txt.gz
Total_Precipitation_Accumulation
0.00 0.01 0.01 0.02 0.02 0.02 0.02 0.02 0.02 0.02 0.02 0.00 0.01 0.01 0.01 0.01 0.00 0.00 0.00 0.00 0.01 0.06 0.11 0.02 0.03 0.07 0.05 0.01 0.05 0.15 0.20 0.21 0.14 0.07 0.06 0.03 0.02 0.00 0.00 0.00 0.00 0.03 0.03 0.07 0.18
0.01 0.00 0.01 0.02 0.02 0.03 0.02 0.02 0.02 0.02 0.01 0.01 0.01 0.01 0.01 0.00 0.00 0.00 0.00 0.02 0.16 0.31 0.09 0.03 0.06 0.06 0.09 0.05 0.07 0.13 0.11 0.12 0.03 0.04 0.06 0.08 0.08 0.02 0.02 0.02 0.03 0.12 0.11 0.15 0.17
0.00 0.01 0.01 0.02 0.02 0.02 0.02 0.02 0.03 0.02 0.01 0.00 0.01 0.01 0.00 0.00 0.00 0.00 0.00 0.01 0.03 0.04 0.00 0.00 0.04 0.05 0.06 0.09 0.07 0.13 0.12 0.02 0.05 0.07 0.12 0.22 0.14 0.04 0.11 0.12 0.01 0.04 0.20 0.33 0.36
0.00 0.00 0.01 0.02 0.01 0.02 0.02 0.02 0.03 0.02 0.00 0.00 0.01 0.00 0.00 0.00 0.00 0.00 0.00 0.00 0.00 0.00 0.00 0.02 0.05 0.06 0.07 0.05 0.06 0.09 0.04 0.01 0.11 0.31 0.25 0.43 0.25 0.14 0.16 0.11 0.05 0.12 0.17 0.35 0.41
0.00 0.00 0.01 0.01 0.02 0.01 0.02 0.03 0.03 0.01 0.00 0.00 0.01 0.00 0.00 0.00 0.00 0.00 0.00 0.00 0.00 0.00 0.00 0.01 0.04 0.06 0.08 0.04 0.05 0.07 0.01 0.01 0.12 0.61 0.41 0.40 0.50 0.31 0.17 0.05 0.08 0.25 0.48 0.56 0.57
0.01 0.02 0.01 0.01 0.02 0.01 0.02 0.03 0.03 0.01 0.00 0.00 0.01 0.00 0.00 0.00 0.00 0.00 0.00 0.00 0.00 0.00 0.00 0.00 0.05 0.13 0.11 0.13 0.09 0.06 0.03 0.01 0.07 0.45 0.56 0.54 0.57 0.49 0.23 0.05 0.07 0.20 0.32 0.45 0.65
0.07 0.03 0.01 0.02 0.01 0.01 0.02 0.03 0.02 0.01 0.00 0.00 0.01 0.00 0.00 0.00 0.00 0.00 0.00 0.00 0.00 0.00 0.00 0.01 0.05 0.17 0.22 0.22 0.17 0.08 0.10 0.04 0.05 0.12 0.45 0.74 0.61 0.54 0.30 0.15 0.08 0.09 0.20 0.37 0.63
0.15 0.10 0.06 0.01 0.01 0.01 0.01 0.02 0.01 0.00 0.00 0.00 0.01 0.00 0.00 0.00 0.00 0.00 0.00 0.00 0.00 0.00 0.00 0.01 0.01 0.09 0.18 0.35 0.23 0.14 0.12 0.11 0.05 0.06 0.18 0.78 0.78 0.74 0.55 0.35 0.13 0.04 0.08 0.16 0.33
0.12 0.09 0.06 0.01 0.01 0.01 0.02 0.01 0.00 0.00 0.00 0.00 0.00 0.00 0.00 0.00 0.00 0.00 0.00 0.00 0.00 0.00 0.01 0.03 0.01 0.02 0.05 0.25 0.34 0.21 0.15 0.06 0.07 0.08 0.12 0.36 0.71 0.88 0.90 0.63 0.37 0.12 0.07 0.12 0.18
0.19 0.16 0.10 0.02 0.01 0.02 0.01 0.00 0.00 0.00 0.00 0.00 0.00 0.00 0.00 0.00 0.00 0.00 0.00 0.00 0.00 0.00 0.00 0.00 0.00 0.01 0.02 0.13 0.32 0.26 0.19 0.10 0.07 0.10 0.11 0.08 0.34 0.82 1.17 0.90 0.63 0.29 0.09 0.12 0.12
0.30 0.26 0.20 0.03 0.01 0.01 0.00 0.00 0.00 0.00 0.00 0.00 0.00 0.00 0.00 0.00 0.00 0.00 0.00 0.00 0.00 0.00 0.00 0.00 0.00 0.00 0.01 0.04 0.19 0.19 0.18 0.15 0.06 0.16 0.10 0.03 0.05 0.43 1.13 1.09 0.75 0.45 0.12 0.09 0.10
0.26 0.16 0.09 0.02 0.01 0.00 0.00 0.00 0.00 0.00 0.00 0.00 0.00 0.00 0.00 0.00 0.00 0.00 0.00 0.00 0.00 0.00 0.00 0.00 0.00 0.00 0.01 0.07 0.22 0.21 0.17 0.14 0.07 0.16 0.18 0.08 0.10 0.18 0.74 1.06 0.88 0.64 0.17 0.07 0.07
0.48 0.32 0.13 0.02 0.01 0.00 0.00 0.00 0.00 0.00 0.00 0.00 0.00 0.00 0.00 0.00 0.00 0.00 0.00 0.00 0.00 0.00 0.00 0.00 0.00 0.00 0.01 0.18 0.15 0.16 0.16 0.15 0.09 0.20 0.27 0.16 0.19 0.23 0.40 0.77 0.75 0.64 0.32 0.07 0.03
0.42 0.17 0.06 0.01 0.00 0.00 0.00 0.00 0.00 0.00 0.00 0.00 0.00 0.00 0.00 0.00 0.00 0.00 0.00 0.00 0.00 0.00 0.00 0.00 0.00 0.00 0.03 0.14 0.09 0.16 0.13 0.10 0.11 0.22 0.50 0.29 0.22 0.16 0.16 0.35 0.44 0.54 0.40 0.13 0.02
0.29 0.13 0.02 0.00 0.00 0.00 0.00 0.00 0.00 0.00 0.00 0.00 0.00 0.00 0.00 0.00 0.00 0.00 0.00 0.00 0.00 0.00 0.00 0.00 0.00 0.01 0.03 0.04 0.12 0.35 0.23 0.08 0.05 0.08 0.23 0.23 0.04 0.08 0.10 0.16 0.19 0.31 0.41 0.15 0.01
0.14 0.07 0.02 0.00 0.00 0.00 0.00 0.00 0.00 0.00 0.00 0.00 0.00 0.00 0.01 0.00 0.00 0.00 0.00 0.00 0.00 0.01 0.02 0.03 0.01 0.09 0.14 0.08 0.23 0.32 0.13 0.07 0.07 0.09 0.18 0.12 0.02 0.04 0.05 0.05 0.05 0.12 0.45 0.11 0.01
0.15 0.03 0.01 0.00 0.00 0.00 0.00 0.00 0.00 0.00 0.00 0.00 0.00 0.00 0.00 0.00 0.00 0.00 0.00 0.00 0.03 0.11 0.16 0.31 0.48 0.34 0.19 0.13 0.25 0.47 0.18 0.25 0.31 0.18 0.11 0.01 0.03 0.00 0.00 0.01 0.02 0.04 0.31 0.10 0.00
0.15 0.03 0.01 0.00 0.00 0.00 0.00 0.00 0.00 0.00 0.00 0.00 0.00 0.00 0.00 0.01 0.00 0.00 0.00 0.00 0.03 0.15 0.36 0.59 0.35 0.16 0.04 0.08 0.28 0.45 0.14 0.10 0.12 0.04 0.04 0.01 0.00 0.00 0.00 0.00 0.00 0.00 0.09 0.11 0.00
0.15 0.02 0.01 0.00 0.00 0.00 0.00 0.00 0.00 0.00 0.00 0.00 0.00 0.00 0.01 0.01 0.00 0.00 0.00 0.00 0.00 0.02 0.10 0.04 0.11 0.03 0.00 0.10 0.22 0.25 0.09 0.04 0.00 0.00 0.00 0.01 0.00 0.00 0.00 0.00 0.00 0.00 0.05 0.08 0.01
0.07 0.03 0.02 0.00 0.00 0.00 0.00 0.00 0.00 0.00 0.00 0.00 0.00 0.00 0.00 0.01 0.00 0.00 0.00 0.00 0.00 0.00 0.00 0.00 0.01 0.00 0.00 0.06 0.11 0.10 0.08 0.05 0.00 0.00 0.00 0.00 0.00 0.00 0.00 0.00 0.00 0.00 0.02 0.09 0.04
0.02 0.02 0.02 0.01 0.00 0.00 0.00 0.00 0.00 0.00 0.00 0.00 0.00 0.00 0.00 0.01 0.01 0.00 0.00 0.00 0.00 0.00 0.00 0.00 0.00 0.00 0.00 0.00 0.02 0.06 0.04 0.02 0.00 0.00 0.00 0.00 0.01 0.00 0.00 0.00 0.00 0.00 0.00 0.03 0.08
0.01 0.02 0.03 0.02 0.00 0.00 0.00 0.00 0.00 0.00 0.00 0.00 0.00 0.00 0.00 0.00 0.01 0.00 0.00 0.00 0.00 0.00 0.00 0.00 0.00 0.00 0.00 0.00 0.00 0.00 0.00 0.01 0.00 0.00 0.00 0.00 0.01 0.00 0.00 0.00 0.00 0.00 0.00 0.00 0.04
0.01 0.05 0.07 0.01 0.00 0.00 0.00 0.00 0.00 0.00 0.00 0.00 0.00 0.00 0.00 0.00 0.01 0.00 0.00 0.00 0.00 0.00 0.00 0.00 0.00 0.00 0.00 0.00 0.00 0.00 0.00 0.00 0.00 0.00 0.00 0.00 0.00 0.00 0.00 0.00 0.00 0.00 0.00 0.00 0.00
0.01 0.04 0.05 0.01 0.00 0.00 0.00 0.00 0.00 0.00 0.00 0.00 0.00 0.00 0.00 0.00 0.00 0.00 0.00 0.00 0.00 0.01 0.00 0.01 0.01 0.02 0.01 0.01 0.00 0.00 0.00 0.00 0.00 0.00 0.02 0.01 0.01 0.00 0.00 0.00 0.00 0.00 0.00 0.00 0.00
0.01 0.01 0.01 0.00 0.00 0.00 0.00 0.00 0.00 0.00 0.00 0.00 0.00 0.00 0.00 0.00 0.00 0.00 0.00 0.00 0.00 0.00 0.00 0.01 0.02 0.01 0.00 0.00 0.00 0.00 0.00 0.00 0.00 0.00 0.06 0.01 0.00 0.00 0.00 0.00 0.00 0.00 0.00 0.00 0.00
0.01 0.01 0.00 0.00 0.00 0.00 0.00 0.00 0.00 0.00 0.00 0.00 0.00 0.00 0.00 0.00 0.00 0.00 0.00 0.00 0.00 0.00 0.00 0.00 0.00 0.00 0.00 0.00 0.00 0.00 0.00 0.00 0.00 0.00 0.01 0.01 0.00 0.00 0.00 0.00 0.00 0.00 0.00 0.00 0.00
0.00 0.00 0.00 0.00 0.00 0.00 0.00 0.00 0.00 0.00 0.00 0.00 0.00 0.00 0.00 0.00 0.00 0.00 0.00 0.00 0.00 0.00 0.00 0.00 0.00 0.00 0.00 0.00 0.00 0.00 0.00 0.00 0.00 0.00 0.00 0.00 0.00 0.00 0.00 0.00 0.00 0.00 0.00 0.00 0.00

GFSSW_prec_precacc12_114.txt.gz
Total_Precipitation_Accumulation
0.00 0.01 0.01 0.01 0.02 0.02 0.03 0.02 0.02 0.02 0.02 0.00 0.01 0.01 0.01 0.01 0.00 0.00 0.00 0.00 0.00 0.05 0.08 0.00 0.00 0.00 0.00 0.00 0.01 0.09 0.13 0.03 0.06 0.06 0.06 0.03 0.02 0.00 0.00 0.00 0.00 0.03 0.03 0.07 0.19
0.01 0.00 0.01 0.01 0.02 0.03 0.02 0.02 0.02 0.03 0.02 0.01 0.01 0.01 0.01 0.00 0.00 0.00 0.00 0.00 0.11 0.29 0.09 0.01 0.00 0.00 0.01 0.03 0.03 0.09 0.08 0.01 0.00 0.03 0.06 0.07 0.08 0.02 0.02 0.02 0.02 0.09 0.10 0.15 0.19
0.01 0.01 0.01 0.01 0.02 0.02 0.02 0.02 0.03 0.03 0.01 0.00 0.00 0.01 0.00 0.00 0.00 0.00 0.00 0.01 0.04 0.04 0.00 0.00 0.00 0.00 0.01 0.08 0.05 0.08 0.11 0.01 0.00 0.05 0.12 0.20 0.14 0.03 0.12 0.13 0.01 0.02 0.14 0.31 0.43
0.04 0.02 0.01 0.01 0.01 0.02 0.02 0.02 0.03 0.02 0.00 0.00 0.01 0.00 0.00 0.00 0.00 0.00 0.00 0.00 0.00 0.00 0.00 0.00 0.01 0.02 0.01 0.04 0.06 0.06 0.04 0.00 0.02 0.17 0.21 0.39 0.24 0.13 0.16 0.11 0.01 0.08 0.17 0.34 0.42
0.05 0.07 0.05 0.03 0.02 0.01 0.02 0.02 0.03 0.02 0.00 0.00 0.01 0.00 0.00 0.00 0.00 0.00 0.00 0.00 0.00 0.00 0.00 0.00 0.00 0.03 0.01 0.01 0.05 0.06 0.01 0.01 0.02 0.26 0.32 0.37 0.49 0.30 0.17 0.05 0.03 0.12 0.35 0.42 0.44
0.09 0.14 0.16 0.10 0.03 0.02 0.02 0.02 0.04 0.02 0.00 0.00 0.01 0.00 0.00 0.00 0.00 0.00 0.00 0.00 0.00 0.00 0.00 0.00 0.02 0.09 0.06 0.04 0.08 0.05 0.03 0.01 0.04 0.18 0.34 0.41 0.55 0.48 0.22 0.05 0.05 0.13 0.23 0.34 0.54
0.19 0.16 0.08 0.05 0.02 0.01 0.02 0.03 0.03 0.01 0.00 0.00 0.01 0.00 0.00 0.00 0.00 0.00 0.00 0.00 0.00 0.00 0.00 0.00 0.01 0.09 0.07 0.10 0.16 0.08 0.09 0.04 0.02 0.09 0.31 0.47 0.50 0.54 0.28 0.12 0.08 0.10 0.16 0.30 0.53
0.27 0.29 0.19 0.17 0.05 0.01 0.01 0.02 0.02 0.00 0.00 0.01 0.01 0.00 0.00 0.00 0.00 0.00 0.00 0.00 0.00 0.00 0.00 0.01 0.02 0.09 0.08 0.17 0.21 0.12 0.10 0.08 0.03 0.05 0.14 0.51 0.57 0.72 0.52 0.29 0.14 0.05 0.05 0.11 0.27
0.16 0.23 0.18 0.14 0.03 0.01 0.02 0.01 0.01 0.00 0.00 0.00 0.00 0.00 0.00 0.00 0.00 0.00 0.00 0.00 0.00 0.00 0.01 0.02 0.02 0.03 0.06 0.10 0.23 0.20 0.14 0.05 0.06 0.07 0.11 0.24 0.57 0.79 0.87 0.53 0.33 0.11 0.05 0.07 0.15
0.21 0.23 0.19 0.14 0.04 0.01 0.01 0.00 0.00 0.00 0.00 0.00 0.00 0.00 0.00 0.00 0.00 0.00 0.00 0.00 0.00 0.00 0.00 0.00 0.00 0.01 0.02 0.06 0.18 0.26 0.20 0.10 0.07 0.11 0.13 0.08 0.28 0.71 1.12 0.80 0.51 0.21 0.09 0.08 0.10
0.33 0.34 0.25 0.12 0.02 0.01 0.00 0.00 0.00 0.00 0.00 0.00 0.00 0.00 0.00 0.00 0.00 0.00 0.00 0.00 0.00 0.00 0.00 0.00 0.00 0.00 0.01 0.02 0.08 0.16 0.18 0.13 0.06 0.14 0.12 0.05 0.05 0.39 1.09 0.99 0.57 0.29 0.11 0.08 0.09
0.31 0.24 0.14 0.07 0.02 0.01 0.00 0.00 0.00 0.00 0.00 0.00 0.00 0.00 0.00 0.00 0.00 0.00 0.00 0.00 0.00 0.00 0.00 0.00 0.00 0.00 0.00 0.04 0.10 0.15 0.18 0.12 0.07 0.15 0.18 0.07 0.09 0.16 0.72 1.00 0.76 0.45 0.13 0.07 0.06
0.55 0.43 0.25 0.04 0.01 0.00 0.00 0.00 0.00 0.00 0.00 0.00 0.00 0.00 0.00 0.00 0.00 0.00 0.00 0.00 0.00 0.00 0.00 0.00 0.00 0.00 0.01 0.15 0.09 0.13 0.18 0.15 0.10 0.23 0.28 0.16 0.20 0.20 0.37 0.74 0.73 0.56 0.24 0.07 0.02
0.58 0.35 0.13 0.03 0.00 0.00 0.00 0.00 0.00 0.00 0.00 0.00 0.00 0.00 0.00 0.00 0.00 0.00 0.00 0.00 0.00 0.00 0.00 0.00 0.00 0.00 0.03 0.14 0.15 0.18 0.16 0.14 0.17 0.57 0.61 0.31 0.30 0.32 0.16 0.35 0.44 0.54 0.37 0.14 0.02
0.38 0.17 0.03 0.01 0.00 0.00 0.00 0.00 0.00 0.00 0.00 0.00 0.00 0.00 0.00 0.00 0.00 0.00 0.00 0.00 0.00 0.00 0.00 0.00 0.00 0.01 0.02 0.07 0.22 0.36 0.39 0.15 0.18 0.41 0.47 0.28 0.11 0.28 0.13 0.16 0.21 0.33 0.43 0.20 0.03
0.35 0.20 0.02 0.00 0.00 0.00 0.00 0.00 0.00 0.00 0.00 0.00 0.00 0.00 0.00 0.00 0.00 0.00 0.00 0.00 0.00 0.00 0.01 0.00 0.00 0.05 0.12 0.08 0.28 0.32 0.20 0.12 0.21 0.36 0.36 0.17 0.03 0.14 0.07 0.06 0.09 0.13 0.51 0.23 0.05
0.21 0.09 0.01 0.00 0.00 0.00 0.00 0.00 0.00 0.00 0.00 0.00 0.00 0.00 0.00 0.00 0.00 0.00 0.00 0.00 0.03 0.06 0.10 0.15 0.29 0.27 0.19 0.14 0.23 0.39 0.09 0.11 0.20 0.20 0.29 0.05 0.01 0.01 0.00 0.02 0.04 0.05 0.46 0.31 0.08
0.31 0.16 0.02 0.00 0.00 0.00 0.00 0.00 0.00 0.00 0.00 0.00 0.00 0.00 0.00 0.00 0.00 0.00 0.00 0.00 0.02 0.12 0.28 0.36 0.23 0.10 0.10 0.16 0.29 0.37 0.08 0.04 0.08 0.09 0.11 0.02 0.01 0.00 0.00 0.00 0.00 0.03 0.34 0.39 0.12
0.33 0.06 0.01 0.00 0.00 0.00 0.00 0.00 0.00 0.00 0.00 0.00 0.00 0.00 0.00 0.00 0.00 0.00 0.00 0.00 0.00 0.02 0.06 0.04 0.07 0.05 0.13 0.18 0.23 0.22 0.10 0.05 0.00 0.00 0.02 0.03 0.00 0.00 0.00 0.00 0.00 0.04 0.33 0.41 0.13
0.24 0.05 0.03 0.01 0.01 0.00 0.00 0.00 0.00 0.00 0.00 0.00 0.00 0.00 0.00 0.00 0.00 0.00 0.00 0.00 0.00 0.00 0.00 0.00 0.00 0.00 0.03 0.08 0.11 0.09 0.12 0.06 0.00 0.00 0.03 0.02 0.02 0.01 0.00 0.00 0.00 0.05 0.33 0.42 0.13
0.16 0.05 0.05 0.04 0.01 0.00 0.00 0.00 0.00 0.00 0.00 0.00 0.00 0.00 0.00 0.00 0.00 0.00 0.00 0.00 0.00 0.00 0.00 0.00 0.00 0.00 0.00 0.01 0.09 0.10 0.04 0.01 0.00 0.00 0.00 0.01 0.08 0.00 0.00 0.00 0.00 0.02 0.23 0.41 0.16
0.07 0.06 0.08 0.03 0.02 0.00 0.00 0.00 0.00 0.00 0.00 0.00 0.00 0.00 0.00 0.00 0.00 0.00 0.00 0.00 0.00 0.00 0.00 0.00 0.00 0.00 0.00 0.00 0.01 0.00 0.00 0.00 0.00 0.00 0.00 0.01 0.07 0.00 0.00 0.00 0.00 0.00 0.08 0.31 0.23
0.10 0.13 0.16 0.04 0.00 0.00 0.00 0.00 0.00 0.00 0.00 0.00 0.00 0.00 0.00 0.00 0.00 0.00 0.00 0.00 0.00 0.00 0.00 0.01 0.00 0.00 0.00 0.00 0.00 0.00 0.00 0.00 0.00 0.00 0.00 0.01 0.03 0.00 0.00 0.00 0.00 0.00 0.00 0.08 0.13
0.05 0.11 0.14 0.05 0.00 0.00 0.00 0.00 0.00 0.00 0.00 0.00 0.00 0.00 0.00 0.00 0.00 0.00 0.00 0.00 0.00 0.00 0.01 0.00 0.01 0.01 0.01 0.01 0.00 0.00 0.00 0.00 0.00 0.00 0.00 0.00 0.00 0.00 0.00 0.00 0.00 0.00 0.00 0.00 0.01
0.02 0.01 0.04 0.02 0.00 0.00 0.00 0.00 0.00 0.00 0.00 0.00 0.00 0.00 0.00 0.00 0.00 0.00 0.00 0.00 0.00 0.00 0.00 0.00 0.01 0.01 0.00 0.00 0.00 0.00 0.00 0.00 0.00 0.00 0.00 0.00 0.00 0.00 0.00 0.00 0.00 0.00 0.00 0.00 0.00
0.01 0.01 0.01 0.00 0.00 0.00 0.00 0.00 0.00 0.00 0.00 0.00 0.00 0.00 0.00 0.00 0.00 0.00 0.00 0.00 0.00 0.00 0.00 0.00 0.00 0.00 0.00 0.00 0.00 0.00 0.00 0.00 0.00 0.00 0.00 0.00 0.00 0.00 0.00 0.00 0.00 0.00 0.00 0.00 0.00
0.00 0.00 0.00 0.00 0.00 0.00 0.00 0.00 0.00 0.00 0.00 0.00 0.00 0.00 0.00 0.00 0.00 0.00 0.00 0.00 0.00 0.00 0.00 0.00 0.00 0.00 0.00 0.00 0.00 0.00 0.00 0.00 0.00 0.00 0.00 0.00 0.00 0.00 0.00 0.00 0.00 0.00 0.00 0.00 0.00

GFSSW_prec_precacc12_117.txt.gz
Total_Precipitation_Accumulation
0.00 0.00 0.01 0.01 0.01 0.02 0.03 0.02 0.02 0.02 0.03 0.01 0.00 0.01 0.01 0.01 0.00 0.00 0.00 0.00 0.00 0.03 0.08 0.00 0.00 0.00 0.00 0.00 0.00 0.05 0.07 0.02 0.00 0.00 0.01 0.03 0.02 0.00 0.00 0.00 0.00 0.03 0.03 0.06 0.18
0.03 0.01 0.01 0.01 0.01 0.02 0.02 0.01 0.02 0.03 0.03 0.01 0.00 0.00 0.01 0.00 0.00 0.00 0.00 0.00 0.04 0.22 0.10 0.02 0.00 0.00 0.00 0.00 0.00 0.03 0.03 0.01 0.00 0.00 0.00 0.03 0.08 0.02 0.02 0.02 0.01 0.05 0.05 0.08 0.11
0.05 0.04 0.06 0.03 0.02 0.01 0.02 0.02 0.03 0.03 0.01 0.00 0.00 0.00 0.00 0.00 0.00 0.00 0.00 0.01 0.04 0.05 0.01 0.00 0.00 0.00 0.00 0.00 0.00 0.02 0.01 0.00 0.00 0.00 0.00 0.05 0.11 0.03 0.12 0.13 0.01 0.01 0.08 0.12 0.20
0.08 0.10 0.09 0.04 0.02 0.02 0.02 0.02 0.02 0.03 0.00 0.00 0.01 0.00 0.00 0.00 0.00 0.00 0.00 0.00 0.00 0.00 0.00 0.00 0.00 0.00 0.00 0.00 0.00 0.01 0.00 0.00 0.00 0.00 0.03 0.05 0.14 0.12 0.15 0.11 0.00 0.01 0.15 0.31 0.34
0.08 0.14 0.12 0.06 0.05 0.02 0.01 0.02 0.03 0.03 0.00 0.00 0.01 0.00 0.00 0.00 0.00 0.00 0.00 0.00 0.00 0.00 0.00 0.00 0.00 0.01 0.00 0.00 0.01 0.03 0.00 0.00 0.00 0.00 0.02 0.04 0.19 0.29 0.17 0.05 0.00 0.01 0.12 0.28 0.32
0.10 0.17 0.20 0.16 0.09 0.03 0.02 0.02 0.03 0.03 0.00 0.00 0.00 0.00 0.00 0.00 0.00 0.00 0.00 0.00 0.00 0.00 0.00 0.00 0.00 0.02 0.04 0.03 0.03 0.02 0.01 0.00 0.00 0.02 0.03 0.07 0.16 0.45 0.22 0.05 0.02 0.04 0.11 0.18 0.36
0.20 0.24 0.17 0.09 0.05 0.02 0.01 0.02 0.03 0.02 0.00 0.00 0.01 0.00 0.00 0.00 0.00 0.00 0.00 0.00 0.00 0.00 0.00 0.00 0.00 0.01 0.03 0.06 0.10 0.07 0.07 0.02 0.00 0.01 0.03 0.12 0.18 0.36 0.28 0.12 0.04 0.06 0.07 0.15 0.32
0.27 0.36 0.31 0.24 0.08 0.02 0.01 0.02 0.02 0.00 0.00 0.00 0.01 0.00 0.00 0.00 0.00 0.00 0.00 0.00 0.00 0.00 0.00 0.00 0.02 0.04 0.06 0.09 0.08 0.08 0.08 0.06 0.00 0.01 0.04 0.18 0.20 0.50 0.48 0.28 0.12 0.04 0.03 0.06 0.15
0.17 0.25 0.25 0.20 0.08 0.01 0.01 0.01 0.01 0.00 0.00 0.01 0.00 0.00 0.00 0.00 0.00 0.00 0.00 0.00 0.00 0.00 0.00 0.01 0.01 0.02 0.06 0.06 0.03 0.10 0.13 0.04 0.02 0.01 0.04 0.11 0.16 0.56 0.69 0.51 0.32 0.10 0.05 0.06 0.11
0.21 0.24 0.22 0.17 0.07 0.02 0.01 0.00 0.00 0.00 0.00 0.00 0.00 0.00 0.00 0.00 0.00 0.00 0.00 0.00 0.00 0.00 0.00 0.00 0.01 0.01 0.03 0.05 0.03 0.18 0.21 0.10 0.05 0.07 0.13 0.12 0.10 0.37 0.82 0.69 0.48 0.21 0.09 0.08 0.10
0.33 0.35 0.30 0.16 0.04 0.01 0.00 0.00 0.00 0.00 0.00 0.00 0.00 0.00 0.00 0.00 0.00 0.00 0.00 0.00 0.00 0.00 0.01 0.01 0.01 0.01 0.01 0.02 0.03 0.11 0.19 0.13 0.03 0.07 0.07 0.06 0.05 0.18 0.75 0.83 0.49 0.28 0.12 0.08 0.09
0.31 0.25 0.21 0.15 0.06 0.02 0.00 0.00 0.00 0.00 0.00 0.00 0.00 0.00 0.00 0.00 0.00 0.00 0.00 0.00 0.00 0.00 0.00 0.01 0.01 0.00 0.00 0.02 0.08 0.08 0.18 0.10 0.04 0.11 0.12 0.06 0.08 0.10 0.48 0.78 0.62 0.42 0.14 0.07 0.06
0.63 0.50 0.33 0.17 0.10 0.04 0.00 0.00 0.00 0.00 0.00 0.00 0.00 0.00 0.00 0.00 0.00 0.00 0.00 0.00 0.00 0.00 0.00 0.01 0.00 0.00 0.00 0.08 0.08 0.08 0.19 0.13 0.08 0.20 0.27 0.13 0.18 0.16 0.25 0.54 0.61 0.43 0.16 0.06 0.02
0.74 0.58 0.27 0.15 0.07 0.01 0.00 0.00 0.00 0.00 0.00 0.00 0.00 0.00 0.00 0.00 0.00 0.00 0.00 0.00 0.00 0.00 0.00 0.00 0.00 0.00 0.03 0.09 0.19 0.24 0.20 0.23 0.23 0.66 0.62 0.27 0.28 0.30 0.13 0.26 0.35 0.44 0.23 0.08 0.02
0.41 0.40 0.17 0.03 0.00 0.00 0.00 0.00 0.00 0.00 0.00 0.00 0.00 0.00 0.00 0.00 0.00 0.00 0.00 0.00 0.00 0.00 0.00 0.00 0.00 0.00 0.01 0.07 0.31 0.34 0.44 0.21 0.27 0.62 0.54 0.26 0.42 0.36 0.13 0.13 0.17 0.32 0.38 0.13 0.02
0.37 0.36 0.09 0.02 0.00 0.00 0.00 0.00 0.00 0.00 0.00 0.00 0.00 0.00 0.00 0.00 0.00 0.00 0.00 0.00 0.00 0.00 0.00 0.00 0.00 0.01 0.10 0.07 0.27 0.20 0.23 0.24 0.49 0.78 0.49 0.21 0.26 0.45 0.25 0.11 0.13 0.16 0.52 0.20 0.04
0.24 0.36 0.15 0.00 0.00 0.00 0.00 0.00 0.00 0.00 0.00 0.00 0.00 0.00 0.00 0.00 0.00 0.00 0.00 0.00 0.03 0.04 0.07 0.09 0.16 0.16 0.18 0.15 0.16 0.16 0.06 0.17 0.42 0.46 0.44 0.13 0.16 0.14 0.08 0.08 0.11 0.09 0.47 0.32 0.08
0.33 0.25 0.10 0.00 0.00 0.00 0.00 0.00 0.00 0.00 0.00 0.00 0.00 0.00 0.00 0.00 0.00 0.00 0.00 0.00 0.02 0.08 0.09 0.16 0.14 0.10 0.12 0.19 0.27 0.19 0.04 0.10 0.22 0.28 0.23 0.04 0.06 0.11 0.04 0.01 0.01 0.04 0.34 0.40 0.13
0.56 0.12 0.07 0.01 0.00 0.00 0.00 0.00 0.00 0.00 0.00 0.00 0.00 0.00 0.00 0.00 0.00 0.00 0.00 0.00 0.00 0.01 0.04 0.02 0.02 0.04 0.14 0.19 0.23 0.15 0.08 0.04 0.06 0.06 0.09 0.14 0.09 0.06 0.01 0.01 0.01 0.06 0.39 0.47 0.15
0.44 0.11 0.05 0.02 0.01 0.00 0.00 0.00 0.00 0.00 0.00 0.00 0.00 0.00 0.00 0.00 0.00 0.00 0.00 0.00 0.00 0.00 0.00 0.01 0.01 0.00 0.03 0.08 0.12 0.11 0.11 0.03 0.01 0.05 0.14 0.10 0.08 0.11 0.01 0.01 0.08 0.18 0.45 0.51 0.18
0.30 0.14 0.06 0.04 0.01 0.00 0.00 0.00 0.00 0.00 0.00 0.00 0.00 0.00 0.00 0.00 0.00 0.00 0.00 0.00 0.00 0.00 0.00 0.00 0.00 0.01 0.03 0.10 0.17 0.12 0.04 0.01 0.00 0.00 0.05 0.05 0.21 0.07 0.01 0.01 0.06 0.15 0.41 0.65 0.31
0.16 0.20 0.10 0.04 0.02 0.00 0.00 0.00 0.00 0.00 0.00 0.00 0.00 0.00 0.00 0.00 0.00 0.00 0.00 0.00 0.00 0.00 0.00 0.00 0.00 0.01 0.02 0.01 0.01 0.01 0.00 0.00 0.01 0.00 0.00 0.03 0.16 0.01 0.00 0.00 0.04 0.10 0.27 0.60 0.42
0.16 0.23 0.23 0.05 0.01 0.00 0.00 0.00 0.00 0.00 0.00 0.00 0.00 0.00 0.00 0.00 0.00 0.00 0.00 0.00 0.00 0.00 0.01 0.01 0.00 0.02 0.03 0.01 0.00 0.00 0.00 0.00 0.00 0.00 0.00 0.02 0.10 0.00 0.00 0.00 0.02 0.08 0.20 0.41 0.38
0.10 0.19 0.20 0.08 0.00 0.00 0.00 0.00 0.00 0.00 0.00 0.00 0.00 0.00 0.00 0.00 0.00 0.00 0.00 0.00 0.00 0.00 0.00 0.00 0.00 0.01 0.03 0.02 0.00 0.00 0.00 0.00 0.00 0.00 0.00 0.02 0.03 0.00 0.00 0.00 0.00 0.00 0.02 0.08 0.16
0.04 0.02 0.04 0.02 0.00 0.00 0.00 0.00 0.00 0.00 0.00 0.00 0.00 0.00 0.00 0.00 0.00 0.00 0.00 0.00 0.00 0.00 0.00 0.00 0.01 0.00 0.00 0.00 0.00 0.00 0.00 0.00 0.00 0.00 0.01 0.01 0.00 0.00 0.00 0.00 0.00 0.00 0.00 0.00 0.01
0.01 0.02 0.01 0.00 0.00 0.00 0.00 0.00 0.00 0.00 0.00 0.00 0.00 0.00 0.00 0.00 0.00 0.00 0.00 0.00 0.00 0.00 0.00 0.00 0.00 0.00 0.00 0.00 0.00 0.00 0.00 0.00 0.00 0.00 0.00 0.00 0.00 0.00 0.00 0.00 0.00 0.00 0.00 0.00 0.00
0.00 0.00 0.00 0.00 0.00 0.00 0.00 0.00 0.00 0.00 0.00 0.00 0.00 0.00 0.00 0.00 0.00 0.00 0.00 0.00 0.00 0.00 0.00 0.00 0.00 0.00 0.00 0.00 0.00 0.00 0.00 0.00 0.00 0.00 0.00 0.00 0.00 0.00 0.00 0.00 0.00 0.00 0.00 0.00 0.00

GFSSW_prec_precacc12_120.txt.gz
Total_Precipitation_Accumulation
0.03 0.02 0.01 0.01 0.01 0.01 0.02 0.02 0.01 0.02 0.03 0.02 0.00 0.00 0.00 0.01 0.00 0.00 0.00 0.00 0.00 0.01 0.03 0.00 0.00 0.00 0.00 0.00 0.00 0.03 0.03 0.01 0.00 0.00 0.00 0.00 0.00 0.00 0.00 0.00 0.00 0.03 0.03 0.03 0.05
0.06 0.05 0.04 0.02 0.01 0.01 0.01 0.01 0.02 0.03 0.03 0.01 0.00 0.00 0.00 0.00 0.00 0.00 0.00 0.00 0.01 0.09 0.07 0.02 0.00 0.00 0.00 0.00 0.00 0.01 0.01 0.00 0.00 0.00 0.00 0.00 0.01 0.01 0.02 0.02 0.00 0.02 0.03 0.07 0.04
0.07 0.08 0.10 0.08 0.03 0.02 0.02 0.01 0.02 0.03 0.02 0.00 0.00 0.00 0.00 0.00 0.00 0.00 0.00 0.01 0.04 0.04 0.02 0.01 0.00 0.00 0.00 0.00 0.00 0.01 0.00 0.00 0.00 0.00 0.00 0.01 0.01 0.01 0.08 0.10 0.00 0.00 0.03 0.09 0.10
0.08 0.12 0.13 0.11 0.04 0.01 0.01 0.01 0.02 0.02 0.01 0.00 0.00 0.00 0.00 0.00 0.00 0.00 0.00 0.00 0.00 0.00 0.00 0.00 0.00 0.00 0.00 0.00 0.00 0.00 0.00 0.00 0.00 0.00 0.00 0.01 0.02 0.03 0.07 0.08 0.00 0.00 0.08 0.16 0.24
0.08 0.14 0.14 0.12 0.08 0.04 0.02 0.01 0.02 0.03 0.01 0.00 0.00 0.00 0.00 0.00 0.00 0.00 0.00 0.00 0.00 0.00 0.00 0.00 0.00 0.00 0.00 0.00 0.00 0.00 0.00 0.00 0.00 0.00 0.00 0.01 0.05 0.04 0.03 0.02 0.00 0.00 0.04 0.13 0.22
0.10 0.17 0.20 0.17 0.10 0.05 0.03 0.01 0.02 0.03 0.01 0.00 0.00 0.00 0.00 0.00 0.00 0.00 0.00 0.00 0.00 0.00 0.00 0.00 0.00 0.01 0.02 0.01 0.02 0.00 0.01 0.00 0.00 0.00 0.00 0.01 0.01 0.06 0.01 0.03 0.02 0.03 0.02 0.07 0.20
0.20 0.24 0.19 0.19 0.16 0.07 0.03 0.02 0.02 0.02 0.01 0.00 0.00 0.00 0.00 0.00 0.00 0.00 0.00 0.00 0.00 0.00 0.00 0.00 0.00 0.00 0.01 0.01 0.03 0.06 0.06 0.01 0.00 0.00 0.00 0.04 0.03 0.01 0.00 0.06 0.04 0.04 0.01 0.04 0.10
0.27 0.36 0.32 0.29 0.20 0.17 0.07 0.03 0.02 0.01 0.00 0.00 0.01 0.00 0.00 0.00 0.00 0.00 0.00 0.00 0.00 0.00 0.00 0.00 0.02 0.03 0.03 0.03 0.02 0.04 0.04 0.01 0.00 0.00 0.00 0.09 0.05 0.00 0.01 0.09 0.08 0.02 0.00 0.02 0.06
0.16 0.25 0.26 0.23 0.16 0.09 0.06 0.03 0.02 0.00 0.00 0.01 0.00 0.00 0.00 0.00 0.00 0.00 0.00 0.00 0.00 0.00 0.00 0.01 0.01 0.01 0.05 0.06 0.03 0.02 0.02 0.01 0.00 0.00 0.01 0.07 0.05 0.00 0.02 0.18 0.24 0.06 0.01 0.01 0.06
0.19 0.24 0.22 0.20 0.15 0.07 0.06 0.04 0.01 0.00 0.00 0.00 0.00 0.00 0.00 0.00 0.00 0.00 0.00 0.00 0.00 0.00 0.00 0.00 0.00 0.02 0.03 0.06 0.04 0.02 0.07 0.07 0.03 0.04 0.10 0.12 0.04 0.02 0.08 0.34 0.42 0.16 0.05 0.02 0.05
0.26 0.35 0.30 0.17 0.11 0.06 0.04 0.03 0.00 0.00 0.01 0.01 0.00 0.00 0.00 0.00 0.00 0.00 0.00 0.00 0.00 0.00 0.01 0.02 0.03 0.02 0.01 0.02 0.02 0.04 0.06 0.07 0.02 0.02 0.04 0.05 0.03 0.03 0.15 0.40 0.39 0.23 0.10 0.04 0.03
0.22 0.25 0.21 0.21 0.18 0.11 0.03 0.01 0.00 0.00 0.00 0.00 0.00 0.00 0.00 0.00 0.00 0.00 0.00 0.00 0.00 0.00 0.01 0.02 0.01 0.00 0.00 0.00 0.03 0.06 0.09 0.06 0.02 0.06 0.06 0.02 0.04 0.02 0.11 0.31 0.45 0.37 0.14 0.06 0.04
0.43 0.72 0.38 0.21 0.21 0.18 0.09 0.03 0.00 0.00 0.00 0.00 0.00 0.00 0.00 0.00 0.00 0.00 0.00 0.00 0.00 0.00 0.00 0.01 0.00 0.00 0.00 0.01 0.04 0.07 0.14 0.09 0.05 0.16 0.22 0.07 0.13 0.10 0.09 0.25 0.35 0.39 0.17 0.06 0.02
0.54 0.87 0.48 0.19 0.22 0.11 0.07 0.01 0.00 0.00 0.01 0.00 0.00 0.00 0.00 0.00 0.00 0.00 0.00 0.00 0.00 0.00 0.00 0.00 0.00 0.00 0.02 0.06 0.20 0.25 0.20 0.20 0.21 0.70 0.60 0.16 0.30 0.28 0.09 0.16 0.20 0.25 0.20 0.09 0.03
0.20 0.44 0.48 0.24 0.08 0.06 0.01 0.00 0.00 0.00 0.01 0.00 0.00 0.00 0.00 0.00 0.00 0.00 0.00 0.00 0.00 0.00 0.00 0.00 0.00 0.00 0.01 0.06 0.31 0.28 0.45 0.24 0.30 0.67 0.57 0.24 0.60 0.41 0.11 0.12 0.12 0.20 0.26 0.14 0.03
0.31 0.37 0.28 0.15 0.01 0.00 0.00 0.00 0.00 0.00 0.00 0.00 0.00 0.00 0.00 0.00 0.00 0.00 0.00 0.00 0.00 0.00 0.00 0.00 0.00 0.01 0.08 0.05 0.18 0.11 0.25 0.32 0.55 0.81 0.55 0.20 0.38 0.68 0.35 0.16 0.14 0.16 0.38 0.24 0.07
0.19 0.43 0.31 0.04 0.01 0.00 0.00 0.00 0.00 0.01 0.00 0.00 0.00 0.00 0.00 0.00 0.00 0.00 0.00 0.00 0.01 0.02 0.04 0.04 0.09 0.09 0.09 0.06 0.02 0.02 0.16 0.38 0.57 0.47 0.51 0.45 0.41 0.37 0.26 0.34 0.43 0.16 0.41 0.26 0.08
0.31 0.29 0.30 0.05 0.00 0.00 0.00 0.00 0.00 0.00 0.00 0.00 0.00 0.00 0.00 0.00 0.00 0.00 0.00 0.00 0.00 0.01 0.04 0.03 0.08 0.07 0.12 0.17 0.17 0.02 0.16 0.32 0.36 0.36 0.26 0.13 0.19 0.40 0.30 0.19 0.15 0.07 0.36 0.37 0.13
0.54 0.13 0.11 0.03 0.00 0.00 0.00 0.00 0.00 0.00 0.00 0.00 0.00 0.00 0.00 0.00 0.00 0.00 0.00 0.00 0.00 0.00 0.02 0.03 0.02 0.03 0.14 0.19 0.18 0.05 0.12 0.18 0.21 0.12 0.13 0.27 0.25 0.33 0.41 0.47 0.20 0.19 0.43 0.47 0.15
0.52 0.18 0.07 0.05 0.02 0.00 0.00 0.00 0.00 0.00 0.00 0.00 0.00 0.00 0.00 0.00 0.00 0.00 0.00 0.00 0.00 0.00 0.00 0.01 0.02 0.01 0.03 0.09 0.08 0.06 0.10 0.07 0.11 0.19 0.29 0.24 0.21 0.47 0.34 0.31 0.31 0.28 0.48 0.51 0.19
0.38 0.22 0.10 0.04 0.01 0.00 0.00 0.00 0.00 0.00 0.00 0.00 0.00 0.00 0.00 0.00 0.00 0.00 0.00 0.00 0.00 0.00 0.00 0.00 0.03 0.03 0.05 0.14 0.18 0.09 0.02 0.01 0.02 0.02 0.12 0.11 0.44 0.47 0.26 0.24 0.26 0.30 0.50 0.72 0.40
0.22 0.26 0.12 0.04 0.03 0.01 0.00 0.00 0.00 0.00 0.00 0.00 0.00 0.00 0.00 0.00 0.00 0.00 0.00 0.00 0.00 0.00 0.00 0.00 0.01 0.03 0.03 0.01 0.01 0.01 0.01 0.00 0.03 0.02 0.02 0.06 0.38 0.15 0.18 0.27 0.28 0.27 0.43 0.82 0.54
0.18 0.28 0.25 0.05 0.02 0.00 0.00 0.00 0.00 0.00 0.00 0.00 0.00 0.00 0.00 0.00 0.00 0.00 0.00 0.00 0.00 0.00 0.02 0.01 0.01 0.04 0.04 0.02 0.01 0.00 0.00 0.00 0.00 0.00 0.01 0.06 0.26 0.02 0.03 0.07 0.18 0.25 0.43 0.74 0.74
0.11 0.23 0.25 0.10 0.00 0.00 0.00 0.00 0.00 0.00 0.00 0.00 0.00 0.00 0.00 0.00 0.00 0.00 0.00 0.00 0.00 0.00 0.00 0.00 0.00 0.01 0.05 0.07 0.02 0.00 0.00 0.00 0.00 0.00 0.02 0.07 0.06 0.00 0.00 0.00 0.01 0.03 0.18 0.43 0.47
0.05 0.03 0.05 0.03 0.01 0.00 0.00 0.00 0.00 0.00 0.00 0.00 0.00 0.00 0.00 0.00 0.00 0.00 0.00 0.00 0.00 0.00 0.00 0.00 0.00 0.00 0.00 0.00 0.00 0.00 0.00 0.00 0.00 0.00 0.02 0.03 0.00 0.00 0.00 0.00 0.00 0.00 0.02 0.07 0.14
0.01 0.01 0.01 0.00 0.00 0.00 0.00 0.00 0.00 0.00 0.00 0.00 0.00 0.00 0.00 0.00 0.00 0.00 0.00 0.00 0.00 0.00 0.00 0.00 0.00 0.00 0.00 0.00 0.00 0.00 0.00 0.00 0.00 0.02 0.01 0.00 0.00 0.00 0.00 0.00 0.00 0.00 0.00 0.00 0.01
0.00 0.00 0.00 0.00 0.00 0.00 0.00 0.00 0.00 0.00 0.00 0.00 0.00 0.00 0.00 0.00 0.00 0.00 0.00 0.00 0.00 0.00 0.00 0.00 0.00 0.00 0.00 0.00 0.00 0.00 0.00 0.00 0.00 0.01 0.00 0.00 0.00 0.00 0.00 0.00 0.00 0.00 0.00 0.00 0.00

GFSSW_prec_precacc12_123.txt.gz
Total_Precipitation_Accumulation
0.03 0.04 0.04 0.02 0.00 0.01 0.01 0.01 0.01 0.01 0.02 0.02 0.00 0.00 0.00 0.00 0.00 0.00 0.00 0.00 0.00 0.00 0.00 0.00 0.00 0.00 0.00 0.00 0.00 0.01 0.01 0.00 0.00 0.00 0.00 0.00 0.00 0.00 0.00 0.00 0.00 0.01 0.00 0.00 0.01
0.07 0.07 0.08 0.09 0.06 0.01 0.01 0.01 0.01 0.02 0.02 0.01 0.00 0.00 0.00 0.00 0.00 0.00 0.00 0.00 0.00 0.03 0.04 0.01 0.00 0.00 0.00 0.00 0.00 0.00 0.00 0.00 0.00 0.00 0.00 0.00 0.00 0.00 0.00 0.00 0.00 0.01 0.00 0.00 0.03
0.08 0.09 0.11 0.11 0.08 0.06 0.02 0.01 0.01 0.02 0.01 0.00 0.00 0.00 0.00 0.00 0.00 0.00 0.00 0.01 0.02 0.03 0.02 0.01 0.00 0.00 0.00 0.00 0.00 0.00 0.00 0.00 0.00 0.00 0.00 0.00 0.00 0.00 0.01 0.01 0.00 0.00 0.00 0.01 0.08
0.09 0.12 0.14 0.11 0.11 0.10 0.05 0.02 0.01 0.02 0.01 0.00 0.00 0.00 0.00 0.00 0.00 0.00 0.00 0.00 0.00 0.00 0.01 0.00 0.00 0.00 0.00 0.00 0.00 0.00 0.00 0.00 0.00 0.00 0.00 0.00 0.01 0.00 0.01 0.00 0.00 0.00 0.00 0.00 0.06
0.08 0.14 0.14 0.12 0.09 0.09 0.07 0.03 0.02 0.03 0.01 0.00 0.00 0.00 0.00 0.00 0.00 0.00 0.00 0.00 0.00 0.00 0.00 0.00 0.00 0.00 0.00 0.00 0.00 0.00 0.00 0.00 0.00 0.00 0.00 0.00 0.01 0.01 0.00 0.00 0.00 0.00 0.00 0.00 0.01
0.09 0.16 0.20 0.17 0.11 0.07 0.05 0.04 0.03 0.03 0.02 0.00 0.00 0.00 0.00 0.00 0.00 0.00 0.00 0.00 0.00 0.00 0.00 0.00 0.00 0.00 0.01 0.00 0.00 0.00 0.00 0.00 0.00 0.00 0.00 0.01 0.00 0.01 0.00 0.01 0.01 0.03 0.00 0.00 0.00
0.14 0.22 0.18 0.19 0.24 0.23 0.07 0.03 0.03 0.02 0.02 0.00 0.00 0.00 0.00 0.00 0.00 0.00 0.00 0.00 0.00 0.00 0.00 0.00 0.00 0.00 0.00 0.00 0.00 0.00 0.01 0.00 0.00 0.00 0.00 0.02 0.02 0.00 0.00 0.00 0.01 0.03 0.00 0.00 0.00
0.14 0.28 0.28 0.29 0.23 0.30 0.22 0.14 0.06 0.04 0.02 0.01 0.01 0.00 0.00 0.00 0.00 0.00 0.00 0.00 0.00 0.00 0.00 0.00 0.02 0.02 0.02 0.02 0.01 0.01 0.01 0.00 0.00 0.00 0.00 0.04 0.02 0.00 0.00 0.00 0.00 0.01 0.00 0.00 0.00
0.07 0.17 0.21 0.23 0.19 0.20 0.17 0.09 0.08 0.05 0.02 0.01 0.01 0.01 0.00 0.00 0.00 0.00 0.00 0.00 0.00 0.00 0.00 0.00 0.01 0.01 0.04 0.05 0.03 0.01 0.02 0.00 0.00 0.00 0.01 0.06 0.02 0.00 0.00 0.00 0.00 0.01 0.00 0.00 0.00
0.04 0.09 0.14 0.19 0.18 0.18 0.11 0.12 0.11 0.06 0.02 0.01 0.00 0.00 0.00 0.00 0.00 0.00 0.00 0.00 0.00 0.00 0.00 0.00 0.00 0.02 0.03 0.06 0.04 0.01 0.04 0.02 0.02 0.03 0.10 0.12 0.04 0.02 0.01 0.01 0.01 0.00 0.01 0.00 0.00
0.05 0.11 0.10 0.15 0.13 0.15 0.11 0.09 0.06 0.03 0.01 0.01 0.00 0.00 0.00 0.00 0.00 0.00 0.00 0.00 0.00 0.00 0.01 0.02 0.03 0.02 0.01 0.02 0.01 0.02 0.03 0.01 0.00 0.00 0.03 0.04 0.03 0.03 0.04 0.05 0.01 0.02 0.03 0.01 0.00
0.08 0.11 0.13 0.21 0.20 0.13 0.05 0.03 0.01 0.00 0.00 0.00 0.00 0.00 0.00 0.00 0.00 0.00 0.00 0.00 0.00 0.00 0.01 0.02 0.02 0.00 0.00 0.00 0.00 0.01 0.03 0.01 0.01 0.01 0.04 0.01 0.00 0.00 0.03 0.02 0.06 0.06 0.05 0.01 0.00
0.20 0.49 0.78 0.24 0.24 0.23 0.13 0.08 0.02 0.00 0.00 0.00 0.00 0.00 0.00 0.00 0.00 0.00 0.00 0.00 0.00 0.00 0.00 0.01 0.00 0.00 0.00 0.00 0.01 0.02 0.05 0.02 0.03 0.07 0.08 0.03 0.05 0.05 0.01 0.00 0.06 0.13 0.05 0.01 0.01
0.38 0.81 0.99 0.25 0.26 0.18 0.18 0.15 0.09 0.00 0.01 0.00 0.00 0.00 0.00 0.00 0.00 0.00 0.00 0.00 0.00 0.00 0.00 0.00 0.00 0.00 0.00 0.01 0.17 0.18 0.10 0.16 0.18 0.61 0.32 0.08 0.24 0.21 0.02 0.01 0.01 0.03 0.04 0.05 0.05
0.17 0.38 0.61 0.41 0.16 0.17 0.07 0.03 0.01 0.00 0.02 0.01 0.00 0.00 0.00 0.00 0.00 0.00 0.00 0.00 0.00 0.00 0.00 0.00 0.00 0.00 0.00 0.04 0.27 0.22 0.26 0.19 0.31 0.70 0.47 0.13 0.62 0.35 0.05 0.01 0.02 0.02 0.04 0.07 0.03
0.28 0.32 0.30 0.33 0.07 0.04 0.01 0.00 0.00 0.01 0.03 0.00 0.00 0.00 0.00 0.00 0.00 0.00 0.00 0.00 0.00 0.00 0.00 0.00 0.00 0.00 0.01 0.01 0.11 0.09 0.24 0.29 0.59 0.86 0.48 0.16 0.44 0.68 0.34 0.13 0.12 0.06 0.11 0.18 0.10
0.13 0.43 0.35 0.11 0.04 0.00 0.00 0.00 0.00 0.03 0.01 0.00 0.00 0.00 0.00 0.00 0.00 0.00 0.00 0.00 0.00 0.00 0.00 0.00 0.00 0.00 0.02 0.03 0.01 0.02 0.24 0.43 0.60 0.48 0.47 0.54 0.51 0.45 0.41 0.41 0.46 0.17 0.24 0.31 0.14
0.22 0.29 0.35 0.10 0.01 0.00 0.00 0.00 0.02 0.01 0.00 0.00 0.00 0.00 0.00 0.00 0.00 0.00 0.00 0.00 0.00 0.00 0.01 0.01 0.05 0.05 0.10 0.12 0.03 0.01 0.28 0.44 0.43 0.44 0.32 0.29 0.36 0.57 0.48 0.39 0.42 0.20 0.39 0.33 0.15
0.43 0.11 0.13 0.07 0.01 0.00 0.00 0.01 0.02 0.00 0.00 0.00 0.00 0.00 0.00 0.00 0.00 0.00 0.00 0.00 0.00 0.00 0.01 0.03 0.02 0.03 0.14 0.09 0.02 0.03 0.21 0.27 0.27 0.16 0.20 0.36 0.32 0.46 0.63 0.76 0.49 0.30 0.39 0.39 0.14
0.47 0.16 0.08 0.08 0.03 0.00 0.00 0.01 0.00 0.00 0.00 0.00 0.00 0.00 0.00 0.00 0.00 0.00 0.00 0.00 0.00 0.00 0.00 0.02 0.03 0.01 0.03 0.02 0.02 0.09 0.19 0.13 0.18 0.28 0.36 0.26 0.33 0.77 0.65 0.73 0.72 0.43 0.51 0.43 0.16
0.36 0.25 0.13 0.03 0.01 0.00 0.00 0.00 0.00 0.00 0.00 0.00 0.00 0.00 0.00 0.00 0.00 0.00 0.00 0.00 0.00 0.00 0.00 0.00 0.05 0.04 0.06 0.14 0.18 0.10 0.07 0.03 0.04 0.05 0.16 0.16 0.67 0.95 0.74 0.68 0.57 0.48 0.58 0.79 0.38
0.23 0.31 0.14 0.02 0.03 0.01 0.00 0.00 0.00 0.00 0.00 0.00 0.00 0.00 0.00 0.00 0.00 0.00 0.00 0.00 0.00 0.00 0.01 0.01 0.02 0.04 0.04 0.01 0.01 0.01 0.01 0.00 0.04 0.04 0.04 0.12 0.59 0.42 0.50 0.64 0.62 0.64 0.90 1.18 0.62
0.18 0.29 0.21 0.04 0.02 0.00 0.00 0.00 0.00 0.00 0.00 0.00 0.00 0.00 0.00 0.00 0.00 0.00 0.00 0.00 0.00 0.00 0.02 0.01 0.02 0.04 0.04 0.03 0.01 0.00 0.00 0.00 0.00 0.01 0.02 0.14 0.49 0.16 0.17 0.24 0.49 0.72 0.81 0.98 1.15
0.10 0.22 0.21 0.08 0.00 0.00 0.00 0.00 0.00 0.00 0.00 0.00 0.00 0.00 0.00 0.00 0.00 0.00 0.00 0.00 0.00 0.00 0.00 0.00 0.00 0.02 0.10 0.15 0.04 0.03 0.00 0.00 0.00 0.00 0.03 0.16 0.12 0.01 0.02 0.07 0.17 0.31 0.56 1.02 1.08
0.04 0.02 0.04 0.03 0.01 0.00 0.00 0.00 0.00 0.00 0.00 0.00 0.00 0.00 0.00 0.00 0.00 0.00 0.00 0.00 0.00 0.00 0.00 0.00 0.00 0.00 0.00 0.00 0.00 0.00 0.00 0.00 0.00 0.00 0.04 0.06 0.01 0.00 0.00 0.01 0.06 0.15 0.39 0.58 0.49
0.01 0.01 0.01 0.00 0.00 0.00 0.00 0.00 0.00 0.00 0.00 0.00 0.00 0.00 0.00 0.00 0.00 0.00 0.00 0.00 0.00 0.00 0.00 0.00 0.00 0.00 0.00 0.00 0.00 0.00 0.00 0.00 0.01 0.02 0.01 0.00 0.00 0.00 0.00 0.00 0.01 0.04 0.10 0.24 0.34
0.00 0.00 0.00 0.00 0.00 0.00 0.00 0.00 0.00 0.00 0.00 0.00 0.00 0.00 0.00 0.00 0.00 0.00 0.00 0.00 0.00 0.00 0.00 0.00 0.00 0.00 0.00 0.00 0.00 0.00 0.00 0.00 0.01 0.01 0.00 0.00 0.00 0.00 0.00 0.00 0.00 0.01 0.01 0.03 0.08

GFSSW_prec_precacc12_126.txt.gz
Total_Precipitation_Accumulation
0.03 0.04 0.05 0.05 0.06 0.04 0.00 0.00 0.00 0.01 0.01 0.02 0.00 0.00 0.00 0.00 0.00 0.00 0.00 0.00 0.00 0.00 0.00 0.00 0.00 0.00 0.00 0.00 0.00 0.00 0.00 0.00 0.00 0.00 0.00 0.00 0.00 0.00 0.00 0.00 0.00 0.00 0.00 0.00 0.00
0.07 0.08 0.09 0.10 0.13 0.19 0.11 0.01 0.00 0.01 0.01 0.01 0.00 0.00 0.00 0.00 0.00 0.00 0.00 0.00 0.00 0.01 0.01 0.01 0.00 0.00 0.00 0.00 0.00 0.00 0.00 0.00 0.00 0.00 0.00 0.00 0.00 0.00 0.00 0.00 0.00 0.00 0.00 0.00 0.00
0.07 0.08 0.11 0.11 0.08 0.12 0.14 0.08 0.01 0.01 0.01 0.00 0.00 0.00 0.00 0.00 0.00 0.00 0.00 0.00 0.01 0.02 0.01 0.01 0.00 0.00 0.00 0.00 0.00 0.00 0.00 0.00 0.00 0.00 0.00 0.00 0.00 0.00 0.00 0.00 0.00 0.00 0.00 0.00 0.00
0.06 0.11 0.13 0.12 0.11 0.10 0.10 0.09 0.04 0.03 0.01 0.00 0.00 0.00 0.00 0.00 0.00 0.00 0.00 0.00 0.00 0.00 0.01 0.00 0.00 0.00 0.00 0.00 0.00 0.00 0.00 0.00 0.00 0.00 0.00 0.00 0.00 0.00 0.00 0.00 0.00 0.00 0.00 0.00 0.00
0.04 0.09 0.11 0.10 0.09 0.09 0.12 0.15 0.08 0.03 0.02 0.00 0.00 0.00 0.00 0.00 0.00 0.00 0.00 0.00 0.00 0.00 0.00 0.00 0.00 0.00 0.00 0.00 0.00 0.00 0.00 0.00 0.00 0.00 0.00 0.00 0.00 0.00 0.00 0.00 0.00 0.00 0.00 0.00 0.00
0.02 0.06 0.07 0.09 0.10 0.07 0.07 0.06 0.04 0.04 0.03 0.01 0.00 0.00 0.00 0.00 0.00 0.00 0.00 0.00 0.00 0.00 0.00 0.00 0.00 0.00 0.00 0.00 0.00 0.00 0.00 0.00 0.00 0.00 0.00 0.00 0.00 0.00 0.00 0.00 0.00 0.00 0.00 0.00 0.00
0.02 0.10 0.13 0.15 0.23 0.31 0.17 0.05 0.03 0.02 0.04 0.01 0.00 0.00 0.00 0.00 0.00 0.00 0.00 0.00 0.00 0.00 0.00 0.00 0.00 0.00 0.00 0.00 0.00 0.00 0.00 0.00 0.00 0.00 0.00 0.01 0.01 0.00 0.00 0.00 0.00 0.00 0.00 0.00 0.00
0.02 0.11 0.16 0.13 0.19 0.36 0.37 0.30 0.12 0.06 0.08 0.03 0.01 0.00 0.00 0.00 0.00 0.00 0.00 0.00 0.00 0.00 0.00 0.00 0.00 0.00 0.01 0.01 0.00 0.01 0.01 0.00 0.00 0.00 0.00 0.02 0.02 0.00 0.00 0.00 0.00 0.00 0.00 0.00 0.00
0.03 0.04 0.10 0.11 0.16 0.21 0.26 0.19 0.11 0.11 0.12 0.04 0.01 0.01 0.00 0.00 0.00 0.00 0.00 0.00 0.00 0.00 0.00 0.00 0.00 0.00 0.01 0.04 0.02 0.01 0.01 0.00 0.00 0.00 0.00 0.04 0.02 0.00 0.00 0.00 0.00 0.00 0.00 0.00 0.00
0.02 0.02 0.07 0.11 0.16 0.23 0.20 0.17 0.18 0.15 0.08 0.01 0.00 0.00 0.00 0.00 0.00 0.00 0.00 0.00 0.00 0.00 0.00 0.00 0.00 0.01 0.02 0.05 0.03 0.01 0.02 0.01 0.01 0.01 0.06 0.09 0.03 0.00 0.00 0.00 0.00 0.00 0.00 0.00 0.00
0.02 0.04 0.05 0.06 0.12 0.18 0.21 0.23 0.13 0.06 0.05 0.03 0.00 0.00 0.00 0.00 0.00 0.00 0.00 0.00 0.00 0.00 0.01 0.02 0.03 0.02 0.01 0.01 0.01 0.01 0.02 0.01 0.00 0.00 0.01 0.02 0.03 0.01 0.02 0.04 0.01 0.01 0.02 0.00 0.00
0.05 0.04 0.08 0.17 0.23 0.16 0.13 0.04 0.04 0.00 0.00 0.00 0.00 0.00 0.00 0.00 0.00 0.00 0.00 0.00 0.00 0.00 0.01 0.02 0.01 0.00 0.00 0.00 0.00 0.00 0.01 0.00 0.00 0.00 0.02 0.00 0.00 0.00 0.02 0.02 0.06 0.05 0.03 0.00 0.00
0.15 0.40 0.77 0.29 0.28 0.24 0.14 0.09 0.02 0.00 0.00 0.00 0.00 0.00 0.00 0.00 0.00 0.00 0.00 0.00 0.00 0.00 0.00 0.01 0.00 0.00 0.00 0.00 0.00 0.01 0.02 0.00 0.01 0.03 0.04 0.02 0.02 0.00 0.00 0.00 0.05 0.11 0.04 0.01 0.01
0.24 0.67 1.44 0.43 0.31 0.21 0.20 0.18 0.10 0.01 0.01 0.00 0.00 0.00 0.00 0.00 0.00 0.00 0.00 0.00 0.00 0.00 0.00 0.00 0.00 0.00 0.00 0.00 0.08 0.10 0.05 0.12 0.11 0.26 0.15 0.05 0.15 0.02 0.00 0.00 0.00 0.03 0.03 0.03 0.05
0.08 0.38 0.66 0.52 0.21 0.30 0.20 0.14 0.07 0.03 0.05 0.01 0.00 0.00 0.00 0.00 0.00 0.00 0.00 0.00 0.00 0.00 0.00 0.00 0.00 0.00 0.00 0.00 0.15 0.11 0.07 0.11 0.20 0.41 0.26 0.07 0.56 0.15 0.02 0.01 0.00 0.01 0.01 0.02 0.01
0.07 0.21 0.33 0.44 0.09 0.11 0.08 0.03 0.00 0.02 0.10 0.03 0.00 0.00 0.00 0.00 0.00 0.00 0.00 0.00 0.00 0.00 0.00 0.00 0.00 0.00 0.00 0.00 0.04 0.05 0.09 0.22 0.43 0.62 0.30 0.11 0.43 0.59 0.32 0.13 0.09 0.05 0.05 0.07 0.06
0.08 0.39 0.39 0.23 0.11 0.00 0.00 0.00 0.01 0.09 0.04 0.00 0.00 0.00 0.00 0.00 0.00 0.00 0.00 0.00 0.00 0.00 0.00 0.00 0.00 0.00 0.01 0.01 0.00 0.01 0.22 0.42 0.58 0.39 0.27 0.52 0.60 0.46 0.44 0.43 0.44 0.16 0.09 0.09 0.07
0.10 0.23 0.38 0.16 0.02 0.00 0.00 0.00 0.04 0.02 0.00 0.00 0.00 0.00 0.00 0.00 0.00 0.00 0.00 0.00 0.00 0.00 0.00 0.01 0.05 0.03 0.03 0.04 0.02 0.01 0.30 0.45 0.41 0.41 0.26 0.30 0.42 0.63 0.63 0.50 0.46 0.19 0.15 0.04 0.04
0.25 0.10 0.16 0.12 0.01 0.00 0.00 0.02 0.02 0.00 0.00 0.00 0.00 0.00 0.00 0.00 0.00 0.00 0.00 0.00 0.00 0.00 0.02 0.03 0.02 0.00 0.01 0.01 0.02 0.03 0.19 0.27 0.32 0.20 0.23 0.34 0.32 0.52 0.76 0.86 0.63 0.35 0.18 0.10 0.03
0.31 0.16 0.14 0.08 0.02 0.00 0.00 0.01 0.00 0.00 0.00 0.00 0.00 0.00 0.00 0.00 0.00 0.00 0.00 0.00 0.00 0.00 0.00 0.02 0.05 0.01 0.01 0.01 0.04 0.11 0.12 0.13 0.24 0.32 0.36 0.25 0.36 0.88 0.77 0.88 0.87 0.48 0.26 0.15 0.07
0.23 0.23 0.12 0.01 0.00 0.00 0.00 0.00 0.00 0.00 0.00 0.00 0.00 0.00 0.00 0.00 0.00 0.00 0.00 0.00 0.00 0.00 0.00 0.01 0.07 0.05 0.07 0.14 0.14 0.07 0.08 0.04 0.05 0.06 0.19 0.18 0.70 1.15 0.99 0.97 0.79 0.59 0.40 0.44 0.31
0.17 0.28 0.10 0.00 0.01 0.01 0.00 0.00 0.00 0.00 0.00 0.00 0.00 0.00 0.00 0.00 0.00 0.00 0.00 0.00 0.00 0.00 0.01 0.01 0.02 0.06 0.05 0.01 0.00 0.01 0.03 0.02 0.06 0.05 0.06 0.16 0.63 0.58 0.75 1.02 1.01 0.86 0.96 0.95 0.47
0.10 0.21 0.12 0.01 0.02 0.00 0.00 0.00 0.00 0.00 0.00 0.00 0.00 0.00 0.00 0.00 0.00 0.00 0.00 0.00 0.00 0.00 0.01 0.01 0.02 0.04 0.04 0.02 0.01 0.00 0.00 0.01 0.01 0.01 0.03 0.19 0.62 0.32 0.35 0.49 1.04 1.19 1.12 1.09 1.07
0.06 0.15 0.13 0.04 0.00 0.00 0.00 0.00 0.00 0.00 0.00 0.00 0.00 0.00 0.00 0.00 0.00 0.00 0.00 0.00 0.00 0.00 0.00 0.00 0.00 0.03 0.13 0.18 0.04 0.03 0.00 0.00 0.00 0.01 0.06 0.30 0.22 0.08 0.10 0.22 0.53 0.90 1.12 1.41 1.47
0.03 0.01 0.01 0.01 0.00 0.00 0.00 0.00 0.00 0.00 0.00 0.00 0.00 0.00 0.00 0.00 0.00 0.00 0.00 0.00 0.00 0.00 0.00 0.00 0.01 0.00 0.01 0.01 0.00 0.00 0.00 0.00 0.00 0.00 0.05 0.09 0.03 0.04 0.04 0.15 0.29 0.67 1.03 1.09 1.20
0.01 0.00 0.00 0.00 0.00 0.00 0.00 0.00 0.00 0.00 0.00 0.00 0.00 0.00 0.00 0.00 0.00 0.00 0.00 0.00 0.00 0.00 0.00 0.00 0.00 0.00 0.00 0.00 0.00 0.00 0.00 0.00 0.01 0.02 0.01 0.00 0.00 0.00 0.01 0.05 0.11 0.27 0.49 0.79 1.11
0.00 0.00 0.00 0.00 0.00 0.00 0.00 0.00 0.00 0.00 0.00 0.00 0.00 0.00 0.00 0.00 0.00 0.00 0.00 0.00 0.00 0.00 0.00 0.00 0.00 0.00 0.00 0.00 0.00 0.00 0.00 0.00 0.01 0.01 0.00 0.00 0.00 0.00 0.00 0.00 0.01 0.07 0.18 0.30 0.34

GFSSW_prec_precacc12_129.txt.gz
Total_Precipitation_Accumulation
0.03 0.05 0.06 0.06 0.07 0.08 0.11 0.04 0.00 0.00 0.00 0.01 0.00 0.00 0.00 0.00 0.00 0.00 0.00 0.00 0.00 0.00 0.00 0.00 0.00 0.00 0.00 0.00 0.00 0.00 0.00 0.00 0.00 0.00 0.00 0.00 0.00 0.00 0.00 0.00 0.00 0.00 0.00 0.00 0.00
0.05 0.07 0.08 0.11 0.13 0.20 0.25 0.22 0.03 0.00 0.01 0.00 0.00 0.00 0.00 0.00 0.00 0.00 0.00 0.00 0.00 0.00 0.00 0.00 0.00 0.00 0.00 0.00 0.00 0.00 0.00 0.00 0.00 0.00 0.00 0.00 0.00 0.00 0.00 0.00 0.00 0.00 0.00 0.00 0.00
0.06 0.08 0.06 0.08 0.08 0.11 0.14 0.19 0.15 0.02 0.01 0.00 0.00 0.00 0.00 0.00 0.00 0.00 0.00 0.00 0.01 0.01 0.01 0.00 0.00 0.00 0.00 0.00 0.00 0.00 0.00 0.00 0.00 0.00 0.00 0.00 0.00 0.00 0.00 0.00 0.00 0.00 0.00 0.00 0.00
0.04 0.05 0.08 0.09 0.09 0.10 0.10 0.11 0.13 0.05 0.02 0.00 0.00 0.00 0.00 0.00 0.00 0.00 0.00 0.00 0.00 0.00 0.01 0.00 0.00 0.00 0.00 0.00 0.00 0.00 0.00 0.00 0.00 0.00 0.00 0.00 0.00 0.00 0.00 0.00 0.00 0.00 0.00 0.00 0.00
0.03 0.03 0.06 0.08 0.05 0.07 0.12 0.15 0.16 0.06 0.02 0.01 0.00 0.00 0.00 0.00 0.00 0.00 0.00 0.00 0.00 0.00 0.00 0.00 0.00 0.00 0.00 0.00 0.00 0.00 0.00 0.00 0.00 0.00 0.00 0.00 0.00 0.00 0.00 0.00 0.00 0.00 0.00 0.00 0.00
0.02 0.03 0.03 0.03 0.03 0.04 0.06 0.07 0.09 0.12 0.08 0.01 0.00 0.00 0.00 0.00 0.00 0.00 0.00 0.00 0.00 0.00 0.00 0.00 0.00 0.00 0.00 0.00 0.00 0.00 0.00 0.00 0.00 0.00 0.00 0.00 0.00 0.00 0.00 0.00 0.00 0.00 0.00 0.00 0.00
0.02 0.03 0.05 0.11 0.20 0.30 0.21 0.13 0.05 0.03 0.09 0.03 0.00 0.00 0.00 0.00 0.00 0.00 0.00 0.00 0.00 0.00 0.00 0.00 0.00 0.00 0.00 0.00 0.00 0.00 0.00 0.00 0.00 0.00 0.00 0.00 0.00 0.00 0.00 0.00 0.00 0.00 0.00 0.00 0.00
0.03 0.05 0.05 0.07 0.16 0.35 0.42 0.48 0.21 0.07 0.12 0.08 0.02 0.00 0.00 0.00 0.00 0.00 0.00 0.00 0.00 0.00 0.00 0.00 0.00 0.00 0.00 0.00 0.00 0.00 0.00 0.00 0.00 0.00 0.00 0.00 0.00 0.00 0.00 0.00 0.00 0.00 0.00 0.00 0.00
0.04 0.04 0.04 0.07 0.14 0.20 0.29 0.27 0.22 0.21 0.28 0.13 0.02 0.01 0.00 0.00 0.00 0.00 0.00 0.00 0.00 0.00 0.00 0.00 0.00 0.00 0.00 0.01 0.01 0.00 0.01 0.00 0.00 0.00 0.00 0.00 0.01 0.00 0.00 0.00 0.00 0.00 0.00 0.00 0.00
0.03 0.03 0.04 0.09 0.17 0.25 0.25 0.22 0.33 0.21 0.11 0.02 0.01 0.01 0.00 0.00 0.00 0.00 0.00 0.00 0.00 0.00 0.00 0.00 0.00 0.00 0.00 0.02 0.02 0.00 0.00 0.00 0.00 0.00 0.00 0.02 0.01 0.00 0.00 0.00 0.00 0.00 0.00 0.00 0.00
0.04 0.05 0.03 0.05 0.14 0.20 0.31 0.31 0.17 0.09 0.06 0.05 0.01 0.00 0.00 0.00 0.00 0.00 0.00 0.00 0.00 0.00 0.00 0.01 0.02 0.01 0.00 0.00 0.00 0.00 0.00 0.00 0.00 0.00 0.00 0.00 0.00 0.00 0.00 0.00 0.00 0.00 0.00 0.00 0.00
0.08 0.05 0.01 0.09 0.19 0.19 0.23 0.11 0.07 0.00 0.01 0.03 0.01 0.00 0.00 0.00 0.00 0.00 0.00 0.00 0.00 0.00 0.00 0.01 0.01 0.00 0.00 0.00 0.00 0.00 0.00 0.00 0.00 0.00 0.00 0.00 0.00 0.00 0.00 0.00 0.02 0.03 0.01 0.00 0.00
0.09 0.33 0.70 0.20 0.21 0.26 0.18 0.19 0.05 0.00 0.00 0.01 0.00 0.00 0.00 0.00 0.00 0.00 0.00 0.00 0.00 0.00 0.00 0.00 0.00 0.00 0.00 0.00 0.00 0.00 0.00 0.00 0.00 0.00 0.01 0.01 0.01 0.00 0.00 0.00 0.04 0.10 0.04 0.01 0.01
0.10 0.48 1.56 0.42 0.26 0.20 0.22 0.26 0.11 0.01 0.01 0.00 0.00 0.00 0.00 0.00 0.00 0.00 0.00 0.00 0.00 0.00 0.00 0.00 0.00 0.00 0.00 0.00 0.01 0.02 0.00 0.01 0.03 0.16 0.08 0.03 0.11 0.01 0.00 0.00 0.00 0.03 0.03 0.03 0.05
0.08 0.22 0.63 0.52 0.23 0.32 0.21 0.15 0.07 0.05 0.09 0.02 0.00 0.00 0.00 0.00 0.00 0.00 0.00 0.00 0.00 0.00 0.00 0.00 0.00 0.00 0.00 0.00 0.03 0.04 0.01 0.05 0.11 0.19 0.19 0.04 0.26 0.07 0.01 0.01 0.00 0.00 0.00 0.01 0.01
0.07 0.07 0.31 0.44 0.12 0.18 0.12 0.06 0.03 0.11 0.18 0.11 0.02 0.01 0.00 0.00 0.00 0.00 0.00 0.00 0.00 0.00 0.00 0.00 0.00 0.00 0.00 0.00 0.01 0.01 0.03 0.09 0.12 0.17 0.17 0.06 0.21 0.27 0.14 0.08 0.05 0.03 0.04 0.07 0.06
0.07 0.12 0.29 0.24 0.13 0.02 0.01 0.01 0.04 0.15 0.10 0.02 0.00 0.00 0.00 0.00 0.00 0.00 0.00 0.00 0.00 0.00 0.00 0.00 0.00 0.00 0.00 0.01 0.00 0.01 0.22 0.29 0.27 0.09 0.12 0.44 0.48 0.33 0.37 0.38 0.40 0.15 0.09 0.08 0.07
0.09 0.14 0.31 0.17 0.02 0.00 0.00 0.00 0.05 0.04 0.00 0.00 0.00 0.00 0.00 0.00 0.00 0.00 0.00 0.00 0.00 0.00 0.00 0.00 0.02 0.01 0.01 0.01 0.01 0.03 0.31 0.38 0.24 0.22 0.14 0.27 0.37 0.52 0.59 0.51 0.48 0.21 0.16 0.04 0.04
0.03 0.04 0.10 0.10 0.01 0.00 0.00 0.01 0.02 0.00 0.00 0.00 0.00 0.00 0.00 0.00 0.00 0.00 0.00 0.00 0.00 0.00 0.02 0.03 0.01 0.00 0.00 0.01 0.04 0.05 0.20 0.28 0.28 0.15 0.18 0.23 0.24 0.46 0.74 0.85 0.63 0.35 0.15 0.06 0.01
0.10 0.09 0.12 0.07 0.02 0.00 0.00 0.01 0.00 0.00 0.00 0.00 0.00 0.00 0.00 0.00 0.00 0.00 0.00 0.00 0.00 0.00 0.00 0.02 0.05 0.01 0.01 0.04 0.06 0.11 0.12 0.14 0.26 0.29 0.27 0.17 0.31 0.84 0.80 0.92 0.81 0.38 0.17 0.06 0.01
0.09 0.14 0.10 0.01 0.00 0.00 0.00 0.00 0.00 0.00 0.00 0.00 0.00 0.00 0.00 0.00 0.00 0.00 0.00 0.00 0.00 0.00 0.00 0.01 0.09 0.05 0.05 0.08 0.08 0.06 0.09 0.05 0.06 0.06 0.17 0.17 0.59 1.17 1.13 1.10 0.88 0.52 0.26 0.22 0.16
0.08 0.13 0.08 0.00 0.00 0.00 0.00 0.00 0.00 0.00 0.00 0.00 0.00 0.00 0.00 0.00 0.00 0.00 0.00 0.00 0.00 0.00 0.01 0.01 0.03 0.05 0.04 0.00 0.00 0.01 0.04 0.02 0.05 0.05 0.06 0.16 0.57 0.63 0.93 1.24 1.19 0.84 0.82 0.73 0.31
0.04 0.11 0.05 0.00 0.01 0.00 0.00 0.00 0.00 0.00 0.00 0.00 0.00 0.00 0.00 0.00 0.00 0.00 0.00 0.00 0.00 0.00 0.00 0.00 0.02 0.03 0.01 0.02 0.01 0.00 0.00 0.01 0.01 0.01 0.03 0.20 0.61 0.40 0.48 0.69 1.30 1.27 1.11 0.87 0.85
0.01 0.07 0.07 0.01 0.00 0.00 0.00 0.00 0.00 0.00 0.00 0.00 0.00 0.00 0.00 0.00 0.00 0.00 0.00 0.00 0.00 0.00 0.00 0.00 0.01 0.02 0.12 0.19 0.04 0.03 0.00 0.00 0.00 0.02 0.07 0.36 0.28 0.16 0.20 0.43 0.95 1.18 1.28 1.41 1.35
0.00 0.01 0.01 0.01 0.00 0.00 0.00 0.00 0.00 0.00 0.00 0.00 0.00 0.00 0.00 0.00 0.00 0.00 0.00 0.00 0.00 0.00 0.00 0.00 0.01 0.00 0.01 0.01 0.00 0.00 0.00 0.00 0.00 0.00 0.07 0.14 0.09 0.10 0.18 0.43 0.74 1.16 1.39 1.39 1.62
0.00 0.00 0.00 0.00 0.00 0.00 0.00 0.00 0.00 0.00 0.00 0.00 0.00 0.00 0.00 0.00 0.00 0.00 0.00 0.00 0.00 0.00 0.00 0.00 0.00 0.00 0.00 0.00 0.00 0.00 0.00 0.00 0.01 0.02 0.01 0.01 0.01 0.02 0.10 0.25 0.47 0.83 1.01 1.37 1.73
0.00 0.00 0.00 0.00 0.00 0.00 0.00 0.00 0.00 0.00 0.00 0.00 0.00 0.00 0.00 0.00 0.00 0.00 0.00 0.00 0.00 0.00 0.00 0.00 0.00 0.00 0.00 0.00 0.00 0.00 0.00 0.00 0.01 0.01 0.00 0.00 0.00 0.00 0.03 0.13 0.23 0.41 0.58 0.67 0.70

GFSSW_prec_precacc12_132.txt.gz
Total_Precipitation_Accumulation
0.03 0.03 0.05 0.06 0.07 0.08 0.12 0.13 0.14 0.01 0.00 0.00 0.01 0.01 0.00 0.00 0.00 0.00 0.00 0.00 0.00 0.00 0.00 0.00 0.00 0.00 0.00 0.00 0.00 0.00 0.00 0.00 0.00 0.00 0.00 0.00 0.00 0.00 0.00 0.00 0.00 0.00 0.00 0.00 0.00
0.04 0.06 0.07 0.09 0.13 0.20 0.25 0.26 0.17 0.04 0.00 0.00 0.00 0.00 0.00 0.00 0.00 0.00 0.00 0.00 0.00 0.00 0.00 0.00 0.00 0.00 0.00 0.00 0.00 0.00 0.00 0.00 0.00 0.00 0.00 0.00 0.00 0.00 0.00 0.00 0.00 0.00 0.00 0.00 0.00
0.05 0.05 0.04 0.05 0.06 0.10 0.13 0.19 0.24 0.13 0.03 0.00 0.00 0.00 0.00 0.00 0.00 0.00 0.00 0.00 0.00 0.00 0.00 0.00 0.00 0.00 0.00 0.00 0.00 0.00 0.00 0.00 0.00 0.00 0.00 0.00 0.00 0.00 0.00 0.00 0.00 0.00 0.00 0.00 0.00
0.05 0.03 0.04 0.05 0.08 0.09 0.10 0.11 0.15 0.16 0.09 0.02 0.00 0.00 0.00 0.00 0.00 0.00 0.00 0.00 0.00 0.00 0.00 0.00 0.00 0.00 0.00 0.00 0.00 0.00 0.00 0.00 0.00 0.00 0.00 0.00 0.00 0.00 0.00 0.00 0.00 0.00 0.00 0.00 0.00
0.05 0.03 0.04 0.03 0.04 0.05 0.10 0.15 0.16 0.13 0.09 0.05 0.01 0.00 0.00 0.00 0.00 0.00 0.00 0.00 0.00 0.00 0.00 0.00 0.00 0.00 0.00 0.00 0.00 0.00 0.00 0.00 0.00 0.00 0.00 0.00 0.00 0.00 0.00 0.00 0.00 0.00 0.00 0.00 0.00
0.02 0.03 0.03 0.01 0.02 0.03 0.05 0.07 0.10 0.15 0.10 0.04 0.01 0.00 0.00 0.00 0.00 0.00 0.00 0.00 0.00 0.00 0.00 0.00 0.00 0.00 0.00 0.00 0.00 0.00 0.00 0.00 0.00 0.00 0.00 0.00 0.00 0.00 0.00 0.00 0.00 0.00 0.00 0.00 0.00
0.02 0.05 0.06 0.03 0.11 0.24 0.18 0.15 0.07 0.08 0.16 0.15 0.01 0.00 0.00 0.00 0.00 0.00 0.00 0.00 0.00 0.00 0.00 0.00 0.00 0.00 0.00 0.00 0.00 0.00 0.00 0.00 0.00 0.00 0.00 0.00 0.00 0.00 0.00 0.00 0.00 0.00 0.00 0.00 0.00
0.04 0.08 0.06 0.02 0.04 0.20 0.37 0.60 0.35 0.14 0.24 0.19 0.03 0.00 0.00 0.00 0.00 0.00 0.00 0.00 0.00 0.00 0.00 0.00 0.00 0.00 0.00 0.00 0.00 0.00 0.00 0.00 0.00 0.00 0.00 0.00 0.00 0.00 0.00 0.00 0.00 0.00 0.00 0.00 0.00
0.06 0.05 0.04 0.03 0.06 0.12 0.24 0.37 0.32 0.30 0.43 0.18 0.02 0.01 0.00 0.00 0.00 0.00 0.00 0.00 0.00 0.00 0.00 0.00 0.00 0.00 0.00 0.00 0.00 0.00 0.00 0.00 0.00 0.00 0.00 0.00 0.00 0.00 0.00 0.00 0.00 0.00 0.00 0.00 0.00
0.05 0.03 0.04 0.05 0.10 0.21 0.25 0.26 0.45 0.37 0.40 0.03 0.01 0.01 0.00 0.00 0.00 0.00 0.00 0.00 0.00 0.00 0.00 0.00 0.00 0.00 0.00 0.00 0.00 0.00 0.00 0.00 0.00 0.00 0.00 0.00 0.00 0.00 0.00 0.00 0.00 0.00 0.00 0.00 0.00
0.07 0.07 0.04 0.04 0.09 0.22 0.30 0.29 0.35 0.20 0.16 0.09 0.02 0.00 0.00 0.00 0.00 0.00 0.00 0.00 0.00 0.00 0.00 0.00 0.00 0.00 0.00 0.00 0.00 0.00 0.00 0.00 0.00 0.00 0.00 0.00 0.00 0.00 0.00 0.00 0.00 0.00 0.00 0.00 0.00
0.09 0.06 0.01 0.04 0.12 0.19 0.26 0.12 0.14 0.10 0.06 0.04 0.01 0.00 0.00 0.00 0.00 0.00 0.00 0.00 0.00 0.00 0.00 0.00 0.00 0.00 0.00 0.00 0.00 0.00 0.00 0.00 0.00 0.00 0.00 0.00 0.00 0.00 0.00 0.00 0.00 0.00 0.00 0.00 0.00
0.10 0.08 0.65 0.20 0.16 0.16 0.14 0.24 0.05 0.00 0.03 0.03 0.00 0.00 0.00 0.00 0.00 0.00 0.00 0.00 0.00 0.00 0.00 0.00 0.00 0.00 0.00 0.00 0.00 0.00 0.00 0.00 0.00 0.00 0.00 0.00 0.00 0.00 0.00 0.00 0.00 0.00 0.01 0.00 0.01
0.09 0.17 1.37 0.41 0.15 0.11 0.16 0.30 0.11 0.01 0.02 0.02 0.00 0.00 0.00 0.00 0.00 0.00 0.00 0.00 0.00 0.00 0.00 0.00 0.00 0.00 0.00 0.00 0.00 0.00 0.00 0.00 0.01 0.09 0.04 0.01 0.04 0.00 0.00 0.00 0.00 0.00 0.01 0.02 0.03
0.08 0.15 0.32 0.32 0.16 0.27 0.20 0.20 0.07 0.05 0.10 0.03 0.00 0.00 0.00 0.00 0.00 0.00 0.00 0.00 0.00 0.00 0.00 0.00 0.00 0.00 0.00 0.00 0.00 0.00 0.00 0.01 0.06 0.14 0.15 0.01 0.08 0.00 0.00 0.00 0.00 0.00 0.00 0.01 0.01
0.08 0.06 0.11 0.32 0.10 0.18 0.12 0.06 0.03 0.13 0.19 0.13 0.03 0.02 0.00 0.00 0.00 0.00 0.00 0.00 0.00 0.00 0.00 0.00 0.00 0.00 0.00 0.00 0.00 0.00 0.01 0.01 0.07 0.15 0.10 0.01 0.09 0.04 0.03 0.02 0.02 0.01 0.01 0.02 0.04
0.07 0.05 0.12 0.21 0.13 0.02 0.01 0.01 0.06 0.18 0.15 0.06 0.04 0.01 0.00 0.00 0.00 0.00 0.00 0.00 0.00 0.00 0.00 0.00 0.00 0.00 0.00 0.00 0.00 0.02 0.14 0.06 0.04 0.03 0.03 0.12 0.24 0.10 0.18 0.12 0.07 0.07 0.08 0.08 0.06
0.07 0.10 0.11 0.12 0.02 0.00 0.00 0.01 0.05 0.07 0.01 0.01 0.00 0.00 0.00 0.00 0.00 0.00 0.00 0.00 0.00 0.00 0.00 0.00 0.00 0.00 0.00 0.01 0.01 0.04 0.19 0.15 0.08 0.13 0.11 0.18 0.24 0.24 0.34 0.33 0.34 0.17 0.14 0.03 0.04
0.01 0.02 0.06 0.09 0.01 0.00 0.00 0.01 0.02 0.00 0.00 0.00 0.00 0.00 0.00 0.00 0.00 0.00 0.00 0.00 0.00 0.00 0.02 0.02 0.01 0.00 0.00 0.02 0.11 0.06 0.17 0.15 0.15 0.11 0.15 0.10 0.08 0.19 0.34 0.39 0.44 0.23 0.12 0.06 0.01
0.01 0.02 0.10 0.05 0.01 0.00 0.00 0.00 0.00 0.00 0.00 0.00 0.00 0.00 0.00 0.00 0.00 0.00 0.00 0.00 0.00 0.00 0.01 0.02 0.05 0.03 0.02 0.06 0.10 0.14 0.14 0.13 0.20 0.16 0.12 0.03 0.17 0.49 0.49 0.65 0.60 0.29 0.15 0.06 0.00
0.00 0.05 0.06 0.01 0.00 0.00 0.00 0.00 0.00 0.00 0.00 0.00 0.00 0.00 0.00 0.00 0.00 0.00 0.00 0.00 0.00 0.00 0.00 0.03 0.10 0.06 0.05 0.09 0.09 0.07 0.09 0.04 0.04 0.05 0.10 0.11 0.36 0.78 0.91 0.96 0.76 0.46 0.26 0.19 0.08
0.02 0.07 0.05 0.00 0.00 0.00 0.00 0.00 0.00 0.00 0.00 0.00 0.00 0.00 0.00 0.00 0.00 0.00 0.00 0.00 0.00 0.00 0.01 0.02 0.06 0.05 0.04 0.01 0.00 0.00 0.03 0.03 0.02 0.02 0.04 0.14 0.36 0.50 0.80 1.10 1.04 0.74 0.74 0.61 0.19
0.01 0.05 0.01 0.00 0.00 0.00 0.00 0.00 0.00 0.00 0.00 0.00 0.00 0.00 0.00 0.00 0.00 0.00 0.00 0.00 0.00 0.00 0.00 0.00 0.01 0.00 0.00 0.01 0.00 0.00 0.00 0.01 0.01 0.01 0.03 0.19 0.48 0.38 0.47 0.71 1.30 1.20 0.94 0.58 0.50
0.00 0.02 0.01 0.00 0.00 0.00 0.00 0.00 0.00 0.00 0.00 0.00 0.00 0.00 0.00 0.00 0.00 0.00 0.00 0.00 0.00 0.00 0.00 0.00 0.00 0.02 0.09 0.13 0.02 0.02 0.00 0.00 0.00 0.02 0.06 0.37 0.30 0.16 0.22 0.56 1.17 1.28 1.22 1.08 1.06
0.00 0.00 0.00 0.00 0.00 0.00 0.00 0.00 0.00 0.00 0.00 0.00 0.00 0.00 0.00 0.00 0.00 0.00 0.00 0.00 0.00 0.00 0.00 0.00 0.01 0.00 0.01 0.01 0.00 0.00 0.00 0.00 0.00 0.00 0.06 0.13 0.11 0.11 0.23 0.63 1.06 1.38 1.56 1.49 1.72
0.00 0.00 0.00 0.00 0.00 0.00 0.00 0.00 0.00 0.00 0.00 0.00 0.00 0.00 0.00 0.00 0.00 0.00 0.00 0.00 0.00 0.00 0.00 0.00 0.00 0.00 0.00 0.00 0.00 0.00 0.00 0.00 0.00 0.00 0.00 0.00 0.01 0.02 0.14 0.35 0.72 1.16 1.36 1.80 2.22
0.00 0.00 0.00 0.00 0.00 0.00 0.00 0.00 0.00 0.00 0.00 0.00 0.00 0.00 0.00 0.00 0.00 0.00 0.00 0.00 0.00 0.00 0.00 0.00 0.00 0.00 0.00 0.00 0.00 0.00 0.00 0.00 0.00 0.00 0.00 0.00 0.00 0.01 0.05 0.20 0.39 0.71 0.90 0.98 0.98